<?xml version="1.0" encoding="UTF-8" standalone="no" ?>
<gpx xmlns="http://www.topografix.com/GPX/1/1" xmlns:xsi="http://www.w3.org/2001/XMLSchema-instance" xsi:schemaLocation="http://www.topografix.com/GPX/1/1 http://www.topografix.com/GPX/1/1/gpx.xsd" version="1.1" creator="VisuGPX - https://www.visugpx.com">
  <metadata>
    <name>Pornichet 02/10/2022</name>
    <desc><![CDATA[Sortie dimanche 02 octobre 2022]]></desc>
  </metadata>
  <trk>
    <name><![CDATA[Pornichet Cyclisme]]></name>
    <trkseg>
      <trkpt lat="47.26409" lon="-2.31557">
        <ele>0.80000001192093</ele>
        <time>2022-10-02T06:50:05.000Z</time>
      </trkpt>
      <trkpt lat="47.26408" lon="-2.31573">
        <ele>0.80000001192093</ele>
        <time>2022-10-02T06:50:09.000Z</time>
      </trkpt>
      <trkpt lat="47.26408" lon="-2.31576">
        <ele>1</ele>
        <time>2022-10-02T06:50:10.000Z</time>
      </trkpt>
      <trkpt lat="47.26408" lon="-2.3158">
        <ele>1.3999999761581</ele>
        <time>2022-10-02T06:50:11.000Z</time>
      </trkpt>
      <trkpt lat="47.26409" lon="-2.31584">
        <ele>1.7999999523163</ele>
        <time>2022-10-02T06:50:12.000Z</time>
      </trkpt>
      <trkpt lat="47.26408" lon="-2.31614">
        <ele>1.7999999523163</ele>
        <time>2022-10-02T06:50:18.000Z</time>
      </trkpt>
      <trkpt lat="47.26409" lon="-2.3165">
        <ele>1.7999999523163</ele>
        <time>2022-10-02T06:50:25.000Z</time>
      </trkpt>
      <trkpt lat="47.26408" lon="-2.3166">
        <ele>1.7999999523163</ele>
        <time>2022-10-02T06:50:28.000Z</time>
      </trkpt>
      <trkpt lat="47.26406" lon="-2.31662">
        <ele>1.7999999523163</ele>
        <time>2022-10-02T06:50:29.000Z</time>
      </trkpt>
      <trkpt lat="47.26394" lon="-2.31666">
        <ele>1.7999999523163</ele>
        <time>2022-10-02T06:50:33.000Z</time>
      </trkpt>
      <trkpt lat="47.26378" lon="-2.31677">
        <ele>1.2000000476837</ele>
        <time>2022-10-02T06:50:37.000Z</time>
      </trkpt>
      <trkpt lat="47.26374" lon="-2.3168">
        <ele>0.60000002384186</ele>
        <time>2022-10-02T06:50:38.000Z</time>
      </trkpt>
      <trkpt lat="47.2637" lon="-2.31682">
        <ele>-0.20000000298023</ele>
        <time>2022-10-02T06:50:39.000Z</time>
      </trkpt>
      <trkpt lat="47.26366" lon="-2.31685">
        <ele>-0.80000001192093</ele>
        <time>2022-10-02T06:50:40.000Z</time>
      </trkpt>
      <trkpt lat="47.26362" lon="-2.31687">
        <ele>-1.3999999761581</ele>
        <time>2022-10-02T06:50:41.000Z</time>
      </trkpt>
      <trkpt lat="47.26353" lon="-2.31692">
        <ele>-1.3999999761581</ele>
        <time>2022-10-02T06:50:43.000Z</time>
      </trkpt>
      <trkpt lat="47.26338" lon="-2.317">
        <ele>-1.3999999761581</ele>
        <time>2022-10-02T06:50:46.000Z</time>
      </trkpt>
      <trkpt lat="47.26329" lon="-2.31703">
        <ele>-1.3999999761581</ele>
        <time>2022-10-02T06:50:48.000Z</time>
      </trkpt>
      <trkpt lat="47.26321" lon="-2.31709">
        <ele>-1.3999999761581</ele>
        <time>2022-10-02T06:50:50.000Z</time>
      </trkpt>
      <trkpt lat="47.26316" lon="-2.31711">
        <ele>-1.7999999523163</ele>
        <time>2022-10-02T06:50:51.000Z</time>
      </trkpt>
      <trkpt lat="47.26312" lon="-2.31714">
        <ele>-2.4000000953674</ele>
        <time>2022-10-02T06:50:52.000Z</time>
      </trkpt>
      <trkpt lat="47.26308" lon="-2.31717">
        <ele>-2.7999999523163</ele>
        <time>2022-10-02T06:50:53.000Z</time>
      </trkpt>
      <trkpt lat="47.26305" lon="-2.31722">
        <ele>-3.2000000476837</ele>
        <time>2022-10-02T06:50:54.000Z</time>
      </trkpt>
      <trkpt lat="47.26303" lon="-2.31726">
        <ele>-3.5999999046326</ele>
        <time>2022-10-02T06:50:55.000Z</time>
      </trkpt>
      <trkpt lat="47.26303" lon="-2.31731">
        <ele>-3.5999999046326</ele>
        <time>2022-10-02T06:50:56.000Z</time>
      </trkpt>
      <trkpt lat="47.26304" lon="-2.31736">
        <ele>-3.5999999046326</ele>
        <time>2022-10-02T06:50:57.000Z</time>
      </trkpt>
      <trkpt lat="47.26306" lon="-2.31764">
        <ele>-3.5999999046326</ele>
        <time>2022-10-02T06:51:02.000Z</time>
      </trkpt>
      <trkpt lat="47.26307" lon="-2.3179">
        <ele>-3.5999999046326</ele>
        <time>2022-10-02T06:51:07.000Z</time>
      </trkpt>
      <trkpt lat="47.26306" lon="-2.31819">
        <ele>-3.5999999046326</ele>
        <time>2022-10-02T06:51:12.000Z</time>
      </trkpt>
      <trkpt lat="47.26304" lon="-2.31852">
        <ele>-3.5999999046326</ele>
        <time>2022-10-02T06:51:18.000Z</time>
      </trkpt>
      <trkpt lat="47.26303" lon="-2.31878">
        <ele>-3.5999999046326</ele>
        <time>2022-10-02T06:51:23.000Z</time>
      </trkpt>
      <trkpt lat="47.26301" lon="-2.31883">
        <ele>-3.5999999046326</ele>
        <time>2022-10-02T06:51:24.000Z</time>
      </trkpt>
      <trkpt lat="47.26294" lon="-2.31891">
        <ele>-3.5999999046326</ele>
        <time>2022-10-02T06:51:26.000Z</time>
      </trkpt>
      <trkpt lat="47.26291" lon="-2.31894">
        <ele>-4</ele>
        <time>2022-10-02T06:51:27.000Z</time>
      </trkpt>
      <trkpt lat="47.26288" lon="-2.31896">
        <ele>-4.4000000953674</ele>
        <time>2022-10-02T06:51:28.000Z</time>
      </trkpt>
      <trkpt lat="47.26285" lon="-2.31899">
        <ele>-4.8000001907349</ele>
        <time>2022-10-02T06:51:29.000Z</time>
      </trkpt>
      <trkpt lat="47.26282" lon="-2.31902">
        <ele>-5.1999998092651</ele>
        <time>2022-10-02T06:51:30.000Z</time>
      </trkpt>
      <trkpt lat="47.2628" lon="-2.31905">
        <ele>-5.5999999046326</ele>
        <time>2022-10-02T06:51:31.000Z</time>
      </trkpt>
      <trkpt lat="47.26265" lon="-2.3193">
        <ele>-5.5999999046326</ele>
        <time>2022-10-02T06:51:38.000Z</time>
      </trkpt>
      <trkpt lat="47.26253" lon="-2.31952">
        <ele>-5.5999999046326</ele>
        <time>2022-10-02T06:51:44.000Z</time>
      </trkpt>
      <trkpt lat="47.2624" lon="-2.31964">
        <ele>-5.5999999046326</ele>
        <time>2022-10-02T06:51:48.000Z</time>
      </trkpt>
      <trkpt lat="47.26224" lon="-2.31983">
        <ele>-5.5999999046326</ele>
        <time>2022-10-02T06:51:54.000Z</time>
      </trkpt>
      <trkpt lat="47.26204" lon="-2.32">
        <ele>-5.5999999046326</ele>
        <time>2022-10-02T06:52:01.000Z</time>
      </trkpt>
      <trkpt lat="47.26203" lon="-2.32002">
        <ele>-5.5999999046326</ele>
        <time>2022-10-02T06:52:02.000Z</time>
      </trkpt>
      <trkpt lat="47.26202" lon="-2.32008">
        <ele>-5.5999999046326</ele>
        <time>2022-10-02T06:52:04.000Z</time>
      </trkpt>
      <trkpt lat="47.26203" lon="-2.32011">
        <ele>-5.5999999046326</ele>
        <time>2022-10-02T06:52:05.000Z</time>
      </trkpt>
      <trkpt lat="47.26201" lon="-2.32015">
        <ele>-5.5999999046326</ele>
        <time>2022-10-02T06:52:07.000Z</time>
      </trkpt>
      <trkpt lat="47.26193" lon="-2.32017">
        <ele>-5.5999999046326</ele>
        <time>2022-10-02T06:52:12.000Z</time>
      </trkpt>
      <trkpt lat="47.26179" lon="-2.32019">
        <ele>-5.5999999046326</ele>
        <time>2022-10-02T06:52:17.000Z</time>
      </trkpt>
      <trkpt lat="47.2616" lon="-2.32037">
        <ele>-5.5999999046326</ele>
        <time>2022-10-02T06:52:23.000Z</time>
      </trkpt>
      <trkpt lat="47.26149" lon="-2.32068">
        <ele>-5.5999999046326</ele>
        <time>2022-10-02T06:52:30.000Z</time>
      </trkpt>
      <trkpt lat="47.26139" lon="-2.32099">
        <ele>-5.5999999046326</ele>
        <time>2022-10-02T06:52:38.000Z</time>
      </trkpt>
      <trkpt lat="47.26137" lon="-2.32106">
        <ele>-5.5999999046326</ele>
        <time>2022-10-02T06:52:40.000Z</time>
      </trkpt>
      <trkpt lat="47.26133" lon="-2.32117">
        <ele>-5.5999999046326</ele>
        <time>2022-10-02T06:52:43.000Z</time>
      </trkpt>
      <trkpt lat="47.26127" lon="-2.32141">
        <ele>-5.5999999046326</ele>
        <time>2022-10-02T06:52:49.000Z</time>
      </trkpt>
      <trkpt lat="47.26118" lon="-2.32169">
        <ele>-5.5999999046326</ele>
        <time>2022-10-02T06:52:55.000Z</time>
      </trkpt>
      <trkpt lat="47.26103" lon="-2.32202">
        <ele>-5.5999999046326</ele>
        <time>2022-10-02T06:53:02.000Z</time>
      </trkpt>
      <trkpt lat="47.26086" lon="-2.32229">
        <ele>-5.5999999046326</ele>
        <time>2022-10-02T06:53:08.000Z</time>
      </trkpt>
      <trkpt lat="47.26065" lon="-2.32254">
        <ele>-5.5999999046326</ele>
        <time>2022-10-02T06:53:15.000Z</time>
      </trkpt>
      <trkpt lat="47.26044" lon="-2.32276">
        <ele>-5.5999999046326</ele>
        <time>2022-10-02T06:53:21.000Z</time>
      </trkpt>
      <trkpt lat="47.26028" lon="-2.32295">
        <ele>-5.5999999046326</ele>
        <time>2022-10-02T06:53:26.000Z</time>
      </trkpt>
      <trkpt lat="47.26009" lon="-2.32318">
        <ele>-5.5999999046326</ele>
        <time>2022-10-02T06:53:32.000Z</time>
      </trkpt>
      <trkpt lat="47.26003" lon="-2.32326">
        <ele>-5.5999999046326</ele>
        <time>2022-10-02T06:53:34.000Z</time>
      </trkpt>
      <trkpt lat="47.25987" lon="-2.32347">
        <ele>-5.5999999046326</ele>
        <time>2022-10-02T06:53:39.000Z</time>
      </trkpt>
      <trkpt lat="47.25961" lon="-2.32381">
        <ele>-5.5999999046326</ele>
        <time>2022-10-02T06:53:48.000Z</time>
      </trkpt>
      <trkpt lat="47.25939" lon="-2.32411">
        <ele>-5.5999999046326</ele>
        <time>2022-10-02T06:53:56.000Z</time>
      </trkpt>
      <trkpt lat="47.25922" lon="-2.32433">
        <ele>-5.5999999046326</ele>
        <time>2022-10-02T06:54:02.000Z</time>
      </trkpt>
      <trkpt lat="47.25905" lon="-2.32453">
        <ele>-5.5999999046326</ele>
        <time>2022-10-02T06:54:08.000Z</time>
      </trkpt>
      <trkpt lat="47.25888" lon="-2.32474">
        <ele>-5.5999999046326</ele>
        <time>2022-10-02T06:54:14.000Z</time>
      </trkpt>
      <trkpt lat="47.25885" lon="-2.32477">
        <ele>-5.5999999046326</ele>
        <time>2022-10-02T06:54:15.000Z</time>
      </trkpt>
      <trkpt lat="47.25875" lon="-2.32482">
        <ele>-5.5999999046326</ele>
        <time>2022-10-02T06:54:18.000Z</time>
      </trkpt>
      <trkpt lat="47.25861" lon="-2.32484">
        <ele>-5.5999999046326</ele>
        <time>2022-10-02T06:54:22.000Z</time>
      </trkpt>
      <trkpt lat="47.25857" lon="-2.32484">
        <ele>-5.5999999046326</ele>
        <time>2022-10-02T06:54:23.000Z</time>
      </trkpt>
      <trkpt lat="47.25853" lon="-2.32484">
        <ele>-5.5999999046326</ele>
        <time>2022-10-02T06:54:24.000Z</time>
      </trkpt>
      <trkpt lat="47.25834" lon="-2.32482">
        <ele>-5.5999999046326</ele>
        <time>2022-10-02T06:54:29.000Z</time>
      </trkpt>
      <trkpt lat="47.25818" lon="-2.32478">
        <ele>-5.5999999046326</ele>
        <time>2022-10-02T06:54:34.000Z</time>
      </trkpt>
      <trkpt lat="47.25806" lon="-2.3246">
        <ele>-5.5999999046326</ele>
        <time>2022-10-02T06:54:39.000Z</time>
      </trkpt>
      <trkpt lat="47.25801" lon="-2.32454">
        <ele>-5.5999999046326</ele>
        <time>2022-10-02T06:54:41.000Z</time>
      </trkpt>
      <trkpt lat="47.25794" lon="-2.32456">
        <ele>-5.5999999046326</ele>
        <time>2022-10-02T06:54:43.000Z</time>
      </trkpt>
      <trkpt lat="47.25787" lon="-2.32456">
        <ele>-5.5999999046326</ele>
        <time>2022-10-02T06:54:45.000Z</time>
      </trkpt>
      <trkpt lat="47.25781" lon="-2.32451">
        <ele>-5.5999999046326</ele>
        <time>2022-10-02T06:54:47.000Z</time>
      </trkpt>
      <trkpt lat="47.25774" lon="-2.32438">
        <ele>-5.5999999046326</ele>
        <time>2022-10-02T06:54:50.000Z</time>
      </trkpt>
      <trkpt lat="47.25768" lon="-2.3243">
        <ele>-5.5999999046326</ele>
        <time>2022-10-02T06:54:52.000Z</time>
      </trkpt>
      <trkpt lat="47.25765" lon="-2.32427">
        <ele>-5.5999999046326</ele>
        <time>2022-10-02T06:54:53.000Z</time>
      </trkpt>
      <trkpt lat="47.25756" lon="-2.32425">
        <ele>-5.5999999046326</ele>
        <time>2022-10-02T06:54:55.000Z</time>
      </trkpt>
      <trkpt lat="47.25727" lon="-2.32425">
        <ele>-5.5999999046326</ele>
        <time>2022-10-02T06:55:01.000Z</time>
      </trkpt>
      <trkpt lat="47.25722" lon="-2.32425">
        <ele>-5.5999999046326</ele>
        <time>2022-10-02T06:55:02.000Z</time>
      </trkpt>
      <trkpt lat="47.25691" lon="-2.32426">
        <ele>-5.5999999046326</ele>
        <time>2022-10-02T06:55:09.000Z</time>
      </trkpt>
      <trkpt lat="47.25665" lon="-2.32426">
        <ele>-5.5999999046326</ele>
        <time>2022-10-02T06:55:16.000Z</time>
      </trkpt>
      <trkpt lat="47.25663" lon="-2.32442">
        <ele>-5.5999999046326</ele>
        <time>2022-10-02T06:55:19.000Z</time>
      </trkpt>
      <trkpt lat="47.25666" lon="-2.32459">
        <ele>-5.5999999046326</ele>
        <time>2022-10-02T06:55:22.000Z</time>
      </trkpt>
      <trkpt lat="47.25669" lon="-2.32469">
        <ele>-5.5999999046326</ele>
        <time>2022-10-02T06:55:24.000Z</time>
      </trkpt>
      <trkpt lat="47.25683" lon="-2.32509">
        <ele>-5.1999998092651</ele>
        <time>2022-10-02T06:55:32.000Z</time>
      </trkpt>
      <trkpt lat="47.25685" lon="-2.32513">
        <ele>-4.8000001907349</ele>
        <time>2022-10-02T06:55:33.000Z</time>
      </trkpt>
      <trkpt lat="47.25686" lon="-2.32518">
        <ele>-4.4000000953674</ele>
        <time>2022-10-02T06:55:34.000Z</time>
      </trkpt>
      <trkpt lat="47.25688" lon="-2.32523">
        <ele>-3.7999999523163</ele>
        <time>2022-10-02T06:55:35.000Z</time>
      </trkpt>
      <trkpt lat="47.25689" lon="-2.32527">
        <ele>-3.4000000953674</ele>
        <time>2022-10-02T06:55:36.000Z</time>
      </trkpt>
      <trkpt lat="47.25694" lon="-2.3254">
        <ele>-3.4000000953674</ele>
        <time>2022-10-02T06:55:39.000Z</time>
      </trkpt>
      <trkpt lat="47.25704" lon="-2.32573">
        <ele>-3.4000000953674</ele>
        <time>2022-10-02T06:55:46.000Z</time>
      </trkpt>
      <trkpt lat="47.25712" lon="-2.32607">
        <ele>-3.4000000953674</ele>
        <time>2022-10-02T06:55:53.000Z</time>
      </trkpt>
      <trkpt lat="47.25711" lon="-2.32617">
        <ele>-3</ele>
        <time>2022-10-02T06:55:55.000Z</time>
      </trkpt>
      <trkpt lat="47.25708" lon="-2.32622">
        <ele>-2.5999999046326</ele>
        <time>2022-10-02T06:55:56.000Z</time>
      </trkpt>
      <trkpt lat="47.25705" lon="-2.32624">
        <ele>-1.7999999523163</ele>
        <time>2022-10-02T06:55:57.000Z</time>
      </trkpt>
      <trkpt lat="47.25701" lon="-2.32626">
        <ele>-1.3999999761581</ele>
        <time>2022-10-02T06:55:58.000Z</time>
      </trkpt>
      <trkpt lat="47.25695" lon="-2.32629">
        <ele>-1.3999999761581</ele>
        <time>2022-10-02T06:56:00.000Z</time>
      </trkpt>
      <trkpt lat="47.25684" lon="-2.32635">
        <ele>-1.3999999761581</ele>
        <time>2022-10-02T06:56:03.000Z</time>
      </trkpt>
      <trkpt lat="47.25661" lon="-2.32645">
        <ele>-1.3999999761581</ele>
        <time>2022-10-02T06:56:10.000Z</time>
      </trkpt>
      <trkpt lat="47.2565" lon="-2.32649">
        <ele>-1</ele>
        <time>2022-10-02T06:56:13.000Z</time>
      </trkpt>
      <trkpt lat="47.25647" lon="-2.3265">
        <ele>-0.60000002384186</ele>
        <time>2022-10-02T06:56:14.000Z</time>
      </trkpt>
      <trkpt lat="47.25643" lon="-2.32652">
        <ele>-0.20000000298023</ele>
        <time>2022-10-02T06:56:15.000Z</time>
      </trkpt>
      <trkpt lat="47.2564" lon="-2.32654">
        <ele>0.20000000298023</ele>
        <time>2022-10-02T06:56:16.000Z</time>
      </trkpt>
      <trkpt lat="47.25636" lon="-2.32656">
        <ele>0.60000002384186</ele>
        <time>2022-10-02T06:56:17.000Z</time>
      </trkpt>
      <trkpt lat="47.25633" lon="-2.32657">
        <ele>0.60000002384186</ele>
        <time>2022-10-02T06:56:18.000Z</time>
      </trkpt>
      <trkpt lat="47.25597" lon="-2.32672">
        <ele>0.60000002384186</ele>
        <time>2022-10-02T06:56:28.000Z</time>
      </trkpt>
      <trkpt lat="47.25562" lon="-2.32687">
        <ele>0.60000002384186</ele>
        <time>2022-10-02T06:56:37.000Z</time>
      </trkpt>
      <trkpt lat="47.25531" lon="-2.32699">
        <ele>0.60000002384186</ele>
        <time>2022-10-02T06:56:45.000Z</time>
      </trkpt>
      <trkpt lat="47.25498" lon="-2.32702">
        <ele>0.60000002384186</ele>
        <time>2022-10-02T06:56:53.000Z</time>
      </trkpt>
      <trkpt lat="47.2548" lon="-2.32711">
        <ele>0.60000002384186</ele>
        <time>2022-10-02T06:56:58.000Z</time>
      </trkpt>
      <trkpt lat="47.25466" lon="-2.32729">
        <ele>0.60000002384186</ele>
        <time>2022-10-02T06:57:03.000Z</time>
      </trkpt>
      <trkpt lat="47.25448" lon="-2.32752">
        <ele>0.60000002384186</ele>
        <time>2022-10-02T06:57:09.000Z</time>
      </trkpt>
      <trkpt lat="47.2544" lon="-2.32766">
        <ele>0.60000002384186</ele>
        <time>2022-10-02T06:57:12.000Z</time>
      </trkpt>
      <trkpt lat="47.25435" lon="-2.32782">
        <ele>0.60000002384186</ele>
        <time>2022-10-02T06:57:15.000Z</time>
      </trkpt>
      <trkpt lat="47.25432" lon="-2.32786">
        <ele>0.60000002384186</ele>
        <time>2022-10-02T06:57:16.000Z</time>
      </trkpt>
      <trkpt lat="47.25423" lon="-2.32799">
        <ele>0.60000002384186</ele>
        <time>2022-10-02T06:57:19.000Z</time>
      </trkpt>
      <trkpt lat="47.25402" lon="-2.32828">
        <ele>0.20000000298023</ele>
        <time>2022-10-02T06:57:25.000Z</time>
      </trkpt>
      <trkpt lat="47.25399" lon="-2.32832">
        <ele>-0.20000000298023</ele>
        <time>2022-10-02T06:57:26.000Z</time>
      </trkpt>
      <trkpt lat="47.25395" lon="-2.32837">
        <ele>-0.60000002384186</ele>
        <time>2022-10-02T06:57:27.000Z</time>
      </trkpt>
      <trkpt lat="47.25391" lon="-2.32841">
        <ele>-1</ele>
        <time>2022-10-02T06:57:28.000Z</time>
      </trkpt>
      <trkpt lat="47.25388" lon="-2.32845">
        <ele>-1.3999999761581</ele>
        <time>2022-10-02T06:57:29.000Z</time>
      </trkpt>
      <trkpt lat="47.25377" lon="-2.32858">
        <ele>-1.3999999761581</ele>
        <time>2022-10-02T06:57:32.000Z</time>
      </trkpt>
      <trkpt lat="47.2535" lon="-2.32884">
        <ele>-1.3999999761581</ele>
        <time>2022-10-02T06:57:39.000Z</time>
      </trkpt>
      <trkpt lat="47.25327" lon="-2.32907">
        <ele>-1.3999999761581</ele>
        <time>2022-10-02T06:57:45.000Z</time>
      </trkpt>
      <trkpt lat="47.2532" lon="-2.32914">
        <ele>-1.3999999761581</ele>
        <time>2022-10-02T06:57:47.000Z</time>
      </trkpt>
      <trkpt lat="47.2531" lon="-2.32936">
        <ele>-1.3999999761581</ele>
        <time>2022-10-02T06:57:52.000Z</time>
      </trkpt>
      <trkpt lat="47.2531" lon="-2.32943">
        <ele>-1.3999999761581</ele>
        <time>2022-10-02T06:57:53.000Z</time>
      </trkpt>
      <trkpt lat="47.25316" lon="-2.32961">
        <ele>-1.3999999761581</ele>
        <time>2022-10-02T06:57:56.000Z</time>
      </trkpt>
      <trkpt lat="47.25318" lon="-2.32967">
        <ele>-1.3999999761581</ele>
        <time>2022-10-02T06:57:57.000Z</time>
      </trkpt>
      <trkpt lat="47.2532" lon="-2.32972">
        <ele>-1.3999999761581</ele>
        <time>2022-10-02T06:57:58.000Z</time>
      </trkpt>
      <trkpt lat="47.2533" lon="-2.32995">
        <ele>-1.3999999761581</ele>
        <time>2022-10-02T06:58:02.000Z</time>
      </trkpt>
      <trkpt lat="47.25348" lon="-2.3304">
        <ele>-1.3999999761581</ele>
        <time>2022-10-02T06:58:10.000Z</time>
      </trkpt>
      <trkpt lat="47.2536" lon="-2.33073">
        <ele>-1.3999999761581</ele>
        <time>2022-10-02T06:58:16.000Z</time>
      </trkpt>
      <trkpt lat="47.25374" lon="-2.33108">
        <ele>-1.3999999761581</ele>
        <time>2022-10-02T06:58:24.000Z</time>
      </trkpt>
      <trkpt lat="47.25378" lon="-2.33119">
        <ele>-1.7999999523163</ele>
        <time>2022-10-02T06:58:28.000Z</time>
      </trkpt>
      <trkpt lat="47.25379" lon="-2.33122">
        <ele>-2.2000000476837</ele>
        <time>2022-10-02T06:58:29.000Z</time>
      </trkpt>
      <trkpt lat="47.2538" lon="-2.33124">
        <ele>-2.5999999046326</ele>
        <time>2022-10-02T06:58:30.000Z</time>
      </trkpt>
      <trkpt lat="47.25381" lon="-2.33126">
        <ele>-3</ele>
        <time>2022-10-02T06:58:31.000Z</time>
      </trkpt>
      <trkpt lat="47.25381" lon="-2.33128">
        <ele>-3.4000000953674</ele>
        <time>2022-10-02T06:58:32.000Z</time>
      </trkpt>
      <trkpt lat="47.25381" lon="-2.3313">
        <ele>-3.4000000953674</ele>
        <time>2022-10-02T06:58:33.000Z</time>
      </trkpt>
      <trkpt lat="47.25379" lon="-2.33133">
        <ele>-3.4000000953674</ele>
        <time>2022-10-02T06:58:35.000Z</time>
      </trkpt>
      <trkpt lat="47.25376" lon="-2.33134">
        <ele>-3.4000000953674</ele>
        <time>2022-10-02T06:58:39.000Z</time>
      </trkpt>
      <trkpt lat="47.25376" lon="-2.33129">
        <ele>-5.5999999046326</ele>
        <time>2022-10-02T07:07:45.000Z</time>
      </trkpt>
      <trkpt lat="47.25381" lon="-2.33136">
        <ele>-5.5999999046326</ele>
        <time>2022-10-02T07:07:49.000Z</time>
      </trkpt>
      <trkpt lat="47.25394" lon="-2.33136">
        <ele>-5.5999999046326</ele>
        <time>2022-10-02T07:07:54.000Z</time>
      </trkpt>
      <trkpt lat="47.254" lon="-2.33133">
        <ele>-5.5999999046326</ele>
        <time>2022-10-02T07:07:56.000Z</time>
      </trkpt>
      <trkpt lat="47.25416" lon="-2.33123">
        <ele>-5.5999999046326</ele>
        <time>2022-10-02T07:08:01.000Z</time>
      </trkpt>
      <trkpt lat="47.25441" lon="-2.33113">
        <ele>-5.5999999046326</ele>
        <time>2022-10-02T07:08:08.000Z</time>
      </trkpt>
      <trkpt lat="47.25467" lon="-2.331">
        <ele>-5.5999999046326</ele>
        <time>2022-10-02T07:08:15.000Z</time>
      </trkpt>
      <trkpt lat="47.25491" lon="-2.33081">
        <ele>-5.5999999046326</ele>
        <time>2022-10-02T07:08:22.000Z</time>
      </trkpt>
      <trkpt lat="47.25511" lon="-2.33058">
        <ele>-5.5999999046326</ele>
        <time>2022-10-02T07:08:28.000Z</time>
      </trkpt>
      <trkpt lat="47.25519" lon="-2.33051">
        <ele>-5.5999999046326</ele>
        <time>2022-10-02T07:08:30.000Z</time>
      </trkpt>
      <trkpt lat="47.25532" lon="-2.33042">
        <ele>-5.5999999046326</ele>
        <time>2022-10-02T07:08:33.000Z</time>
      </trkpt>
      <trkpt lat="47.2554" lon="-2.33039">
        <ele>-5.5999999046326</ele>
        <time>2022-10-02T07:08:35.000Z</time>
      </trkpt>
      <trkpt lat="47.25557" lon="-2.33036">
        <ele>-5.5999999046326</ele>
        <time>2022-10-02T07:08:39.000Z</time>
      </trkpt>
      <trkpt lat="47.25587" lon="-2.33029">
        <ele>-5.5999999046326</ele>
        <time>2022-10-02T07:08:46.000Z</time>
      </trkpt>
      <trkpt lat="47.25604" lon="-2.33026">
        <ele>-5.1999998092651</ele>
        <time>2022-10-02T07:08:50.000Z</time>
      </trkpt>
      <trkpt lat="47.25608" lon="-2.33024">
        <ele>-4.5999999046326</ele>
        <time>2022-10-02T07:08:51.000Z</time>
      </trkpt>
      <trkpt lat="47.25612" lon="-2.33022">
        <ele>-4.1999998092651</ele>
        <time>2022-10-02T07:08:52.000Z</time>
      </trkpt>
      <trkpt lat="47.25615" lon="-2.33017">
        <ele>-3.7999999523163</ele>
        <time>2022-10-02T07:08:53.000Z</time>
      </trkpt>
      <trkpt lat="47.25617" lon="-2.33012">
        <ele>-3.4000000953674</ele>
        <time>2022-10-02T07:08:54.000Z</time>
      </trkpt>
      <trkpt lat="47.25617" lon="-2.33005">
        <ele>-3.4000000953674</ele>
        <time>2022-10-02T07:08:55.000Z</time>
      </trkpt>
      <trkpt lat="47.25615" lon="-2.32992">
        <ele>-3.4000000953674</ele>
        <time>2022-10-02T07:08:57.000Z</time>
      </trkpt>
      <trkpt lat="47.2561" lon="-2.32966">
        <ele>-3.4000000953674</ele>
        <time>2022-10-02T07:09:01.000Z</time>
      </trkpt>
      <trkpt lat="47.25608" lon="-2.32952">
        <ele>-3.4000000953674</ele>
        <time>2022-10-02T07:09:03.000Z</time>
      </trkpt>
      <trkpt lat="47.25602" lon="-2.32926">
        <ele>-3.4000000953674</ele>
        <time>2022-10-02T07:09:07.000Z</time>
      </trkpt>
      <trkpt lat="47.25601" lon="-2.32919">
        <ele>-3</ele>
        <time>2022-10-02T07:09:08.000Z</time>
      </trkpt>
      <trkpt lat="47.25599" lon="-2.32912">
        <ele>-2.5999999046326</ele>
        <time>2022-10-02T07:09:09.000Z</time>
      </trkpt>
      <trkpt lat="47.25599" lon="-2.32905">
        <ele>-2.2000000476837</ele>
        <time>2022-10-02T07:09:10.000Z</time>
      </trkpt>
      <trkpt lat="47.25598" lon="-2.32898">
        <ele>-1.7999999523163</ele>
        <time>2022-10-02T07:09:11.000Z</time>
      </trkpt>
      <trkpt lat="47.25597" lon="-2.32891">
        <ele>-1.3999999761581</ele>
        <time>2022-10-02T07:09:12.000Z</time>
      </trkpt>
      <trkpt lat="47.25594" lon="-2.32869">
        <ele>-1.3999999761581</ele>
        <time>2022-10-02T07:09:15.000Z</time>
      </trkpt>
      <trkpt lat="47.25592" lon="-2.32818">
        <ele>-1.3999999761581</ele>
        <time>2022-10-02T07:09:22.000Z</time>
      </trkpt>
      <trkpt lat="47.256" lon="-2.32766">
        <ele>-1.3999999761581</ele>
        <time>2022-10-02T07:09:29.000Z</time>
      </trkpt>
      <trkpt lat="47.25602" lon="-2.32724">
        <ele>-1.3999999761581</ele>
        <time>2022-10-02T07:09:35.000Z</time>
      </trkpt>
      <trkpt lat="47.25603" lon="-2.32679">
        <ele>-1.3999999761581</ele>
        <time>2022-10-02T07:09:42.000Z</time>
      </trkpt>
      <trkpt lat="47.25613" lon="-2.3266">
        <ele>-1.3999999761581</ele>
        <time>2022-10-02T07:09:46.000Z</time>
      </trkpt>
      <trkpt lat="47.25626" lon="-2.32653">
        <ele>-1.3999999761581</ele>
        <time>2022-10-02T07:09:49.000Z</time>
      </trkpt>
      <trkpt lat="47.25636" lon="-2.32649">
        <ele>-1.3999999761581</ele>
        <time>2022-10-02T07:09:51.000Z</time>
      </trkpt>
      <trkpt lat="47.25682" lon="-2.3263">
        <ele>-1.3999999761581</ele>
        <time>2022-10-02T07:10:00.000Z</time>
      </trkpt>
      <trkpt lat="47.25698" lon="-2.32622">
        <ele>-1.7999999523163</ele>
        <time>2022-10-02T07:10:03.000Z</time>
      </trkpt>
      <trkpt lat="47.25702" lon="-2.32619">
        <ele>-2.4000000953674</ele>
        <time>2022-10-02T07:10:04.000Z</time>
      </trkpt>
      <trkpt lat="47.25706" lon="-2.32615">
        <ele>-2.7999999523163</ele>
        <time>2022-10-02T07:10:05.000Z</time>
      </trkpt>
      <trkpt lat="47.25708" lon="-2.3261">
        <ele>-3.2000000476837</ele>
        <time>2022-10-02T07:10:06.000Z</time>
      </trkpt>
      <trkpt lat="47.25709" lon="-2.32603">
        <ele>-3.5999999046326</ele>
        <time>2022-10-02T07:10:07.000Z</time>
      </trkpt>
      <trkpt lat="47.25708" lon="-2.32597">
        <ele>-3.5999999046326</ele>
        <time>2022-10-02T07:10:08.000Z</time>
      </trkpt>
      <trkpt lat="47.25706" lon="-2.32591">
        <ele>-3.5999999046326</ele>
        <time>2022-10-02T07:10:09.000Z</time>
      </trkpt>
      <trkpt lat="47.25695" lon="-2.32549">
        <ele>-3.5999999046326</ele>
        <time>2022-10-02T07:10:15.000Z</time>
      </trkpt>
      <trkpt lat="47.2569" lon="-2.32535">
        <ele>-4</ele>
        <time>2022-10-02T07:10:17.000Z</time>
      </trkpt>
      <trkpt lat="47.25688" lon="-2.32527">
        <ele>-4.4000000953674</ele>
        <time>2022-10-02T07:10:18.000Z</time>
      </trkpt>
      <trkpt lat="47.25686" lon="-2.3252">
        <ele>-4.8000001907349</ele>
        <time>2022-10-02T07:10:19.000Z</time>
      </trkpt>
      <trkpt lat="47.25683" lon="-2.32512">
        <ele>-5.1999998092651</ele>
        <time>2022-10-02T07:10:20.000Z</time>
      </trkpt>
      <trkpt lat="47.25681" lon="-2.32504">
        <ele>-5.5999999046326</ele>
        <time>2022-10-02T07:10:21.000Z</time>
      </trkpt>
      <trkpt lat="47.25678" lon="-2.32497">
        <ele>-5.5999999046326</ele>
        <time>2022-10-02T07:10:22.000Z</time>
      </trkpt>
      <trkpt lat="47.25664" lon="-2.32456">
        <ele>-6.1999998092651</ele>
        <time>2022-10-02T07:10:27.000Z</time>
      </trkpt>
      <trkpt lat="47.25662" lon="-2.32447">
        <ele>-6.5999999046326</ele>
        <time>2022-10-02T07:10:28.000Z</time>
      </trkpt>
      <trkpt lat="47.25661" lon="-2.32439">
        <ele>-7</ele>
        <time>2022-10-02T07:10:29.000Z</time>
      </trkpt>
      <trkpt lat="47.2566" lon="-2.32431">
        <ele>-7.4000000953674</ele>
        <time>2022-10-02T07:10:30.000Z</time>
      </trkpt>
      <trkpt lat="47.2566" lon="-2.32424">
        <ele>-7.8000001907349</ele>
        <time>2022-10-02T07:10:31.000Z</time>
      </trkpt>
      <trkpt lat="47.25662" lon="-2.32419">
        <ele>-7.8000001907349</ele>
        <time>2022-10-02T07:10:32.000Z</time>
      </trkpt>
      <trkpt lat="47.25675" lon="-2.32414">
        <ele>-7.8000001907349</ele>
        <time>2022-10-02T07:10:35.000Z</time>
      </trkpt>
      <trkpt lat="47.25697" lon="-2.3242">
        <ele>-7.8000001907349</ele>
        <time>2022-10-02T07:10:39.000Z</time>
      </trkpt>
      <trkpt lat="47.25703" lon="-2.32421">
        <ele>-7.8000001907349</ele>
        <time>2022-10-02T07:10:40.000Z</time>
      </trkpt>
      <trkpt lat="47.25732" lon="-2.32423">
        <ele>-7.8000001907349</ele>
        <time>2022-10-02T07:10:45.000Z</time>
      </trkpt>
      <trkpt lat="47.25744" lon="-2.32423">
        <ele>-8.6000003814697</ele>
        <time>2022-10-02T07:10:47.000Z</time>
      </trkpt>
      <trkpt lat="47.2575" lon="-2.32423">
        <ele>-9.1999998092651</ele>
        <time>2022-10-02T07:10:48.000Z</time>
      </trkpt>
      <trkpt lat="47.25755" lon="-2.32421">
        <ele>-9.6000003814697</ele>
        <time>2022-10-02T07:10:49.000Z</time>
      </trkpt>
      <trkpt lat="47.25761" lon="-2.32419">
        <ele>-10</ele>
        <time>2022-10-02T07:10:50.000Z</time>
      </trkpt>
      <trkpt lat="47.25767" lon="-2.32417">
        <ele>-10</ele>
        <time>2022-10-02T07:10:51.000Z</time>
      </trkpt>
      <trkpt lat="47.25777" lon="-2.32413">
        <ele>-10</ele>
        <time>2022-10-02T07:10:53.000Z</time>
      </trkpt>
      <trkpt lat="47.25782" lon="-2.32416">
        <ele>-10</ele>
        <time>2022-10-02T07:10:54.000Z</time>
      </trkpt>
      <trkpt lat="47.25791" lon="-2.32432">
        <ele>-10</ele>
        <time>2022-10-02T07:10:57.000Z</time>
      </trkpt>
      <trkpt lat="47.25794" lon="-2.32438">
        <ele>-10</ele>
        <time>2022-10-02T07:10:58.000Z</time>
      </trkpt>
      <trkpt lat="47.25806" lon="-2.32462">
        <ele>-10</ele>
        <time>2022-10-02T07:11:02.000Z</time>
      </trkpt>
      <trkpt lat="47.25817" lon="-2.32484">
        <ele>-10</ele>
        <time>2022-10-02T07:11:06.000Z</time>
      </trkpt>
      <trkpt lat="47.2582" lon="-2.32489">
        <ele>-10</ele>
        <time>2022-10-02T07:11:07.000Z</time>
      </trkpt>
      <trkpt lat="47.25843" lon="-2.32525">
        <ele>-10</ele>
        <time>2022-10-02T07:11:13.000Z</time>
      </trkpt>
      <trkpt lat="47.25859" lon="-2.32548">
        <ele>-10</ele>
        <time>2022-10-02T07:11:17.000Z</time>
      </trkpt>
      <trkpt lat="47.25869" lon="-2.32557">
        <ele>-10</ele>
        <time>2022-10-02T07:11:19.000Z</time>
      </trkpt>
      <trkpt lat="47.25876" lon="-2.32567">
        <ele>-10</ele>
        <time>2022-10-02T07:11:21.000Z</time>
      </trkpt>
      <trkpt lat="47.25883" lon="-2.32578">
        <ele>-10</ele>
        <time>2022-10-02T07:11:23.000Z</time>
      </trkpt>
      <trkpt lat="47.2589" lon="-2.32587">
        <ele>-10</ele>
        <time>2022-10-02T07:11:25.000Z</time>
      </trkpt>
      <trkpt lat="47.259" lon="-2.32595">
        <ele>-10</ele>
        <time>2022-10-02T07:11:27.000Z</time>
      </trkpt>
      <trkpt lat="47.25933" lon="-2.32636">
        <ele>-10</ele>
        <time>2022-10-02T07:11:35.000Z</time>
      </trkpt>
      <trkpt lat="47.25945" lon="-2.3265">
        <ele>-10</ele>
        <time>2022-10-02T07:11:38.000Z</time>
      </trkpt>
      <trkpt lat="47.25959" lon="-2.32658">
        <ele>-10</ele>
        <time>2022-10-02T07:11:41.000Z</time>
      </trkpt>
      <trkpt lat="47.2597" lon="-2.32656">
        <ele>-10</ele>
        <time>2022-10-02T07:11:43.000Z</time>
      </trkpt>
      <trkpt lat="47.25975" lon="-2.32656">
        <ele>-10</ele>
        <time>2022-10-02T07:11:44.000Z</time>
      </trkpt>
      <trkpt lat="47.25981" lon="-2.32657">
        <ele>-10</ele>
        <time>2022-10-02T07:11:45.000Z</time>
      </trkpt>
      <trkpt lat="47.25992" lon="-2.32657">
        <ele>-10</ele>
        <time>2022-10-02T07:11:47.000Z</time>
      </trkpt>
      <trkpt lat="47.26008" lon="-2.32654">
        <ele>-10</ele>
        <time>2022-10-02T07:11:50.000Z</time>
      </trkpt>
      <trkpt lat="47.26053" lon="-2.32647">
        <ele>-10</ele>
        <time>2022-10-02T07:11:58.000Z</time>
      </trkpt>
      <trkpt lat="47.26087" lon="-2.3264">
        <ele>-10</ele>
        <time>2022-10-02T07:12:04.000Z</time>
      </trkpt>
      <trkpt lat="47.2612" lon="-2.32637">
        <ele>-10</ele>
        <time>2022-10-02T07:12:10.000Z</time>
      </trkpt>
      <trkpt lat="47.2613" lon="-2.32639">
        <ele>-10</ele>
        <time>2022-10-02T07:12:12.000Z</time>
      </trkpt>
      <trkpt lat="47.26167" lon="-2.32651">
        <ele>-10</ele>
        <time>2022-10-02T07:12:19.000Z</time>
      </trkpt>
      <trkpt lat="47.26178" lon="-2.32657">
        <ele>-10</ele>
        <time>2022-10-02T07:12:21.000Z</time>
      </trkpt>
      <trkpt lat="47.26187" lon="-2.32665">
        <ele>-10</ele>
        <time>2022-10-02T07:12:23.000Z</time>
      </trkpt>
      <trkpt lat="47.26192" lon="-2.3267">
        <ele>-10</ele>
        <time>2022-10-02T07:12:24.000Z</time>
      </trkpt>
      <trkpt lat="47.26226" lon="-2.32709">
        <ele>-10</ele>
        <time>2022-10-02T07:12:32.000Z</time>
      </trkpt>
      <trkpt lat="47.26261" lon="-2.32763">
        <ele>-10</ele>
        <time>2022-10-02T07:12:41.000Z</time>
      </trkpt>
      <trkpt lat="47.26283" lon="-2.32811">
        <ele>-10</ele>
        <time>2022-10-02T07:12:48.000Z</time>
      </trkpt>
      <trkpt lat="47.26285" lon="-2.32819">
        <ele>-10</ele>
        <time>2022-10-02T07:12:49.000Z</time>
      </trkpt>
      <trkpt lat="47.26287" lon="-2.32833">
        <ele>-10</ele>
        <time>2022-10-02T07:12:51.000Z</time>
      </trkpt>
      <trkpt lat="47.26288" lon="-2.3284">
        <ele>-10</ele>
        <time>2022-10-02T07:12:52.000Z</time>
      </trkpt>
      <trkpt lat="47.26296" lon="-2.32856">
        <ele>-10</ele>
        <time>2022-10-02T07:12:55.000Z</time>
      </trkpt>
      <trkpt lat="47.26314" lon="-2.32868">
        <ele>-10</ele>
        <time>2022-10-02T07:12:59.000Z</time>
      </trkpt>
      <trkpt lat="47.26323" lon="-2.32887">
        <ele>-10</ele>
        <time>2022-10-02T07:13:02.000Z</time>
      </trkpt>
      <trkpt lat="47.26331" lon="-2.32916">
        <ele>-10.39999961853</ele>
        <time>2022-10-02T07:13:06.000Z</time>
      </trkpt>
      <trkpt lat="47.26334" lon="-2.32922">
        <ele>-10.800000190735</ele>
        <time>2022-10-02T07:13:07.000Z</time>
      </trkpt>
      <trkpt lat="47.26336" lon="-2.32929">
        <ele>-11.199999809265</ele>
        <time>2022-10-02T07:13:08.000Z</time>
      </trkpt>
      <trkpt lat="47.26339" lon="-2.32936">
        <ele>-11.60000038147</ele>
        <time>2022-10-02T07:13:09.000Z</time>
      </trkpt>
      <trkpt lat="47.26341" lon="-2.32943">
        <ele>-12</ele>
        <time>2022-10-02T07:13:10.000Z</time>
      </trkpt>
      <trkpt lat="47.26351" lon="-2.32969">
        <ele>-12</ele>
        <time>2022-10-02T07:13:14.000Z</time>
      </trkpt>
      <trkpt lat="47.26355" lon="-2.32974">
        <ele>-12</ele>
        <time>2022-10-02T07:13:15.000Z</time>
      </trkpt>
      <trkpt lat="47.26362" lon="-2.32985">
        <ele>-12</ele>
        <time>2022-10-02T07:13:17.000Z</time>
      </trkpt>
      <trkpt lat="47.26366" lon="-2.32999">
        <ele>-12</ele>
        <time>2022-10-02T07:13:19.000Z</time>
      </trkpt>
      <trkpt lat="47.26367" lon="-2.33021">
        <ele>-12</ele>
        <time>2022-10-02T07:13:22.000Z</time>
      </trkpt>
      <trkpt lat="47.26368" lon="-2.33028">
        <ele>-12</ele>
        <time>2022-10-02T07:13:23.000Z</time>
      </trkpt>
      <trkpt lat="47.26371" lon="-2.33091">
        <ele>-12</ele>
        <time>2022-10-02T07:13:31.000Z</time>
      </trkpt>
      <trkpt lat="47.26375" lon="-2.33152">
        <ele>-12</ele>
        <time>2022-10-02T07:13:39.000Z</time>
      </trkpt>
      <trkpt lat="47.26378" lon="-2.33202">
        <ele>-12</ele>
        <time>2022-10-02T07:13:46.000Z</time>
      </trkpt>
      <trkpt lat="47.26381" lon="-2.3324">
        <ele>-12</ele>
        <time>2022-10-02T07:13:51.000Z</time>
      </trkpt>
      <trkpt lat="47.26382" lon="-2.33247">
        <ele>-12</ele>
        <time>2022-10-02T07:13:52.000Z</time>
      </trkpt>
      <trkpt lat="47.26394" lon="-2.33261">
        <ele>-12</ele>
        <time>2022-10-02T07:13:55.000Z</time>
      </trkpt>
      <trkpt lat="47.2641" lon="-2.33266">
        <ele>-12</ele>
        <time>2022-10-02T07:13:58.000Z</time>
      </trkpt>
      <trkpt lat="47.26415" lon="-2.33267">
        <ele>-12</ele>
        <time>2022-10-02T07:13:59.000Z</time>
      </trkpt>
      <trkpt lat="47.26458" lon="-2.33273">
        <ele>-12</ele>
        <time>2022-10-02T07:14:07.000Z</time>
      </trkpt>
      <trkpt lat="47.26463" lon="-2.33275">
        <ele>-12</ele>
        <time>2022-10-02T07:14:08.000Z</time>
      </trkpt>
      <trkpt lat="47.26488" lon="-2.33279">
        <ele>-12</ele>
        <time>2022-10-02T07:14:14.000Z</time>
      </trkpt>
      <trkpt lat="47.2651" lon="-2.33287">
        <ele>-12</ele>
        <time>2022-10-02T07:14:20.000Z</time>
      </trkpt>
      <trkpt lat="47.26528" lon="-2.33288">
        <ele>-12</ele>
        <time>2022-10-02T07:14:25.000Z</time>
      </trkpt>
      <trkpt lat="47.26531" lon="-2.33289">
        <ele>-12</ele>
        <time>2022-10-02T07:14:26.000Z</time>
      </trkpt>
      <trkpt lat="47.26535" lon="-2.33294">
        <ele>-12</ele>
        <time>2022-10-02T07:14:28.000Z</time>
      </trkpt>
      <trkpt lat="47.26542" lon="-2.33293">
        <ele>-12</ele>
        <time>2022-10-02T07:14:31.000Z</time>
      </trkpt>
      <trkpt lat="47.26551" lon="-2.33284">
        <ele>-12</ele>
        <time>2022-10-02T07:14:34.000Z</time>
      </trkpt>
      <trkpt lat="47.26555" lon="-2.3328">
        <ele>-12</ele>
        <time>2022-10-02T07:14:35.000Z</time>
      </trkpt>
      <trkpt lat="47.26571" lon="-2.33264">
        <ele>-12</ele>
        <time>2022-10-02T07:14:39.000Z</time>
      </trkpt>
      <trkpt lat="47.26605" lon="-2.3323">
        <ele>-12</ele>
        <time>2022-10-02T07:14:47.000Z</time>
      </trkpt>
      <trkpt lat="47.26632" lon="-2.33203">
        <ele>-12</ele>
        <time>2022-10-02T07:14:53.000Z</time>
      </trkpt>
      <trkpt lat="47.26656" lon="-2.33178">
        <ele>-12</ele>
        <time>2022-10-02T07:14:59.000Z</time>
      </trkpt>
      <trkpt lat="47.26664" lon="-2.33171">
        <ele>-12</ele>
        <time>2022-10-02T07:15:01.000Z</time>
      </trkpt>
      <trkpt lat="47.2668" lon="-2.33154">
        <ele>-12</ele>
        <time>2022-10-02T07:15:05.000Z</time>
      </trkpt>
      <trkpt lat="47.26707" lon="-2.33127">
        <ele>-12</ele>
        <time>2022-10-02T07:15:11.000Z</time>
      </trkpt>
      <trkpt lat="47.26734" lon="-2.33099">
        <ele>-12</ele>
        <time>2022-10-02T07:15:17.000Z</time>
      </trkpt>
      <trkpt lat="47.26741" lon="-2.33091">
        <ele>-11.60000038147</ele>
        <time>2022-10-02T07:15:19.000Z</time>
      </trkpt>
      <trkpt lat="47.26743" lon="-2.33087">
        <ele>-10.800000190735</ele>
        <time>2022-10-02T07:15:20.000Z</time>
      </trkpt>
      <trkpt lat="47.26745" lon="-2.33084">
        <ele>-10.39999961853</ele>
        <time>2022-10-02T07:15:21.000Z</time>
      </trkpt>
      <trkpt lat="47.26748" lon="-2.33083">
        <ele>-10</ele>
        <time>2022-10-02T07:15:22.000Z</time>
      </trkpt>
      <trkpt lat="47.26754" lon="-2.33087">
        <ele>-10</ele>
        <time>2022-10-02T07:15:24.000Z</time>
      </trkpt>
      <trkpt lat="47.26764" lon="-2.3311">
        <ele>-10</ele>
        <time>2022-10-02T07:15:28.000Z</time>
      </trkpt>
      <trkpt lat="47.26762" lon="-2.33142">
        <ele>-10</ele>
        <time>2022-10-02T07:15:32.000Z</time>
      </trkpt>
      <trkpt lat="47.26758" lon="-2.33158">
        <ele>-10</ele>
        <time>2022-10-02T07:15:34.000Z</time>
      </trkpt>
      <trkpt lat="47.26755" lon="-2.33173">
        <ele>-10</ele>
        <time>2022-10-02T07:15:36.000Z</time>
      </trkpt>
      <trkpt lat="47.26753" lon="-2.33181">
        <ele>-10</ele>
        <time>2022-10-02T07:15:37.000Z</time>
      </trkpt>
      <trkpt lat="47.2675" lon="-2.33188">
        <ele>-10</ele>
        <time>2022-10-02T07:15:38.000Z</time>
      </trkpt>
      <trkpt lat="47.2674" lon="-2.33219">
        <ele>-10</ele>
        <time>2022-10-02T07:15:42.000Z</time>
      </trkpt>
      <trkpt lat="47.26732" lon="-2.33249">
        <ele>-10</ele>
        <time>2022-10-02T07:15:46.000Z</time>
      </trkpt>
      <trkpt lat="47.26731" lon="-2.33264">
        <ele>-10</ele>
        <time>2022-10-02T07:15:48.000Z</time>
      </trkpt>
      <trkpt lat="47.26732" lon="-2.33285">
        <ele>-10</ele>
        <time>2022-10-02T07:15:51.000Z</time>
      </trkpt>
      <trkpt lat="47.26734" lon="-2.33292">
        <ele>-10</ele>
        <time>2022-10-02T07:15:52.000Z</time>
      </trkpt>
      <trkpt lat="47.26745" lon="-2.3334">
        <ele>-10</ele>
        <time>2022-10-02T07:15:59.000Z</time>
      </trkpt>
      <trkpt lat="47.26749" lon="-2.33379">
        <ele>-10</ele>
        <time>2022-10-02T07:16:05.000Z</time>
      </trkpt>
      <trkpt lat="47.26757" lon="-2.33409">
        <ele>-10</ele>
        <time>2022-10-02T07:16:11.000Z</time>
      </trkpt>
      <trkpt lat="47.26767" lon="-2.33427">
        <ele>-10</ele>
        <time>2022-10-02T07:16:16.000Z</time>
      </trkpt>
      <trkpt lat="47.26773" lon="-2.33455">
        <ele>-10</ele>
        <time>2022-10-02T07:16:22.000Z</time>
      </trkpt>
      <trkpt lat="47.26777" lon="-2.33477">
        <ele>-10</ele>
        <time>2022-10-02T07:16:28.000Z</time>
      </trkpt>
      <trkpt lat="47.2678" lon="-2.3349">
        <ele>-10</ele>
        <time>2022-10-02T07:16:34.000Z</time>
      </trkpt>
      <trkpt lat="47.26779" lon="-2.33492">
        <ele>-10</ele>
        <time>2022-10-02T07:16:35.000Z</time>
      </trkpt>
      <trkpt lat="47.26776" lon="-2.33488">
        <ele>-10</ele>
        <time>2022-10-02T07:16:38.000Z</time>
      </trkpt>
      <trkpt lat="47.26776" lon="-2.33476">
        <ele>-10</ele>
        <time>2022-10-02T07:16:43.000Z</time>
      </trkpt>
      <trkpt lat="47.26775" lon="-2.33473">
        <ele>-10</ele>
        <time>2022-10-02T07:16:44.000Z</time>
      </trkpt>
      <trkpt lat="47.26775" lon="-2.33458">
        <ele>-10</ele>
        <time>2022-10-02T07:16:50.000Z</time>
      </trkpt>
      <trkpt lat="47.26771" lon="-2.3344">
        <ele>-10</ele>
        <time>2022-10-02T07:16:55.000Z</time>
      </trkpt>
      <trkpt lat="47.26767" lon="-2.33418">
        <ele>-10</ele>
        <time>2022-10-02T07:17:00.000Z</time>
      </trkpt>
      <trkpt lat="47.2676" lon="-2.33409">
        <ele>-10</ele>
        <time>2022-10-02T07:17:04.000Z</time>
      </trkpt>
      <trkpt lat="47.26755" lon="-2.33404">
        <ele>-10</ele>
        <time>2022-10-02T07:17:09.000Z</time>
      </trkpt>
      <trkpt lat="47.26754" lon="-2.33405">
        <ele>-10</ele>
        <time>2022-10-02T07:17:10.000Z</time>
      </trkpt>
      <trkpt lat="47.26753" lon="-2.33409">
        <ele>-10.39999961853</ele>
        <time>2022-10-02T07:17:14.000Z</time>
      </trkpt>
      <trkpt lat="47.26753" lon="-2.33409">
        <ele>-10.800000190735</ele>
        <time>2022-10-02T07:17:15.000Z</time>
      </trkpt>
      <trkpt lat="47.26751" lon="-2.33421">
        <ele>-12</ele>
        <time>2022-10-02T07:17:35.000Z</time>
      </trkpt>
      <trkpt lat="47.2675" lon="-2.33423">
        <ele>-12</ele>
        <time>2022-10-02T07:17:38.000Z</time>
      </trkpt>
      <trkpt lat="47.26753" lon="-2.33398">
        <ele>-12</ele>
        <time>2022-10-02T07:18:07.000Z</time>
      </trkpt>
      <trkpt lat="47.2675" lon="-2.33378">
        <ele>-12</ele>
        <time>2022-10-02T07:18:11.000Z</time>
      </trkpt>
      <trkpt lat="47.26747" lon="-2.33358">
        <ele>-12</ele>
        <time>2022-10-02T07:18:14.000Z</time>
      </trkpt>
      <trkpt lat="47.26746" lon="-2.33344">
        <ele>-12</ele>
        <time>2022-10-02T07:18:16.000Z</time>
      </trkpt>
      <trkpt lat="47.26736" lon="-2.33298">
        <ele>-12</ele>
        <time>2022-10-02T07:18:23.000Z</time>
      </trkpt>
      <trkpt lat="47.26731" lon="-2.33268">
        <ele>-12</ele>
        <time>2022-10-02T07:18:28.000Z</time>
      </trkpt>
      <trkpt lat="47.26731" lon="-2.33261">
        <ele>-12</ele>
        <time>2022-10-02T07:18:29.000Z</time>
      </trkpt>
      <trkpt lat="47.26736" lon="-2.33234">
        <ele>-12</ele>
        <time>2022-10-02T07:18:33.000Z</time>
      </trkpt>
      <trkpt lat="47.26738" lon="-2.33227">
        <ele>-12</ele>
        <time>2022-10-02T07:18:34.000Z</time>
      </trkpt>
      <trkpt lat="47.2675" lon="-2.33187">
        <ele>-12</ele>
        <time>2022-10-02T07:18:40.000Z</time>
      </trkpt>
      <trkpt lat="47.26764" lon="-2.3314">
        <ele>-12</ele>
        <time>2022-10-02T07:18:47.000Z</time>
      </trkpt>
      <trkpt lat="47.26765" lon="-2.33133">
        <ele>-12</ele>
        <time>2022-10-02T07:18:48.000Z</time>
      </trkpt>
      <trkpt lat="47.26766" lon="-2.33126">
        <ele>-12</ele>
        <time>2022-10-02T07:18:49.000Z</time>
      </trkpt>
      <trkpt lat="47.26764" lon="-2.33105">
        <ele>-12</ele>
        <time>2022-10-02T07:18:52.000Z</time>
      </trkpt>
      <trkpt lat="47.26763" lon="-2.33099">
        <ele>-12</ele>
        <time>2022-10-02T07:18:53.000Z</time>
      </trkpt>
      <trkpt lat="47.26755" lon="-2.33085">
        <ele>-12</ele>
        <time>2022-10-02T07:18:56.000Z</time>
      </trkpt>
      <trkpt lat="47.26744" lon="-2.33087">
        <ele>-12</ele>
        <time>2022-10-02T07:19:00.000Z</time>
      </trkpt>
      <trkpt lat="47.26742" lon="-2.33091">
        <ele>-12</ele>
        <time>2022-10-02T07:19:01.000Z</time>
      </trkpt>
      <trkpt lat="47.26731" lon="-2.33102">
        <ele>-12</ele>
        <time>2022-10-02T07:19:04.000Z</time>
      </trkpt>
      <trkpt lat="47.26707" lon="-2.33127">
        <ele>-12</ele>
        <time>2022-10-02T07:19:10.000Z</time>
      </trkpt>
      <trkpt lat="47.26669" lon="-2.33166">
        <ele>-12</ele>
        <time>2022-10-02T07:19:19.000Z</time>
      </trkpt>
      <trkpt lat="47.26643" lon="-2.33191">
        <ele>-12</ele>
        <time>2022-10-02T07:19:25.000Z</time>
      </trkpt>
      <trkpt lat="47.26617" lon="-2.33218">
        <ele>-12</ele>
        <time>2022-10-02T07:19:31.000Z</time>
      </trkpt>
      <trkpt lat="47.26613" lon="-2.33223">
        <ele>-12</ele>
        <time>2022-10-02T07:19:32.000Z</time>
      </trkpt>
      <trkpt lat="47.26592" lon="-2.33243">
        <ele>-12</ele>
        <time>2022-10-02T07:19:37.000Z</time>
      </trkpt>
      <trkpt lat="47.26588" lon="-2.33248">
        <ele>-12</ele>
        <time>2022-10-02T07:19:38.000Z</time>
      </trkpt>
      <trkpt lat="47.26568" lon="-2.33269">
        <ele>-12</ele>
        <time>2022-10-02T07:19:43.000Z</time>
      </trkpt>
      <trkpt lat="47.26543" lon="-2.33295">
        <ele>-12</ele>
        <time>2022-10-02T07:19:49.000Z</time>
      </trkpt>
      <trkpt lat="47.26539" lon="-2.33299">
        <ele>-12</ele>
        <time>2022-10-02T07:19:50.000Z</time>
      </trkpt>
      <trkpt lat="47.26532" lon="-2.33318">
        <ele>-12</ele>
        <time>2022-10-02T07:19:53.000Z</time>
      </trkpt>
      <trkpt lat="47.2653" lon="-2.33333">
        <ele>-12</ele>
        <time>2022-10-02T07:19:55.000Z</time>
      </trkpt>
      <trkpt lat="47.26529" lon="-2.33356">
        <ele>-12</ele>
        <time>2022-10-02T07:19:58.000Z</time>
      </trkpt>
      <trkpt lat="47.26536" lon="-2.33388">
        <ele>-12</ele>
        <time>2022-10-02T07:20:02.000Z</time>
      </trkpt>
      <trkpt lat="47.26549" lon="-2.33459">
        <ele>-12</ele>
        <time>2022-10-02T07:20:11.000Z</time>
      </trkpt>
      <trkpt lat="47.26555" lon="-2.33498">
        <ele>-12</ele>
        <time>2022-10-02T07:20:16.000Z</time>
      </trkpt>
      <trkpt lat="47.26561" lon="-2.3351">
        <ele>-12</ele>
        <time>2022-10-02T07:20:18.000Z</time>
      </trkpt>
      <trkpt lat="47.26565" lon="-2.33531">
        <ele>-12</ele>
        <time>2022-10-02T07:20:21.000Z</time>
      </trkpt>
      <trkpt lat="47.26565" lon="-2.33539">
        <ele>-12</ele>
        <time>2022-10-02T07:20:22.000Z</time>
      </trkpt>
      <trkpt lat="47.26572" lon="-2.3359">
        <ele>-12</ele>
        <time>2022-10-02T07:20:29.000Z</time>
      </trkpt>
      <trkpt lat="47.26578" lon="-2.33634">
        <ele>-11.60000038147</ele>
        <time>2022-10-02T07:20:35.000Z</time>
      </trkpt>
      <trkpt lat="47.26579" lon="-2.33641">
        <ele>-11.199999809265</ele>
        <time>2022-10-02T07:20:36.000Z</time>
      </trkpt>
      <trkpt lat="47.2658" lon="-2.33647">
        <ele>-10.800000190735</ele>
        <time>2022-10-02T07:20:37.000Z</time>
      </trkpt>
      <trkpt lat="47.26581" lon="-2.33654">
        <ele>-10.39999961853</ele>
        <time>2022-10-02T07:20:38.000Z</time>
      </trkpt>
      <trkpt lat="47.26582" lon="-2.3366">
        <ele>-10</ele>
        <time>2022-10-02T07:20:39.000Z</time>
      </trkpt>
      <trkpt lat="47.26585" lon="-2.33665">
        <ele>-10</ele>
        <time>2022-10-02T07:20:40.000Z</time>
      </trkpt>
      <trkpt lat="47.26594" lon="-2.33681">
        <ele>-9.6000003814697</ele>
        <time>2022-10-02T07:20:43.000Z</time>
      </trkpt>
      <trkpt lat="47.26596" lon="-2.33686">
        <ele>-9.1999998092651</ele>
        <time>2022-10-02T07:20:44.000Z</time>
      </trkpt>
      <trkpt lat="47.266" lon="-2.3369">
        <ele>-8.8000001907349</ele>
        <time>2022-10-02T07:20:45.000Z</time>
      </trkpt>
      <trkpt lat="47.26603" lon="-2.33693">
        <ele>-8.3999996185303</ele>
        <time>2022-10-02T07:20:46.000Z</time>
      </trkpt>
      <trkpt lat="47.26607" lon="-2.33695">
        <ele>-8</ele>
        <time>2022-10-02T07:20:47.000Z</time>
      </trkpt>
      <trkpt lat="47.26621" lon="-2.33697">
        <ele>-8</ele>
        <time>2022-10-02T07:20:50.000Z</time>
      </trkpt>
      <trkpt lat="47.26626" lon="-2.33697">
        <ele>-8</ele>
        <time>2022-10-02T07:20:51.000Z</time>
      </trkpt>
      <trkpt lat="47.26636" lon="-2.33697">
        <ele>-8</ele>
        <time>2022-10-02T07:20:53.000Z</time>
      </trkpt>
      <trkpt lat="47.2665" lon="-2.33695">
        <ele>-8</ele>
        <time>2022-10-02T07:20:56.000Z</time>
      </trkpt>
      <trkpt lat="47.26687" lon="-2.33693">
        <ele>-8</ele>
        <time>2022-10-02T07:21:03.000Z</time>
      </trkpt>
      <trkpt lat="47.26727" lon="-2.33696">
        <ele>-8</ele>
        <time>2022-10-02T07:21:10.000Z</time>
      </trkpt>
      <trkpt lat="47.26759" lon="-2.33697">
        <ele>-8</ele>
        <time>2022-10-02T07:21:16.000Z</time>
      </trkpt>
      <trkpt lat="47.26764" lon="-2.33699">
        <ele>-8</ele>
        <time>2022-10-02T07:21:17.000Z</time>
      </trkpt>
      <trkpt lat="47.26775" lon="-2.33704">
        <ele>-8</ele>
        <time>2022-10-02T07:21:19.000Z</time>
      </trkpt>
      <trkpt lat="47.26784" lon="-2.3371">
        <ele>-8</ele>
        <time>2022-10-02T07:21:21.000Z</time>
      </trkpt>
      <trkpt lat="47.26811" lon="-2.33735">
        <ele>-8</ele>
        <time>2022-10-02T07:21:27.000Z</time>
      </trkpt>
      <trkpt lat="47.26841" lon="-2.3377">
        <ele>-8</ele>
        <time>2022-10-02T07:21:34.000Z</time>
      </trkpt>
      <trkpt lat="47.26846" lon="-2.33773">
        <ele>-8</ele>
        <time>2022-10-02T07:21:35.000Z</time>
      </trkpt>
      <trkpt lat="47.26878" lon="-2.33788">
        <ele>-8</ele>
        <time>2022-10-02T07:21:41.000Z</time>
      </trkpt>
      <trkpt lat="47.26889" lon="-2.33794">
        <ele>-8</ele>
        <time>2022-10-02T07:21:43.000Z</time>
      </trkpt>
      <trkpt lat="47.26896" lon="-2.33805">
        <ele>-8</ele>
        <time>2022-10-02T07:21:45.000Z</time>
      </trkpt>
      <trkpt lat="47.26899" lon="-2.33819">
        <ele>-8</ele>
        <time>2022-10-02T07:21:47.000Z</time>
      </trkpt>
      <trkpt lat="47.26903" lon="-2.33834">
        <ele>-8</ele>
        <time>2022-10-02T07:21:49.000Z</time>
      </trkpt>
      <trkpt lat="47.26918" lon="-2.33893">
        <ele>-8</ele>
        <time>2022-10-02T07:21:57.000Z</time>
      </trkpt>
      <trkpt lat="47.2693" lon="-2.33951">
        <ele>-8</ele>
        <time>2022-10-02T07:22:05.000Z</time>
      </trkpt>
      <trkpt lat="47.26942" lon="-2.34001">
        <ele>-8</ele>
        <time>2022-10-02T07:22:12.000Z</time>
      </trkpt>
      <trkpt lat="47.26952" lon="-2.34043">
        <ele>-7.5999999046326</ele>
        <time>2022-10-02T07:22:18.000Z</time>
      </trkpt>
      <trkpt lat="47.26953" lon="-2.3405">
        <ele>-7.1999998092651</ele>
        <time>2022-10-02T07:22:19.000Z</time>
      </trkpt>
      <trkpt lat="47.26955" lon="-2.34057">
        <ele>-6.4000000953674</ele>
        <time>2022-10-02T07:22:20.000Z</time>
      </trkpt>
      <trkpt lat="47.26957" lon="-2.34064">
        <ele>-6</ele>
        <time>2022-10-02T07:22:21.000Z</time>
      </trkpt>
      <trkpt lat="47.26967" lon="-2.34108">
        <ele>-6</ele>
        <time>2022-10-02T07:22:27.000Z</time>
      </trkpt>
      <trkpt lat="47.26982" lon="-2.34177">
        <ele>-6</ele>
        <time>2022-10-02T07:22:36.000Z</time>
      </trkpt>
      <trkpt lat="47.26994" lon="-2.34227">
        <ele>-6</ele>
        <time>2022-10-02T07:22:43.000Z</time>
      </trkpt>
      <trkpt lat="47.27005" lon="-2.34275">
        <ele>-6</ele>
        <time>2022-10-02T07:22:50.000Z</time>
      </trkpt>
      <trkpt lat="47.27006" lon="-2.34288">
        <ele>-6</ele>
        <time>2022-10-02T07:22:52.000Z</time>
      </trkpt>
      <trkpt lat="47.27007" lon="-2.34307">
        <ele>-6</ele>
        <time>2022-10-02T07:22:55.000Z</time>
      </trkpt>
      <trkpt lat="47.27014" lon="-2.34318">
        <ele>-6</ele>
        <time>2022-10-02T07:22:58.000Z</time>
      </trkpt>
      <trkpt lat="47.27026" lon="-2.34319">
        <ele>-6</ele>
        <time>2022-10-02T07:23:01.000Z</time>
      </trkpt>
      <trkpt lat="47.27034" lon="-2.34318">
        <ele>-6</ele>
        <time>2022-10-02T07:23:03.000Z</time>
      </trkpt>
      <trkpt lat="47.27051" lon="-2.34317">
        <ele>-6</ele>
        <time>2022-10-02T07:23:07.000Z</time>
      </trkpt>
      <trkpt lat="47.27054" lon="-2.34314">
        <ele>-6</ele>
        <time>2022-10-02T07:23:08.000Z</time>
      </trkpt>
      <trkpt lat="47.27055" lon="-2.34305">
        <ele>-6</ele>
        <time>2022-10-02T07:23:10.000Z</time>
      </trkpt>
      <trkpt lat="47.27052" lon="-2.34288">
        <ele>-6</ele>
        <time>2022-10-02T07:23:13.000Z</time>
      </trkpt>
      <trkpt lat="47.2705" lon="-2.34281">
        <ele>-6</ele>
        <time>2022-10-02T07:23:14.000Z</time>
      </trkpt>
      <trkpt lat="47.27045" lon="-2.34254">
        <ele>-6</ele>
        <time>2022-10-02T07:23:18.000Z</time>
      </trkpt>
      <trkpt lat="47.27044" lon="-2.3424">
        <ele>-6</ele>
        <time>2022-10-02T07:23:20.000Z</time>
      </trkpt>
      <trkpt lat="47.27044" lon="-2.34174">
        <ele>-6</ele>
        <time>2022-10-02T07:23:29.000Z</time>
      </trkpt>
      <trkpt lat="47.27046" lon="-2.34118">
        <ele>-6</ele>
        <time>2022-10-02T07:23:36.000Z</time>
      </trkpt>
      <trkpt lat="47.27046" lon="-2.3406">
        <ele>-6</ele>
        <time>2022-10-02T07:23:43.000Z</time>
      </trkpt>
      <trkpt lat="47.27047" lon="-2.34002">
        <ele>-6</ele>
        <time>2022-10-02T07:23:50.000Z</time>
      </trkpt>
      <trkpt lat="47.27046" lon="-2.33994">
        <ele>-6</ele>
        <time>2022-10-02T07:23:51.000Z</time>
      </trkpt>
      <trkpt lat="47.27046" lon="-2.33978">
        <ele>-6</ele>
        <time>2022-10-02T07:23:53.000Z</time>
      </trkpt>
      <trkpt lat="47.27047" lon="-2.33962">
        <ele>-6</ele>
        <time>2022-10-02T07:23:55.000Z</time>
      </trkpt>
      <trkpt lat="47.27047" lon="-2.33946">
        <ele>-5.4000000953674</ele>
        <time>2022-10-02T07:23:57.000Z</time>
      </trkpt>
      <trkpt lat="47.27047" lon="-2.33938">
        <ele>-5</ele>
        <time>2022-10-02T07:23:58.000Z</time>
      </trkpt>
      <trkpt lat="47.27047" lon="-2.33931">
        <ele>-4.1999998092651</ele>
        <time>2022-10-02T07:23:59.000Z</time>
      </trkpt>
      <trkpt lat="47.27046" lon="-2.33924">
        <ele>-3.5999999046326</ele>
        <time>2022-10-02T07:24:00.000Z</time>
      </trkpt>
      <trkpt lat="47.27046" lon="-2.33911">
        <ele>-3.5999999046326</ele>
        <time>2022-10-02T07:24:02.000Z</time>
      </trkpt>
      <trkpt lat="47.27051" lon="-2.33898">
        <ele>-3.2000000476837</ele>
        <time>2022-10-02T07:24:05.000Z</time>
      </trkpt>
      <trkpt lat="47.27055" lon="-2.33897">
        <ele>-2.7999999523163</ele>
        <time>2022-10-02T07:24:06.000Z</time>
      </trkpt>
      <trkpt lat="47.27058" lon="-2.33899">
        <ele>-2.4000000953674</ele>
        <time>2022-10-02T07:24:07.000Z</time>
      </trkpt>
      <trkpt lat="47.2706" lon="-2.33901">
        <ele>-2</ele>
        <time>2022-10-02T07:24:08.000Z</time>
      </trkpt>
      <trkpt lat="47.27063" lon="-2.33903">
        <ele>-1.6000000238419</ele>
        <time>2022-10-02T07:24:09.000Z</time>
      </trkpt>
      <trkpt lat="47.2708" lon="-2.33915">
        <ele>-1.2000000476837</ele>
        <time>2022-10-02T07:24:14.000Z</time>
      </trkpt>
      <trkpt lat="47.27083" lon="-2.33918">
        <ele>-0.80000001192093</ele>
        <time>2022-10-02T07:24:15.000Z</time>
      </trkpt>
      <trkpt lat="47.27085" lon="-2.3392">
        <ele>-0.20000000298023</ele>
        <time>2022-10-02T07:24:16.000Z</time>
      </trkpt>
      <trkpt lat="47.27088" lon="-2.33922">
        <ele>0.20000000298023</ele>
        <time>2022-10-02T07:24:17.000Z</time>
      </trkpt>
      <trkpt lat="47.27091" lon="-2.33925">
        <ele>0.60000002384186</ele>
        <time>2022-10-02T07:24:18.000Z</time>
      </trkpt>
      <trkpt lat="47.27098" lon="-2.33931">
        <ele>1</ele>
        <time>2022-10-02T07:24:20.000Z</time>
      </trkpt>
      <trkpt lat="47.27101" lon="-2.33935">
        <ele>1.3999999761581</ele>
        <time>2022-10-02T07:24:21.000Z</time>
      </trkpt>
      <trkpt lat="47.27104" lon="-2.33938">
        <ele>1.7999999523163</ele>
        <time>2022-10-02T07:24:22.000Z</time>
      </trkpt>
      <trkpt lat="47.27107" lon="-2.33941">
        <ele>2.2000000476837</ele>
        <time>2022-10-02T07:24:23.000Z</time>
      </trkpt>
      <trkpt lat="47.2711" lon="-2.33944">
        <ele>2.5999999046326</ele>
        <time>2022-10-02T07:24:24.000Z</time>
      </trkpt>
      <trkpt lat="47.27114" lon="-2.33948">
        <ele>2.5999999046326</ele>
        <time>2022-10-02T07:24:25.000Z</time>
      </trkpt>
      <trkpt lat="47.27131" lon="-2.33966">
        <ele>2.5999999046326</ele>
        <time>2022-10-02T07:24:30.000Z</time>
      </trkpt>
      <trkpt lat="47.27135" lon="-2.33968">
        <ele>2.5999999046326</ele>
        <time>2022-10-02T07:24:31.000Z</time>
      </trkpt>
      <trkpt lat="47.27142" lon="-2.33975">
        <ele>3.2000000476837</ele>
        <time>2022-10-02T07:24:33.000Z</time>
      </trkpt>
      <trkpt lat="47.27146" lon="-2.33979">
        <ele>3.5999999046326</ele>
        <time>2022-10-02T07:24:34.000Z</time>
      </trkpt>
      <trkpt lat="47.27149" lon="-2.33983">
        <ele>4</ele>
        <time>2022-10-02T07:24:35.000Z</time>
      </trkpt>
      <trkpt lat="47.27153" lon="-2.33987">
        <ele>4.4000000953674</ele>
        <time>2022-10-02T07:24:36.000Z</time>
      </trkpt>
      <trkpt lat="47.27157" lon="-2.33991">
        <ele>4.8000001907349</ele>
        <time>2022-10-02T07:24:37.000Z</time>
      </trkpt>
      <trkpt lat="47.27171" lon="-2.34007">
        <ele>4.8000001907349</ele>
        <time>2022-10-02T07:24:41.000Z</time>
      </trkpt>
      <trkpt lat="47.27179" lon="-2.34015">
        <ele>4.8000001907349</ele>
        <time>2022-10-02T07:24:43.000Z</time>
      </trkpt>
      <trkpt lat="47.27202" lon="-2.34037">
        <ele>4.8000001907349</ele>
        <time>2022-10-02T07:24:49.000Z</time>
      </trkpt>
      <trkpt lat="47.27206" lon="-2.3404">
        <ele>5.1999998092651</ele>
        <time>2022-10-02T07:24:50.000Z</time>
      </trkpt>
      <trkpt lat="47.2721" lon="-2.34043">
        <ele>5.5999999046326</ele>
        <time>2022-10-02T07:24:51.000Z</time>
      </trkpt>
      <trkpt lat="47.27214" lon="-2.34047">
        <ele>6</ele>
        <time>2022-10-02T07:24:52.000Z</time>
      </trkpt>
      <trkpt lat="47.27218" lon="-2.3405">
        <ele>6.4000000953674</ele>
        <time>2022-10-02T07:24:53.000Z</time>
      </trkpt>
      <trkpt lat="47.27223" lon="-2.34052">
        <ele>6.8000001907349</ele>
        <time>2022-10-02T07:24:54.000Z</time>
      </trkpt>
      <trkpt lat="47.27227" lon="-2.34052">
        <ele>6.8000001907349</ele>
        <time>2022-10-02T07:24:55.000Z</time>
      </trkpt>
      <trkpt lat="47.2725" lon="-2.3405">
        <ele>6.8000001907349</ele>
        <time>2022-10-02T07:25:00.000Z</time>
      </trkpt>
      <trkpt lat="47.27255" lon="-2.34051">
        <ele>6.8000001907349</ele>
        <time>2022-10-02T07:25:01.000Z</time>
      </trkpt>
      <trkpt lat="47.27275" lon="-2.34067">
        <ele>6.8000001907349</ele>
        <time>2022-10-02T07:25:06.000Z</time>
      </trkpt>
      <trkpt lat="47.27281" lon="-2.34092">
        <ele>6.8000001907349</ele>
        <time>2022-10-02T07:25:10.000Z</time>
      </trkpt>
      <trkpt lat="47.27285" lon="-2.34112">
        <ele>6.8000001907349</ele>
        <time>2022-10-02T07:25:13.000Z</time>
      </trkpt>
      <trkpt lat="47.27292" lon="-2.34122">
        <ele>6.8000001907349</ele>
        <time>2022-10-02T07:25:15.000Z</time>
      </trkpt>
      <trkpt lat="47.27301" lon="-2.3413">
        <ele>6.8000001907349</ele>
        <time>2022-10-02T07:25:17.000Z</time>
      </trkpt>
      <trkpt lat="47.2732" lon="-2.34143">
        <ele>6.8000001907349</ele>
        <time>2022-10-02T07:25:21.000Z</time>
      </trkpt>
      <trkpt lat="47.27324" lon="-2.34147">
        <ele>6.8000001907349</ele>
        <time>2022-10-02T07:25:22.000Z</time>
      </trkpt>
      <trkpt lat="47.27342" lon="-2.34159">
        <ele>6.8000001907349</ele>
        <time>2022-10-02T07:25:26.000Z</time>
      </trkpt>
      <trkpt lat="47.27347" lon="-2.34161">
        <ele>6.8000001907349</ele>
        <time>2022-10-02T07:25:27.000Z</time>
      </trkpt>
      <trkpt lat="47.27361" lon="-2.34169">
        <ele>6.8000001907349</ele>
        <time>2022-10-02T07:25:30.000Z</time>
      </trkpt>
      <trkpt lat="47.27388" lon="-2.34189">
        <ele>6.8000001907349</ele>
        <time>2022-10-02T07:25:36.000Z</time>
      </trkpt>
      <trkpt lat="47.27391" lon="-2.34194">
        <ele>6.8000001907349</ele>
        <time>2022-10-02T07:25:37.000Z</time>
      </trkpt>
      <trkpt lat="47.27401" lon="-2.34217">
        <ele>6.8000001907349</ele>
        <time>2022-10-02T07:25:41.000Z</time>
      </trkpt>
      <trkpt lat="47.27402" lon="-2.34223">
        <ele>6.8000001907349</ele>
        <time>2022-10-02T07:25:42.000Z</time>
      </trkpt>
      <trkpt lat="47.27407" lon="-2.34237">
        <ele>6.8000001907349</ele>
        <time>2022-10-02T07:25:45.000Z</time>
      </trkpt>
      <trkpt lat="47.2741" lon="-2.34239">
        <ele>6.8000001907349</ele>
        <time>2022-10-02T07:25:46.000Z</time>
      </trkpt>
      <trkpt lat="47.27415" lon="-2.34259">
        <ele>6.8000001907349</ele>
        <time>2022-10-02T07:25:50.000Z</time>
      </trkpt>
      <trkpt lat="47.27415" lon="-2.34272">
        <ele>6.8000001907349</ele>
        <time>2022-10-02T07:25:52.000Z</time>
      </trkpt>
      <trkpt lat="47.27416" lon="-2.34301">
        <ele>6.8000001907349</ele>
        <time>2022-10-02T07:25:56.000Z</time>
      </trkpt>
      <trkpt lat="47.27417" lon="-2.34351">
        <ele>6.8000001907349</ele>
        <time>2022-10-02T07:26:03.000Z</time>
      </trkpt>
      <trkpt lat="47.27421" lon="-2.34389">
        <ele>7.1999998092651</ele>
        <time>2022-10-02T07:26:08.000Z</time>
      </trkpt>
      <trkpt lat="47.27421" lon="-2.34396">
        <ele>7.5999999046326</ele>
        <time>2022-10-02T07:26:09.000Z</time>
      </trkpt>
      <trkpt lat="47.27422" lon="-2.34404">
        <ele>8</ele>
        <time>2022-10-02T07:26:10.000Z</time>
      </trkpt>
      <trkpt lat="47.27422" lon="-2.34411">
        <ele>8.3999996185303</ele>
        <time>2022-10-02T07:26:11.000Z</time>
      </trkpt>
      <trkpt lat="47.27423" lon="-2.34419">
        <ele>8.8000001907349</ele>
        <time>2022-10-02T07:26:12.000Z</time>
      </trkpt>
      <trkpt lat="47.27423" lon="-2.34426">
        <ele>8.8000001907349</ele>
        <time>2022-10-02T07:26:13.000Z</time>
      </trkpt>
      <trkpt lat="47.27424" lon="-2.34448">
        <ele>8.8000001907349</ele>
        <time>2022-10-02T07:26:16.000Z</time>
      </trkpt>
      <trkpt lat="47.27428" lon="-2.3449">
        <ele>8.8000001907349</ele>
        <time>2022-10-02T07:26:22.000Z</time>
      </trkpt>
      <trkpt lat="47.27431" lon="-2.34504">
        <ele>8.8000001907349</ele>
        <time>2022-10-02T07:26:24.000Z</time>
      </trkpt>
      <trkpt lat="47.27438" lon="-2.34529">
        <ele>8.8000001907349</ele>
        <time>2022-10-02T07:26:28.000Z</time>
      </trkpt>
      <trkpt lat="47.27446" lon="-2.34567">
        <ele>8.8000001907349</ele>
        <time>2022-10-02T07:26:34.000Z</time>
      </trkpt>
      <trkpt lat="47.27452" lon="-2.34606">
        <ele>8.8000001907349</ele>
        <time>2022-10-02T07:26:40.000Z</time>
      </trkpt>
      <trkpt lat="47.27454" lon="-2.34619">
        <ele>8.8000001907349</ele>
        <time>2022-10-02T07:26:42.000Z</time>
      </trkpt>
      <trkpt lat="47.27457" lon="-2.34653">
        <ele>8.8000001907349</ele>
        <time>2022-10-02T07:26:47.000Z</time>
      </trkpt>
      <trkpt lat="47.27459" lon="-2.347">
        <ele>8.8000001907349</ele>
        <time>2022-10-02T07:26:54.000Z</time>
      </trkpt>
      <trkpt lat="47.27459" lon="-2.34706">
        <ele>8.8000001907349</ele>
        <time>2022-10-02T07:26:55.000Z</time>
      </trkpt>
      <trkpt lat="47.27457" lon="-2.34739">
        <ele>8.8000001907349</ele>
        <time>2022-10-02T07:27:00.000Z</time>
      </trkpt>
      <trkpt lat="47.27457" lon="-2.34746">
        <ele>8.8000001907349</ele>
        <time>2022-10-02T07:27:01.000Z</time>
      </trkpt>
      <trkpt lat="47.27459" lon="-2.34783">
        <ele>8.8000001907349</ele>
        <time>2022-10-02T07:27:06.000Z</time>
      </trkpt>
      <trkpt lat="47.27459" lon="-2.34799">
        <ele>8.8000001907349</ele>
        <time>2022-10-02T07:27:08.000Z</time>
      </trkpt>
      <trkpt lat="47.27461" lon="-2.34839">
        <ele>8.3999996185303</ele>
        <time>2022-10-02T07:27:13.000Z</time>
      </trkpt>
      <trkpt lat="47.27461" lon="-2.34847">
        <ele>8</ele>
        <time>2022-10-02T07:27:14.000Z</time>
      </trkpt>
      <trkpt lat="47.27461" lon="-2.34855">
        <ele>7.5999999046326</ele>
        <time>2022-10-02T07:27:15.000Z</time>
      </trkpt>
      <trkpt lat="47.27461" lon="-2.34862">
        <ele>7.1999998092651</ele>
        <time>2022-10-02T07:27:16.000Z</time>
      </trkpt>
      <trkpt lat="47.27461" lon="-2.3487">
        <ele>6.8000001907349</ele>
        <time>2022-10-02T07:27:17.000Z</time>
      </trkpt>
      <trkpt lat="47.27461" lon="-2.34893">
        <ele>6.8000001907349</ele>
        <time>2022-10-02T07:27:20.000Z</time>
      </trkpt>
      <trkpt lat="47.27462" lon="-2.34908">
        <ele>6.8000001907349</ele>
        <time>2022-10-02T07:27:22.000Z</time>
      </trkpt>
      <trkpt lat="47.27466" lon="-2.34922">
        <ele>6.8000001907349</ele>
        <time>2022-10-02T07:27:24.000Z</time>
      </trkpt>
      <trkpt lat="47.27474" lon="-2.34943">
        <ele>6.8000001907349</ele>
        <time>2022-10-02T07:27:27.000Z</time>
      </trkpt>
      <trkpt lat="47.27488" lon="-2.3499">
        <ele>6.8000001907349</ele>
        <time>2022-10-02T07:27:33.000Z</time>
      </trkpt>
      <trkpt lat="47.27501" lon="-2.35034">
        <ele>6.8000001907349</ele>
        <time>2022-10-02T07:27:39.000Z</time>
      </trkpt>
      <trkpt lat="47.27504" lon="-2.3505">
        <ele>6.8000001907349</ele>
        <time>2022-10-02T07:27:41.000Z</time>
      </trkpt>
      <trkpt lat="47.27504" lon="-2.35067">
        <ele>6.8000001907349</ele>
        <time>2022-10-02T07:27:43.000Z</time>
      </trkpt>
      <trkpt lat="47.27501" lon="-2.3511">
        <ele>6.8000001907349</ele>
        <time>2022-10-02T07:27:49.000Z</time>
      </trkpt>
      <trkpt lat="47.27502" lon="-2.35117">
        <ele>6.8000001907349</ele>
        <time>2022-10-02T07:27:50.000Z</time>
      </trkpt>
      <trkpt lat="47.27507" lon="-2.35127">
        <ele>6.8000001907349</ele>
        <time>2022-10-02T07:27:52.000Z</time>
      </trkpt>
      <trkpt lat="47.2752" lon="-2.35133">
        <ele>6.8000001907349</ele>
        <time>2022-10-02T07:27:55.000Z</time>
      </trkpt>
      <trkpt lat="47.27526" lon="-2.35135">
        <ele>6.8000001907349</ele>
        <time>2022-10-02T07:27:56.000Z</time>
      </trkpt>
      <trkpt lat="47.27546" lon="-2.35138">
        <ele>6.8000001907349</ele>
        <time>2022-10-02T07:28:00.000Z</time>
      </trkpt>
      <trkpt lat="47.2755" lon="-2.35137">
        <ele>6.8000001907349</ele>
        <time>2022-10-02T07:28:01.000Z</time>
      </trkpt>
      <trkpt lat="47.27567" lon="-2.35133">
        <ele>6.8000001907349</ele>
        <time>2022-10-02T07:28:05.000Z</time>
      </trkpt>
      <trkpt lat="47.27595" lon="-2.3513">
        <ele>6.8000001907349</ele>
        <time>2022-10-02T07:28:11.000Z</time>
      </trkpt>
      <trkpt lat="47.27605" lon="-2.35147">
        <ele>6.8000001907349</ele>
        <time>2022-10-02T07:28:14.000Z</time>
      </trkpt>
      <trkpt lat="47.27613" lon="-2.35173">
        <ele>6.8000001907349</ele>
        <time>2022-10-02T07:28:18.000Z</time>
      </trkpt>
      <trkpt lat="47.27628" lon="-2.35174">
        <ele>6.8000001907349</ele>
        <time>2022-10-02T07:28:21.000Z</time>
      </trkpt>
      <trkpt lat="47.27633" lon="-2.35173">
        <ele>6.8000001907349</ele>
        <time>2022-10-02T07:28:22.000Z</time>
      </trkpt>
      <trkpt lat="47.2765" lon="-2.35171">
        <ele>6.8000001907349</ele>
        <time>2022-10-02T07:28:25.000Z</time>
      </trkpt>
      <trkpt lat="47.27659" lon="-2.3517">
        <ele>6.8000001907349</ele>
        <time>2022-10-02T07:28:27.000Z</time>
      </trkpt>
      <trkpt lat="47.27664" lon="-2.35171">
        <ele>6.4000000953674</ele>
        <time>2022-10-02T07:28:28.000Z</time>
      </trkpt>
      <trkpt lat="47.27668" lon="-2.35174">
        <ele>6</ele>
        <time>2022-10-02T07:28:29.000Z</time>
      </trkpt>
      <trkpt lat="47.2767" lon="-2.35179">
        <ele>5.1999998092651</ele>
        <time>2022-10-02T07:28:30.000Z</time>
      </trkpt>
      <trkpt lat="47.27672" lon="-2.35185">
        <ele>4.8000001907349</ele>
        <time>2022-10-02T07:28:31.000Z</time>
      </trkpt>
      <trkpt lat="47.27673" lon="-2.35207">
        <ele>4.8000001907349</ele>
        <time>2022-10-02T07:28:34.000Z</time>
      </trkpt>
      <trkpt lat="47.27674" lon="-2.35213">
        <ele>4.8000001907349</ele>
        <time>2022-10-02T07:28:35.000Z</time>
      </trkpt>
      <trkpt lat="47.27675" lon="-2.35218">
        <ele>4.8000001907349</ele>
        <time>2022-10-02T07:28:36.000Z</time>
      </trkpt>
      <trkpt lat="47.27681" lon="-2.3522">
        <ele>4.4000000953674</ele>
        <time>2022-10-02T07:28:38.000Z</time>
      </trkpt>
      <trkpt lat="47.27685" lon="-2.35217">
        <ele>4</ele>
        <time>2022-10-02T07:28:39.000Z</time>
      </trkpt>
      <trkpt lat="47.27689" lon="-2.35216">
        <ele>3.4000000953674</ele>
        <time>2022-10-02T07:28:40.000Z</time>
      </trkpt>
      <trkpt lat="47.27694" lon="-2.35214">
        <ele>3</ele>
        <time>2022-10-02T07:28:41.000Z</time>
      </trkpt>
      <trkpt lat="47.27698" lon="-2.35213">
        <ele>2.5999999046326</ele>
        <time>2022-10-02T07:28:42.000Z</time>
      </trkpt>
      <trkpt lat="47.27729" lon="-2.35205">
        <ele>2.5999999046326</ele>
        <time>2022-10-02T07:28:48.000Z</time>
      </trkpt>
      <trkpt lat="47.27752" lon="-2.352">
        <ele>2.2000000476837</ele>
        <time>2022-10-02T07:28:52.000Z</time>
      </trkpt>
      <trkpt lat="47.27757" lon="-2.352">
        <ele>1.7999999523163</ele>
        <time>2022-10-02T07:28:53.000Z</time>
      </trkpt>
      <trkpt lat="47.27762" lon="-2.35199">
        <ele>1.3999999761581</ele>
        <time>2022-10-02T07:28:54.000Z</time>
      </trkpt>
      <trkpt lat="47.27766" lon="-2.352">
        <ele>0.60000002384186</ele>
        <time>2022-10-02T07:28:55.000Z</time>
      </trkpt>
      <trkpt lat="47.27774" lon="-2.35219">
        <ele>0.60000002384186</ele>
        <time>2022-10-02T07:28:58.000Z</time>
      </trkpt>
      <trkpt lat="47.27777" lon="-2.35234">
        <ele>0.60000002384186</ele>
        <time>2022-10-02T07:29:00.000Z</time>
      </trkpt>
      <trkpt lat="47.27783" lon="-2.35265">
        <ele>0.60000002384186</ele>
        <time>2022-10-02T07:29:04.000Z</time>
      </trkpt>
      <trkpt lat="47.27792" lon="-2.35305">
        <ele>0.60000002384186</ele>
        <time>2022-10-02T07:29:10.000Z</time>
      </trkpt>
      <trkpt lat="47.27793" lon="-2.35311">
        <ele>0.60000002384186</ele>
        <time>2022-10-02T07:29:11.000Z</time>
      </trkpt>
      <trkpt lat="47.278" lon="-2.3534">
        <ele>0.60000002384186</ele>
        <time>2022-10-02T07:29:16.000Z</time>
      </trkpt>
      <trkpt lat="47.27816" lon="-2.35361">
        <ele>0.60000002384186</ele>
        <time>2022-10-02T07:29:21.000Z</time>
      </trkpt>
      <trkpt lat="47.27829" lon="-2.3536">
        <ele>0.60000002384186</ele>
        <time>2022-10-02T07:29:24.000Z</time>
      </trkpt>
      <trkpt lat="47.27838" lon="-2.3536">
        <ele>0.60000002384186</ele>
        <time>2022-10-02T07:29:26.000Z</time>
      </trkpt>
      <trkpt lat="47.27857" lon="-2.35358">
        <ele>0.60000002384186</ele>
        <time>2022-10-02T07:29:30.000Z</time>
      </trkpt>
      <trkpt lat="47.27865" lon="-2.35359">
        <ele>0.60000002384186</ele>
        <time>2022-10-02T07:29:32.000Z</time>
      </trkpt>
      <trkpt lat="47.27878" lon="-2.35363">
        <ele>0.60000002384186</ele>
        <time>2022-10-02T07:29:35.000Z</time>
      </trkpt>
      <trkpt lat="47.27884" lon="-2.35371">
        <ele>0.60000002384186</ele>
        <time>2022-10-02T07:29:37.000Z</time>
      </trkpt>
      <trkpt lat="47.2789" lon="-2.3538">
        <ele>0.60000002384186</ele>
        <time>2022-10-02T07:29:39.000Z</time>
      </trkpt>
      <trkpt lat="47.27894" lon="-2.35385">
        <ele>0.60000002384186</ele>
        <time>2022-10-02T07:29:40.000Z</time>
      </trkpt>
      <trkpt lat="47.27908" lon="-2.35404">
        <ele>0.60000002384186</ele>
        <time>2022-10-02T07:29:44.000Z</time>
      </trkpt>
      <trkpt lat="47.27939" lon="-2.35445">
        <ele>0.60000002384186</ele>
        <time>2022-10-02T07:29:53.000Z</time>
      </trkpt>
      <trkpt lat="47.27967" lon="-2.35465">
        <ele>0.60000002384186</ele>
        <time>2022-10-02T07:29:59.000Z</time>
      </trkpt>
      <trkpt lat="47.27971" lon="-2.35469">
        <ele>0.60000002384186</ele>
        <time>2022-10-02T07:30:00.000Z</time>
      </trkpt>
      <trkpt lat="47.27983" lon="-2.35487">
        <ele>0.60000002384186</ele>
        <time>2022-10-02T07:30:03.000Z</time>
      </trkpt>
      <trkpt lat="47.27986" lon="-2.35494">
        <ele>0.60000002384186</ele>
        <time>2022-10-02T07:30:04.000Z</time>
      </trkpt>
      <trkpt lat="47.28001" lon="-2.35532">
        <ele>0.60000002384186</ele>
        <time>2022-10-02T07:30:10.000Z</time>
      </trkpt>
      <trkpt lat="47.28005" lon="-2.3555">
        <ele>1</ele>
        <time>2022-10-02T07:30:13.000Z</time>
      </trkpt>
      <trkpt lat="47.28008" lon="-2.35552">
        <ele>1.3999999761581</ele>
        <time>2022-10-02T07:30:14.000Z</time>
      </trkpt>
      <trkpt lat="47.2801" lon="-2.35557">
        <ele>1.7999999523163</ele>
        <time>2022-10-02T07:30:15.000Z</time>
      </trkpt>
      <trkpt lat="47.28012" lon="-2.35561">
        <ele>2.2000000476837</ele>
        <time>2022-10-02T07:30:16.000Z</time>
      </trkpt>
      <trkpt lat="47.28014" lon="-2.35564">
        <ele>2.5999999046326</ele>
        <time>2022-10-02T07:30:17.000Z</time>
      </trkpt>
      <trkpt lat="47.2802" lon="-2.35571">
        <ele>2.5999999046326</ele>
        <time>2022-10-02T07:30:19.000Z</time>
      </trkpt>
      <trkpt lat="47.28023" lon="-2.35574">
        <ele>2.5999999046326</ele>
        <time>2022-10-02T07:30:20.000Z</time>
      </trkpt>
      <trkpt lat="47.28027" lon="-2.35575">
        <ele>2.5999999046326</ele>
        <time>2022-10-02T07:30:21.000Z</time>
      </trkpt>
      <trkpt lat="47.28035" lon="-2.35575">
        <ele>2.5999999046326</ele>
        <time>2022-10-02T07:30:23.000Z</time>
      </trkpt>
      <trkpt lat="47.28047" lon="-2.35577">
        <ele>3.2000000476837</ele>
        <time>2022-10-02T07:30:26.000Z</time>
      </trkpt>
      <trkpt lat="47.28052" lon="-2.35578">
        <ele>3.5999999046326</ele>
        <time>2022-10-02T07:30:27.000Z</time>
      </trkpt>
      <trkpt lat="47.28055" lon="-2.35579">
        <ele>4</ele>
        <time>2022-10-02T07:30:28.000Z</time>
      </trkpt>
      <trkpt lat="47.2806" lon="-2.35581">
        <ele>4.4000000953674</ele>
        <time>2022-10-02T07:30:29.000Z</time>
      </trkpt>
      <trkpt lat="47.28063" lon="-2.35582">
        <ele>4.8000001907349</ele>
        <time>2022-10-02T07:30:30.000Z</time>
      </trkpt>
      <trkpt lat="47.28069" lon="-2.35587">
        <ele>4.8000001907349</ele>
        <time>2022-10-02T07:30:32.000Z</time>
      </trkpt>
      <trkpt lat="47.2807" lon="-2.35591">
        <ele>4.8000001907349</ele>
        <time>2022-10-02T07:30:33.000Z</time>
      </trkpt>
      <trkpt lat="47.28073" lon="-2.35608">
        <ele>4.8000001907349</ele>
        <time>2022-10-02T07:30:36.000Z</time>
      </trkpt>
      <trkpt lat="47.28075" lon="-2.3562">
        <ele>4.8000001907349</ele>
        <time>2022-10-02T07:30:38.000Z</time>
      </trkpt>
      <trkpt lat="47.28077" lon="-2.35631">
        <ele>5.1999998092651</ele>
        <time>2022-10-02T07:30:40.000Z</time>
      </trkpt>
      <trkpt lat="47.28079" lon="-2.35633">
        <ele>5.8000001907349</ele>
        <time>2022-10-02T07:30:41.000Z</time>
      </trkpt>
      <trkpt lat="47.2808" lon="-2.35636">
        <ele>6.1999998092651</ele>
        <time>2022-10-02T07:30:42.000Z</time>
      </trkpt>
      <trkpt lat="47.28081" lon="-2.35639">
        <ele>6.5999999046326</ele>
        <time>2022-10-02T07:30:43.000Z</time>
      </trkpt>
      <trkpt lat="47.28081" lon="-2.35642">
        <ele>7.1999998092651</ele>
        <time>2022-10-02T07:30:44.000Z</time>
      </trkpt>
      <trkpt lat="47.28082" lon="-2.35645">
        <ele>7.8000001907349</ele>
        <time>2022-10-02T07:30:45.000Z</time>
      </trkpt>
      <trkpt lat="47.28083" lon="-2.35649">
        <ele>8.1999998092651</ele>
        <time>2022-10-02T07:30:46.000Z</time>
      </trkpt>
      <trkpt lat="47.28084" lon="-2.35654">
        <ele>8.8000001907349</ele>
        <time>2022-10-02T07:30:47.000Z</time>
      </trkpt>
      <trkpt lat="47.28085" lon="-2.35658">
        <ele>9.3999996185303</ele>
        <time>2022-10-02T07:30:48.000Z</time>
      </trkpt>
      <trkpt lat="47.28092" lon="-2.35679">
        <ele>9.3999996185303</ele>
        <time>2022-10-02T07:30:53.000Z</time>
      </trkpt>
      <trkpt lat="47.28093" lon="-2.35688">
        <ele>9.8000001907349</ele>
        <time>2022-10-02T07:30:55.000Z</time>
      </trkpt>
      <trkpt lat="47.28094" lon="-2.35692">
        <ele>10.199999809265</ele>
        <time>2022-10-02T07:30:56.000Z</time>
      </trkpt>
      <trkpt lat="47.28095" lon="-2.35695">
        <ele>10.60000038147</ele>
        <time>2022-10-02T07:30:57.000Z</time>
      </trkpt>
      <trkpt lat="47.28095" lon="-2.35699">
        <ele>11</ele>
        <time>2022-10-02T07:30:58.000Z</time>
      </trkpt>
      <trkpt lat="47.28095" lon="-2.35703">
        <ele>11.60000038147</ele>
        <time>2022-10-02T07:30:59.000Z</time>
      </trkpt>
      <trkpt lat="47.28094" lon="-2.35707">
        <ele>11.60000038147</ele>
        <time>2022-10-02T07:31:00.000Z</time>
      </trkpt>
      <trkpt lat="47.28091" lon="-2.35716">
        <ele>11.60000038147</ele>
        <time>2022-10-02T07:31:02.000Z</time>
      </trkpt>
      <trkpt lat="47.28085" lon="-2.35739">
        <ele>11.60000038147</ele>
        <time>2022-10-02T07:31:06.000Z</time>
      </trkpt>
      <trkpt lat="47.28082" lon="-2.35762">
        <ele>11.60000038147</ele>
        <time>2022-10-02T07:31:09.000Z</time>
      </trkpt>
      <trkpt lat="47.2808" lon="-2.35774">
        <ele>11</ele>
        <time>2022-10-02T07:31:11.000Z</time>
      </trkpt>
      <trkpt lat="47.28077" lon="-2.3578">
        <ele>10.60000038147</ele>
        <time>2022-10-02T07:31:12.000Z</time>
      </trkpt>
      <trkpt lat="47.28076" lon="-2.35786">
        <ele>10.199999809265</ele>
        <time>2022-10-02T07:31:13.000Z</time>
      </trkpt>
      <trkpt lat="47.28077" lon="-2.35791">
        <ele>9.8000001907349</ele>
        <time>2022-10-02T07:31:14.000Z</time>
      </trkpt>
      <trkpt lat="47.28079" lon="-2.35796">
        <ele>9.3999996185303</ele>
        <time>2022-10-02T07:31:15.000Z</time>
      </trkpt>
      <trkpt lat="47.2808" lon="-2.35799">
        <ele>8.8000001907349</ele>
        <time>2022-10-02T07:31:16.000Z</time>
      </trkpt>
      <trkpt lat="47.28081" lon="-2.35801">
        <ele>8.3999996185303</ele>
        <time>2022-10-02T07:31:17.000Z</time>
      </trkpt>
      <trkpt lat="47.28084" lon="-2.35799">
        <ele>8</ele>
        <time>2022-10-02T07:31:18.000Z</time>
      </trkpt>
      <trkpt lat="47.28086" lon="-2.35796">
        <ele>7.5999999046326</ele>
        <time>2022-10-02T07:31:19.000Z</time>
      </trkpt>
      <trkpt lat="47.28088" lon="-2.35793">
        <ele>7.1999998092651</ele>
        <time>2022-10-02T07:31:20.000Z</time>
      </trkpt>
      <trkpt lat="47.28091" lon="-2.35784">
        <ele>7.1999998092651</ele>
        <time>2022-10-02T07:31:22.000Z</time>
      </trkpt>
      <trkpt lat="47.28099" lon="-2.35761">
        <ele>7.1999998092651</ele>
        <time>2022-10-02T07:31:27.000Z</time>
      </trkpt>
      <trkpt lat="47.28108" lon="-2.35749">
        <ele>7.1999998092651</ele>
        <time>2022-10-02T07:31:32.000Z</time>
      </trkpt>
      <trkpt lat="47.28121" lon="-2.35748">
        <ele>7.1999998092651</ele>
        <time>2022-10-02T07:31:37.000Z</time>
      </trkpt>
      <trkpt lat="47.28123" lon="-2.35751">
        <ele>7.1999998092651</ele>
        <time>2022-10-02T07:31:39.000Z</time>
      </trkpt>
      <trkpt lat="47.28124" lon="-2.35762">
        <ele>7.1999998092651</ele>
        <time>2022-10-02T07:31:42.000Z</time>
      </trkpt>
      <trkpt lat="47.28125" lon="-2.35772">
        <ele>7.1999998092651</ele>
        <time>2022-10-02T07:31:44.000Z</time>
      </trkpt>
      <trkpt lat="47.2813" lon="-2.35786">
        <ele>7.1999998092651</ele>
        <time>2022-10-02T07:31:47.000Z</time>
      </trkpt>
      <trkpt lat="47.28133" lon="-2.35788">
        <ele>7.1999998092651</ele>
        <time>2022-10-02T07:31:48.000Z</time>
      </trkpt>
      <trkpt lat="47.2814" lon="-2.358">
        <ele>7.1999998092651</ele>
        <time>2022-10-02T07:31:51.000Z</time>
      </trkpt>
      <trkpt lat="47.28155" lon="-2.35813">
        <ele>7.1999998092651</ele>
        <time>2022-10-02T07:31:55.000Z</time>
      </trkpt>
      <trkpt lat="47.28167" lon="-2.35831">
        <ele>7.1999998092651</ele>
        <time>2022-10-02T07:32:00.000Z</time>
      </trkpt>
      <trkpt lat="47.28181" lon="-2.35861">
        <ele>7.1999998092651</ele>
        <time>2022-10-02T07:32:07.000Z</time>
      </trkpt>
      <trkpt lat="47.28186" lon="-2.35884">
        <ele>7.1999998092651</ele>
        <time>2022-10-02T07:32:12.000Z</time>
      </trkpt>
      <trkpt lat="47.28183" lon="-2.35913">
        <ele>7.1999998092651</ele>
        <time>2022-10-02T07:32:17.000Z</time>
      </trkpt>
      <trkpt lat="47.28176" lon="-2.35934">
        <ele>7.1999998092651</ele>
        <time>2022-10-02T07:32:20.000Z</time>
      </trkpt>
      <trkpt lat="47.28171" lon="-2.35945">
        <ele>7.1999998092651</ele>
        <time>2022-10-02T07:32:22.000Z</time>
      </trkpt>
      <trkpt lat="47.28171" lon="-2.35948">
        <ele>7.1999998092651</ele>
        <time>2022-10-02T07:32:23.000Z</time>
      </trkpt>
      <trkpt lat="47.28174" lon="-2.35957">
        <ele>7.1999998092651</ele>
        <time>2022-10-02T07:32:25.000Z</time>
      </trkpt>
      <trkpt lat="47.28181" lon="-2.35976">
        <ele>6.8000001907349</ele>
        <time>2022-10-02T07:32:28.000Z</time>
      </trkpt>
      <trkpt lat="47.28184" lon="-2.35984">
        <ele>6.4000000953674</ele>
        <time>2022-10-02T07:32:29.000Z</time>
      </trkpt>
      <trkpt lat="47.28186" lon="-2.3599">
        <ele>6</ele>
        <time>2022-10-02T07:32:30.000Z</time>
      </trkpt>
      <trkpt lat="47.28189" lon="-2.35997">
        <ele>5.5999999046326</ele>
        <time>2022-10-02T07:32:31.000Z</time>
      </trkpt>
      <trkpt lat="47.28192" lon="-2.36004">
        <ele>5</ele>
        <time>2022-10-02T07:32:32.000Z</time>
      </trkpt>
      <trkpt lat="47.28194" lon="-2.36012">
        <ele>5</ele>
        <time>2022-10-02T07:32:33.000Z</time>
      </trkpt>
      <trkpt lat="47.28197" lon="-2.36017">
        <ele>5</ele>
        <time>2022-10-02T07:32:34.000Z</time>
      </trkpt>
      <trkpt lat="47.28204" lon="-2.36032">
        <ele>5</ele>
        <time>2022-10-02T07:32:38.000Z</time>
      </trkpt>
      <trkpt lat="47.28212" lon="-2.36028">
        <ele>5</ele>
        <time>2022-10-02T07:32:42.000Z</time>
      </trkpt>
      <trkpt lat="47.28228" lon="-2.36019">
        <ele>5</ele>
        <time>2022-10-02T07:32:48.000Z</time>
      </trkpt>
      <trkpt lat="47.28231" lon="-2.36017">
        <ele>5</ele>
        <time>2022-10-02T07:32:49.000Z</time>
      </trkpt>
      <trkpt lat="47.28245" lon="-2.36018">
        <ele>5</ele>
        <time>2022-10-02T07:32:54.000Z</time>
      </trkpt>
      <trkpt lat="47.28245" lon="-2.36024">
        <ele>5</ele>
        <time>2022-10-02T07:32:57.000Z</time>
      </trkpt>
      <trkpt lat="47.28244" lon="-2.36028">
        <ele>5.5999999046326</ele>
        <time>2022-10-02T07:32:58.000Z</time>
      </trkpt>
      <trkpt lat="47.28244" lon="-2.36032">
        <ele>6</ele>
        <time>2022-10-02T07:32:59.000Z</time>
      </trkpt>
      <trkpt lat="47.28243" lon="-2.36037">
        <ele>6.4000000953674</ele>
        <time>2022-10-02T07:33:00.000Z</time>
      </trkpt>
      <trkpt lat="47.28243" lon="-2.3604">
        <ele>6.8000001907349</ele>
        <time>2022-10-02T07:33:01.000Z</time>
      </trkpt>
      <trkpt lat="47.28242" lon="-2.36043">
        <ele>7.1999998092651</ele>
        <time>2022-10-02T07:33:02.000Z</time>
      </trkpt>
      <trkpt lat="47.28243" lon="-2.36055">
        <ele>7.1999998092651</ele>
        <time>2022-10-02T07:33:05.000Z</time>
      </trkpt>
      <trkpt lat="47.28243" lon="-2.36057">
        <ele>7.1999998092651</ele>
        <time>2022-10-02T07:33:06.000Z</time>
      </trkpt>
      <trkpt lat="47.2824" lon="-2.36065">
        <ele>7.5999999046326</ele>
        <time>2022-10-02T07:33:08.000Z</time>
      </trkpt>
      <trkpt lat="47.28239" lon="-2.36069">
        <ele>8</ele>
        <time>2022-10-02T07:33:09.000Z</time>
      </trkpt>
      <trkpt lat="47.28238" lon="-2.36073">
        <ele>8.3999996185303</ele>
        <time>2022-10-02T07:33:10.000Z</time>
      </trkpt>
      <trkpt lat="47.28237" lon="-2.36078">
        <ele>8.8000001907349</ele>
        <time>2022-10-02T07:33:11.000Z</time>
      </trkpt>
      <trkpt lat="47.28237" lon="-2.36083">
        <ele>9.1999998092651</ele>
        <time>2022-10-02T07:33:12.000Z</time>
      </trkpt>
      <trkpt lat="47.28238" lon="-2.36087">
        <ele>9.1999998092651</ele>
        <time>2022-10-02T07:33:13.000Z</time>
      </trkpt>
      <trkpt lat="47.28238" lon="-2.36092">
        <ele>9.1999998092651</ele>
        <time>2022-10-02T07:33:14.000Z</time>
      </trkpt>
      <trkpt lat="47.28241" lon="-2.36096">
        <ele>9.1999998092651</ele>
        <time>2022-10-02T07:33:15.000Z</time>
      </trkpt>
      <trkpt lat="47.28248" lon="-2.36106">
        <ele>9.1999998092651</ele>
        <time>2022-10-02T07:33:17.000Z</time>
      </trkpt>
      <trkpt lat="47.28261" lon="-2.3614">
        <ele>9.1999998092651</ele>
        <time>2022-10-02T07:33:23.000Z</time>
      </trkpt>
      <trkpt lat="47.28265" lon="-2.36165">
        <ele>8.3999996185303</ele>
        <time>2022-10-02T07:33:27.000Z</time>
      </trkpt>
      <trkpt lat="47.28266" lon="-2.3617">
        <ele>8</ele>
        <time>2022-10-02T07:33:28.000Z</time>
      </trkpt>
      <trkpt lat="47.28267" lon="-2.36176">
        <ele>7.5999999046326</ele>
        <time>2022-10-02T07:33:29.000Z</time>
      </trkpt>
      <trkpt lat="47.28268" lon="-2.36182">
        <ele>7.1999998092651</ele>
        <time>2022-10-02T07:33:30.000Z</time>
      </trkpt>
      <trkpt lat="47.28275" lon="-2.36211">
        <ele>7.1999998092651</ele>
        <time>2022-10-02T07:33:34.000Z</time>
      </trkpt>
      <trkpt lat="47.28282" lon="-2.36232">
        <ele>6.8000001907349</ele>
        <time>2022-10-02T07:33:38.000Z</time>
      </trkpt>
      <trkpt lat="47.28286" lon="-2.36236">
        <ele>6.4000000953674</ele>
        <time>2022-10-02T07:33:39.000Z</time>
      </trkpt>
      <trkpt lat="47.2829" lon="-2.36237">
        <ele>5.8000001907349</ele>
        <time>2022-10-02T07:33:40.000Z</time>
      </trkpt>
      <trkpt lat="47.28295" lon="-2.36238">
        <ele>5.4000000953674</ele>
        <time>2022-10-02T07:33:41.000Z</time>
      </trkpt>
      <trkpt lat="47.28299" lon="-2.36239">
        <ele>5</ele>
        <time>2022-10-02T07:33:42.000Z</time>
      </trkpt>
      <trkpt lat="47.28313" lon="-2.36243">
        <ele>5</ele>
        <time>2022-10-02T07:33:46.000Z</time>
      </trkpt>
      <trkpt lat="47.28331" lon="-2.36251">
        <ele>5</ele>
        <time>2022-10-02T07:33:50.000Z</time>
      </trkpt>
      <trkpt lat="47.28344" lon="-2.36256">
        <ele>5</ele>
        <time>2022-10-02T07:33:54.000Z</time>
      </trkpt>
      <trkpt lat="47.28347" lon="-2.36258">
        <ele>5.4000000953674</ele>
        <time>2022-10-02T07:33:55.000Z</time>
      </trkpt>
      <trkpt lat="47.2835" lon="-2.36259">
        <ele>5.8000001907349</ele>
        <time>2022-10-02T07:33:56.000Z</time>
      </trkpt>
      <trkpt lat="47.28353" lon="-2.3626">
        <ele>6.1999998092651</ele>
        <time>2022-10-02T07:33:57.000Z</time>
      </trkpt>
      <trkpt lat="47.28354" lon="-2.36262">
        <ele>6.8000001907349</ele>
        <time>2022-10-02T07:33:58.000Z</time>
      </trkpt>
      <trkpt lat="47.28356" lon="-2.36265">
        <ele>7.1999998092651</ele>
        <time>2022-10-02T07:33:59.000Z</time>
      </trkpt>
      <trkpt lat="47.28358" lon="-2.36268">
        <ele>7.1999998092651</ele>
        <time>2022-10-02T07:34:00.000Z</time>
      </trkpt>
      <trkpt lat="47.28358" lon="-2.36272">
        <ele>7.1999998092651</ele>
        <time>2022-10-02T07:34:01.000Z</time>
      </trkpt>
      <trkpt lat="47.28355" lon="-2.36281">
        <ele>7.1999998092651</ele>
        <time>2022-10-02T07:34:04.000Z</time>
      </trkpt>
      <trkpt lat="47.28356" lon="-2.36283">
        <ele>7.1999998092651</ele>
        <time>2022-10-02T07:34:05.000Z</time>
      </trkpt>
      <trkpt lat="47.28359" lon="-2.3629">
        <ele>7.1999998092651</ele>
        <time>2022-10-02T07:34:08.000Z</time>
      </trkpt>
      <trkpt lat="47.28367" lon="-2.36295">
        <ele>7.5999999046326</ele>
        <time>2022-10-02T07:34:11.000Z</time>
      </trkpt>
      <trkpt lat="47.28368" lon="-2.36298">
        <ele>8</ele>
        <time>2022-10-02T07:34:12.000Z</time>
      </trkpt>
      <trkpt lat="47.2837" lon="-2.363">
        <ele>8.3999996185303</ele>
        <time>2022-10-02T07:34:13.000Z</time>
      </trkpt>
      <trkpt lat="47.28373" lon="-2.36302">
        <ele>8.8000001907349</ele>
        <time>2022-10-02T07:34:14.000Z</time>
      </trkpt>
      <trkpt lat="47.28376" lon="-2.36304">
        <ele>9.1999998092651</ele>
        <time>2022-10-02T07:34:15.000Z</time>
      </trkpt>
      <trkpt lat="47.28382" lon="-2.36315">
        <ele>9.1999998092651</ele>
        <time>2022-10-02T07:34:18.000Z</time>
      </trkpt>
      <trkpt lat="47.28401" lon="-2.36342">
        <ele>9.1999998092651</ele>
        <time>2022-10-02T07:34:24.000Z</time>
      </trkpt>
      <trkpt lat="47.28411" lon="-2.36355">
        <ele>9.1999998092651</ele>
        <time>2022-10-02T07:34:29.000Z</time>
      </trkpt>
      <trkpt lat="47.28422" lon="-2.36364">
        <ele>9.6000003814697</ele>
        <time>2022-10-02T07:34:32.000Z</time>
      </trkpt>
      <trkpt lat="47.28426" lon="-2.36367">
        <ele>10</ele>
        <time>2022-10-02T07:34:33.000Z</time>
      </trkpt>
      <trkpt lat="47.2843" lon="-2.3637">
        <ele>10.60000038147</ele>
        <time>2022-10-02T07:34:34.000Z</time>
      </trkpt>
      <trkpt lat="47.28433" lon="-2.36374">
        <ele>11</ele>
        <time>2022-10-02T07:34:35.000Z</time>
      </trkpt>
      <trkpt lat="47.28437" lon="-2.36376">
        <ele>11.39999961853</ele>
        <time>2022-10-02T07:34:36.000Z</time>
      </trkpt>
      <trkpt lat="47.28444" lon="-2.36381">
        <ele>11.39999961853</ele>
        <time>2022-10-02T07:34:38.000Z</time>
      </trkpt>
      <trkpt lat="47.28462" lon="-2.364">
        <ele>11.800000190735</ele>
        <time>2022-10-02T07:34:43.000Z</time>
      </trkpt>
      <trkpt lat="47.28465" lon="-2.36404">
        <ele>12.199999809265</ele>
        <time>2022-10-02T07:34:44.000Z</time>
      </trkpt>
      <trkpt lat="47.28467" lon="-2.36407">
        <ele>12.800000190735</ele>
        <time>2022-10-02T07:34:45.000Z</time>
      </trkpt>
      <trkpt lat="47.28469" lon="-2.36411">
        <ele>13.199999809265</ele>
        <time>2022-10-02T07:34:46.000Z</time>
      </trkpt>
      <trkpt lat="47.28472" lon="-2.36415">
        <ele>13.60000038147</ele>
        <time>2022-10-02T07:34:47.000Z</time>
      </trkpt>
      <trkpt lat="47.28486" lon="-2.36434">
        <ele>13.60000038147</ele>
        <time>2022-10-02T07:34:51.000Z</time>
      </trkpt>
      <trkpt lat="47.2849" lon="-2.36439">
        <ele>13.60000038147</ele>
        <time>2022-10-02T07:34:52.000Z</time>
      </trkpt>
      <trkpt lat="47.28503" lon="-2.36449">
        <ele>13.60000038147</ele>
        <time>2022-10-02T07:34:55.000Z</time>
      </trkpt>
      <trkpt lat="47.28515" lon="-2.36472">
        <ele>13.60000038147</ele>
        <time>2022-10-02T07:35:00.000Z</time>
      </trkpt>
      <trkpt lat="47.28518" lon="-2.36496">
        <ele>13.60000038147</ele>
        <time>2022-10-02T07:35:04.000Z</time>
      </trkpt>
      <trkpt lat="47.28517" lon="-2.36506">
        <ele>13.60000038147</ele>
        <time>2022-10-02T07:35:06.000Z</time>
      </trkpt>
      <trkpt lat="47.28515" lon="-2.36509">
        <ele>13.199999809265</ele>
        <time>2022-10-02T07:35:07.000Z</time>
      </trkpt>
      <trkpt lat="47.28511" lon="-2.36511">
        <ele>12.800000190735</ele>
        <time>2022-10-02T07:35:08.000Z</time>
      </trkpt>
      <trkpt lat="47.28507" lon="-2.36514">
        <ele>12.39999961853</ele>
        <time>2022-10-02T07:35:09.000Z</time>
      </trkpt>
      <trkpt lat="47.28503" lon="-2.36519">
        <ele>12</ele>
        <time>2022-10-02T07:35:10.000Z</time>
      </trkpt>
      <trkpt lat="47.28499" lon="-2.36524">
        <ele>11.60000038147</ele>
        <time>2022-10-02T07:35:11.000Z</time>
      </trkpt>
      <trkpt lat="47.28482" lon="-2.36545">
        <ele>11.60000038147</ele>
        <time>2022-10-02T07:35:15.000Z</time>
      </trkpt>
      <trkpt lat="47.28478" lon="-2.3655">
        <ele>11.199999809265</ele>
        <time>2022-10-02T07:35:16.000Z</time>
      </trkpt>
      <trkpt lat="47.28473" lon="-2.36555">
        <ele>10.800000190735</ele>
        <time>2022-10-02T07:35:17.000Z</time>
      </trkpt>
      <trkpt lat="47.28469" lon="-2.36561">
        <ele>10.39999961853</ele>
        <time>2022-10-02T07:35:18.000Z</time>
      </trkpt>
      <trkpt lat="47.28466" lon="-2.36567">
        <ele>10</ele>
        <time>2022-10-02T07:35:19.000Z</time>
      </trkpt>
      <trkpt lat="47.28464" lon="-2.36572">
        <ele>9.6000003814697</ele>
        <time>2022-10-02T07:35:20.000Z</time>
      </trkpt>
      <trkpt lat="47.28467" lon="-2.36581">
        <ele>9.6000003814697</ele>
        <time>2022-10-02T07:35:21.000Z</time>
      </trkpt>
      <trkpt lat="47.28477" lon="-2.36608">
        <ele>9.6000003814697</ele>
        <time>2022-10-02T07:35:25.000Z</time>
      </trkpt>
      <trkpt lat="47.28483" lon="-2.36625">
        <ele>9.6000003814697</ele>
        <time>2022-10-02T07:35:28.000Z</time>
      </trkpt>
      <trkpt lat="47.28488" lon="-2.36643">
        <ele>9.6000003814697</ele>
        <time>2022-10-02T07:35:31.000Z</time>
      </trkpt>
      <trkpt lat="47.28501" lon="-2.36673">
        <ele>9.6000003814697</ele>
        <time>2022-10-02T07:35:38.000Z</time>
      </trkpt>
      <trkpt lat="47.28511" lon="-2.36685">
        <ele>9.6000003814697</ele>
        <time>2022-10-02T07:35:42.000Z</time>
      </trkpt>
      <trkpt lat="47.28518" lon="-2.36694">
        <ele>9.1999998092651</ele>
        <time>2022-10-02T07:35:44.000Z</time>
      </trkpt>
      <trkpt lat="47.28521" lon="-2.36699">
        <ele>8.8000001907349</ele>
        <time>2022-10-02T07:35:45.000Z</time>
      </trkpt>
      <trkpt lat="47.28525" lon="-2.36705">
        <ele>8.3999996185303</ele>
        <time>2022-10-02T07:35:46.000Z</time>
      </trkpt>
      <trkpt lat="47.28529" lon="-2.36713">
        <ele>8</ele>
        <time>2022-10-02T07:35:47.000Z</time>
      </trkpt>
      <trkpt lat="47.28532" lon="-2.3672">
        <ele>7.5999999046326</ele>
        <time>2022-10-02T07:35:48.000Z</time>
      </trkpt>
      <trkpt lat="47.2854" lon="-2.36735">
        <ele>7.1999998092651</ele>
        <time>2022-10-02T07:35:50.000Z</time>
      </trkpt>
      <trkpt lat="47.28544" lon="-2.36743">
        <ele>6.8000001907349</ele>
        <time>2022-10-02T07:35:51.000Z</time>
      </trkpt>
      <trkpt lat="47.28548" lon="-2.36751">
        <ele>6.4000000953674</ele>
        <time>2022-10-02T07:35:52.000Z</time>
      </trkpt>
      <trkpt lat="47.28552" lon="-2.3676">
        <ele>6</ele>
        <time>2022-10-02T07:35:53.000Z</time>
      </trkpt>
      <trkpt lat="47.28556" lon="-2.36769">
        <ele>5.5999999046326</ele>
        <time>2022-10-02T07:35:54.000Z</time>
      </trkpt>
      <trkpt lat="47.28565" lon="-2.36785">
        <ele>5.1999998092651</ele>
        <time>2022-10-02T07:35:56.000Z</time>
      </trkpt>
      <trkpt lat="47.2857" lon="-2.36793">
        <ele>4.8000001907349</ele>
        <time>2022-10-02T07:35:57.000Z</time>
      </trkpt>
      <trkpt lat="47.28575" lon="-2.36801">
        <ele>4.1999998092651</ele>
        <time>2022-10-02T07:35:58.000Z</time>
      </trkpt>
      <trkpt lat="47.28579" lon="-2.36809">
        <ele>3.7999999523163</ele>
        <time>2022-10-02T07:35:59.000Z</time>
      </trkpt>
      <trkpt lat="47.28584" lon="-2.36817">
        <ele>3.4000000953674</ele>
        <time>2022-10-02T07:36:00.000Z</time>
      </trkpt>
      <trkpt lat="47.286" lon="-2.36843">
        <ele>3.4000000953674</ele>
        <time>2022-10-02T07:36:04.000Z</time>
      </trkpt>
      <trkpt lat="47.28615" lon="-2.36837">
        <ele>3.4000000953674</ele>
        <time>2022-10-02T07:36:07.000Z</time>
      </trkpt>
      <trkpt lat="47.28626" lon="-2.36825">
        <ele>3.4000000953674</ele>
        <time>2022-10-02T07:36:10.000Z</time>
      </trkpt>
      <trkpt lat="47.28632" lon="-2.36818">
        <ele>3.4000000953674</ele>
        <time>2022-10-02T07:36:12.000Z</time>
      </trkpt>
      <trkpt lat="47.28647" lon="-2.36802">
        <ele>3.4000000953674</ele>
        <time>2022-10-02T07:36:17.000Z</time>
      </trkpt>
      <trkpt lat="47.28658" lon="-2.36791">
        <ele>3.4000000953674</ele>
        <time>2022-10-02T07:36:21.000Z</time>
      </trkpt>
      <trkpt lat="47.28662" lon="-2.36793">
        <ele>3.4000000953674</ele>
        <time>2022-10-02T07:36:22.000Z</time>
      </trkpt>
      <trkpt lat="47.2867" lon="-2.36803">
        <ele>3.4000000953674</ele>
        <time>2022-10-02T07:36:26.000Z</time>
      </trkpt>
      <trkpt lat="47.28673" lon="-2.36812">
        <ele>3.4000000953674</ele>
        <time>2022-10-02T07:36:28.000Z</time>
      </trkpt>
      <trkpt lat="47.2868" lon="-2.36827">
        <ele>3.4000000953674</ele>
        <time>2022-10-02T07:36:31.000Z</time>
      </trkpt>
      <trkpt lat="47.28697" lon="-2.36867">
        <ele>3.4000000953674</ele>
        <time>2022-10-02T07:36:38.000Z</time>
      </trkpt>
      <trkpt lat="47.28706" lon="-2.36888">
        <ele>3.4000000953674</ele>
        <time>2022-10-02T07:36:43.000Z</time>
      </trkpt>
      <trkpt lat="47.2871" lon="-2.369">
        <ele>2.5999999046326</ele>
        <time>2022-10-02T07:36:45.000Z</time>
      </trkpt>
      <trkpt lat="47.28714" lon="-2.36904">
        <ele>2.2000000476837</ele>
        <time>2022-10-02T07:36:46.000Z</time>
      </trkpt>
      <trkpt lat="47.28718" lon="-2.36906">
        <ele>1.7999999523163</ele>
        <time>2022-10-02T07:36:47.000Z</time>
      </trkpt>
      <trkpt lat="47.28723" lon="-2.36908">
        <ele>1.2000000476837</ele>
        <time>2022-10-02T07:36:48.000Z</time>
      </trkpt>
      <trkpt lat="47.28727" lon="-2.36911">
        <ele>0.80000001192093</ele>
        <time>2022-10-02T07:36:49.000Z</time>
      </trkpt>
      <trkpt lat="47.2873" lon="-2.36913">
        <ele>0.20000000298023</ele>
        <time>2022-10-02T07:36:50.000Z</time>
      </trkpt>
      <trkpt lat="47.28732" lon="-2.36915">
        <ele>-0.40000000596046</ele>
        <time>2022-10-02T07:36:51.000Z</time>
      </trkpt>
      <trkpt lat="47.28734" lon="-2.36918">
        <ele>-1</ele>
        <time>2022-10-02T07:36:52.000Z</time>
      </trkpt>
      <trkpt lat="47.28742" lon="-2.36931">
        <ele>-0.60000002384186</ele>
        <time>2022-10-02T07:36:55.000Z</time>
      </trkpt>
      <trkpt lat="47.28743" lon="-2.36935">
        <ele>-0.20000000298023</ele>
        <time>2022-10-02T07:36:56.000Z</time>
      </trkpt>
      <trkpt lat="47.28743" lon="-2.36937">
        <ele>0.40000000596046</ele>
        <time>2022-10-02T07:36:57.000Z</time>
      </trkpt>
      <trkpt lat="47.28743" lon="-2.36941">
        <ele>0.80000001192093</ele>
        <time>2022-10-02T07:36:58.000Z</time>
      </trkpt>
      <trkpt lat="47.28744" lon="-2.36945">
        <ele>1.2000000476837</ele>
        <time>2022-10-02T07:36:59.000Z</time>
      </trkpt>
      <trkpt lat="47.28745" lon="-2.36949">
        <ele>1.6000000238419</ele>
        <time>2022-10-02T07:37:00.000Z</time>
      </trkpt>
      <trkpt lat="47.28746" lon="-2.36954">
        <ele>2</ele>
        <time>2022-10-02T07:37:01.000Z</time>
      </trkpt>
      <trkpt lat="47.28747" lon="-2.36956">
        <ele>2.5999999046326</ele>
        <time>2022-10-02T07:37:02.000Z</time>
      </trkpt>
      <trkpt lat="47.28748" lon="-2.3696">
        <ele>3</ele>
        <time>2022-10-02T07:37:03.000Z</time>
      </trkpt>
      <trkpt lat="47.28749" lon="-2.36964">
        <ele>3.5999999046326</ele>
        <time>2022-10-02T07:37:04.000Z</time>
      </trkpt>
      <trkpt lat="47.28749" lon="-2.36966">
        <ele>3.5999999046326</ele>
        <time>2022-10-02T07:37:05.000Z</time>
      </trkpt>
      <trkpt lat="47.28763" lon="-2.36991">
        <ele>3.5999999046326</ele>
        <time>2022-10-02T07:37:10.000Z</time>
      </trkpt>
      <trkpt lat="47.28776" lon="-2.37015">
        <ele>3.5999999046326</ele>
        <time>2022-10-02T07:37:15.000Z</time>
      </trkpt>
      <trkpt lat="47.28777" lon="-2.37022">
        <ele>3.5999999046326</ele>
        <time>2022-10-02T07:37:16.000Z</time>
      </trkpt>
      <trkpt lat="47.28782" lon="-2.37038">
        <ele>3.5999999046326</ele>
        <time>2022-10-02T07:37:19.000Z</time>
      </trkpt>
      <trkpt lat="47.28786" lon="-2.37051">
        <ele>3.5999999046326</ele>
        <time>2022-10-02T07:37:22.000Z</time>
      </trkpt>
      <trkpt lat="47.28788" lon="-2.37065">
        <ele>3</ele>
        <time>2022-10-02T07:37:23.000Z</time>
      </trkpt>
      <trkpt lat="47.28789" lon="-2.37073">
        <ele>2.5999999046326</ele>
        <time>2022-10-02T07:37:24.000Z</time>
      </trkpt>
      <trkpt lat="47.28791" lon="-2.37081">
        <ele>2.2000000476837</ele>
        <time>2022-10-02T07:37:25.000Z</time>
      </trkpt>
      <trkpt lat="47.28793" lon="-2.37089">
        <ele>1.6000000238419</ele>
        <time>2022-10-02T07:37:26.000Z</time>
      </trkpt>
      <trkpt lat="47.28795" lon="-2.37095">
        <ele>1.2000000476837</ele>
        <time>2022-10-02T07:37:27.000Z</time>
      </trkpt>
      <trkpt lat="47.28797" lon="-2.37101">
        <ele>1.2000000476837</ele>
        <time>2022-10-02T07:37:28.000Z</time>
      </trkpt>
      <trkpt lat="47.288" lon="-2.37105">
        <ele>0.60000002384186</ele>
        <time>2022-10-02T07:37:29.000Z</time>
      </trkpt>
      <trkpt lat="47.28802" lon="-2.37107">
        <ele>0.20000000298023</ele>
        <time>2022-10-02T07:37:30.000Z</time>
      </trkpt>
      <trkpt lat="47.28809" lon="-2.37111">
        <ele>-0.20000000298023</ele>
        <time>2022-10-02T07:37:31.000Z</time>
      </trkpt>
      <trkpt lat="47.28813" lon="-2.3711">
        <ele>-0.60000002384186</ele>
        <time>2022-10-02T07:37:32.000Z</time>
      </trkpt>
      <trkpt lat="47.28817" lon="-2.37108">
        <ele>-1.2000000476837</ele>
        <time>2022-10-02T07:37:33.000Z</time>
      </trkpt>
      <trkpt lat="47.2882" lon="-2.37106">
        <ele>-2.4000000953674</ele>
        <time>2022-10-02T07:37:34.000Z</time>
      </trkpt>
      <trkpt lat="47.28823" lon="-2.37104">
        <ele>-2.7999999523163</ele>
        <time>2022-10-02T07:37:35.000Z</time>
      </trkpt>
      <trkpt lat="47.28826" lon="-2.37105">
        <ele>-3.4000000953674</ele>
        <time>2022-10-02T07:37:36.000Z</time>
      </trkpt>
      <trkpt lat="47.28828" lon="-2.37106">
        <ele>-4</ele>
        <time>2022-10-02T07:37:37.000Z</time>
      </trkpt>
      <trkpt lat="47.28829" lon="-2.3711">
        <ele>-4.5999999046326</ele>
        <time>2022-10-02T07:37:38.000Z</time>
      </trkpt>
      <trkpt lat="47.28829" lon="-2.37114">
        <ele>-5</ele>
        <time>2022-10-02T07:37:39.000Z</time>
      </trkpt>
      <trkpt lat="47.28827" lon="-2.37118">
        <ele>-5.5999999046326</ele>
        <time>2022-10-02T07:37:40.000Z</time>
      </trkpt>
      <trkpt lat="47.28827" lon="-2.37142">
        <ele>-5.5999999046326</ele>
        <time>2022-10-02T07:37:44.000Z</time>
      </trkpt>
      <trkpt lat="47.28834" lon="-2.37189">
        <ele>-5.5999999046326</ele>
        <time>2022-10-02T07:37:50.000Z</time>
      </trkpt>
      <trkpt lat="47.28837" lon="-2.37203">
        <ele>-5.5999999046326</ele>
        <time>2022-10-02T07:37:52.000Z</time>
      </trkpt>
      <trkpt lat="47.28841" lon="-2.37222">
        <ele>-5.5999999046326</ele>
        <time>2022-10-02T07:37:55.000Z</time>
      </trkpt>
      <trkpt lat="47.28842" lon="-2.37229">
        <ele>-6</ele>
        <time>2022-10-02T07:37:56.000Z</time>
      </trkpt>
      <trkpt lat="47.28845" lon="-2.37235">
        <ele>-6.4000000953674</ele>
        <time>2022-10-02T07:37:57.000Z</time>
      </trkpt>
      <trkpt lat="47.28849" lon="-2.37238">
        <ele>-7.1999998092651</ele>
        <time>2022-10-02T07:37:58.000Z</time>
      </trkpt>
      <trkpt lat="47.28853" lon="-2.37239">
        <ele>-7.5999999046326</ele>
        <time>2022-10-02T07:37:59.000Z</time>
      </trkpt>
      <trkpt lat="47.28863" lon="-2.37235">
        <ele>-7.5999999046326</ele>
        <time>2022-10-02T07:38:01.000Z</time>
      </trkpt>
      <trkpt lat="47.28888" lon="-2.37223">
        <ele>-7.5999999046326</ele>
        <time>2022-10-02T07:38:06.000Z</time>
      </trkpt>
      <trkpt lat="47.28892" lon="-2.37221">
        <ele>-7.5999999046326</ele>
        <time>2022-10-02T07:38:07.000Z</time>
      </trkpt>
      <trkpt lat="47.28918" lon="-2.37209">
        <ele>-7.5999999046326</ele>
        <time>2022-10-02T07:38:13.000Z</time>
      </trkpt>
      <trkpt lat="47.28937" lon="-2.37204">
        <ele>-7.5999999046326</ele>
        <time>2022-10-02T07:38:19.000Z</time>
      </trkpt>
      <trkpt lat="47.28947" lon="-2.37201">
        <ele>-6.8000001907349</ele>
        <time>2022-10-02T07:38:24.000Z</time>
      </trkpt>
      <trkpt lat="47.28949" lon="-2.372">
        <ele>-6.4000000953674</ele>
        <time>2022-10-02T07:38:25.000Z</time>
      </trkpt>
      <trkpt lat="47.2895" lon="-2.37199">
        <ele>-5.8000001907349</ele>
        <time>2022-10-02T07:38:26.000Z</time>
      </trkpt>
      <trkpt lat="47.28951" lon="-2.37199">
        <ele>-5.4000000953674</ele>
        <time>2022-10-02T07:38:27.000Z</time>
      </trkpt>
      <trkpt lat="47.28954" lon="-2.37198">
        <ele>-5.4000000953674</ele>
        <time>2022-10-02T07:38:30.000Z</time>
      </trkpt>
      <trkpt lat="47.28957" lon="-2.37197">
        <ele>-5.4000000953674</ele>
        <time>2022-10-02T07:38:49.000Z</time>
      </trkpt>
      <trkpt lat="47.28967" lon="-2.37189">
        <ele>-5.4000000953674</ele>
        <time>2022-10-02T07:38:54.000Z</time>
      </trkpt>
      <trkpt lat="47.2897" lon="-2.37187">
        <ele>-5</ele>
        <time>2022-10-02T07:38:55.000Z</time>
      </trkpt>
      <trkpt lat="47.28973" lon="-2.37185">
        <ele>-4.5999999046326</ele>
        <time>2022-10-02T07:38:56.000Z</time>
      </trkpt>
      <trkpt lat="47.28976" lon="-2.37183">
        <ele>-4.1999998092651</ele>
        <time>2022-10-02T07:38:57.000Z</time>
      </trkpt>
      <trkpt lat="47.28979" lon="-2.37182">
        <ele>-3.7999999523163</ele>
        <time>2022-10-02T07:38:58.000Z</time>
      </trkpt>
      <trkpt lat="47.28982" lon="-2.3718">
        <ele>-3.2000000476837</ele>
        <time>2022-10-02T07:38:59.000Z</time>
      </trkpt>
      <trkpt lat="47.28988" lon="-2.37176">
        <ele>-3.2000000476837</ele>
        <time>2022-10-02T07:39:01.000Z</time>
      </trkpt>
      <trkpt lat="47.29003" lon="-2.37172">
        <ele>-2.7999999523163</ele>
        <time>2022-10-02T07:39:06.000Z</time>
      </trkpt>
      <trkpt lat="47.29005" lon="-2.37174">
        <ele>-2.4000000953674</ele>
        <time>2022-10-02T07:39:07.000Z</time>
      </trkpt>
      <trkpt lat="47.29008" lon="-2.37177">
        <ele>-2</ele>
        <time>2022-10-02T07:39:08.000Z</time>
      </trkpt>
      <trkpt lat="47.29011" lon="-2.37179">
        <ele>-1.6000000238419</ele>
        <time>2022-10-02T07:39:09.000Z</time>
      </trkpt>
      <trkpt lat="47.29014" lon="-2.37182">
        <ele>-1</ele>
        <time>2022-10-02T07:39:10.000Z</time>
      </trkpt>
      <trkpt lat="47.29027" lon="-2.37195">
        <ele>-0.20000000298023</ele>
        <time>2022-10-02T07:39:14.000Z</time>
      </trkpt>
      <trkpt lat="47.29031" lon="-2.37199">
        <ele>0.20000000298023</ele>
        <time>2022-10-02T07:39:15.000Z</time>
      </trkpt>
      <trkpt lat="47.29034" lon="-2.37202">
        <ele>0.60000002384186</ele>
        <time>2022-10-02T07:39:16.000Z</time>
      </trkpt>
      <trkpt lat="47.29036" lon="-2.37205">
        <ele>1</ele>
        <time>2022-10-02T07:39:17.000Z</time>
      </trkpt>
      <trkpt lat="47.29049" lon="-2.37217">
        <ele>1</ele>
        <time>2022-10-02T07:39:21.000Z</time>
      </trkpt>
      <trkpt lat="47.29063" lon="-2.37233">
        <ele>1.3999999761581</ele>
        <time>2022-10-02T07:39:26.000Z</time>
      </trkpt>
      <trkpt lat="47.29066" lon="-2.37236">
        <ele>1.7999999523163</ele>
        <time>2022-10-02T07:39:27.000Z</time>
      </trkpt>
      <trkpt lat="47.29069" lon="-2.37238">
        <ele>2.2000000476837</ele>
        <time>2022-10-02T07:39:28.000Z</time>
      </trkpt>
      <trkpt lat="47.29073" lon="-2.37242">
        <ele>2.5999999046326</ele>
        <time>2022-10-02T07:39:29.000Z</time>
      </trkpt>
      <trkpt lat="47.29076" lon="-2.37245">
        <ele>3.2000000476837</ele>
        <time>2022-10-02T07:39:30.000Z</time>
      </trkpt>
      <trkpt lat="47.29095" lon="-2.37265">
        <ele>3.2000000476837</ele>
        <time>2022-10-02T07:39:36.000Z</time>
      </trkpt>
      <trkpt lat="47.29118" lon="-2.37288">
        <ele>3.2000000476837</ele>
        <time>2022-10-02T07:39:43.000Z</time>
      </trkpt>
      <trkpt lat="47.29129" lon="-2.37298">
        <ele>3.5999999046326</ele>
        <time>2022-10-02T07:39:46.000Z</time>
      </trkpt>
      <trkpt lat="47.29132" lon="-2.37302">
        <ele>4</ele>
        <time>2022-10-02T07:39:47.000Z</time>
      </trkpt>
      <trkpt lat="47.29135" lon="-2.37306">
        <ele>4.4000000953674</ele>
        <time>2022-10-02T07:39:48.000Z</time>
      </trkpt>
      <trkpt lat="47.29138" lon="-2.37311">
        <ele>4.8000001907349</ele>
        <time>2022-10-02T07:39:49.000Z</time>
      </trkpt>
      <trkpt lat="47.29142" lon="-2.37315">
        <ele>5.1999998092651</ele>
        <time>2022-10-02T07:39:50.000Z</time>
      </trkpt>
      <trkpt lat="47.2916" lon="-2.3735">
        <ele>5.1999998092651</ele>
        <time>2022-10-02T07:39:56.000Z</time>
      </trkpt>
      <trkpt lat="47.29181" lon="-2.37391">
        <ele>5.1999998092651</ele>
        <time>2022-10-02T07:40:03.000Z</time>
      </trkpt>
      <trkpt lat="47.29202" lon="-2.37425">
        <ele>4.5999999046326</ele>
        <time>2022-10-02T07:40:09.000Z</time>
      </trkpt>
      <trkpt lat="47.29206" lon="-2.37432">
        <ele>4.1999998092651</ele>
        <time>2022-10-02T07:40:10.000Z</time>
      </trkpt>
      <trkpt lat="47.2921" lon="-2.37438">
        <ele>3.7999999523163</ele>
        <time>2022-10-02T07:40:11.000Z</time>
      </trkpt>
      <trkpt lat="47.29214" lon="-2.37445">
        <ele>3.4000000953674</ele>
        <time>2022-10-02T07:40:12.000Z</time>
      </trkpt>
      <trkpt lat="47.29218" lon="-2.37451">
        <ele>3</ele>
        <time>2022-10-02T07:40:13.000Z</time>
      </trkpt>
      <trkpt lat="47.2924" lon="-2.37484">
        <ele>3</ele>
        <time>2022-10-02T07:40:18.000Z</time>
      </trkpt>
      <trkpt lat="47.29254" lon="-2.37503">
        <ele>2.4000000953674</ele>
        <time>2022-10-02T07:40:21.000Z</time>
      </trkpt>
      <trkpt lat="47.29259" lon="-2.37509">
        <ele>2</ele>
        <time>2022-10-02T07:40:22.000Z</time>
      </trkpt>
      <trkpt lat="47.29264" lon="-2.37514">
        <ele>1.6000000238419</ele>
        <time>2022-10-02T07:40:23.000Z</time>
      </trkpt>
      <trkpt lat="47.29268" lon="-2.37521">
        <ele>1.2000000476837</ele>
        <time>2022-10-02T07:40:24.000Z</time>
      </trkpt>
      <trkpt lat="47.29272" lon="-2.37528">
        <ele>0.80000001192093</ele>
        <time>2022-10-02T07:40:25.000Z</time>
      </trkpt>
      <trkpt lat="47.29279" lon="-2.37543">
        <ele>0.80000001192093</ele>
        <time>2022-10-02T07:40:27.000Z</time>
      </trkpt>
      <trkpt lat="47.29283" lon="-2.37551">
        <ele>0.80000001192093</ele>
        <time>2022-10-02T07:40:28.000Z</time>
      </trkpt>
      <trkpt lat="47.29287" lon="-2.37558">
        <ele>0.80000001192093</ele>
        <time>2022-10-02T07:40:29.000Z</time>
      </trkpt>
      <trkpt lat="47.29291" lon="-2.37564">
        <ele>0.40000000596046</ele>
        <time>2022-10-02T07:40:30.000Z</time>
      </trkpt>
      <trkpt lat="47.29295" lon="-2.37571">
        <ele>-0.20000000298023</ele>
        <time>2022-10-02T07:40:31.000Z</time>
      </trkpt>
      <trkpt lat="47.29299" lon="-2.37577">
        <ele>-0.60000002384186</ele>
        <time>2022-10-02T07:40:32.000Z</time>
      </trkpt>
      <trkpt lat="47.29302" lon="-2.37583">
        <ele>-1</ele>
        <time>2022-10-02T07:40:33.000Z</time>
      </trkpt>
      <trkpt lat="47.29306" lon="-2.37589">
        <ele>-1.3999999761581</ele>
        <time>2022-10-02T07:40:34.000Z</time>
      </trkpt>
      <trkpt lat="47.2932" lon="-2.37614">
        <ele>-1.3999999761581</ele>
        <time>2022-10-02T07:40:38.000Z</time>
      </trkpt>
      <trkpt lat="47.29322" lon="-2.3762">
        <ele>-1.3999999761581</ele>
        <time>2022-10-02T07:40:39.000Z</time>
      </trkpt>
      <trkpt lat="47.29334" lon="-2.37655">
        <ele>-1.3999999761581</ele>
        <time>2022-10-02T07:40:44.000Z</time>
      </trkpt>
      <trkpt lat="47.29335" lon="-2.3767">
        <ele>-1.3999999761581</ele>
        <time>2022-10-02T07:40:46.000Z</time>
      </trkpt>
      <trkpt lat="47.29334" lon="-2.37685">
        <ele>-1.3999999761581</ele>
        <time>2022-10-02T07:40:48.000Z</time>
      </trkpt>
      <trkpt lat="47.29332" lon="-2.37701">
        <ele>-1.3999999761581</ele>
        <time>2022-10-02T07:40:50.000Z</time>
      </trkpt>
      <trkpt lat="47.29332" lon="-2.3771">
        <ele>-1.3999999761581</ele>
        <time>2022-10-02T07:40:51.000Z</time>
      </trkpt>
      <trkpt lat="47.29335" lon="-2.3776">
        <ele>-1.7999999523163</ele>
        <time>2022-10-02T07:40:56.000Z</time>
      </trkpt>
      <trkpt lat="47.29335" lon="-2.37771">
        <ele>-2.4000000953674</ele>
        <time>2022-10-02T07:40:57.000Z</time>
      </trkpt>
      <trkpt lat="47.29336" lon="-2.37782">
        <ele>-2.7999999523163</ele>
        <time>2022-10-02T07:40:58.000Z</time>
      </trkpt>
      <trkpt lat="47.29336" lon="-2.37793">
        <ele>-3.4000000953674</ele>
        <time>2022-10-02T07:40:59.000Z</time>
      </trkpt>
      <trkpt lat="47.29337" lon="-2.37804">
        <ele>-3.7999999523163</ele>
        <time>2022-10-02T07:41:00.000Z</time>
      </trkpt>
      <trkpt lat="47.29338" lon="-2.37816">
        <ele>-4.4000000953674</ele>
        <time>2022-10-02T07:41:01.000Z</time>
      </trkpt>
      <trkpt lat="47.29339" lon="-2.37827">
        <ele>-4.8000001907349</ele>
        <time>2022-10-02T07:41:02.000Z</time>
      </trkpt>
      <trkpt lat="47.29341" lon="-2.37838">
        <ele>-5.1999998092651</ele>
        <time>2022-10-02T07:41:03.000Z</time>
      </trkpt>
      <trkpt lat="47.29343" lon="-2.37848">
        <ele>-5.8000001907349</ele>
        <time>2022-10-02T07:41:04.000Z</time>
      </trkpt>
      <trkpt lat="47.29346" lon="-2.37859">
        <ele>-6.1999998092651</ele>
        <time>2022-10-02T07:41:05.000Z</time>
      </trkpt>
      <trkpt lat="47.29356" lon="-2.3789">
        <ele>-6.5999999046326</ele>
        <time>2022-10-02T07:41:08.000Z</time>
      </trkpt>
      <trkpt lat="47.29359" lon="-2.379">
        <ele>-7</ele>
        <time>2022-10-02T07:41:09.000Z</time>
      </trkpt>
      <trkpt lat="47.29362" lon="-2.37909">
        <ele>-7.4000000953674</ele>
        <time>2022-10-02T07:41:10.000Z</time>
      </trkpt>
      <trkpt lat="47.29366" lon="-2.37919">
        <ele>-7.8000001907349</ele>
        <time>2022-10-02T07:41:11.000Z</time>
      </trkpt>
      <trkpt lat="47.29369" lon="-2.37928">
        <ele>-8.1999998092651</ele>
        <time>2022-10-02T07:41:12.000Z</time>
      </trkpt>
      <trkpt lat="47.29382" lon="-2.37965">
        <ele>-8.1999998092651</ele>
        <time>2022-10-02T07:41:16.000Z</time>
      </trkpt>
      <trkpt lat="47.29385" lon="-2.37975">
        <ele>-8.6000003814697</ele>
        <time>2022-10-02T07:41:17.000Z</time>
      </trkpt>
      <trkpt lat="47.29389" lon="-2.37984">
        <ele>-9</ele>
        <time>2022-10-02T07:41:18.000Z</time>
      </trkpt>
      <trkpt lat="47.29392" lon="-2.37993">
        <ele>-9.3999996185303</ele>
        <time>2022-10-02T07:41:19.000Z</time>
      </trkpt>
      <trkpt lat="47.29395" lon="-2.38003">
        <ele>-9.8000001907349</ele>
        <time>2022-10-02T07:41:20.000Z</time>
      </trkpt>
      <trkpt lat="47.29399" lon="-2.38012">
        <ele>-10.199999809265</ele>
        <time>2022-10-02T07:41:21.000Z</time>
      </trkpt>
      <trkpt lat="47.29412" lon="-2.38051">
        <ele>-10.199999809265</ele>
        <time>2022-10-02T07:41:25.000Z</time>
      </trkpt>
      <trkpt lat="47.29423" lon="-2.38078">
        <ele>-10.60000038147</ele>
        <time>2022-10-02T07:41:28.000Z</time>
      </trkpt>
      <trkpt lat="47.29426" lon="-2.38087">
        <ele>-11.199999809265</ele>
        <time>2022-10-02T07:41:29.000Z</time>
      </trkpt>
      <trkpt lat="47.29429" lon="-2.38095">
        <ele>-11.60000038147</ele>
        <time>2022-10-02T07:41:30.000Z</time>
      </trkpt>
      <trkpt lat="47.29432" lon="-2.38104">
        <ele>-12</ele>
        <time>2022-10-02T07:41:31.000Z</time>
      </trkpt>
      <trkpt lat="47.29435" lon="-2.38112">
        <ele>-12.39999961853</ele>
        <time>2022-10-02T07:41:32.000Z</time>
      </trkpt>
      <trkpt lat="47.2944" lon="-2.38127">
        <ele>-12.39999961853</ele>
        <time>2022-10-02T07:41:34.000Z</time>
      </trkpt>
      <trkpt lat="47.29444" lon="-2.38141">
        <ele>-12.39999961853</ele>
        <time>2022-10-02T07:41:36.000Z</time>
      </trkpt>
      <trkpt lat="47.29451" lon="-2.38152">
        <ele>-12.39999961853</ele>
        <time>2022-10-02T07:41:39.000Z</time>
      </trkpt>
      <trkpt lat="47.29463" lon="-2.38146">
        <ele>-12.39999961853</ele>
        <time>2022-10-02T07:41:43.000Z</time>
      </trkpt>
      <trkpt lat="47.29466" lon="-2.38143">
        <ele>-12.39999961853</ele>
        <time>2022-10-02T07:41:44.000Z</time>
      </trkpt>
      <trkpt lat="47.29476" lon="-2.38135">
        <ele>-12.39999961853</ele>
        <time>2022-10-02T07:41:47.000Z</time>
      </trkpt>
      <trkpt lat="47.29478" lon="-2.38131">
        <ele>-12.39999961853</ele>
        <time>2022-10-02T07:41:48.000Z</time>
      </trkpt>
      <trkpt lat="47.29493" lon="-2.38124">
        <ele>-12.39999961853</ele>
        <time>2022-10-02T07:41:52.000Z</time>
      </trkpt>
      <trkpt lat="47.29508" lon="-2.38124">
        <ele>-12</ele>
        <time>2022-10-02T07:41:55.000Z</time>
      </trkpt>
      <trkpt lat="47.29513" lon="-2.38124">
        <ele>-11.60000038147</ele>
        <time>2022-10-02T07:41:56.000Z</time>
      </trkpt>
      <trkpt lat="47.29517" lon="-2.38124">
        <ele>-11</ele>
        <time>2022-10-02T07:41:57.000Z</time>
      </trkpt>
      <trkpt lat="47.29522" lon="-2.38124">
        <ele>-10.60000038147</ele>
        <time>2022-10-02T07:41:58.000Z</time>
      </trkpt>
      <trkpt lat="47.29526" lon="-2.38124">
        <ele>-10.199999809265</ele>
        <time>2022-10-02T07:41:59.000Z</time>
      </trkpt>
      <trkpt lat="47.2954" lon="-2.38124">
        <ele>-10.199999809265</ele>
        <time>2022-10-02T07:42:02.000Z</time>
      </trkpt>
      <trkpt lat="47.29548" lon="-2.38123">
        <ele>-10.199999809265</ele>
        <time>2022-10-02T07:42:04.000Z</time>
      </trkpt>
      <trkpt lat="47.29556" lon="-2.38123">
        <ele>-9.8000001907349</ele>
        <time>2022-10-02T07:42:06.000Z</time>
      </trkpt>
      <trkpt lat="47.2956" lon="-2.38122">
        <ele>-9.3999996185303</ele>
        <time>2022-10-02T07:42:07.000Z</time>
      </trkpt>
      <trkpt lat="47.29564" lon="-2.38121">
        <ele>-9</ele>
        <time>2022-10-02T07:42:08.000Z</time>
      </trkpt>
      <trkpt lat="47.29568" lon="-2.3812">
        <ele>-8.6000003814697</ele>
        <time>2022-10-02T07:42:09.000Z</time>
      </trkpt>
      <trkpt lat="47.29571" lon="-2.38119">
        <ele>-8.1999998092651</ele>
        <time>2022-10-02T07:42:10.000Z</time>
      </trkpt>
      <trkpt lat="47.29588" lon="-2.38116">
        <ele>-8.1999998092651</ele>
        <time>2022-10-02T07:42:14.000Z</time>
      </trkpt>
      <trkpt lat="47.29611" lon="-2.3811">
        <ele>-7.8000001907349</ele>
        <time>2022-10-02T07:42:20.000Z</time>
      </trkpt>
      <trkpt lat="47.29615" lon="-2.38109">
        <ele>-7.4000000953674</ele>
        <time>2022-10-02T07:42:21.000Z</time>
      </trkpt>
      <trkpt lat="47.29619" lon="-2.38108">
        <ele>-7</ele>
        <time>2022-10-02T07:42:22.000Z</time>
      </trkpt>
      <trkpt lat="47.29622" lon="-2.38106">
        <ele>-6.4000000953674</ele>
        <time>2022-10-02T07:42:23.000Z</time>
      </trkpt>
      <trkpt lat="47.29626" lon="-2.38104">
        <ele>-6</ele>
        <time>2022-10-02T07:42:24.000Z</time>
      </trkpt>
      <trkpt lat="47.29637" lon="-2.38099">
        <ele>-6</ele>
        <time>2022-10-02T07:42:27.000Z</time>
      </trkpt>
      <trkpt lat="47.29661" lon="-2.38087">
        <ele>-5.5999999046326</ele>
        <time>2022-10-02T07:42:34.000Z</time>
      </trkpt>
      <trkpt lat="47.29664" lon="-2.38085">
        <ele>-5.1999998092651</ele>
        <time>2022-10-02T07:42:35.000Z</time>
      </trkpt>
      <trkpt lat="47.29667" lon="-2.38083">
        <ele>-4.8000001907349</ele>
        <time>2022-10-02T07:42:36.000Z</time>
      </trkpt>
      <trkpt lat="47.2967" lon="-2.38081">
        <ele>-4.4000000953674</ele>
        <time>2022-10-02T07:42:37.000Z</time>
      </trkpt>
      <trkpt lat="47.29673" lon="-2.3808">
        <ele>-4</ele>
        <time>2022-10-02T07:42:38.000Z</time>
      </trkpt>
      <trkpt lat="47.29681" lon="-2.38075">
        <ele>-4</ele>
        <time>2022-10-02T07:42:41.000Z</time>
      </trkpt>
      <trkpt lat="47.29684" lon="-2.38074">
        <ele>-3.5999999046326</ele>
        <time>2022-10-02T07:42:42.000Z</time>
      </trkpt>
      <trkpt lat="47.29686" lon="-2.38072">
        <ele>-3.2000000476837</ele>
        <time>2022-10-02T07:42:43.000Z</time>
      </trkpt>
      <trkpt lat="47.29688" lon="-2.3807">
        <ele>-2.7999999523163</ele>
        <time>2022-10-02T07:42:44.000Z</time>
      </trkpt>
      <trkpt lat="47.2969" lon="-2.38069">
        <ele>-2.4000000953674</ele>
        <time>2022-10-02T07:42:45.000Z</time>
      </trkpt>
      <trkpt lat="47.29693" lon="-2.38067">
        <ele>-2</ele>
        <time>2022-10-02T07:42:46.000Z</time>
      </trkpt>
      <trkpt lat="47.29697" lon="-2.38064">
        <ele>-2</ele>
        <time>2022-10-02T07:42:48.000Z</time>
      </trkpt>
      <trkpt lat="47.29701" lon="-2.38061">
        <ele>-1.6000000238419</ele>
        <time>2022-10-02T07:42:50.000Z</time>
      </trkpt>
      <trkpt lat="47.29703" lon="-2.38059">
        <ele>-1</ele>
        <time>2022-10-02T07:42:51.000Z</time>
      </trkpt>
      <trkpt lat="47.29705" lon="-2.38057">
        <ele>-0.60000002384186</ele>
        <time>2022-10-02T07:42:52.000Z</time>
      </trkpt>
      <trkpt lat="47.29707" lon="-2.38056">
        <ele>-0.20000000298023</ele>
        <time>2022-10-02T07:42:53.000Z</time>
      </trkpt>
      <trkpt lat="47.29709" lon="-2.38054">
        <ele>0.20000000298023</ele>
        <time>2022-10-02T07:42:54.000Z</time>
      </trkpt>
      <trkpt lat="47.29713" lon="-2.38052">
        <ele>0.60000002384186</ele>
        <time>2022-10-02T07:42:56.000Z</time>
      </trkpt>
      <trkpt lat="47.29715" lon="-2.3805">
        <ele>1</ele>
        <time>2022-10-02T07:42:57.000Z</time>
      </trkpt>
      <trkpt lat="47.29716" lon="-2.38048">
        <ele>1.3999999761581</ele>
        <time>2022-10-02T07:42:58.000Z</time>
      </trkpt>
      <trkpt lat="47.29718" lon="-2.38047">
        <ele>1.7999999523163</ele>
        <time>2022-10-02T07:42:59.000Z</time>
      </trkpt>
      <trkpt lat="47.2972" lon="-2.38046">
        <ele>2.2000000476837</ele>
        <time>2022-10-02T07:43:00.000Z</time>
      </trkpt>
      <trkpt lat="47.29722" lon="-2.38044">
        <ele>2.2000000476837</ele>
        <time>2022-10-02T07:43:01.000Z</time>
      </trkpt>
      <trkpt lat="47.29725" lon="-2.38042">
        <ele>2.5999999046326</ele>
        <time>2022-10-02T07:43:03.000Z</time>
      </trkpt>
      <trkpt lat="47.29726" lon="-2.3804">
        <ele>3</ele>
        <time>2022-10-02T07:43:04.000Z</time>
      </trkpt>
      <trkpt lat="47.29728" lon="-2.38039">
        <ele>3.4000000953674</ele>
        <time>2022-10-02T07:43:05.000Z</time>
      </trkpt>
      <trkpt lat="47.29729" lon="-2.38038">
        <ele>4</ele>
        <time>2022-10-02T07:43:06.000Z</time>
      </trkpt>
      <trkpt lat="47.2973" lon="-2.38037">
        <ele>4.4000000953674</ele>
        <time>2022-10-02T07:43:07.000Z</time>
      </trkpt>
      <trkpt lat="47.29732" lon="-2.38034">
        <ele>4.4000000953674</ele>
        <time>2022-10-02T07:43:09.000Z</time>
      </trkpt>
      <trkpt lat="47.29733" lon="-2.3803">
        <ele>4.8000001907349</ele>
        <time>2022-10-02T07:43:11.000Z</time>
      </trkpt>
      <trkpt lat="47.29734" lon="-2.38027">
        <ele>5.1999998092651</ele>
        <time>2022-10-02T07:43:12.000Z</time>
      </trkpt>
      <trkpt lat="47.29734" lon="-2.38025">
        <ele>5.5999999046326</ele>
        <time>2022-10-02T07:43:13.000Z</time>
      </trkpt>
      <trkpt lat="47.29734" lon="-2.38022">
        <ele>6</ele>
        <time>2022-10-02T07:43:14.000Z</time>
      </trkpt>
      <trkpt lat="47.29734" lon="-2.3802">
        <ele>6.4000000953674</ele>
        <time>2022-10-02T07:43:15.000Z</time>
      </trkpt>
      <trkpt lat="47.29733" lon="-2.38018">
        <ele>6.4000000953674</ele>
        <time>2022-10-02T07:43:16.000Z</time>
      </trkpt>
      <trkpt lat="47.29732" lon="-2.38014">
        <ele>6.8000001907349</ele>
        <time>2022-10-02T07:43:18.000Z</time>
      </trkpt>
      <trkpt lat="47.29731" lon="-2.38012">
        <ele>7.1999998092651</ele>
        <time>2022-10-02T07:43:19.000Z</time>
      </trkpt>
      <trkpt lat="47.29731" lon="-2.3801">
        <ele>8</ele>
        <time>2022-10-02T07:43:20.000Z</time>
      </trkpt>
      <trkpt lat="47.29731" lon="-2.38008">
        <ele>8.3999996185303</ele>
        <time>2022-10-02T07:43:21.000Z</time>
      </trkpt>
      <trkpt lat="47.29731" lon="-2.38006">
        <ele>8.3999996185303</ele>
        <time>2022-10-02T07:43:22.000Z</time>
      </trkpt>
      <trkpt lat="47.29731" lon="-2.37999">
        <ele>8.8000001907349</ele>
        <time>2022-10-02T07:43:25.000Z</time>
      </trkpt>
      <trkpt lat="47.29731" lon="-2.37996">
        <ele>9.3999996185303</ele>
        <time>2022-10-02T07:43:26.000Z</time>
      </trkpt>
      <trkpt lat="47.29731" lon="-2.37994">
        <ele>9.8000001907349</ele>
        <time>2022-10-02T07:43:27.000Z</time>
      </trkpt>
      <trkpt lat="47.29732" lon="-2.37992">
        <ele>10.199999809265</ele>
        <time>2022-10-02T07:43:28.000Z</time>
      </trkpt>
      <trkpt lat="47.29732" lon="-2.3799">
        <ele>10.800000190735</ele>
        <time>2022-10-02T07:43:29.000Z</time>
      </trkpt>
      <trkpt lat="47.29733" lon="-2.37984">
        <ele>11.199999809265</ele>
        <time>2022-10-02T07:43:32.000Z</time>
      </trkpt>
      <trkpt lat="47.29734" lon="-2.37982">
        <ele>11.60000038147</ele>
        <time>2022-10-02T07:43:33.000Z</time>
      </trkpt>
      <trkpt lat="47.29735" lon="-2.37979">
        <ele>12</ele>
        <time>2022-10-02T07:43:34.000Z</time>
      </trkpt>
      <trkpt lat="47.29735" lon="-2.37977">
        <ele>12.39999961853</ele>
        <time>2022-10-02T07:43:35.000Z</time>
      </trkpt>
      <trkpt lat="47.29736" lon="-2.37975">
        <ele>12.800000190735</ele>
        <time>2022-10-02T07:43:36.000Z</time>
      </trkpt>
      <trkpt lat="47.2974" lon="-2.37964">
        <ele>13.199999809265</ele>
        <time>2022-10-02T07:43:41.000Z</time>
      </trkpt>
      <trkpt lat="47.2974" lon="-2.37963">
        <ele>13.60000038147</ele>
        <time>2022-10-02T07:43:42.000Z</time>
      </trkpt>
      <trkpt lat="47.29741" lon="-2.37961">
        <ele>14</ele>
        <time>2022-10-02T07:43:43.000Z</time>
      </trkpt>
      <trkpt lat="47.29742" lon="-2.37959">
        <ele>14.800000190735</ele>
        <time>2022-10-02T07:43:44.000Z</time>
      </trkpt>
      <trkpt lat="47.29743" lon="-2.37955">
        <ele>14.800000190735</ele>
        <time>2022-10-02T07:43:46.000Z</time>
      </trkpt>
      <trkpt lat="47.29752" lon="-2.3794">
        <ele>15.199999809265</ele>
        <time>2022-10-02T07:43:53.000Z</time>
      </trkpt>
      <trkpt lat="47.29753" lon="-2.37938">
        <ele>15.60000038147</ele>
        <time>2022-10-02T07:43:54.000Z</time>
      </trkpt>
      <trkpt lat="47.29754" lon="-2.37936">
        <ele>16</ele>
        <time>2022-10-02T07:43:55.000Z</time>
      </trkpt>
      <trkpt lat="47.29756" lon="-2.37934">
        <ele>16.39999961853</ele>
        <time>2022-10-02T07:43:56.000Z</time>
      </trkpt>
      <trkpt lat="47.29758" lon="-2.37932">
        <ele>16.799999237061</ele>
        <time>2022-10-02T07:43:57.000Z</time>
      </trkpt>
      <trkpt lat="47.2976" lon="-2.37931">
        <ele>16.799999237061</ele>
        <time>2022-10-02T07:43:58.000Z</time>
      </trkpt>
      <trkpt lat="47.29774" lon="-2.37919">
        <ele>16.799999237061</ele>
        <time>2022-10-02T07:44:05.000Z</time>
      </trkpt>
      <trkpt lat="47.2979" lon="-2.37908">
        <ele>16.799999237061</ele>
        <time>2022-10-02T07:44:12.000Z</time>
      </trkpt>
      <trkpt lat="47.29797" lon="-2.37903">
        <ele>17.200000762939</ele>
        <time>2022-10-02T07:44:16.000Z</time>
      </trkpt>
      <trkpt lat="47.29799" lon="-2.37902">
        <ele>17.60000038147</ele>
        <time>2022-10-02T07:44:17.000Z</time>
      </trkpt>
      <trkpt lat="47.29801" lon="-2.379">
        <ele>18</ele>
        <time>2022-10-02T07:44:18.000Z</time>
      </trkpt>
      <trkpt lat="47.29804" lon="-2.37898">
        <ele>18.39999961853</ele>
        <time>2022-10-02T07:44:19.000Z</time>
      </trkpt>
      <trkpt lat="47.29807" lon="-2.37896">
        <ele>18.799999237061</ele>
        <time>2022-10-02T07:44:20.000Z</time>
      </trkpt>
      <trkpt lat="47.29811" lon="-2.37893">
        <ele>18.799999237061</ele>
        <time>2022-10-02T07:44:21.000Z</time>
      </trkpt>
      <trkpt lat="47.29823" lon="-2.37887">
        <ele>18.799999237061</ele>
        <time>2022-10-02T07:44:24.000Z</time>
      </trkpt>
      <trkpt lat="47.29831" lon="-2.37883">
        <ele>18.799999237061</ele>
        <time>2022-10-02T07:44:26.000Z</time>
      </trkpt>
      <trkpt lat="47.29849" lon="-2.37863">
        <ele>18.799999237061</ele>
        <time>2022-10-02T07:44:31.000Z</time>
      </trkpt>
      <trkpt lat="47.29855" lon="-2.37851">
        <ele>18.799999237061</ele>
        <time>2022-10-02T07:44:33.000Z</time>
      </trkpt>
      <trkpt lat="47.2986" lon="-2.37836">
        <ele>18.799999237061</ele>
        <time>2022-10-02T07:44:36.000Z</time>
      </trkpt>
      <trkpt lat="47.29866" lon="-2.37816">
        <ele>18.799999237061</ele>
        <time>2022-10-02T07:44:41.000Z</time>
      </trkpt>
      <trkpt lat="47.29868" lon="-2.37811">
        <ele>18.39999961853</ele>
        <time>2022-10-02T07:44:43.000Z</time>
      </trkpt>
      <trkpt lat="47.2987" lon="-2.37809">
        <ele>18</ele>
        <time>2022-10-02T07:44:44.000Z</time>
      </trkpt>
      <trkpt lat="47.29872" lon="-2.37808">
        <ele>17.60000038147</ele>
        <time>2022-10-02T07:44:45.000Z</time>
      </trkpt>
      <trkpt lat="47.29875" lon="-2.37808">
        <ele>17.200000762939</ele>
        <time>2022-10-02T07:44:46.000Z</time>
      </trkpt>
      <trkpt lat="47.29876" lon="-2.37811">
        <ele>16.799999237061</ele>
        <time>2022-10-02T07:44:47.000Z</time>
      </trkpt>
      <trkpt lat="47.29881" lon="-2.37818">
        <ele>16.799999237061</ele>
        <time>2022-10-02T07:44:49.000Z</time>
      </trkpt>
      <trkpt lat="47.29884" lon="-2.37822">
        <ele>16.799999237061</ele>
        <time>2022-10-02T07:44:50.000Z</time>
      </trkpt>
      <trkpt lat="47.29897" lon="-2.37839">
        <ele>16.799999237061</ele>
        <time>2022-10-02T07:44:53.000Z</time>
      </trkpt>
      <trkpt lat="47.29903" lon="-2.37846">
        <ele>16.200000762939</ele>
        <time>2022-10-02T07:44:54.000Z</time>
      </trkpt>
      <trkpt lat="47.29909" lon="-2.37853">
        <ele>15.800000190735</ele>
        <time>2022-10-02T07:44:55.000Z</time>
      </trkpt>
      <trkpt lat="47.29914" lon="-2.37861">
        <ele>15.199999809265</ele>
        <time>2022-10-02T07:44:56.000Z</time>
      </trkpt>
      <trkpt lat="47.29921" lon="-2.37869">
        <ele>14.60000038147</ele>
        <time>2022-10-02T07:44:57.000Z</time>
      </trkpt>
      <trkpt lat="47.29927" lon="-2.37878">
        <ele>13.39999961853</ele>
        <time>2022-10-02T07:44:58.000Z</time>
      </trkpt>
      <trkpt lat="47.29934" lon="-2.37886">
        <ele>12.800000190735</ele>
        <time>2022-10-02T07:44:59.000Z</time>
      </trkpt>
      <trkpt lat="47.2994" lon="-2.37894">
        <ele>12.199999809265</ele>
        <time>2022-10-02T07:45:00.000Z</time>
      </trkpt>
      <trkpt lat="47.29947" lon="-2.37901">
        <ele>11.60000038147</ele>
        <time>2022-10-02T07:45:01.000Z</time>
      </trkpt>
      <trkpt lat="47.29953" lon="-2.37908">
        <ele>11.199999809265</ele>
        <time>2022-10-02T07:45:02.000Z</time>
      </trkpt>
      <trkpt lat="47.29958" lon="-2.37914">
        <ele>10.800000190735</ele>
        <time>2022-10-02T07:45:03.000Z</time>
      </trkpt>
      <trkpt lat="47.29964" lon="-2.37921">
        <ele>10.39999961853</ele>
        <time>2022-10-02T07:45:04.000Z</time>
      </trkpt>
      <trkpt lat="47.29969" lon="-2.37927">
        <ele>10</ele>
        <time>2022-10-02T07:45:05.000Z</time>
      </trkpt>
      <trkpt lat="47.29979" lon="-2.37937">
        <ele>10</ele>
        <time>2022-10-02T07:45:07.000Z</time>
      </trkpt>
      <trkpt lat="47.29984" lon="-2.37943">
        <ele>10</ele>
        <time>2022-10-02T07:45:08.000Z</time>
      </trkpt>
      <trkpt lat="47.29989" lon="-2.37955">
        <ele>10</ele>
        <time>2022-10-02T07:45:10.000Z</time>
      </trkpt>
      <trkpt lat="47.29997" lon="-2.37967">
        <ele>10</ele>
        <time>2022-10-02T07:45:13.000Z</time>
      </trkpt>
      <trkpt lat="47.30005" lon="-2.3797">
        <ele>10</ele>
        <time>2022-10-02T07:45:15.000Z</time>
      </trkpt>
      <trkpt lat="47.30017" lon="-2.37975">
        <ele>10</ele>
        <time>2022-10-02T07:45:18.000Z</time>
      </trkpt>
      <trkpt lat="47.30027" lon="-2.37985">
        <ele>10.39999961853</ele>
        <time>2022-10-02T07:45:21.000Z</time>
      </trkpt>
      <trkpt lat="47.3003" lon="-2.37988">
        <ele>11</ele>
        <time>2022-10-02T07:45:22.000Z</time>
      </trkpt>
      <trkpt lat="47.30033" lon="-2.37992">
        <ele>11.39999961853</ele>
        <time>2022-10-02T07:45:23.000Z</time>
      </trkpt>
      <trkpt lat="47.30036" lon="-2.37995">
        <ele>12.39999961853</ele>
        <time>2022-10-02T07:45:24.000Z</time>
      </trkpt>
      <trkpt lat="47.30042" lon="-2.38001">
        <ele>12.800000190735</ele>
        <time>2022-10-02T07:45:26.000Z</time>
      </trkpt>
      <trkpt lat="47.30045" lon="-2.38004">
        <ele>13.199999809265</ele>
        <time>2022-10-02T07:45:27.000Z</time>
      </trkpt>
      <trkpt lat="47.30048" lon="-2.38007">
        <ele>13.60000038147</ele>
        <time>2022-10-02T07:45:28.000Z</time>
      </trkpt>
      <trkpt lat="47.30051" lon="-2.3801">
        <ele>14</ele>
        <time>2022-10-02T07:45:29.000Z</time>
      </trkpt>
      <trkpt lat="47.30054" lon="-2.38013">
        <ele>14.39999961853</ele>
        <time>2022-10-02T07:45:30.000Z</time>
      </trkpt>
      <trkpt lat="47.30057" lon="-2.38016">
        <ele>14.39999961853</ele>
        <time>2022-10-02T07:45:31.000Z</time>
      </trkpt>
      <trkpt lat="47.30073" lon="-2.38029">
        <ele>14.800000190735</ele>
        <time>2022-10-02T07:45:36.000Z</time>
      </trkpt>
      <trkpt lat="47.30076" lon="-2.38031">
        <ele>15.39999961853</ele>
        <time>2022-10-02T07:45:37.000Z</time>
      </trkpt>
      <trkpt lat="47.3008" lon="-2.38033">
        <ele>15.800000190735</ele>
        <time>2022-10-02T07:45:38.000Z</time>
      </trkpt>
      <trkpt lat="47.30083" lon="-2.38035">
        <ele>16.200000762939</ele>
        <time>2022-10-02T07:45:39.000Z</time>
      </trkpt>
      <trkpt lat="47.30086" lon="-2.38037">
        <ele>16.60000038147</ele>
        <time>2022-10-02T07:45:40.000Z</time>
      </trkpt>
      <trkpt lat="47.30105" lon="-2.38047">
        <ele>16.60000038147</ele>
        <time>2022-10-02T07:45:45.000Z</time>
      </trkpt>
      <trkpt lat="47.30112" lon="-2.38052">
        <ele>17.200000762939</ele>
        <time>2022-10-02T07:45:47.000Z</time>
      </trkpt>
      <trkpt lat="47.30116" lon="-2.38054">
        <ele>18</ele>
        <time>2022-10-02T07:45:48.000Z</time>
      </trkpt>
      <trkpt lat="47.3012" lon="-2.38055">
        <ele>18.39999961853</ele>
        <time>2022-10-02T07:45:49.000Z</time>
      </trkpt>
      <trkpt lat="47.30124" lon="-2.38057">
        <ele>18.799999237061</ele>
        <time>2022-10-02T07:45:50.000Z</time>
      </trkpt>
      <trkpt lat="47.30128" lon="-2.38059">
        <ele>18.799999237061</ele>
        <time>2022-10-02T07:45:51.000Z</time>
      </trkpt>
      <trkpt lat="47.30132" lon="-2.3806">
        <ele>18.799999237061</ele>
        <time>2022-10-02T07:45:52.000Z</time>
      </trkpt>
      <trkpt lat="47.30158" lon="-2.38073">
        <ele>18.799999237061</ele>
        <time>2022-10-02T07:45:59.000Z</time>
      </trkpt>
      <trkpt lat="47.30165" lon="-2.38077">
        <ele>19.200000762939</ele>
        <time>2022-10-02T07:46:01.000Z</time>
      </trkpt>
      <trkpt lat="47.30169" lon="-2.38078">
        <ele>19.799999237061</ele>
        <time>2022-10-02T07:46:02.000Z</time>
      </trkpt>
      <trkpt lat="47.30173" lon="-2.3808">
        <ele>20.200000762939</ele>
        <time>2022-10-02T07:46:03.000Z</time>
      </trkpt>
      <trkpt lat="47.30176" lon="-2.38082">
        <ele>20.60000038147</ele>
        <time>2022-10-02T07:46:04.000Z</time>
      </trkpt>
      <trkpt lat="47.3018" lon="-2.38084">
        <ele>21</ele>
        <time>2022-10-02T07:46:05.000Z</time>
      </trkpt>
      <trkpt lat="47.30184" lon="-2.38086">
        <ele>21</ele>
        <time>2022-10-02T07:46:06.000Z</time>
      </trkpt>
      <trkpt lat="47.3021" lon="-2.38099">
        <ele>21</ele>
        <time>2022-10-02T07:46:13.000Z</time>
      </trkpt>
      <trkpt lat="47.30221" lon="-2.38106">
        <ele>21</ele>
        <time>2022-10-02T07:46:16.000Z</time>
      </trkpt>
      <trkpt lat="47.30224" lon="-2.38109">
        <ele>21.39999961853</ele>
        <time>2022-10-02T07:46:17.000Z</time>
      </trkpt>
      <trkpt lat="47.30227" lon="-2.38112">
        <ele>21.799999237061</ele>
        <time>2022-10-02T07:46:18.000Z</time>
      </trkpt>
      <trkpt lat="47.3023" lon="-2.38116">
        <ele>22.200000762939</ele>
        <time>2022-10-02T07:46:19.000Z</time>
      </trkpt>
      <trkpt lat="47.30233" lon="-2.38121">
        <ele>22.799999237061</ele>
        <time>2022-10-02T07:46:20.000Z</time>
      </trkpt>
      <trkpt lat="47.30236" lon="-2.38125">
        <ele>23.200000762939</ele>
        <time>2022-10-02T07:46:21.000Z</time>
      </trkpt>
      <trkpt lat="47.30242" lon="-2.38141">
        <ele>23.200000762939</ele>
        <time>2022-10-02T07:46:24.000Z</time>
      </trkpt>
      <trkpt lat="47.30244" lon="-2.38159">
        <ele>23.200000762939</ele>
        <time>2022-10-02T07:46:27.000Z</time>
      </trkpt>
      <trkpt lat="47.30245" lon="-2.38176">
        <ele>23.200000762939</ele>
        <time>2022-10-02T07:46:30.000Z</time>
      </trkpt>
      <trkpt lat="47.3025" lon="-2.38211">
        <ele>23.200000762939</ele>
        <time>2022-10-02T07:46:36.000Z</time>
      </trkpt>
      <trkpt lat="47.30257" lon="-2.38253">
        <ele>23.200000762939</ele>
        <time>2022-10-02T07:46:43.000Z</time>
      </trkpt>
      <trkpt lat="47.30265" lon="-2.383">
        <ele>23.200000762939</ele>
        <time>2022-10-02T07:46:50.000Z</time>
      </trkpt>
      <trkpt lat="47.30275" lon="-2.38353">
        <ele>23.200000762939</ele>
        <time>2022-10-02T07:46:57.000Z</time>
      </trkpt>
      <trkpt lat="47.30294" lon="-2.38412">
        <ele>23.200000762939</ele>
        <time>2022-10-02T07:47:05.000Z</time>
      </trkpt>
      <trkpt lat="47.30305" lon="-2.38448">
        <ele>23.200000762939</ele>
        <time>2022-10-02T07:47:10.000Z</time>
      </trkpt>
      <trkpt lat="47.30306" lon="-2.38455">
        <ele>23.200000762939</ele>
        <time>2022-10-02T07:47:11.000Z</time>
      </trkpt>
      <trkpt lat="47.30312" lon="-2.38477">
        <ele>22.799999237061</ele>
        <time>2022-10-02T07:47:14.000Z</time>
      </trkpt>
      <trkpt lat="47.30314" lon="-2.38485">
        <ele>22.39999961853</ele>
        <time>2022-10-02T07:47:15.000Z</time>
      </trkpt>
      <trkpt lat="47.30317" lon="-2.38493">
        <ele>21.799999237061</ele>
        <time>2022-10-02T07:47:16.000Z</time>
      </trkpt>
      <trkpt lat="47.30319" lon="-2.385">
        <ele>21.39999961853</ele>
        <time>2022-10-02T07:47:17.000Z</time>
      </trkpt>
      <trkpt lat="47.30322" lon="-2.38508">
        <ele>21</ele>
        <time>2022-10-02T07:47:18.000Z</time>
      </trkpt>
      <trkpt lat="47.30329" lon="-2.38529">
        <ele>21</ele>
        <time>2022-10-02T07:47:21.000Z</time>
      </trkpt>
      <trkpt lat="47.30343" lon="-2.38567">
        <ele>21</ele>
        <time>2022-10-02T07:47:27.000Z</time>
      </trkpt>
      <trkpt lat="47.30354" lon="-2.38565">
        <ele>21</ele>
        <time>2022-10-02T07:47:30.000Z</time>
      </trkpt>
      <trkpt lat="47.30362" lon="-2.38559">
        <ele>21.39999961853</ele>
        <time>2022-10-02T07:47:32.000Z</time>
      </trkpt>
      <trkpt lat="47.30365" lon="-2.38556">
        <ele>21.799999237061</ele>
        <time>2022-10-02T07:47:33.000Z</time>
      </trkpt>
      <trkpt lat="47.30369" lon="-2.38553">
        <ele>22.39999961853</ele>
        <time>2022-10-02T07:47:34.000Z</time>
      </trkpt>
      <trkpt lat="47.30372" lon="-2.3855">
        <ele>22.799999237061</ele>
        <time>2022-10-02T07:47:35.000Z</time>
      </trkpt>
      <trkpt lat="47.30376" lon="-2.38547">
        <ele>23.200000762939</ele>
        <time>2022-10-02T07:47:36.000Z</time>
      </trkpt>
      <trkpt lat="47.30396" lon="-2.38535">
        <ele>23.200000762939</ele>
        <time>2022-10-02T07:47:42.000Z</time>
      </trkpt>
      <trkpt lat="47.30401" lon="-2.38546">
        <ele>23.200000762939</ele>
        <time>2022-10-02T07:47:45.000Z</time>
      </trkpt>
      <trkpt lat="47.30409" lon="-2.38565">
        <ele>23.200000762939</ele>
        <time>2022-10-02T07:47:51.000Z</time>
      </trkpt>
      <trkpt lat="47.30412" lon="-2.3857">
        <ele>23.200000762939</ele>
        <time>2022-10-02T07:47:55.000Z</time>
      </trkpt>
      <trkpt lat="47.3041" lon="-2.38564">
        <ele>25.200000762939</ele>
        <time>2022-10-02T07:49:59.000Z</time>
      </trkpt>
      <trkpt lat="47.30402" lon="-2.38548">
        <ele>25.200000762939</ele>
        <time>2022-10-02T07:50:05.000Z</time>
      </trkpt>
      <trkpt lat="47.30391" lon="-2.38536">
        <ele>25.200000762939</ele>
        <time>2022-10-02T07:50:10.000Z</time>
      </trkpt>
      <trkpt lat="47.3038" lon="-2.38543">
        <ele>25.200000762939</ele>
        <time>2022-10-02T07:50:14.000Z</time>
      </trkpt>
      <trkpt lat="47.30364" lon="-2.38557">
        <ele>25.200000762939</ele>
        <time>2022-10-02T07:50:21.000Z</time>
      </trkpt>
      <trkpt lat="47.30348" lon="-2.38574">
        <ele>24.799999237061</ele>
        <time>2022-10-02T07:50:28.000Z</time>
      </trkpt>
      <trkpt lat="47.30347" lon="-2.38578">
        <ele>24.39999961853</ele>
        <time>2022-10-02T07:50:29.000Z</time>
      </trkpt>
      <trkpt lat="47.30348" lon="-2.38582">
        <ele>24</ele>
        <time>2022-10-02T07:50:30.000Z</time>
      </trkpt>
      <trkpt lat="47.30349" lon="-2.38586">
        <ele>23.60000038147</ele>
        <time>2022-10-02T07:50:31.000Z</time>
      </trkpt>
      <trkpt lat="47.30351" lon="-2.38589">
        <ele>23.200000762939</ele>
        <time>2022-10-02T07:50:32.000Z</time>
      </trkpt>
      <trkpt lat="47.30363" lon="-2.3862">
        <ele>23.200000762939</ele>
        <time>2022-10-02T07:50:38.000Z</time>
      </trkpt>
      <trkpt lat="47.30375" lon="-2.38649">
        <ele>23.200000762939</ele>
        <time>2022-10-02T07:50:44.000Z</time>
      </trkpt>
      <trkpt lat="47.30385" lon="-2.38674">
        <ele>23.200000762939</ele>
        <time>2022-10-02T07:50:49.000Z</time>
      </trkpt>
      <trkpt lat="47.30394" lon="-2.38697">
        <ele>23.200000762939</ele>
        <time>2022-10-02T07:50:54.000Z</time>
      </trkpt>
      <trkpt lat="47.30396" lon="-2.38706">
        <ele>23.60000038147</ele>
        <time>2022-10-02T07:50:56.000Z</time>
      </trkpt>
      <trkpt lat="47.30397" lon="-2.38711">
        <ele>24</ele>
        <time>2022-10-02T07:50:57.000Z</time>
      </trkpt>
      <trkpt lat="47.30399" lon="-2.38717">
        <ele>24.39999961853</ele>
        <time>2022-10-02T07:50:58.000Z</time>
      </trkpt>
      <trkpt lat="47.304" lon="-2.38722">
        <ele>24.799999237061</ele>
        <time>2022-10-02T07:50:59.000Z</time>
      </trkpt>
      <trkpt lat="47.30401" lon="-2.38726">
        <ele>25.200000762939</ele>
        <time>2022-10-02T07:51:00.000Z</time>
      </trkpt>
      <trkpt lat="47.30406" lon="-2.38742">
        <ele>25.200000762939</ele>
        <time>2022-10-02T07:51:03.000Z</time>
      </trkpt>
      <trkpt lat="47.30418" lon="-2.38777">
        <ele>25.200000762939</ele>
        <time>2022-10-02T07:51:09.000Z</time>
      </trkpt>
      <trkpt lat="47.30419" lon="-2.38783">
        <ele>25.200000762939</ele>
        <time>2022-10-02T07:51:10.000Z</time>
      </trkpt>
      <trkpt lat="47.30417" lon="-2.38801">
        <ele>25.200000762939</ele>
        <time>2022-10-02T07:51:13.000Z</time>
      </trkpt>
      <trkpt lat="47.30414" lon="-2.38812">
        <ele>25.200000762939</ele>
        <time>2022-10-02T07:51:15.000Z</time>
      </trkpt>
      <trkpt lat="47.30405" lon="-2.38834">
        <ele>25.200000762939</ele>
        <time>2022-10-02T07:51:19.000Z</time>
      </trkpt>
      <trkpt lat="47.30384" lon="-2.38871">
        <ele>25.200000762939</ele>
        <time>2022-10-02T07:51:25.000Z</time>
      </trkpt>
      <trkpt lat="47.30362" lon="-2.38904">
        <ele>24.60000038147</ele>
        <time>2022-10-02T07:51:30.000Z</time>
      </trkpt>
      <trkpt lat="47.30358" lon="-2.38912">
        <ele>24.200000762939</ele>
        <time>2022-10-02T07:51:31.000Z</time>
      </trkpt>
      <trkpt lat="47.30353" lon="-2.38919">
        <ele>23.60000038147</ele>
        <time>2022-10-02T07:51:32.000Z</time>
      </trkpt>
      <trkpt lat="47.30348" lon="-2.38926">
        <ele>23.200000762939</ele>
        <time>2022-10-02T07:51:33.000Z</time>
      </trkpt>
      <trkpt lat="47.30343" lon="-2.38933">
        <ele>22.60000038147</ele>
        <time>2022-10-02T07:51:34.000Z</time>
      </trkpt>
      <trkpt lat="47.30338" lon="-2.38941">
        <ele>22.200000762939</ele>
        <time>2022-10-02T07:51:35.000Z</time>
      </trkpt>
      <trkpt lat="47.30334" lon="-2.38949">
        <ele>21.799999237061</ele>
        <time>2022-10-02T07:51:36.000Z</time>
      </trkpt>
      <trkpt lat="47.30331" lon="-2.38958">
        <ele>21.39999961853</ele>
        <time>2022-10-02T07:51:37.000Z</time>
      </trkpt>
      <trkpt lat="47.3033" lon="-2.38967">
        <ele>21</ele>
        <time>2022-10-02T07:51:38.000Z</time>
      </trkpt>
      <trkpt lat="47.30332" lon="-2.38975">
        <ele>20.60000038147</ele>
        <time>2022-10-02T07:51:39.000Z</time>
      </trkpt>
      <trkpt lat="47.30334" lon="-2.38983">
        <ele>20</ele>
        <time>2022-10-02T07:51:40.000Z</time>
      </trkpt>
      <trkpt lat="47.30336" lon="-2.3899">
        <ele>19.60000038147</ele>
        <time>2022-10-02T07:51:41.000Z</time>
      </trkpt>
      <trkpt lat="47.30338" lon="-2.38997">
        <ele>19</ele>
        <time>2022-10-02T07:51:42.000Z</time>
      </trkpt>
      <trkpt lat="47.3034" lon="-2.39004">
        <ele>18.60000038147</ele>
        <time>2022-10-02T07:51:43.000Z</time>
      </trkpt>
      <trkpt lat="47.30349" lon="-2.39031">
        <ele>18.60000038147</ele>
        <time>2022-10-02T07:51:47.000Z</time>
      </trkpt>
      <trkpt lat="47.30359" lon="-2.39073">
        <ele>18.60000038147</ele>
        <time>2022-10-02T07:51:53.000Z</time>
      </trkpt>
      <trkpt lat="47.30371" lon="-2.39119">
        <ele>18.60000038147</ele>
        <time>2022-10-02T07:51:59.000Z</time>
      </trkpt>
      <trkpt lat="47.30388" lon="-2.39155">
        <ele>18.60000038147</ele>
        <time>2022-10-02T07:52:04.000Z</time>
      </trkpt>
      <trkpt lat="47.3041" lon="-2.39169">
        <ele>18.60000038147</ele>
        <time>2022-10-02T07:52:08.000Z</time>
      </trkpt>
      <trkpt lat="47.30426" lon="-2.39166">
        <ele>18.60000038147</ele>
        <time>2022-10-02T07:52:11.000Z</time>
      </trkpt>
      <trkpt lat="47.30431" lon="-2.39163">
        <ele>18.60000038147</ele>
        <time>2022-10-02T07:52:12.000Z</time>
      </trkpt>
      <trkpt lat="47.30449" lon="-2.39147">
        <ele>18.60000038147</ele>
        <time>2022-10-02T07:52:16.000Z</time>
      </trkpt>
      <trkpt lat="47.30454" lon="-2.39142">
        <ele>18.60000038147</ele>
        <time>2022-10-02T07:52:17.000Z</time>
      </trkpt>
      <trkpt lat="47.30479" lon="-2.39114">
        <ele>18.60000038147</ele>
        <time>2022-10-02T07:52:23.000Z</time>
      </trkpt>
      <trkpt lat="47.30483" lon="-2.3911">
        <ele>19.39999961853</ele>
        <time>2022-10-02T07:52:24.000Z</time>
      </trkpt>
      <trkpt lat="47.30488" lon="-2.39105">
        <ele>19.799999237061</ele>
        <time>2022-10-02T07:52:25.000Z</time>
      </trkpt>
      <trkpt lat="47.30492" lon="-2.39101">
        <ele>20.200000762939</ele>
        <time>2022-10-02T07:52:26.000Z</time>
      </trkpt>
      <trkpt lat="47.30496" lon="-2.39097">
        <ele>20.60000038147</ele>
        <time>2022-10-02T07:52:27.000Z</time>
      </trkpt>
      <trkpt lat="47.30513" lon="-2.39081">
        <ele>20.60000038147</ele>
        <time>2022-10-02T07:52:31.000Z</time>
      </trkpt>
      <trkpt lat="47.30542" lon="-2.39054">
        <ele>20.60000038147</ele>
        <time>2022-10-02T07:52:38.000Z</time>
      </trkpt>
      <trkpt lat="47.30545" lon="-2.39051">
        <ele>21</ele>
        <time>2022-10-02T07:52:39.000Z</time>
      </trkpt>
      <trkpt lat="47.30548" lon="-2.39048">
        <ele>21.39999961853</ele>
        <time>2022-10-02T07:52:40.000Z</time>
      </trkpt>
      <trkpt lat="47.30551" lon="-2.39045">
        <ele>22</ele>
        <time>2022-10-02T07:52:41.000Z</time>
      </trkpt>
      <trkpt lat="47.30555" lon="-2.39041">
        <ele>22.39999961853</ele>
        <time>2022-10-02T07:52:42.000Z</time>
      </trkpt>
      <trkpt lat="47.30558" lon="-2.39038">
        <ele>22.799999237061</ele>
        <time>2022-10-02T07:52:43.000Z</time>
      </trkpt>
      <trkpt lat="47.30574" lon="-2.39019">
        <ele>22.799999237061</ele>
        <time>2022-10-02T07:52:48.000Z</time>
      </trkpt>
      <trkpt lat="47.3058" lon="-2.3901">
        <ele>23.200000762939</ele>
        <time>2022-10-02T07:52:50.000Z</time>
      </trkpt>
      <trkpt lat="47.30583" lon="-2.39006">
        <ele>23.60000038147</ele>
        <time>2022-10-02T07:52:51.000Z</time>
      </trkpt>
      <trkpt lat="47.30586" lon="-2.39001">
        <ele>24</ele>
        <time>2022-10-02T07:52:52.000Z</time>
      </trkpt>
      <trkpt lat="47.30589" lon="-2.38997">
        <ele>24.39999961853</ele>
        <time>2022-10-02T07:52:54.000Z</time>
      </trkpt>
      <trkpt lat="47.30592" lon="-2.38993">
        <ele>24.799999237061</ele>
        <time>2022-10-02T07:52:55.000Z</time>
      </trkpt>
      <trkpt lat="47.30595" lon="-2.38989">
        <ele>24.799999237061</ele>
        <time>2022-10-02T07:52:56.000Z</time>
      </trkpt>
      <trkpt lat="47.30621" lon="-2.38963">
        <ele>24.799999237061</ele>
        <time>2022-10-02T07:53:03.000Z</time>
      </trkpt>
      <trkpt lat="47.30647" lon="-2.3894">
        <ele>24.799999237061</ele>
        <time>2022-10-02T07:53:10.000Z</time>
      </trkpt>
      <trkpt lat="47.30658" lon="-2.38931">
        <ele>24.799999237061</ele>
        <time>2022-10-02T07:53:13.000Z</time>
      </trkpt>
      <trkpt lat="47.30661" lon="-2.38928">
        <ele>25.60000038147</ele>
        <time>2022-10-02T07:53:14.000Z</time>
      </trkpt>
      <trkpt lat="47.30664" lon="-2.38926">
        <ele>26</ele>
        <time>2022-10-02T07:53:15.000Z</time>
      </trkpt>
      <trkpt lat="47.30668" lon="-2.38923">
        <ele>26.39999961853</ele>
        <time>2022-10-02T07:53:16.000Z</time>
      </trkpt>
      <trkpt lat="47.30671" lon="-2.3892">
        <ele>26.799999237061</ele>
        <time>2022-10-02T07:53:17.000Z</time>
      </trkpt>
      <trkpt lat="47.30684" lon="-2.38908">
        <ele>26.799999237061</ele>
        <time>2022-10-02T07:53:22.000Z</time>
      </trkpt>
      <trkpt lat="47.30691" lon="-2.38908">
        <ele>26.799999237061</ele>
        <time>2022-10-02T07:53:25.000Z</time>
      </trkpt>
      <trkpt lat="47.30693" lon="-2.3891">
        <ele>26.799999237061</ele>
        <time>2022-10-02T07:53:26.000Z</time>
      </trkpt>
      <trkpt lat="47.30702" lon="-2.38928">
        <ele>26.799999237061</ele>
        <time>2022-10-02T07:53:30.000Z</time>
      </trkpt>
      <trkpt lat="47.30702" lon="-2.38952">
        <ele>26.799999237061</ele>
        <time>2022-10-02T07:53:34.000Z</time>
      </trkpt>
      <trkpt lat="47.30711" lon="-2.38962">
        <ele>26.799999237061</ele>
        <time>2022-10-02T07:53:37.000Z</time>
      </trkpt>
      <trkpt lat="47.30726" lon="-2.38956">
        <ele>26.799999237061</ele>
        <time>2022-10-02T07:53:40.000Z</time>
      </trkpt>
      <trkpt lat="47.30746" lon="-2.38954">
        <ele>26.39999961853</ele>
        <time>2022-10-02T07:53:44.000Z</time>
      </trkpt>
      <trkpt lat="47.30752" lon="-2.38954">
        <ele>26</ele>
        <time>2022-10-02T07:53:45.000Z</time>
      </trkpt>
      <trkpt lat="47.30757" lon="-2.38953">
        <ele>25.60000038147</ele>
        <time>2022-10-02T07:53:46.000Z</time>
      </trkpt>
      <trkpt lat="47.30763" lon="-2.3895">
        <ele>25</ele>
        <time>2022-10-02T07:53:47.000Z</time>
      </trkpt>
      <trkpt lat="47.30769" lon="-2.38947">
        <ele>24.60000038147</ele>
        <time>2022-10-02T07:53:48.000Z</time>
      </trkpt>
      <trkpt lat="47.30775" lon="-2.38942">
        <ele>24.60000038147</ele>
        <time>2022-10-02T07:53:49.000Z</time>
      </trkpt>
      <trkpt lat="47.308" lon="-2.38924">
        <ele>24.200000762939</ele>
        <time>2022-10-02T07:53:53.000Z</time>
      </trkpt>
      <trkpt lat="47.30806" lon="-2.38918">
        <ele>23.799999237061</ele>
        <time>2022-10-02T07:53:54.000Z</time>
      </trkpt>
      <trkpt lat="47.30812" lon="-2.38913">
        <ele>23.39999961853</ele>
        <time>2022-10-02T07:53:55.000Z</time>
      </trkpt>
      <trkpt lat="47.30819" lon="-2.38907">
        <ele>23</ele>
        <time>2022-10-02T07:53:56.000Z</time>
      </trkpt>
      <trkpt lat="47.30825" lon="-2.38902">
        <ele>22.60000038147</ele>
        <time>2022-10-02T07:53:57.000Z</time>
      </trkpt>
      <trkpt lat="47.3083" lon="-2.38898">
        <ele>22.60000038147</ele>
        <time>2022-10-02T07:53:58.000Z</time>
      </trkpt>
      <trkpt lat="47.30856" lon="-2.38876">
        <ele>23.39999961853</ele>
        <time>2022-10-02T07:54:04.000Z</time>
      </trkpt>
      <trkpt lat="47.3086" lon="-2.38872">
        <ele>23.799999237061</ele>
        <time>2022-10-02T07:54:05.000Z</time>
      </trkpt>
      <trkpt lat="47.30863" lon="-2.38868">
        <ele>24.200000762939</ele>
        <time>2022-10-02T07:54:06.000Z</time>
      </trkpt>
      <trkpt lat="47.30865" lon="-2.38863">
        <ele>24.60000038147</ele>
        <time>2022-10-02T07:54:07.000Z</time>
      </trkpt>
      <trkpt lat="47.30869" lon="-2.38851">
        <ele>24.60000038147</ele>
        <time>2022-10-02T07:54:09.000Z</time>
      </trkpt>
      <trkpt lat="47.30872" lon="-2.38845">
        <ele>24.60000038147</ele>
        <time>2022-10-02T07:54:10.000Z</time>
      </trkpt>
      <trkpt lat="47.30884" lon="-2.38836">
        <ele>24.60000038147</ele>
        <time>2022-10-02T07:54:13.000Z</time>
      </trkpt>
      <trkpt lat="47.30893" lon="-2.38839">
        <ele>25</ele>
        <time>2022-10-02T07:54:15.000Z</time>
      </trkpt>
      <trkpt lat="47.30897" lon="-2.38843">
        <ele>25.39999961853</ele>
        <time>2022-10-02T07:54:16.000Z</time>
      </trkpt>
      <trkpt lat="47.309" lon="-2.38849">
        <ele>25.799999237061</ele>
        <time>2022-10-02T07:54:17.000Z</time>
      </trkpt>
      <trkpt lat="47.30903" lon="-2.38856">
        <ele>26.200000762939</ele>
        <time>2022-10-02T07:54:18.000Z</time>
      </trkpt>
      <trkpt lat="47.30905" lon="-2.38862">
        <ele>26.60000038147</ele>
        <time>2022-10-02T07:54:19.000Z</time>
      </trkpt>
      <trkpt lat="47.30907" lon="-2.38869">
        <ele>26.60000038147</ele>
        <time>2022-10-02T07:54:20.000Z</time>
      </trkpt>
      <trkpt lat="47.3091" lon="-2.38876">
        <ele>26.60000038147</ele>
        <time>2022-10-02T07:54:21.000Z</time>
      </trkpt>
      <trkpt lat="47.30917" lon="-2.38887">
        <ele>26.60000038147</ele>
        <time>2022-10-02T07:54:23.000Z</time>
      </trkpt>
      <trkpt lat="47.30928" lon="-2.38905">
        <ele>26.60000038147</ele>
        <time>2022-10-02T07:54:26.000Z</time>
      </trkpt>
      <trkpt lat="47.3093" lon="-2.38912">
        <ele>26.60000038147</ele>
        <time>2022-10-02T07:54:27.000Z</time>
      </trkpt>
      <trkpt lat="47.30928" lon="-2.38934">
        <ele>26.60000038147</ele>
        <time>2022-10-02T07:54:30.000Z</time>
      </trkpt>
      <trkpt lat="47.3092" lon="-2.38953">
        <ele>26.60000038147</ele>
        <time>2022-10-02T07:54:33.000Z</time>
      </trkpt>
      <trkpt lat="47.30914" lon="-2.38964">
        <ele>26.60000038147</ele>
        <time>2022-10-02T07:54:35.000Z</time>
      </trkpt>
      <trkpt lat="47.30908" lon="-2.38983">
        <ele>26.60000038147</ele>
        <time>2022-10-02T07:54:38.000Z</time>
      </trkpt>
      <trkpt lat="47.30905" lon="-2.38998">
        <ele>26.60000038147</ele>
        <time>2022-10-02T07:54:40.000Z</time>
      </trkpt>
      <trkpt lat="47.30901" lon="-2.39037">
        <ele>26.60000038147</ele>
        <time>2022-10-02T07:54:45.000Z</time>
      </trkpt>
      <trkpt lat="47.30901" lon="-2.39052">
        <ele>26.60000038147</ele>
        <time>2022-10-02T07:54:47.000Z</time>
      </trkpt>
      <trkpt lat="47.30901" lon="-2.39073">
        <ele>26.60000038147</ele>
        <time>2022-10-02T07:54:50.000Z</time>
      </trkpt>
      <trkpt lat="47.30903" lon="-2.39087">
        <ele>26.60000038147</ele>
        <time>2022-10-02T07:54:52.000Z</time>
      </trkpt>
      <trkpt lat="47.30918" lon="-2.39129">
        <ele>26.60000038147</ele>
        <time>2022-10-02T07:54:58.000Z</time>
      </trkpt>
      <trkpt lat="47.30934" lon="-2.39174">
        <ele>26.60000038147</ele>
        <time>2022-10-02T07:55:05.000Z</time>
      </trkpt>
      <trkpt lat="47.30954" lon="-2.39218">
        <ele>26.60000038147</ele>
        <time>2022-10-02T07:55:12.000Z</time>
      </trkpt>
      <trkpt lat="47.30971" lon="-2.39259">
        <ele>26.60000038147</ele>
        <time>2022-10-02T07:55:19.000Z</time>
      </trkpt>
      <trkpt lat="47.30975" lon="-2.3927">
        <ele>26.60000038147</ele>
        <time>2022-10-02T07:55:21.000Z</time>
      </trkpt>
      <trkpt lat="47.30986" lon="-2.39301">
        <ele>26.60000038147</ele>
        <time>2022-10-02T07:55:26.000Z</time>
      </trkpt>
      <trkpt lat="47.31001" lon="-2.39345">
        <ele>26.60000038147</ele>
        <time>2022-10-02T07:55:34.000Z</time>
      </trkpt>
      <trkpt lat="47.31015" lon="-2.39387">
        <ele>26.60000038147</ele>
        <time>2022-10-02T07:55:41.000Z</time>
      </trkpt>
      <trkpt lat="47.31033" lon="-2.39443">
        <ele>26.60000038147</ele>
        <time>2022-10-02T07:55:49.000Z</time>
      </trkpt>
      <trkpt lat="47.31038" lon="-2.39456">
        <ele>26.60000038147</ele>
        <time>2022-10-02T07:55:51.000Z</time>
      </trkpt>
      <trkpt lat="47.31047" lon="-2.3946">
        <ele>26.60000038147</ele>
        <time>2022-10-02T07:55:53.000Z</time>
      </trkpt>
      <trkpt lat="47.31056" lon="-2.39454">
        <ele>26.200000762939</ele>
        <time>2022-10-02T07:55:55.000Z</time>
      </trkpt>
      <trkpt lat="47.3106" lon="-2.3945">
        <ele>25.799999237061</ele>
        <time>2022-10-02T07:55:56.000Z</time>
      </trkpt>
      <trkpt lat="47.31065" lon="-2.39445">
        <ele>25.39999961853</ele>
        <time>2022-10-02T07:55:57.000Z</time>
      </trkpt>
      <trkpt lat="47.31069" lon="-2.39439">
        <ele>25</ele>
        <time>2022-10-02T07:55:58.000Z</time>
      </trkpt>
      <trkpt lat="47.31073" lon="-2.39434">
        <ele>24.60000038147</ele>
        <time>2022-10-02T07:55:59.000Z</time>
      </trkpt>
      <trkpt lat="47.31085" lon="-2.39417">
        <ele>24.60000038147</ele>
        <time>2022-10-02T07:56:02.000Z</time>
      </trkpt>
      <trkpt lat="47.31111" lon="-2.3938">
        <ele>24.60000038147</ele>
        <time>2022-10-02T07:56:09.000Z</time>
      </trkpt>
      <trkpt lat="47.31122" lon="-2.39364">
        <ele>24.60000038147</ele>
        <time>2022-10-02T07:56:12.000Z</time>
      </trkpt>
      <trkpt lat="47.31131" lon="-2.39354">
        <ele>24.60000038147</ele>
        <time>2022-10-02T07:56:14.000Z</time>
      </trkpt>
      <trkpt lat="47.31167" lon="-2.39323">
        <ele>24.60000038147</ele>
        <time>2022-10-02T07:56:21.000Z</time>
      </trkpt>
      <trkpt lat="47.31172" lon="-2.39319">
        <ele>25</ele>
        <time>2022-10-02T07:56:22.000Z</time>
      </trkpt>
      <trkpt lat="47.31178" lon="-2.39316">
        <ele>25.39999961853</ele>
        <time>2022-10-02T07:56:23.000Z</time>
      </trkpt>
      <trkpt lat="47.31183" lon="-2.39312">
        <ele>25.799999237061</ele>
        <time>2022-10-02T07:56:24.000Z</time>
      </trkpt>
      <trkpt lat="47.31188" lon="-2.39309">
        <ele>26.39999961853</ele>
        <time>2022-10-02T07:56:25.000Z</time>
      </trkpt>
      <trkpt lat="47.31194" lon="-2.39305">
        <ele>26.799999237061</ele>
        <time>2022-10-02T07:56:26.000Z</time>
      </trkpt>
      <trkpt lat="47.31204" lon="-2.39298">
        <ele>26.799999237061</ele>
        <time>2022-10-02T07:56:28.000Z</time>
      </trkpt>
      <trkpt lat="47.31232" lon="-2.39271">
        <ele>26.799999237061</ele>
        <time>2022-10-02T07:56:34.000Z</time>
      </trkpt>
      <trkpt lat="47.31236" lon="-2.39265">
        <ele>27.200000762939</ele>
        <time>2022-10-02T07:56:35.000Z</time>
      </trkpt>
      <trkpt lat="47.3124" lon="-2.3926">
        <ele>27.60000038147</ele>
        <time>2022-10-02T07:56:36.000Z</time>
      </trkpt>
      <trkpt lat="47.31245" lon="-2.39255">
        <ele>28</ele>
        <time>2022-10-02T07:56:37.000Z</time>
      </trkpt>
      <trkpt lat="47.31249" lon="-2.39249">
        <ele>28.60000038147</ele>
        <time>2022-10-02T07:56:38.000Z</time>
      </trkpt>
      <trkpt lat="47.31253" lon="-2.39244">
        <ele>29</ele>
        <time>2022-10-02T07:56:39.000Z</time>
      </trkpt>
      <trkpt lat="47.31284" lon="-2.39199">
        <ele>29</ele>
        <time>2022-10-02T07:56:47.000Z</time>
      </trkpt>
      <trkpt lat="47.31311" lon="-2.39171">
        <ele>29</ele>
        <time>2022-10-02T07:56:53.000Z</time>
      </trkpt>
      <trkpt lat="47.31344" lon="-2.39136">
        <ele>29</ele>
        <time>2022-10-02T07:57:01.000Z</time>
      </trkpt>
      <trkpt lat="47.31348" lon="-2.39132">
        <ele>29</ele>
        <time>2022-10-02T07:57:02.000Z</time>
      </trkpt>
      <trkpt lat="47.31366" lon="-2.39114">
        <ele>29</ele>
        <time>2022-10-02T07:57:07.000Z</time>
      </trkpt>
      <trkpt lat="47.31391" lon="-2.39088">
        <ele>29</ele>
        <time>2022-10-02T07:57:13.000Z</time>
      </trkpt>
      <trkpt lat="47.31417" lon="-2.39048">
        <ele>29</ele>
        <time>2022-10-02T07:57:19.000Z</time>
      </trkpt>
      <trkpt lat="47.31436" lon="-2.39004">
        <ele>29</ele>
        <time>2022-10-02T07:57:24.000Z</time>
      </trkpt>
      <trkpt lat="47.3146" lon="-2.38951">
        <ele>29</ele>
        <time>2022-10-02T07:57:30.000Z</time>
      </trkpt>
      <trkpt lat="47.3148" lon="-2.38913">
        <ele>28.60000038147</ele>
        <time>2022-10-02T07:57:35.000Z</time>
      </trkpt>
      <trkpt lat="47.31484" lon="-2.38906">
        <ele>28.200000762939</ele>
        <time>2022-10-02T07:57:36.000Z</time>
      </trkpt>
      <trkpt lat="47.31487" lon="-2.38899">
        <ele>27.799999237061</ele>
        <time>2022-10-02T07:57:37.000Z</time>
      </trkpt>
      <trkpt lat="47.31491" lon="-2.38892">
        <ele>27.39999961853</ele>
        <time>2022-10-02T07:57:38.000Z</time>
      </trkpt>
      <trkpt lat="47.31494" lon="-2.38885">
        <ele>27</ele>
        <time>2022-10-02T07:57:39.000Z</time>
      </trkpt>
      <trkpt lat="47.31515" lon="-2.38841">
        <ele>27</ele>
        <time>2022-10-02T07:57:45.000Z</time>
      </trkpt>
      <trkpt lat="47.31535" lon="-2.38801">
        <ele>27</ele>
        <time>2022-10-02T07:57:51.000Z</time>
      </trkpt>
      <trkpt lat="47.3156" lon="-2.38761">
        <ele>27</ele>
        <time>2022-10-02T07:57:57.000Z</time>
      </trkpt>
      <trkpt lat="47.31577" lon="-2.38737">
        <ele>27</ele>
        <time>2022-10-02T07:58:01.000Z</time>
      </trkpt>
      <trkpt lat="47.31589" lon="-2.38719">
        <ele>27</ele>
        <time>2022-10-02T07:58:04.000Z</time>
      </trkpt>
      <trkpt lat="47.31617" lon="-2.38676">
        <ele>27</ele>
        <time>2022-10-02T07:58:11.000Z</time>
      </trkpt>
      <trkpt lat="47.31622" lon="-2.3867">
        <ele>27</ele>
        <time>2022-10-02T07:58:12.000Z</time>
      </trkpt>
      <trkpt lat="47.31638" lon="-2.38646">
        <ele>26.60000038147</ele>
        <time>2022-10-02T07:58:16.000Z</time>
      </trkpt>
      <trkpt lat="47.31643" lon="-2.3864">
        <ele>26.200000762939</ele>
        <time>2022-10-02T07:58:17.000Z</time>
      </trkpt>
      <trkpt lat="47.31647" lon="-2.38635">
        <ele>25.799999237061</ele>
        <time>2022-10-02T07:58:18.000Z</time>
      </trkpt>
      <trkpt lat="47.31652" lon="-2.38629">
        <ele>25.39999961853</ele>
        <time>2022-10-02T07:58:19.000Z</time>
      </trkpt>
      <trkpt lat="47.31656" lon="-2.38625">
        <ele>25</ele>
        <time>2022-10-02T07:58:20.000Z</time>
      </trkpt>
      <trkpt lat="47.31676" lon="-2.38609">
        <ele>25</ele>
        <time>2022-10-02T07:58:24.000Z</time>
      </trkpt>
      <trkpt lat="47.31681" lon="-2.38607">
        <ele>25</ele>
        <time>2022-10-02T07:58:25.000Z</time>
      </trkpt>
      <trkpt lat="47.31706" lon="-2.38591">
        <ele>25</ele>
        <time>2022-10-02T07:58:30.000Z</time>
      </trkpt>
      <trkpt lat="47.31738" lon="-2.38573">
        <ele>25</ele>
        <time>2022-10-02T07:58:37.000Z</time>
      </trkpt>
      <trkpt lat="47.31767" lon="-2.38557">
        <ele>25</ele>
        <time>2022-10-02T07:58:43.000Z</time>
      </trkpt>
      <trkpt lat="47.31802" lon="-2.38539">
        <ele>25</ele>
        <time>2022-10-02T07:58:50.000Z</time>
      </trkpt>
      <trkpt lat="47.31825" lon="-2.38535">
        <ele>25</ele>
        <time>2022-10-02T07:58:55.000Z</time>
      </trkpt>
      <trkpt lat="47.31834" lon="-2.38533">
        <ele>25</ele>
        <time>2022-10-02T07:58:57.000Z</time>
      </trkpt>
      <trkpt lat="47.31847" lon="-2.38528">
        <ele>25</ele>
        <time>2022-10-02T07:59:00.000Z</time>
      </trkpt>
      <trkpt lat="47.31861" lon="-2.38523">
        <ele>24.60000038147</ele>
        <time>2022-10-02T07:59:03.000Z</time>
      </trkpt>
      <trkpt lat="47.31866" lon="-2.38521">
        <ele>24</ele>
        <time>2022-10-02T07:59:04.000Z</time>
      </trkpt>
      <trkpt lat="47.31871" lon="-2.38519">
        <ele>23.60000038147</ele>
        <time>2022-10-02T07:59:05.000Z</time>
      </trkpt>
      <trkpt lat="47.31877" lon="-2.38517">
        <ele>23.200000762939</ele>
        <time>2022-10-02T07:59:06.000Z</time>
      </trkpt>
      <trkpt lat="47.31882" lon="-2.38514">
        <ele>22.799999237061</ele>
        <time>2022-10-02T07:59:07.000Z</time>
      </trkpt>
      <trkpt lat="47.31905" lon="-2.38503">
        <ele>22.39999961853</ele>
        <time>2022-10-02T07:59:11.000Z</time>
      </trkpt>
      <trkpt lat="47.31911" lon="-2.38499">
        <ele>22</ele>
        <time>2022-10-02T07:59:12.000Z</time>
      </trkpt>
      <trkpt lat="47.31916" lon="-2.38496">
        <ele>21.60000038147</ele>
        <time>2022-10-02T07:59:13.000Z</time>
      </trkpt>
      <trkpt lat="47.31922" lon="-2.38493">
        <ele>21.200000762939</ele>
        <time>2022-10-02T07:59:14.000Z</time>
      </trkpt>
      <trkpt lat="47.31928" lon="-2.38492">
        <ele>20.799999237061</ele>
        <time>2022-10-02T07:59:15.000Z</time>
      </trkpt>
      <trkpt lat="47.3194" lon="-2.38489">
        <ele>20.799999237061</ele>
        <time>2022-10-02T07:59:17.000Z</time>
      </trkpt>
      <trkpt lat="47.31957" lon="-2.38484">
        <ele>20.799999237061</ele>
        <time>2022-10-02T07:59:20.000Z</time>
      </trkpt>
      <trkpt lat="47.31962" lon="-2.38482">
        <ele>20.39999961853</ele>
        <time>2022-10-02T07:59:21.000Z</time>
      </trkpt>
      <trkpt lat="47.31967" lon="-2.38479">
        <ele>20</ele>
        <time>2022-10-02T07:59:22.000Z</time>
      </trkpt>
      <trkpt lat="47.31973" lon="-2.38478">
        <ele>19.39999961853</ele>
        <time>2022-10-02T07:59:23.000Z</time>
      </trkpt>
      <trkpt lat="47.31979" lon="-2.38476">
        <ele>19</ele>
        <time>2022-10-02T07:59:24.000Z</time>
      </trkpt>
      <trkpt lat="47.31985" lon="-2.38473">
        <ele>18.60000038147</ele>
        <time>2022-10-02T07:59:25.000Z</time>
      </trkpt>
      <trkpt lat="47.31991" lon="-2.3847">
        <ele>18.60000038147</ele>
        <time>2022-10-02T07:59:26.000Z</time>
      </trkpt>
      <trkpt lat="47.31996" lon="-2.38468">
        <ele>18.60000038147</ele>
        <time>2022-10-02T07:59:27.000Z</time>
      </trkpt>
      <trkpt lat="47.32005" lon="-2.38465">
        <ele>18.60000038147</ele>
        <time>2022-10-02T07:59:29.000Z</time>
      </trkpt>
      <trkpt lat="47.32016" lon="-2.38459">
        <ele>18.60000038147</ele>
        <time>2022-10-02T07:59:31.000Z</time>
      </trkpt>
      <trkpt lat="47.32023" lon="-2.38457">
        <ele>18.60000038147</ele>
        <time>2022-10-02T07:59:32.000Z</time>
      </trkpt>
      <trkpt lat="47.32044" lon="-2.3845">
        <ele>18.200000762939</ele>
        <time>2022-10-02T07:59:35.000Z</time>
      </trkpt>
      <trkpt lat="47.32051" lon="-2.38448">
        <ele>17.799999237061</ele>
        <time>2022-10-02T07:59:36.000Z</time>
      </trkpt>
      <trkpt lat="47.32058" lon="-2.38445">
        <ele>17.39999961853</ele>
        <time>2022-10-02T07:59:37.000Z</time>
      </trkpt>
      <trkpt lat="47.32065" lon="-2.38442">
        <ele>17</ele>
        <time>2022-10-02T07:59:38.000Z</time>
      </trkpt>
      <trkpt lat="47.32072" lon="-2.38438">
        <ele>16.60000038147</ele>
        <time>2022-10-02T07:59:39.000Z</time>
      </trkpt>
      <trkpt lat="47.32085" lon="-2.38431">
        <ele>16.60000038147</ele>
        <time>2022-10-02T07:59:41.000Z</time>
      </trkpt>
      <trkpt lat="47.32091" lon="-2.38429">
        <ele>16.60000038147</ele>
        <time>2022-10-02T07:59:42.000Z</time>
      </trkpt>
      <trkpt lat="47.32105" lon="-2.38424">
        <ele>16.60000038147</ele>
        <time>2022-10-02T07:59:44.000Z</time>
      </trkpt>
      <trkpt lat="47.32111" lon="-2.3842">
        <ele>16.60000038147</ele>
        <time>2022-10-02T07:59:45.000Z</time>
      </trkpt>
      <trkpt lat="47.32129" lon="-2.38405">
        <ele>16.60000038147</ele>
        <time>2022-10-02T07:59:48.000Z</time>
      </trkpt>
      <trkpt lat="47.32139" lon="-2.38392">
        <ele>16.200000762939</ele>
        <time>2022-10-02T07:59:50.000Z</time>
      </trkpt>
      <trkpt lat="47.32144" lon="-2.38384">
        <ele>15.800000190735</ele>
        <time>2022-10-02T07:59:51.000Z</time>
      </trkpt>
      <trkpt lat="47.32149" lon="-2.38377">
        <ele>15.39999961853</ele>
        <time>2022-10-02T07:59:52.000Z</time>
      </trkpt>
      <trkpt lat="47.32153" lon="-2.3837">
        <ele>15</ele>
        <time>2022-10-02T07:59:53.000Z</time>
      </trkpt>
      <trkpt lat="47.32157" lon="-2.38362">
        <ele>14.39999961853</ele>
        <time>2022-10-02T07:59:54.000Z</time>
      </trkpt>
      <trkpt lat="47.32178" lon="-2.38332">
        <ele>14.39999961853</ele>
        <time>2022-10-02T07:59:59.000Z</time>
      </trkpt>
      <trkpt lat="47.32207" lon="-2.38294">
        <ele>14.39999961853</ele>
        <time>2022-10-02T08:00:06.000Z</time>
      </trkpt>
      <trkpt lat="47.32221" lon="-2.38293">
        <ele>14.39999961853</ele>
        <time>2022-10-02T08:00:09.000Z</time>
      </trkpt>
      <trkpt lat="47.32226" lon="-2.38292">
        <ele>14.39999961853</ele>
        <time>2022-10-02T08:00:10.000Z</time>
      </trkpt>
      <trkpt lat="47.32246" lon="-2.38287">
        <ele>14.39999961853</ele>
        <time>2022-10-02T08:00:14.000Z</time>
      </trkpt>
      <trkpt lat="47.32257" lon="-2.38285">
        <ele>14.39999961853</ele>
        <time>2022-10-02T08:00:16.000Z</time>
      </trkpt>
      <trkpt lat="47.32267" lon="-2.38285">
        <ele>14.39999961853</ele>
        <time>2022-10-02T08:00:18.000Z</time>
      </trkpt>
      <trkpt lat="47.32277" lon="-2.38287">
        <ele>14.39999961853</ele>
        <time>2022-10-02T08:00:20.000Z</time>
      </trkpt>
      <trkpt lat="47.32292" lon="-2.38291">
        <ele>14.39999961853</ele>
        <time>2022-10-02T08:00:23.000Z</time>
      </trkpt>
      <trkpt lat="47.32319" lon="-2.383">
        <ele>14.39999961853</ele>
        <time>2022-10-02T08:00:29.000Z</time>
      </trkpt>
      <trkpt lat="47.32341" lon="-2.38309">
        <ele>14.39999961853</ele>
        <time>2022-10-02T08:00:35.000Z</time>
      </trkpt>
      <trkpt lat="47.32346" lon="-2.38311">
        <ele>14.39999961853</ele>
        <time>2022-10-02T08:00:36.000Z</time>
      </trkpt>
      <trkpt lat="47.32359" lon="-2.38317">
        <ele>14.39999961853</ele>
        <time>2022-10-02T08:00:39.000Z</time>
      </trkpt>
      <trkpt lat="47.32367" lon="-2.3832">
        <ele>15</ele>
        <time>2022-10-02T08:00:41.000Z</time>
      </trkpt>
      <trkpt lat="47.32371" lon="-2.38323">
        <ele>15.39999961853</ele>
        <time>2022-10-02T08:00:42.000Z</time>
      </trkpt>
      <trkpt lat="47.32376" lon="-2.38325">
        <ele>15.800000190735</ele>
        <time>2022-10-02T08:00:43.000Z</time>
      </trkpt>
      <trkpt lat="47.32379" lon="-2.38327">
        <ele>16.200000762939</ele>
        <time>2022-10-02T08:00:44.000Z</time>
      </trkpt>
      <trkpt lat="47.32384" lon="-2.38329">
        <ele>16.60000038147</ele>
        <time>2022-10-02T08:00:45.000Z</time>
      </trkpt>
      <trkpt lat="47.32396" lon="-2.38334">
        <ele>16.60000038147</ele>
        <time>2022-10-02T08:00:48.000Z</time>
      </trkpt>
      <trkpt lat="47.32419" lon="-2.38345">
        <ele>16.60000038147</ele>
        <time>2022-10-02T08:00:53.000Z</time>
      </trkpt>
      <trkpt lat="47.32449" lon="-2.3836">
        <ele>16.60000038147</ele>
        <time>2022-10-02T08:00:59.000Z</time>
      </trkpt>
      <trkpt lat="47.32467" lon="-2.38369">
        <ele>16.60000038147</ele>
        <time>2022-10-02T08:01:03.000Z</time>
      </trkpt>
      <trkpt lat="47.32472" lon="-2.38372">
        <ele>16.60000038147</ele>
        <time>2022-10-02T08:01:04.000Z</time>
      </trkpt>
      <trkpt lat="47.3249" lon="-2.38377">
        <ele>16.60000038147</ele>
        <time>2022-10-02T08:01:08.000Z</time>
      </trkpt>
      <trkpt lat="47.32507" lon="-2.38383">
        <ele>16.60000038147</ele>
        <time>2022-10-02T08:01:13.000Z</time>
      </trkpt>
      <trkpt lat="47.32513" lon="-2.38384">
        <ele>16.60000038147</ele>
        <time>2022-10-02T08:01:17.000Z</time>
      </trkpt>
      <trkpt lat="47.32516" lon="-2.38382">
        <ele>16.60000038147</ele>
        <time>2022-10-02T08:01:20.000Z</time>
      </trkpt>
      <trkpt lat="47.32518" lon="-2.38376">
        <ele>16.60000038147</ele>
        <time>2022-10-02T08:01:22.000Z</time>
      </trkpt>
      <trkpt lat="47.32519" lon="-2.38351">
        <ele>16.60000038147</ele>
        <time>2022-10-02T08:01:27.000Z</time>
      </trkpt>
      <trkpt lat="47.32522" lon="-2.38317">
        <ele>16.60000038147</ele>
        <time>2022-10-02T08:01:32.000Z</time>
      </trkpt>
      <trkpt lat="47.32527" lon="-2.38314">
        <ele>16.60000038147</ele>
        <time>2022-10-02T08:01:33.000Z</time>
      </trkpt>
      <trkpt lat="47.3254" lon="-2.38308">
        <ele>16.200000762939</ele>
        <time>2022-10-02T08:01:35.000Z</time>
      </trkpt>
      <trkpt lat="47.32546" lon="-2.38306">
        <ele>15.60000038147</ele>
        <time>2022-10-02T08:01:36.000Z</time>
      </trkpt>
      <trkpt lat="47.32552" lon="-2.38305">
        <ele>15.199999809265</ele>
        <time>2022-10-02T08:01:37.000Z</time>
      </trkpt>
      <trkpt lat="47.32559" lon="-2.38303">
        <ele>14.800000190735</ele>
        <time>2022-10-02T08:01:38.000Z</time>
      </trkpt>
      <trkpt lat="47.32564" lon="-2.38302">
        <ele>14.199999809265</ele>
        <time>2022-10-02T08:01:39.000Z</time>
      </trkpt>
      <trkpt lat="47.32571" lon="-2.38299">
        <ele>14.199999809265</ele>
        <time>2022-10-02T08:01:40.000Z</time>
      </trkpt>
      <trkpt lat="47.32577" lon="-2.38297">
        <ele>14.199999809265</ele>
        <time>2022-10-02T08:01:41.000Z</time>
      </trkpt>
      <trkpt lat="47.32597" lon="-2.38294">
        <ele>14.199999809265</ele>
        <time>2022-10-02T08:01:44.000Z</time>
      </trkpt>
      <trkpt lat="47.32604" lon="-2.38295">
        <ele>14.199999809265</ele>
        <time>2022-10-02T08:01:45.000Z</time>
      </trkpt>
      <trkpt lat="47.32622" lon="-2.38313">
        <ele>14.199999809265</ele>
        <time>2022-10-02T08:01:49.000Z</time>
      </trkpt>
      <trkpt lat="47.32626" lon="-2.38318">
        <ele>14.199999809265</ele>
        <time>2022-10-02T08:01:50.000Z</time>
      </trkpt>
      <trkpt lat="47.32634" lon="-2.38327">
        <ele>14.199999809265</ele>
        <time>2022-10-02T08:01:52.000Z</time>
      </trkpt>
      <trkpt lat="47.32641" lon="-2.38336">
        <ele>14.199999809265</ele>
        <time>2022-10-02T08:01:54.000Z</time>
      </trkpt>
      <trkpt lat="47.32649" lon="-2.38345">
        <ele>14.199999809265</ele>
        <time>2022-10-02T08:01:56.000Z</time>
      </trkpt>
      <trkpt lat="47.32656" lon="-2.38354">
        <ele>14.60000038147</ele>
        <time>2022-10-02T08:01:58.000Z</time>
      </trkpt>
      <trkpt lat="47.32659" lon="-2.38358">
        <ele>15.199999809265</ele>
        <time>2022-10-02T08:01:59.000Z</time>
      </trkpt>
      <trkpt lat="47.32663" lon="-2.38362">
        <ele>15.60000038147</ele>
        <time>2022-10-02T08:02:00.000Z</time>
      </trkpt>
      <trkpt lat="47.32665" lon="-2.38366">
        <ele>16</ele>
        <time>2022-10-02T08:02:01.000Z</time>
      </trkpt>
      <trkpt lat="47.32668" lon="-2.3837">
        <ele>16.39999961853</ele>
        <time>2022-10-02T08:02:02.000Z</time>
      </trkpt>
      <trkpt lat="47.32677" lon="-2.38381">
        <ele>16.39999961853</ele>
        <time>2022-10-02T08:02:05.000Z</time>
      </trkpt>
      <trkpt lat="47.3268" lon="-2.38386">
        <ele>16.799999237061</ele>
        <time>2022-10-02T08:02:06.000Z</time>
      </trkpt>
      <trkpt lat="47.32684" lon="-2.3839">
        <ele>17.200000762939</ele>
        <time>2022-10-02T08:02:07.000Z</time>
      </trkpt>
      <trkpt lat="47.32687" lon="-2.38394">
        <ele>17.60000038147</ele>
        <time>2022-10-02T08:02:08.000Z</time>
      </trkpt>
      <trkpt lat="47.3269" lon="-2.38397">
        <ele>18</ele>
        <time>2022-10-02T08:02:09.000Z</time>
      </trkpt>
      <trkpt lat="47.32694" lon="-2.384">
        <ele>18.60000038147</ele>
        <time>2022-10-02T08:02:10.000Z</time>
      </trkpt>
      <trkpt lat="47.32698" lon="-2.38401">
        <ele>18.60000038147</ele>
        <time>2022-10-02T08:02:11.000Z</time>
      </trkpt>
      <trkpt lat="47.3271" lon="-2.38405">
        <ele>19</ele>
        <time>2022-10-02T08:02:14.000Z</time>
      </trkpt>
      <trkpt lat="47.32714" lon="-2.38404">
        <ele>19.39999961853</ele>
        <time>2022-10-02T08:02:15.000Z</time>
      </trkpt>
      <trkpt lat="47.32717" lon="-2.38404">
        <ele>19.799999237061</ele>
        <time>2022-10-02T08:02:16.000Z</time>
      </trkpt>
      <trkpt lat="47.32721" lon="-2.38403">
        <ele>20.200000762939</ele>
        <time>2022-10-02T08:02:17.000Z</time>
      </trkpt>
      <trkpt lat="47.32726" lon="-2.38402">
        <ele>20.60000038147</ele>
        <time>2022-10-02T08:02:18.000Z</time>
      </trkpt>
      <trkpt lat="47.3273" lon="-2.384">
        <ele>20.60000038147</ele>
        <time>2022-10-02T08:02:19.000Z</time>
      </trkpt>
      <trkpt lat="47.32742" lon="-2.38397">
        <ele>20.60000038147</ele>
        <time>2022-10-02T08:02:22.000Z</time>
      </trkpt>
      <trkpt lat="47.32759" lon="-2.38395">
        <ele>20.60000038147</ele>
        <time>2022-10-02T08:02:26.000Z</time>
      </trkpt>
      <trkpt lat="47.32776" lon="-2.38392">
        <ele>20.60000038147</ele>
        <time>2022-10-02T08:02:31.000Z</time>
      </trkpt>
      <trkpt lat="47.32783" lon="-2.38378">
        <ele>20.60000038147</ele>
        <time>2022-10-02T08:02:35.000Z</time>
      </trkpt>
      <trkpt lat="47.32785" lon="-2.38366">
        <ele>20.60000038147</ele>
        <time>2022-10-02T08:02:37.000Z</time>
      </trkpt>
      <trkpt lat="47.32787" lon="-2.38344">
        <ele>20.60000038147</ele>
        <time>2022-10-02T08:02:40.000Z</time>
      </trkpt>
      <trkpt lat="47.32792" lon="-2.38313">
        <ele>20.60000038147</ele>
        <time>2022-10-02T08:02:44.000Z</time>
      </trkpt>
      <trkpt lat="47.32796" lon="-2.38299">
        <ele>20.60000038147</ele>
        <time>2022-10-02T08:02:46.000Z</time>
      </trkpt>
      <trkpt lat="47.32799" lon="-2.38282">
        <ele>20</ele>
        <time>2022-10-02T08:02:48.000Z</time>
      </trkpt>
      <trkpt lat="47.32801" lon="-2.38273">
        <ele>19.60000038147</ele>
        <time>2022-10-02T08:02:49.000Z</time>
      </trkpt>
      <trkpt lat="47.32804" lon="-2.38265">
        <ele>19.200000762939</ele>
        <time>2022-10-02T08:02:50.000Z</time>
      </trkpt>
      <trkpt lat="47.32807" lon="-2.38256">
        <ele>18.799999237061</ele>
        <time>2022-10-02T08:02:51.000Z</time>
      </trkpt>
      <trkpt lat="47.32809" lon="-2.38246">
        <ele>18.39999961853</ele>
        <time>2022-10-02T08:02:52.000Z</time>
      </trkpt>
      <trkpt lat="47.32815" lon="-2.38226">
        <ele>18</ele>
        <time>2022-10-02T08:02:54.000Z</time>
      </trkpt>
      <trkpt lat="47.32818" lon="-2.38216">
        <ele>17.60000038147</ele>
        <time>2022-10-02T08:02:55.000Z</time>
      </trkpt>
      <trkpt lat="47.32821" lon="-2.38206">
        <ele>17</ele>
        <time>2022-10-02T08:02:56.000Z</time>
      </trkpt>
      <trkpt lat="47.32825" lon="-2.38195">
        <ele>16.60000038147</ele>
        <time>2022-10-02T08:02:57.000Z</time>
      </trkpt>
      <trkpt lat="47.32828" lon="-2.38184">
        <ele>16.200000762939</ele>
        <time>2022-10-02T08:02:58.000Z</time>
      </trkpt>
      <trkpt lat="47.32837" lon="-2.38164">
        <ele>15.800000190735</ele>
        <time>2022-10-02T08:03:00.000Z</time>
      </trkpt>
      <trkpt lat="47.32842" lon="-2.38156">
        <ele>15.39999961853</ele>
        <time>2022-10-02T08:03:01.000Z</time>
      </trkpt>
      <trkpt lat="47.32846" lon="-2.38147">
        <ele>14.800000190735</ele>
        <time>2022-10-02T08:03:02.000Z</time>
      </trkpt>
      <trkpt lat="47.32851" lon="-2.38139">
        <ele>14.39999961853</ele>
        <time>2022-10-02T08:03:03.000Z</time>
      </trkpt>
      <trkpt lat="47.32856" lon="-2.3813">
        <ele>14</ele>
        <time>2022-10-02T08:03:04.000Z</time>
      </trkpt>
      <trkpt lat="47.32881" lon="-2.38087">
        <ele>14</ele>
        <time>2022-10-02T08:03:09.000Z</time>
      </trkpt>
      <trkpt lat="47.32891" lon="-2.3807">
        <ele>13.60000038147</ele>
        <time>2022-10-02T08:03:11.000Z</time>
      </trkpt>
      <trkpt lat="47.32896" lon="-2.38062">
        <ele>13</ele>
        <time>2022-10-02T08:03:12.000Z</time>
      </trkpt>
      <trkpt lat="47.32901" lon="-2.38054">
        <ele>12.60000038147</ele>
        <time>2022-10-02T08:03:13.000Z</time>
      </trkpt>
      <trkpt lat="47.32906" lon="-2.38046">
        <ele>12.199999809265</ele>
        <time>2022-10-02T08:03:14.000Z</time>
      </trkpt>
      <trkpt lat="47.32912" lon="-2.38038">
        <ele>11.800000190735</ele>
        <time>2022-10-02T08:03:15.000Z</time>
      </trkpt>
      <trkpt lat="47.32927" lon="-2.38015">
        <ele>11.800000190735</ele>
        <time>2022-10-02T08:03:18.000Z</time>
      </trkpt>
      <trkpt lat="47.32939" lon="-2.37996">
        <ele>11.800000190735</ele>
        <time>2022-10-02T08:03:21.000Z</time>
      </trkpt>
      <trkpt lat="47.32944" lon="-2.37988">
        <ele>11.800000190735</ele>
        <time>2022-10-02T08:03:22.000Z</time>
      </trkpt>
      <trkpt lat="47.32977" lon="-2.37942">
        <ele>11.800000190735</ele>
        <time>2022-10-02T08:03:29.000Z</time>
      </trkpt>
      <trkpt lat="47.33002" lon="-2.37899">
        <ele>11.800000190735</ele>
        <time>2022-10-02T08:03:35.000Z</time>
      </trkpt>
      <trkpt lat="47.33014" lon="-2.37878">
        <ele>11.39999961853</ele>
        <time>2022-10-02T08:03:38.000Z</time>
      </trkpt>
      <trkpt lat="47.33017" lon="-2.37871">
        <ele>11</ele>
        <time>2022-10-02T08:03:39.000Z</time>
      </trkpt>
      <trkpt lat="47.33019" lon="-2.37864">
        <ele>10.39999961853</ele>
        <time>2022-10-02T08:03:40.000Z</time>
      </trkpt>
      <trkpt lat="47.33021" lon="-2.37858">
        <ele>10</ele>
        <time>2022-10-02T08:03:41.000Z</time>
      </trkpt>
      <trkpt lat="47.33024" lon="-2.37852">
        <ele>9.6000003814697</ele>
        <time>2022-10-02T08:03:42.000Z</time>
      </trkpt>
      <trkpt lat="47.33036" lon="-2.37838">
        <ele>9.6000003814697</ele>
        <time>2022-10-02T08:03:45.000Z</time>
      </trkpt>
      <trkpt lat="47.33058" lon="-2.37814">
        <ele>9.6000003814697</ele>
        <time>2022-10-02T08:03:50.000Z</time>
      </trkpt>
      <trkpt lat="47.33088" lon="-2.37784">
        <ele>9.1999998092651</ele>
        <time>2022-10-02T08:03:56.000Z</time>
      </trkpt>
      <trkpt lat="47.33093" lon="-2.37778">
        <ele>8.3999996185303</ele>
        <time>2022-10-02T08:03:57.000Z</time>
      </trkpt>
      <trkpt lat="47.33097" lon="-2.37774">
        <ele>8</ele>
        <time>2022-10-02T08:03:58.000Z</time>
      </trkpt>
      <trkpt lat="47.33101" lon="-2.37769">
        <ele>7.5999999046326</ele>
        <time>2022-10-02T08:03:59.000Z</time>
      </trkpt>
      <trkpt lat="47.33116" lon="-2.37753">
        <ele>7.5999999046326</ele>
        <time>2022-10-02T08:04:02.000Z</time>
      </trkpt>
      <trkpt lat="47.3313" lon="-2.37738">
        <ele>7.5999999046326</ele>
        <time>2022-10-02T08:04:05.000Z</time>
      </trkpt>
      <trkpt lat="47.33141" lon="-2.37734">
        <ele>7.1999998092651</ele>
        <time>2022-10-02T08:04:07.000Z</time>
      </trkpt>
      <trkpt lat="47.33148" lon="-2.37735">
        <ele>6.8000001907349</ele>
        <time>2022-10-02T08:04:08.000Z</time>
      </trkpt>
      <trkpt lat="47.33153" lon="-2.37739">
        <ele>6.4000000953674</ele>
        <time>2022-10-02T08:04:09.000Z</time>
      </trkpt>
      <trkpt lat="47.33156" lon="-2.37745">
        <ele>6</ele>
        <time>2022-10-02T08:04:10.000Z</time>
      </trkpt>
      <trkpt lat="47.3316" lon="-2.37752">
        <ele>5.5999999046326</ele>
        <time>2022-10-02T08:04:11.000Z</time>
      </trkpt>
      <trkpt lat="47.33163" lon="-2.37759">
        <ele>5.5999999046326</ele>
        <time>2022-10-02T08:04:12.000Z</time>
      </trkpt>
      <trkpt lat="47.3317" lon="-2.37769">
        <ele>5.5999999046326</ele>
        <time>2022-10-02T08:04:14.000Z</time>
      </trkpt>
      <trkpt lat="47.33183" lon="-2.37792">
        <ele>5.5999999046326</ele>
        <time>2022-10-02T08:04:19.000Z</time>
      </trkpt>
      <trkpt lat="47.33192" lon="-2.37807">
        <ele>6.4000000953674</ele>
        <time>2022-10-02T08:04:22.000Z</time>
      </trkpt>
      <trkpt lat="47.33196" lon="-2.37814">
        <ele>6.8000001907349</ele>
        <time>2022-10-02T08:04:23.000Z</time>
      </trkpt>
      <trkpt lat="47.332" lon="-2.3782">
        <ele>7.1999998092651</ele>
        <time>2022-10-02T08:04:24.000Z</time>
      </trkpt>
      <trkpt lat="47.33204" lon="-2.37826">
        <ele>7.5999999046326</ele>
        <time>2022-10-02T08:04:25.000Z</time>
      </trkpt>
      <trkpt lat="47.3322" lon="-2.37849">
        <ele>7.5999999046326</ele>
        <time>2022-10-02T08:04:29.000Z</time>
      </trkpt>
      <trkpt lat="47.33224" lon="-2.37854">
        <ele>7.5999999046326</ele>
        <time>2022-10-02T08:04:30.000Z</time>
      </trkpt>
      <trkpt lat="47.33228" lon="-2.37858">
        <ele>7.5999999046326</ele>
        <time>2022-10-02T08:04:31.000Z</time>
      </trkpt>
      <trkpt lat="47.33242" lon="-2.37867">
        <ele>8</ele>
        <time>2022-10-02T08:04:34.000Z</time>
      </trkpt>
      <trkpt lat="47.33246" lon="-2.3787">
        <ele>8.3999996185303</ele>
        <time>2022-10-02T08:04:35.000Z</time>
      </trkpt>
      <trkpt lat="47.33251" lon="-2.37873">
        <ele>8.8000001907349</ele>
        <time>2022-10-02T08:04:36.000Z</time>
      </trkpt>
      <trkpt lat="47.33255" lon="-2.37874">
        <ele>9.1999998092651</ele>
        <time>2022-10-02T08:04:37.000Z</time>
      </trkpt>
      <trkpt lat="47.3326" lon="-2.37874">
        <ele>9.6000003814697</ele>
        <time>2022-10-02T08:04:38.000Z</time>
      </trkpt>
      <trkpt lat="47.33275" lon="-2.37867">
        <ele>10.199999809265</ele>
        <time>2022-10-02T08:04:42.000Z</time>
      </trkpt>
      <trkpt lat="47.33279" lon="-2.37867">
        <ele>10.60000038147</ele>
        <time>2022-10-02T08:04:43.000Z</time>
      </trkpt>
      <trkpt lat="47.33283" lon="-2.37866">
        <ele>11.199999809265</ele>
        <time>2022-10-02T08:04:44.000Z</time>
      </trkpt>
      <trkpt lat="47.33287" lon="-2.37865">
        <ele>11.60000038147</ele>
        <time>2022-10-02T08:04:45.000Z</time>
      </trkpt>
      <trkpt lat="47.33292" lon="-2.37864">
        <ele>12</ele>
        <time>2022-10-02T08:04:46.000Z</time>
      </trkpt>
      <trkpt lat="47.33296" lon="-2.37863">
        <ele>12</ele>
        <time>2022-10-02T08:04:47.000Z</time>
      </trkpt>
      <trkpt lat="47.333" lon="-2.37861">
        <ele>12.39999961853</ele>
        <time>2022-10-02T08:04:48.000Z</time>
      </trkpt>
      <trkpt lat="47.33304" lon="-2.3786">
        <ele>12.800000190735</ele>
        <time>2022-10-02T08:04:49.000Z</time>
      </trkpt>
      <trkpt lat="47.33308" lon="-2.37859">
        <ele>13.199999809265</ele>
        <time>2022-10-02T08:04:50.000Z</time>
      </trkpt>
      <trkpt lat="47.33312" lon="-2.37858">
        <ele>13.60000038147</ele>
        <time>2022-10-02T08:04:51.000Z</time>
      </trkpt>
      <trkpt lat="47.33315" lon="-2.37857">
        <ele>14</ele>
        <time>2022-10-02T08:04:52.000Z</time>
      </trkpt>
      <trkpt lat="47.33318" lon="-2.37856">
        <ele>14</ele>
        <time>2022-10-02T08:04:53.000Z</time>
      </trkpt>
      <trkpt lat="47.33339" lon="-2.37851">
        <ele>14</ele>
        <time>2022-10-02T08:04:59.000Z</time>
      </trkpt>
      <trkpt lat="47.33348" lon="-2.37853">
        <ele>14.60000038147</ele>
        <time>2022-10-02T08:05:02.000Z</time>
      </trkpt>
      <trkpt lat="47.33351" lon="-2.37853">
        <ele>15</ele>
        <time>2022-10-02T08:05:03.000Z</time>
      </trkpt>
      <trkpt lat="47.33353" lon="-2.37853">
        <ele>15.39999961853</ele>
        <time>2022-10-02T08:05:04.000Z</time>
      </trkpt>
      <trkpt lat="47.33355" lon="-2.37853">
        <ele>15.800000190735</ele>
        <time>2022-10-02T08:05:05.000Z</time>
      </trkpt>
      <trkpt lat="47.33357" lon="-2.37854">
        <ele>16.200000762939</ele>
        <time>2022-10-02T08:05:06.000Z</time>
      </trkpt>
      <trkpt lat="47.33357" lon="-2.37855">
        <ele>16.200000762939</ele>
        <time>2022-10-02T08:05:08.000Z</time>
      </trkpt>
      <trkpt lat="47.3336" lon="-2.37855">
        <ele>16.200000762939</ele>
        <time>2022-10-02T08:06:04.000Z</time>
      </trkpt>
      <trkpt lat="47.33365" lon="-2.37845">
        <ele>16.200000762939</ele>
        <time>2022-10-02T08:06:08.000Z</time>
      </trkpt>
      <trkpt lat="47.33369" lon="-2.37834">
        <ele>16.200000762939</ele>
        <time>2022-10-02T08:06:11.000Z</time>
      </trkpt>
      <trkpt lat="47.33373" lon="-2.37828">
        <ele>16.200000762939</ele>
        <time>2022-10-02T08:06:13.000Z</time>
      </trkpt>
      <trkpt lat="47.33381" lon="-2.37803">
        <ele>16.200000762939</ele>
        <time>2022-10-02T08:06:19.000Z</time>
      </trkpt>
      <trkpt lat="47.33384" lon="-2.37789">
        <ele>16.60000038147</ele>
        <time>2022-10-02T08:06:22.000Z</time>
      </trkpt>
      <trkpt lat="47.33384" lon="-2.37783">
        <ele>17</ele>
        <time>2022-10-02T08:06:23.000Z</time>
      </trkpt>
      <trkpt lat="47.33384" lon="-2.37778">
        <ele>17.39999961853</ele>
        <time>2022-10-02T08:06:24.000Z</time>
      </trkpt>
      <trkpt lat="47.33384" lon="-2.37773">
        <ele>18.200000762939</ele>
        <time>2022-10-02T08:06:25.000Z</time>
      </trkpt>
      <trkpt lat="47.33384" lon="-2.37735">
        <ele>18.200000762939</ele>
        <time>2022-10-02T08:06:32.000Z</time>
      </trkpt>
      <trkpt lat="47.33386" lon="-2.37701">
        <ele>18.200000762939</ele>
        <time>2022-10-02T08:06:38.000Z</time>
      </trkpt>
      <trkpt lat="47.33385" lon="-2.37694">
        <ele>18.200000762939</ele>
        <time>2022-10-02T08:06:39.000Z</time>
      </trkpt>
      <trkpt lat="47.33387" lon="-2.37669">
        <ele>18.200000762939</ele>
        <time>2022-10-02T08:06:43.000Z</time>
      </trkpt>
      <trkpt lat="47.33388" lon="-2.37662">
        <ele>18.200000762939</ele>
        <time>2022-10-02T08:06:44.000Z</time>
      </trkpt>
      <trkpt lat="47.33389" lon="-2.37656">
        <ele>18.200000762939</ele>
        <time>2022-10-02T08:06:45.000Z</time>
      </trkpt>
      <trkpt lat="47.33397" lon="-2.37639">
        <ele>18.200000762939</ele>
        <time>2022-10-02T08:06:48.000Z</time>
      </trkpt>
      <trkpt lat="47.334" lon="-2.37634">
        <ele>18.200000762939</ele>
        <time>2022-10-02T08:06:49.000Z</time>
      </trkpt>
      <trkpt lat="47.33404" lon="-2.37631">
        <ele>18.200000762939</ele>
        <time>2022-10-02T08:06:50.000Z</time>
      </trkpt>
      <trkpt lat="47.33419" lon="-2.37618">
        <ele>18.200000762939</ele>
        <time>2022-10-02T08:06:54.000Z</time>
      </trkpt>
      <trkpt lat="47.33444" lon="-2.37596">
        <ele>18.200000762939</ele>
        <time>2022-10-02T08:07:01.000Z</time>
      </trkpt>
      <trkpt lat="47.33455" lon="-2.37586">
        <ele>18.200000762939</ele>
        <time>2022-10-02T08:07:04.000Z</time>
      </trkpt>
      <trkpt lat="47.33462" lon="-2.37579">
        <ele>18.200000762939</ele>
        <time>2022-10-02T08:07:06.000Z</time>
      </trkpt>
      <trkpt lat="47.33471" lon="-2.37572">
        <ele>18.200000762939</ele>
        <time>2022-10-02T08:07:08.000Z</time>
      </trkpt>
      <trkpt lat="47.33487" lon="-2.37554">
        <ele>18.200000762939</ele>
        <time>2022-10-02T08:07:13.000Z</time>
      </trkpt>
      <trkpt lat="47.33503" lon="-2.3753">
        <ele>18.200000762939</ele>
        <time>2022-10-02T08:07:19.000Z</time>
      </trkpt>
      <trkpt lat="47.33515" lon="-2.37508">
        <ele>17.799999237061</ele>
        <time>2022-10-02T08:07:23.000Z</time>
      </trkpt>
      <trkpt lat="47.33517" lon="-2.37502">
        <ele>17.39999961853</ele>
        <time>2022-10-02T08:07:24.000Z</time>
      </trkpt>
      <trkpt lat="47.3352" lon="-2.37496">
        <ele>17</ele>
        <time>2022-10-02T08:07:25.000Z</time>
      </trkpt>
      <trkpt lat="47.33522" lon="-2.3749">
        <ele>16.60000038147</ele>
        <time>2022-10-02T08:07:26.000Z</time>
      </trkpt>
      <trkpt lat="47.33525" lon="-2.37483">
        <ele>16</ele>
        <time>2022-10-02T08:07:27.000Z</time>
      </trkpt>
      <trkpt lat="47.33531" lon="-2.37466">
        <ele>16</ele>
        <time>2022-10-02T08:07:30.000Z</time>
      </trkpt>
      <trkpt lat="47.33532" lon="-2.37459">
        <ele>16</ele>
        <time>2022-10-02T08:07:31.000Z</time>
      </trkpt>
      <trkpt lat="47.33537" lon="-2.37428">
        <ele>16</ele>
        <time>2022-10-02T08:07:36.000Z</time>
      </trkpt>
      <trkpt lat="47.33537" lon="-2.37421">
        <ele>16</ele>
        <time>2022-10-02T08:07:37.000Z</time>
      </trkpt>
      <trkpt lat="47.33537" lon="-2.37395">
        <ele>15.60000038147</ele>
        <time>2022-10-02T08:07:41.000Z</time>
      </trkpt>
      <trkpt lat="47.33537" lon="-2.37388">
        <ele>15.199999809265</ele>
        <time>2022-10-02T08:07:42.000Z</time>
      </trkpt>
      <trkpt lat="47.33537" lon="-2.37382">
        <ele>14.800000190735</ele>
        <time>2022-10-02T08:07:43.000Z</time>
      </trkpt>
      <trkpt lat="47.33538" lon="-2.37375">
        <ele>14.199999809265</ele>
        <time>2022-10-02T08:07:44.000Z</time>
      </trkpt>
      <trkpt lat="47.33538" lon="-2.37368">
        <ele>13.800000190735</ele>
        <time>2022-10-02T08:07:45.000Z</time>
      </trkpt>
      <trkpt lat="47.33538" lon="-2.37355">
        <ele>13.800000190735</ele>
        <time>2022-10-02T08:07:47.000Z</time>
      </trkpt>
      <trkpt lat="47.33533" lon="-2.37339">
        <ele>13.800000190735</ele>
        <time>2022-10-02T08:07:50.000Z</time>
      </trkpt>
      <trkpt lat="47.3353" lon="-2.37334">
        <ele>13.800000190735</ele>
        <time>2022-10-02T08:07:51.000Z</time>
      </trkpt>
      <trkpt lat="47.33528" lon="-2.37327">
        <ele>13.39999961853</ele>
        <time>2022-10-02T08:07:52.000Z</time>
      </trkpt>
      <trkpt lat="47.33526" lon="-2.3732">
        <ele>13</ele>
        <time>2022-10-02T08:07:53.000Z</time>
      </trkpt>
      <trkpt lat="47.33524" lon="-2.37313">
        <ele>12.60000038147</ele>
        <time>2022-10-02T08:07:54.000Z</time>
      </trkpt>
      <trkpt lat="47.33522" lon="-2.37307">
        <ele>12.199999809265</ele>
        <time>2022-10-02T08:07:55.000Z</time>
      </trkpt>
      <trkpt lat="47.3352" lon="-2.37299">
        <ele>11.800000190735</ele>
        <time>2022-10-02T08:07:56.000Z</time>
      </trkpt>
      <trkpt lat="47.33509" lon="-2.37259">
        <ele>11.800000190735</ele>
        <time>2022-10-02T08:08:02.000Z</time>
      </trkpt>
      <trkpt lat="47.33506" lon="-2.37246">
        <ele>11</ele>
        <time>2022-10-02T08:08:04.000Z</time>
      </trkpt>
      <trkpt lat="47.33503" lon="-2.3724">
        <ele>10.39999961853</ele>
        <time>2022-10-02T08:08:05.000Z</time>
      </trkpt>
      <trkpt lat="47.33501" lon="-2.37233">
        <ele>10</ele>
        <time>2022-10-02T08:08:06.000Z</time>
      </trkpt>
      <trkpt lat="47.33498" lon="-2.37225">
        <ele>9.6000003814697</ele>
        <time>2022-10-02T08:08:07.000Z</time>
      </trkpt>
      <trkpt lat="47.33495" lon="-2.37218">
        <ele>9.6000003814697</ele>
        <time>2022-10-02T08:08:08.000Z</time>
      </trkpt>
      <trkpt lat="47.33489" lon="-2.37203">
        <ele>9.1999998092651</ele>
        <time>2022-10-02T08:08:10.000Z</time>
      </trkpt>
      <trkpt lat="47.33487" lon="-2.37195">
        <ele>8.8000001907349</ele>
        <time>2022-10-02T08:08:11.000Z</time>
      </trkpt>
      <trkpt lat="47.33485" lon="-2.37187">
        <ele>8.3999996185303</ele>
        <time>2022-10-02T08:08:12.000Z</time>
      </trkpt>
      <trkpt lat="47.33484" lon="-2.3718">
        <ele>8</ele>
        <time>2022-10-02T08:08:13.000Z</time>
      </trkpt>
      <trkpt lat="47.33483" lon="-2.37171">
        <ele>7.5999999046326</ele>
        <time>2022-10-02T08:08:14.000Z</time>
      </trkpt>
      <trkpt lat="47.33483" lon="-2.37165">
        <ele>7.5999999046326</ele>
        <time>2022-10-02T08:08:15.000Z</time>
      </trkpt>
      <trkpt lat="47.3348" lon="-2.37151">
        <ele>7.5999999046326</ele>
        <time>2022-10-02T08:08:17.000Z</time>
      </trkpt>
      <trkpt lat="47.33478" lon="-2.37128">
        <ele>7.1999998092651</ele>
        <time>2022-10-02T08:08:20.000Z</time>
      </trkpt>
      <trkpt lat="47.33477" lon="-2.3712">
        <ele>6.8000001907349</ele>
        <time>2022-10-02T08:08:21.000Z</time>
      </trkpt>
      <trkpt lat="47.33475" lon="-2.37111">
        <ele>6.4000000953674</ele>
        <time>2022-10-02T08:08:22.000Z</time>
      </trkpt>
      <trkpt lat="47.33474" lon="-2.37103">
        <ele>6</ele>
        <time>2022-10-02T08:08:23.000Z</time>
      </trkpt>
      <trkpt lat="47.33473" lon="-2.37094">
        <ele>5.5999999046326</ele>
        <time>2022-10-02T08:08:24.000Z</time>
      </trkpt>
      <trkpt lat="47.33471" lon="-2.37055">
        <ele>4.5999999046326</ele>
        <time>2022-10-02T08:08:29.000Z</time>
      </trkpt>
      <trkpt lat="47.33472" lon="-2.37047">
        <ele>4.1999998092651</ele>
        <time>2022-10-02T08:08:30.000Z</time>
      </trkpt>
      <trkpt lat="47.33472" lon="-2.3704">
        <ele>3.7999999523163</ele>
        <time>2022-10-02T08:08:31.000Z</time>
      </trkpt>
      <trkpt lat="47.33472" lon="-2.37034">
        <ele>3.4000000953674</ele>
        <time>2022-10-02T08:08:32.000Z</time>
      </trkpt>
      <trkpt lat="47.33473" lon="-2.37022">
        <ele>3.4000000953674</ele>
        <time>2022-10-02T08:08:35.000Z</time>
      </trkpt>
      <trkpt lat="47.33472" lon="-2.36999">
        <ele>3.4000000953674</ele>
        <time>2022-10-02T08:08:41.000Z</time>
      </trkpt>
      <trkpt lat="47.33468" lon="-2.3699">
        <ele>3.4000000953674</ele>
        <time>2022-10-02T08:08:45.000Z</time>
      </trkpt>
      <trkpt lat="47.33465" lon="-2.36987">
        <ele>3.4000000953674</ele>
        <time>2022-10-02T08:08:46.000Z</time>
      </trkpt>
      <trkpt lat="47.33463" lon="-2.36982">
        <ele>3</ele>
        <time>2022-10-02T08:08:47.000Z</time>
      </trkpt>
      <trkpt lat="47.33462" lon="-2.36978">
        <ele>2.5999999046326</ele>
        <time>2022-10-02T08:08:48.000Z</time>
      </trkpt>
      <trkpt lat="47.3346" lon="-2.36975">
        <ele>2.2000000476837</ele>
        <time>2022-10-02T08:08:49.000Z</time>
      </trkpt>
      <trkpt lat="47.33457" lon="-2.36974">
        <ele>1.7999999523163</ele>
        <time>2022-10-02T08:08:50.000Z</time>
      </trkpt>
      <trkpt lat="47.33455" lon="-2.36972">
        <ele>1.3999999761581</ele>
        <time>2022-10-02T08:08:51.000Z</time>
      </trkpt>
      <trkpt lat="47.3345" lon="-2.36963">
        <ele>1.3999999761581</ele>
        <time>2022-10-02T08:08:54.000Z</time>
      </trkpt>
      <trkpt lat="47.3345" lon="-2.36959">
        <ele>1.3999999761581</ele>
        <time>2022-10-02T08:08:55.000Z</time>
      </trkpt>
      <trkpt lat="47.3345" lon="-2.36946">
        <ele>1.3999999761581</ele>
        <time>2022-10-02T08:08:58.000Z</time>
      </trkpt>
      <trkpt lat="47.3345" lon="-2.36936">
        <ele>1.3999999761581</ele>
        <time>2022-10-02T08:09:00.000Z</time>
      </trkpt>
      <trkpt lat="47.33445" lon="-2.36912">
        <ele>1.3999999761581</ele>
        <time>2022-10-02T08:09:05.000Z</time>
      </trkpt>
      <trkpt lat="47.33444" lon="-2.36893">
        <ele>1.3999999761581</ele>
        <time>2022-10-02T08:09:10.000Z</time>
      </trkpt>
      <trkpt lat="47.33445" lon="-2.36882">
        <ele>1.3999999761581</ele>
        <time>2022-10-02T08:09:13.000Z</time>
      </trkpt>
      <trkpt lat="47.33449" lon="-2.3687">
        <ele>1.3999999761581</ele>
        <time>2022-10-02T08:09:15.000Z</time>
      </trkpt>
      <trkpt lat="47.33455" lon="-2.36864">
        <ele>1.3999999761581</ele>
        <time>2022-10-02T08:09:17.000Z</time>
      </trkpt>
      <trkpt lat="47.33461" lon="-2.36855">
        <ele>1.3999999761581</ele>
        <time>2022-10-02T08:09:19.000Z</time>
      </trkpt>
      <trkpt lat="47.33462" lon="-2.36849">
        <ele>1.3999999761581</ele>
        <time>2022-10-02T08:09:20.000Z</time>
      </trkpt>
      <trkpt lat="47.33465" lon="-2.36834">
        <ele>1.3999999761581</ele>
        <time>2022-10-02T08:09:22.000Z</time>
      </trkpt>
      <trkpt lat="47.33469" lon="-2.36794">
        <ele>1.3999999761581</ele>
        <time>2022-10-02T08:09:28.000Z</time>
      </trkpt>
      <trkpt lat="47.33474" lon="-2.36757">
        <ele>1.3999999761581</ele>
        <time>2022-10-02T08:09:34.000Z</time>
      </trkpt>
      <trkpt lat="47.33486" lon="-2.36727">
        <ele>1</ele>
        <time>2022-10-02T08:09:39.000Z</time>
      </trkpt>
      <trkpt lat="47.33487" lon="-2.36721">
        <ele>0.60000002384186</ele>
        <time>2022-10-02T08:09:40.000Z</time>
      </trkpt>
      <trkpt lat="47.33488" lon="-2.36716">
        <ele>18</ele>
        <time>2022-10-02T08:09:41.000Z</time>
      </trkpt>
      <trkpt lat="47.3349" lon="-2.36711">
        <ele>-0.40000000596046</ele>
        <time>2022-10-02T08:09:42.000Z</time>
      </trkpt>
      <trkpt lat="47.33494" lon="-2.36706">
        <ele>-0.80000001192093</ele>
        <time>2022-10-02T08:09:43.000Z</time>
      </trkpt>
      <trkpt lat="47.33499" lon="-2.36699">
        <ele>-0.80000001192093</ele>
        <time>2022-10-02T08:09:44.000Z</time>
      </trkpt>
      <trkpt lat="47.33516" lon="-2.36672">
        <ele>-0.80000001192093</ele>
        <time>2022-10-02T08:09:50.000Z</time>
      </trkpt>
      <trkpt lat="47.33528" lon="-2.36657">
        <ele>-0.80000001192093</ele>
        <time>2022-10-02T08:09:55.000Z</time>
      </trkpt>
      <trkpt lat="47.33531" lon="-2.36653">
        <ele>-0.80000001192093</ele>
        <time>2022-10-02T08:09:56.000Z</time>
      </trkpt>
      <trkpt lat="47.33534" lon="-2.36642">
        <ele>-0.80000001192093</ele>
        <time>2022-10-02T08:09:59.000Z</time>
      </trkpt>
      <trkpt lat="47.33531" lon="-2.36633">
        <ele>-0.80000001192093</ele>
        <time>2022-10-02T08:10:03.000Z</time>
      </trkpt>
      <trkpt lat="47.3353" lon="-2.36631">
        <ele>-0.80000001192093</ele>
        <time>2022-10-02T08:10:04.000Z</time>
      </trkpt>
      <trkpt lat="47.33528" lon="-2.36628">
        <ele>-0.20000000298023</ele>
        <time>2022-10-02T08:10:05.000Z</time>
      </trkpt>
      <trkpt lat="47.33527" lon="-2.36626">
        <ele>0.20000000298023</ele>
        <time>2022-10-02T08:10:06.000Z</time>
      </trkpt>
      <trkpt lat="47.33526" lon="-2.36624">
        <ele>0.80000001192093</ele>
        <time>2022-10-02T08:10:07.000Z</time>
      </trkpt>
      <trkpt lat="47.33525" lon="-2.36622">
        <ele>1.7999999523163</ele>
        <time>2022-10-02T08:10:08.000Z</time>
      </trkpt>
      <trkpt lat="47.33524" lon="-2.3662">
        <ele>2.2000000476837</ele>
        <time>2022-10-02T08:10:09.000Z</time>
      </trkpt>
      <trkpt lat="47.33523" lon="-2.36618">
        <ele>2.5999999046326</ele>
        <time>2022-10-02T08:10:10.000Z</time>
      </trkpt>
      <trkpt lat="47.33521" lon="-2.36616">
        <ele>3</ele>
        <time>2022-10-02T08:10:11.000Z</time>
      </trkpt>
      <trkpt lat="47.33519" lon="-2.36614">
        <ele>3.4000000953674</ele>
        <time>2022-10-02T08:10:12.000Z</time>
      </trkpt>
      <trkpt lat="47.33516" lon="-2.36613">
        <ele>3.7999999523163</ele>
        <time>2022-10-02T08:10:13.000Z</time>
      </trkpt>
      <trkpt lat="47.33514" lon="-2.36611">
        <ele>3.7999999523163</ele>
        <time>2022-10-02T08:10:14.000Z</time>
      </trkpt>
      <trkpt lat="47.33498" lon="-2.366">
        <ele>3.7999999523163</ele>
        <time>2022-10-02T08:10:20.000Z</time>
      </trkpt>
      <trkpt lat="47.33486" lon="-2.36597">
        <ele>4.1999998092651</ele>
        <time>2022-10-02T08:10:24.000Z</time>
      </trkpt>
      <trkpt lat="47.33483" lon="-2.36597">
        <ele>4.5999999046326</ele>
        <time>2022-10-02T08:10:25.000Z</time>
      </trkpt>
      <trkpt lat="47.3348" lon="-2.36596">
        <ele>5</ele>
        <time>2022-10-02T08:10:26.000Z</time>
      </trkpt>
      <trkpt lat="47.33477" lon="-2.36596">
        <ele>5.4000000953674</ele>
        <time>2022-10-02T08:10:27.000Z</time>
      </trkpt>
      <trkpt lat="47.33473" lon="-2.36595">
        <ele>5.8000001907349</ele>
        <time>2022-10-02T08:10:28.000Z</time>
      </trkpt>
      <trkpt lat="47.3347" lon="-2.36589">
        <ele>5.8000001907349</ele>
        <time>2022-10-02T08:10:30.000Z</time>
      </trkpt>
      <trkpt lat="47.33469" lon="-2.36568">
        <ele>5.8000001907349</ele>
        <time>2022-10-02T08:10:35.000Z</time>
      </trkpt>
      <trkpt lat="47.3347" lon="-2.3654">
        <ele>5.8000001907349</ele>
        <time>2022-10-02T08:10:40.000Z</time>
      </trkpt>
      <trkpt lat="47.33471" lon="-2.36515">
        <ele>5.8000001907349</ele>
        <time>2022-10-02T08:10:45.000Z</time>
      </trkpt>
      <trkpt lat="47.33471" lon="-2.36486">
        <ele>5.8000001907349</ele>
        <time>2022-10-02T08:10:50.000Z</time>
      </trkpt>
      <trkpt lat="47.33471" lon="-2.36453">
        <ele>5.8000001907349</ele>
        <time>2022-10-02T08:10:56.000Z</time>
      </trkpt>
      <trkpt lat="47.3347" lon="-2.36437">
        <ele>5.8000001907349</ele>
        <time>2022-10-02T08:10:59.000Z</time>
      </trkpt>
      <trkpt lat="47.33468" lon="-2.36433">
        <ele>5.8000001907349</ele>
        <time>2022-10-02T08:11:00.000Z</time>
      </trkpt>
      <trkpt lat="47.33461" lon="-2.36425">
        <ele>5.8000001907349</ele>
        <time>2022-10-02T08:11:04.000Z</time>
      </trkpt>
      <trkpt lat="47.33455" lon="-2.36421">
        <ele>6.1999998092651</ele>
        <time>2022-10-02T08:11:06.000Z</time>
      </trkpt>
      <trkpt lat="47.33453" lon="-2.36419">
        <ele>6.5999999046326</ele>
        <time>2022-10-02T08:11:07.000Z</time>
      </trkpt>
      <trkpt lat="47.33451" lon="-2.36415">
        <ele>7.1999998092651</ele>
        <time>2022-10-02T08:11:08.000Z</time>
      </trkpt>
      <trkpt lat="47.33449" lon="-2.36411">
        <ele>7.5999999046326</ele>
        <time>2022-10-02T08:11:09.000Z</time>
      </trkpt>
      <trkpt lat="47.33447" lon="-2.36407">
        <ele>8</ele>
        <time>2022-10-02T08:11:10.000Z</time>
      </trkpt>
      <trkpt lat="47.33441" lon="-2.36395">
        <ele>8</ele>
        <time>2022-10-02T08:11:13.000Z</time>
      </trkpt>
      <trkpt lat="47.33431" lon="-2.36369">
        <ele>8</ele>
        <time>2022-10-02T08:11:19.000Z</time>
      </trkpt>
      <trkpt lat="47.33427" lon="-2.36353">
        <ele>8.8000001907349</ele>
        <time>2022-10-02T08:11:22.000Z</time>
      </trkpt>
      <trkpt lat="47.33426" lon="-2.36349">
        <ele>9.1999998092651</ele>
        <time>2022-10-02T08:11:23.000Z</time>
      </trkpt>
      <trkpt lat="47.33425" lon="-2.36344">
        <ele>9.6000003814697</ele>
        <time>2022-10-02T08:11:24.000Z</time>
      </trkpt>
      <trkpt lat="47.33424" lon="-2.36339">
        <ele>10</ele>
        <time>2022-10-02T08:11:25.000Z</time>
      </trkpt>
      <trkpt lat="47.33416" lon="-2.36304">
        <ele>10</ele>
        <time>2022-10-02T08:11:31.000Z</time>
      </trkpt>
      <trkpt lat="47.33411" lon="-2.36256">
        <ele>10</ele>
        <time>2022-10-02T08:11:38.000Z</time>
      </trkpt>
      <trkpt lat="47.33411" lon="-2.36229">
        <ele>10</ele>
        <time>2022-10-02T08:11:42.000Z</time>
      </trkpt>
      <trkpt lat="47.33411" lon="-2.36222">
        <ele>10.39999961853</ele>
        <time>2022-10-02T08:11:43.000Z</time>
      </trkpt>
      <trkpt lat="47.33412" lon="-2.36216">
        <ele>10.800000190735</ele>
        <time>2022-10-02T08:11:44.000Z</time>
      </trkpt>
      <trkpt lat="47.33413" lon="-2.36209">
        <ele>11.199999809265</ele>
        <time>2022-10-02T08:11:45.000Z</time>
      </trkpt>
      <trkpt lat="47.33413" lon="-2.36202">
        <ele>11.60000038147</ele>
        <time>2022-10-02T08:11:46.000Z</time>
      </trkpt>
      <trkpt lat="47.33413" lon="-2.36196">
        <ele>12</ele>
        <time>2022-10-02T08:11:47.000Z</time>
      </trkpt>
      <trkpt lat="47.33412" lon="-2.36186">
        <ele>12</ele>
        <time>2022-10-02T08:11:49.000Z</time>
      </trkpt>
      <trkpt lat="47.3341" lon="-2.36165">
        <ele>12</ele>
        <time>2022-10-02T08:11:55.000Z</time>
      </trkpt>
      <trkpt lat="47.3341" lon="-2.36164">
        <ele>12</ele>
        <time>2022-10-02T08:11:56.000Z</time>
      </trkpt>
      <trkpt lat="47.33407" lon="-2.36162">
        <ele>14</ele>
        <time>2022-10-02T08:12:34.000Z</time>
      </trkpt>
      <trkpt lat="47.33405" lon="-2.36161">
        <ele>14</ele>
        <time>2022-10-02T08:12:35.000Z</time>
      </trkpt>
      <trkpt lat="47.33396" lon="-2.36166">
        <ele>14</ele>
        <time>2022-10-02T08:12:39.000Z</time>
      </trkpt>
      <trkpt lat="47.33377" lon="-2.36177">
        <ele>14</ele>
        <time>2022-10-02T08:12:45.000Z</time>
      </trkpt>
      <trkpt lat="47.33355" lon="-2.36193">
        <ele>14</ele>
        <time>2022-10-02T08:12:52.000Z</time>
      </trkpt>
      <trkpt lat="47.33344" lon="-2.36201">
        <ele>14</ele>
        <time>2022-10-02T08:12:55.000Z</time>
      </trkpt>
      <trkpt lat="47.33329" lon="-2.3621">
        <ele>14</ele>
        <time>2022-10-02T08:12:59.000Z</time>
      </trkpt>
      <trkpt lat="47.33318" lon="-2.36217">
        <ele>14</ele>
        <time>2022-10-02T08:13:02.000Z</time>
      </trkpt>
      <trkpt lat="47.33315" lon="-2.36216">
        <ele>14</ele>
        <time>2022-10-02T08:13:03.000Z</time>
      </trkpt>
      <trkpt lat="47.33311" lon="-2.36202">
        <ele>14</ele>
        <time>2022-10-02T08:13:06.000Z</time>
      </trkpt>
      <trkpt lat="47.3331" lon="-2.3619">
        <ele>14</ele>
        <time>2022-10-02T08:13:08.000Z</time>
      </trkpt>
      <trkpt lat="47.33309" lon="-2.36157">
        <ele>14</ele>
        <time>2022-10-02T08:13:13.000Z</time>
      </trkpt>
      <trkpt lat="47.33309" lon="-2.36106">
        <ele>14</ele>
        <time>2022-10-02T08:13:20.000Z</time>
      </trkpt>
      <trkpt lat="47.33309" lon="-2.36099">
        <ele>14</ele>
        <time>2022-10-02T08:13:21.000Z</time>
      </trkpt>
      <trkpt lat="47.33309" lon="-2.36078">
        <ele>14</ele>
        <time>2022-10-02T08:13:24.000Z</time>
      </trkpt>
      <trkpt lat="47.33309" lon="-2.36071">
        <ele>14</ele>
        <time>2022-10-02T08:13:25.000Z</time>
      </trkpt>
      <trkpt lat="47.33308" lon="-2.36055">
        <ele>14</ele>
        <time>2022-10-02T08:13:27.000Z</time>
      </trkpt>
      <trkpt lat="47.33309" lon="-2.3604">
        <ele>14</ele>
        <time>2022-10-02T08:13:29.000Z</time>
      </trkpt>
      <trkpt lat="47.33315" lon="-2.35984">
        <ele>14</ele>
        <time>2022-10-02T08:13:37.000Z</time>
      </trkpt>
      <trkpt lat="47.3332" lon="-2.35954">
        <ele>14</ele>
        <time>2022-10-02T08:13:41.000Z</time>
      </trkpt>
      <trkpt lat="47.3332" lon="-2.35947">
        <ele>14</ele>
        <time>2022-10-02T08:13:42.000Z</time>
      </trkpt>
      <trkpt lat="47.33314" lon="-2.35918">
        <ele>14</ele>
        <time>2022-10-02T08:13:46.000Z</time>
      </trkpt>
      <trkpt lat="47.33312" lon="-2.35911">
        <ele>14</ele>
        <time>2022-10-02T08:13:47.000Z</time>
      </trkpt>
      <trkpt lat="47.33302" lon="-2.35892">
        <ele>14</ele>
        <time>2022-10-02T08:13:50.000Z</time>
      </trkpt>
      <trkpt lat="47.33298" lon="-2.35887">
        <ele>14</ele>
        <time>2022-10-02T08:13:51.000Z</time>
      </trkpt>
      <trkpt lat="47.33281" lon="-2.35876">
        <ele>13.60000038147</ele>
        <time>2022-10-02T08:13:54.000Z</time>
      </trkpt>
      <trkpt lat="47.33276" lon="-2.35871">
        <ele>13.199999809265</ele>
        <time>2022-10-02T08:13:55.000Z</time>
      </trkpt>
      <trkpt lat="47.33271" lon="-2.35866">
        <ele>12.800000190735</ele>
        <time>2022-10-02T08:13:56.000Z</time>
      </trkpt>
      <trkpt lat="47.33266" lon="-2.3586">
        <ele>12.39999961853</ele>
        <time>2022-10-02T08:13:57.000Z</time>
      </trkpt>
      <trkpt lat="47.33261" lon="-2.35854">
        <ele>12</ele>
        <time>2022-10-02T08:13:58.000Z</time>
      </trkpt>
      <trkpt lat="47.33251" lon="-2.35842">
        <ele>12</ele>
        <time>2022-10-02T08:14:00.000Z</time>
      </trkpt>
      <trkpt lat="47.33245" lon="-2.35836">
        <ele>12</ele>
        <time>2022-10-02T08:14:01.000Z</time>
      </trkpt>
      <trkpt lat="47.33238" lon="-2.35832">
        <ele>11.60000038147</ele>
        <time>2022-10-02T08:14:02.000Z</time>
      </trkpt>
      <trkpt lat="47.33231" lon="-2.35828">
        <ele>11.199999809265</ele>
        <time>2022-10-02T08:14:03.000Z</time>
      </trkpt>
      <trkpt lat="47.33224" lon="-2.35825">
        <ele>10.800000190735</ele>
        <time>2022-10-02T08:14:04.000Z</time>
      </trkpt>
      <trkpt lat="47.33216" lon="-2.35822">
        <ele>10.199999809265</ele>
        <time>2022-10-02T08:14:05.000Z</time>
      </trkpt>
      <trkpt lat="47.33208" lon="-2.35819">
        <ele>9.8000001907349</ele>
        <time>2022-10-02T08:14:06.000Z</time>
      </trkpt>
      <trkpt lat="47.33201" lon="-2.35816">
        <ele>9.1999998092651</ele>
        <time>2022-10-02T08:14:07.000Z</time>
      </trkpt>
      <trkpt lat="47.33193" lon="-2.35814">
        <ele>8.8000001907349</ele>
        <time>2022-10-02T08:14:08.000Z</time>
      </trkpt>
      <trkpt lat="47.33185" lon="-2.35812">
        <ele>8.1999998092651</ele>
        <time>2022-10-02T08:14:09.000Z</time>
      </trkpt>
      <trkpt lat="47.33177" lon="-2.35811">
        <ele>7.8000001907349</ele>
        <time>2022-10-02T08:14:10.000Z</time>
      </trkpt>
      <trkpt lat="47.33144" lon="-2.35805">
        <ele>7.8000001907349</ele>
        <time>2022-10-02T08:14:15.000Z</time>
      </trkpt>
      <trkpt lat="47.33108" lon="-2.35804">
        <ele>7.1999998092651</ele>
        <time>2022-10-02T08:14:20.000Z</time>
      </trkpt>
      <trkpt lat="47.331" lon="-2.35804">
        <ele>6.8000001907349</ele>
        <time>2022-10-02T08:14:21.000Z</time>
      </trkpt>
      <trkpt lat="47.33093" lon="-2.35805">
        <ele>6.4000000953674</ele>
        <time>2022-10-02T08:14:22.000Z</time>
      </trkpt>
      <trkpt lat="47.33086" lon="-2.35805">
        <ele>6</ele>
        <time>2022-10-02T08:14:23.000Z</time>
      </trkpt>
      <trkpt lat="47.33079" lon="-2.35805">
        <ele>5.5999999046326</ele>
        <time>2022-10-02T08:14:24.000Z</time>
      </trkpt>
      <trkpt lat="47.33067" lon="-2.35805">
        <ele>5.5999999046326</ele>
        <time>2022-10-02T08:14:26.000Z</time>
      </trkpt>
      <trkpt lat="47.33054" lon="-2.35805">
        <ele>5.5999999046326</ele>
        <time>2022-10-02T08:14:28.000Z</time>
      </trkpt>
      <trkpt lat="47.33041" lon="-2.35802">
        <ele>5.1999998092651</ele>
        <time>2022-10-02T08:14:30.000Z</time>
      </trkpt>
      <trkpt lat="47.33035" lon="-2.35799">
        <ele>4.8000001907349</ele>
        <time>2022-10-02T08:14:31.000Z</time>
      </trkpt>
      <trkpt lat="47.33029" lon="-2.35795">
        <ele>4.4000000953674</ele>
        <time>2022-10-02T08:14:32.000Z</time>
      </trkpt>
      <trkpt lat="47.33023" lon="-2.3579">
        <ele>4</ele>
        <time>2022-10-02T08:14:33.000Z</time>
      </trkpt>
      <trkpt lat="47.33018" lon="-2.35784">
        <ele>3.5999999046326</ele>
        <time>2022-10-02T08:14:34.000Z</time>
      </trkpt>
      <trkpt lat="47.33009" lon="-2.35769">
        <ele>3.5999999046326</ele>
        <time>2022-10-02T08:14:36.000Z</time>
      </trkpt>
      <trkpt lat="47.33005" lon="-2.3576">
        <ele>3.5999999046326</ele>
        <time>2022-10-02T08:14:37.000Z</time>
      </trkpt>
      <trkpt lat="47.33" lon="-2.35736">
        <ele>3.5999999046326</ele>
        <time>2022-10-02T08:14:40.000Z</time>
      </trkpt>
      <trkpt lat="47.33001" lon="-2.35728">
        <ele>3.2000000476837</ele>
        <time>2022-10-02T08:14:41.000Z</time>
      </trkpt>
      <trkpt lat="47.33001" lon="-2.3572">
        <ele>2.7999999523163</ele>
        <time>2022-10-02T08:14:42.000Z</time>
      </trkpt>
      <trkpt lat="47.33001" lon="-2.35713">
        <ele>2.4000000953674</ele>
        <time>2022-10-02T08:14:43.000Z</time>
      </trkpt>
      <trkpt lat="47.33001" lon="-2.35706">
        <ele>1.7999999523163</ele>
        <time>2022-10-02T08:14:44.000Z</time>
      </trkpt>
      <trkpt lat="47.33002" lon="-2.357">
        <ele>1.3999999761581</ele>
        <time>2022-10-02T08:14:45.000Z</time>
      </trkpt>
      <trkpt lat="47.33003" lon="-2.35694">
        <ele>1.3999999761581</ele>
        <time>2022-10-02T08:14:46.000Z</time>
      </trkpt>
      <trkpt lat="47.33008" lon="-2.35672">
        <ele>1.3999999761581</ele>
        <time>2022-10-02T08:14:50.000Z</time>
      </trkpt>
      <trkpt lat="47.33009" lon="-2.35656">
        <ele>1.3999999761581</ele>
        <time>2022-10-02T08:14:54.000Z</time>
      </trkpt>
      <trkpt lat="47.3301" lon="-2.35635">
        <ele>1.3999999761581</ele>
        <time>2022-10-02T08:14:59.000Z</time>
      </trkpt>
      <trkpt lat="47.33013" lon="-2.35607">
        <ele>1.3999999761581</ele>
        <time>2022-10-02T08:15:04.000Z</time>
      </trkpt>
      <trkpt lat="47.33016" lon="-2.35595">
        <ele>1.7999999523163</ele>
        <time>2022-10-02T08:15:06.000Z</time>
      </trkpt>
      <trkpt lat="47.33017" lon="-2.35588">
        <ele>2.2000000476837</ele>
        <time>2022-10-02T08:15:07.000Z</time>
      </trkpt>
      <trkpt lat="47.33018" lon="-2.35582">
        <ele>2.5999999046326</ele>
        <time>2022-10-02T08:15:08.000Z</time>
      </trkpt>
      <trkpt lat="47.33018" lon="-2.35575">
        <ele>3.2000000476837</ele>
        <time>2022-10-02T08:15:09.000Z</time>
      </trkpt>
      <trkpt lat="47.33018" lon="-2.35569">
        <ele>3.5999999046326</ele>
        <time>2022-10-02T08:15:10.000Z</time>
      </trkpt>
      <trkpt lat="47.33018" lon="-2.35543">
        <ele>3.5999999046326</ele>
        <time>2022-10-02T08:15:14.000Z</time>
      </trkpt>
      <trkpt lat="47.33022" lon="-2.35516">
        <ele>3.5999999046326</ele>
        <time>2022-10-02T08:15:18.000Z</time>
      </trkpt>
      <trkpt lat="47.33024" lon="-2.35496">
        <ele>3.5999999046326</ele>
        <time>2022-10-02T08:15:21.000Z</time>
      </trkpt>
      <trkpt lat="47.33026" lon="-2.35476">
        <ele>4</ele>
        <time>2022-10-02T08:15:24.000Z</time>
      </trkpt>
      <trkpt lat="47.33026" lon="-2.35469">
        <ele>4.4000000953674</ele>
        <time>2022-10-02T08:15:25.000Z</time>
      </trkpt>
      <trkpt lat="47.33026" lon="-2.35463">
        <ele>4.8000001907349</ele>
        <time>2022-10-02T08:15:26.000Z</time>
      </trkpt>
      <trkpt lat="47.33025" lon="-2.35458">
        <ele>5.1999998092651</ele>
        <time>2022-10-02T08:15:27.000Z</time>
      </trkpt>
      <trkpt lat="47.33025" lon="-2.35452">
        <ele>5.5999999046326</ele>
        <time>2022-10-02T08:15:28.000Z</time>
      </trkpt>
      <trkpt lat="47.33025" lon="-2.35446">
        <ele>5.5999999046326</ele>
        <time>2022-10-02T08:15:29.000Z</time>
      </trkpt>
      <trkpt lat="47.33027" lon="-2.35414">
        <ele>5.5999999046326</ele>
        <time>2022-10-02T08:15:34.000Z</time>
      </trkpt>
      <trkpt lat="47.33023" lon="-2.35373">
        <ele>5.5999999046326</ele>
        <time>2022-10-02T08:15:40.000Z</time>
      </trkpt>
      <trkpt lat="47.33023" lon="-2.35366">
        <ele>5.5999999046326</ele>
        <time>2022-10-02T08:15:41.000Z</time>
      </trkpt>
      <trkpt lat="47.33022" lon="-2.35352">
        <ele>6</ele>
        <time>2022-10-02T08:15:43.000Z</time>
      </trkpt>
      <trkpt lat="47.33021" lon="-2.35346">
        <ele>6.4000000953674</ele>
        <time>2022-10-02T08:15:44.000Z</time>
      </trkpt>
      <trkpt lat="47.3302" lon="-2.35339">
        <ele>6.8000001907349</ele>
        <time>2022-10-02T08:15:45.000Z</time>
      </trkpt>
      <trkpt lat="47.33019" lon="-2.35333">
        <ele>7.1999998092651</ele>
        <time>2022-10-02T08:15:46.000Z</time>
      </trkpt>
      <trkpt lat="47.33018" lon="-2.35326">
        <ele>7.5999999046326</ele>
        <time>2022-10-02T08:15:47.000Z</time>
      </trkpt>
      <trkpt lat="47.33016" lon="-2.3529">
        <ele>7.5999999046326</ele>
        <time>2022-10-02T08:15:52.000Z</time>
      </trkpt>
      <trkpt lat="47.33018" lon="-2.3526">
        <ele>7.5999999046326</ele>
        <time>2022-10-02T08:15:56.000Z</time>
      </trkpt>
      <trkpt lat="47.33017" lon="-2.35252">
        <ele>7.5999999046326</ele>
        <time>2022-10-02T08:15:57.000Z</time>
      </trkpt>
      <trkpt lat="47.33016" lon="-2.35238">
        <ele>7.5999999046326</ele>
        <time>2022-10-02T08:15:59.000Z</time>
      </trkpt>
      <trkpt lat="47.33021" lon="-2.35222">
        <ele>7.5999999046326</ele>
        <time>2022-10-02T08:16:01.000Z</time>
      </trkpt>
      <trkpt lat="47.33038" lon="-2.35186">
        <ele>7.5999999046326</ele>
        <time>2022-10-02T08:16:05.000Z</time>
      </trkpt>
      <trkpt lat="47.33046" lon="-2.3517">
        <ele>7.5999999046326</ele>
        <time>2022-10-02T08:16:07.000Z</time>
      </trkpt>
      <trkpt lat="47.33048" lon="-2.35163">
        <ele>7.5999999046326</ele>
        <time>2022-10-02T08:16:08.000Z</time>
      </trkpt>
      <trkpt lat="47.3305" lon="-2.35156">
        <ele>7.5999999046326</ele>
        <time>2022-10-02T08:16:09.000Z</time>
      </trkpt>
      <trkpt lat="47.33059" lon="-2.3514">
        <ele>7.5999999046326</ele>
        <time>2022-10-02T08:16:12.000Z</time>
      </trkpt>
      <trkpt lat="47.33074" lon="-2.35118">
        <ele>7.5999999046326</ele>
        <time>2022-10-02T08:16:16.000Z</time>
      </trkpt>
      <trkpt lat="47.331" lon="-2.35085">
        <ele>7.5999999046326</ele>
        <time>2022-10-02T08:16:22.000Z</time>
      </trkpt>
      <trkpt lat="47.3311" lon="-2.35068">
        <ele>7.5999999046326</ele>
        <time>2022-10-02T08:16:26.000Z</time>
      </trkpt>
      <trkpt lat="47.3312" lon="-2.3505">
        <ele>7.5999999046326</ele>
        <time>2022-10-02T08:16:31.000Z</time>
      </trkpt>
      <trkpt lat="47.33132" lon="-2.35033">
        <ele>7.5999999046326</ele>
        <time>2022-10-02T08:16:34.000Z</time>
      </trkpt>
      <trkpt lat="47.33135" lon="-2.35026">
        <ele>7.5999999046326</ele>
        <time>2022-10-02T08:16:35.000Z</time>
      </trkpt>
      <trkpt lat="47.33147" lon="-2.35006">
        <ele>7.1999998092651</ele>
        <time>2022-10-02T08:16:38.000Z</time>
      </trkpt>
      <trkpt lat="47.33151" lon="-2.35001">
        <ele>6.8000001907349</ele>
        <time>2022-10-02T08:16:39.000Z</time>
      </trkpt>
      <trkpt lat="47.33155" lon="-2.34997">
        <ele>6.4000000953674</ele>
        <time>2022-10-02T08:16:40.000Z</time>
      </trkpt>
      <trkpt lat="47.33158" lon="-2.34992">
        <ele>5.8000001907349</ele>
        <time>2022-10-02T08:16:41.000Z</time>
      </trkpt>
      <trkpt lat="47.33161" lon="-2.34986">
        <ele>5.4000000953674</ele>
        <time>2022-10-02T08:16:42.000Z</time>
      </trkpt>
      <trkpt lat="47.33164" lon="-2.34979">
        <ele>5.4000000953674</ele>
        <time>2022-10-02T08:16:43.000Z</time>
      </trkpt>
      <trkpt lat="47.3317" lon="-2.34966">
        <ele>5.4000000953674</ele>
        <time>2022-10-02T08:16:45.000Z</time>
      </trkpt>
      <trkpt lat="47.33188" lon="-2.34925">
        <ele>5.4000000953674</ele>
        <time>2022-10-02T08:16:51.000Z</time>
      </trkpt>
      <trkpt lat="47.332" lon="-2.34897">
        <ele>5</ele>
        <time>2022-10-02T08:16:55.000Z</time>
      </trkpt>
      <trkpt lat="47.33202" lon="-2.3489">
        <ele>4.5999999046326</ele>
        <time>2022-10-02T08:16:56.000Z</time>
      </trkpt>
      <trkpt lat="47.33205" lon="-2.34883">
        <ele>4.1999998092651</ele>
        <time>2022-10-02T08:16:57.000Z</time>
      </trkpt>
      <trkpt lat="47.33207" lon="-2.34876">
        <ele>3.7999999523163</ele>
        <time>2022-10-02T08:16:58.000Z</time>
      </trkpt>
      <trkpt lat="47.3321" lon="-2.34869">
        <ele>3.4000000953674</ele>
        <time>2022-10-02T08:16:59.000Z</time>
      </trkpt>
      <trkpt lat="47.33215" lon="-2.34856">
        <ele>3.4000000953674</ele>
        <time>2022-10-02T08:17:01.000Z</time>
      </trkpt>
      <trkpt lat="47.33232" lon="-2.34813">
        <ele>3.4000000953674</ele>
        <time>2022-10-02T08:17:07.000Z</time>
      </trkpt>
      <trkpt lat="47.33234" lon="-2.34806">
        <ele>3.4000000953674</ele>
        <time>2022-10-02T08:17:08.000Z</time>
      </trkpt>
      <trkpt lat="47.33241" lon="-2.34784">
        <ele>3.4000000953674</ele>
        <time>2022-10-02T08:17:11.000Z</time>
      </trkpt>
      <trkpt lat="47.33247" lon="-2.3477">
        <ele>3</ele>
        <time>2022-10-02T08:17:13.000Z</time>
      </trkpt>
      <trkpt lat="47.3325" lon="-2.34762">
        <ele>2.5999999046326</ele>
        <time>2022-10-02T08:17:14.000Z</time>
      </trkpt>
      <trkpt lat="47.33253" lon="-2.34754">
        <ele>2.2000000476837</ele>
        <time>2022-10-02T08:17:15.000Z</time>
      </trkpt>
      <trkpt lat="47.33256" lon="-2.34746">
        <ele>1.6000000238419</ele>
        <time>2022-10-02T08:17:16.000Z</time>
      </trkpt>
      <trkpt lat="47.33259" lon="-2.34738">
        <ele>1.2000000476837</ele>
        <time>2022-10-02T08:17:17.000Z</time>
      </trkpt>
      <trkpt lat="47.3327" lon="-2.34709">
        <ele>1.2000000476837</ele>
        <time>2022-10-02T08:17:21.000Z</time>
      </trkpt>
      <trkpt lat="47.3328" lon="-2.3468">
        <ele>1.2000000476837</ele>
        <time>2022-10-02T08:17:26.000Z</time>
      </trkpt>
      <trkpt lat="47.33287" lon="-2.3466">
        <ele>1.2000000476837</ele>
        <time>2022-10-02T08:17:30.000Z</time>
      </trkpt>
      <trkpt lat="47.3329" lon="-2.34654">
        <ele>1.2000000476837</ele>
        <time>2022-10-02T08:17:31.000Z</time>
      </trkpt>
      <trkpt lat="47.333" lon="-2.34635">
        <ele>1.2000000476837</ele>
        <time>2022-10-02T08:17:34.000Z</time>
      </trkpt>
      <trkpt lat="47.33305" lon="-2.34616">
        <ele>1.2000000476837</ele>
        <time>2022-10-02T08:17:37.000Z</time>
      </trkpt>
      <trkpt lat="47.33306" lon="-2.34609">
        <ele>1.2000000476837</ele>
        <time>2022-10-02T08:17:38.000Z</time>
      </trkpt>
      <trkpt lat="47.33313" lon="-2.34588">
        <ele>1.2000000476837</ele>
        <time>2022-10-02T08:17:41.000Z</time>
      </trkpt>
      <trkpt lat="47.33315" lon="-2.34581">
        <ele>1.2000000476837</ele>
        <time>2022-10-02T08:17:42.000Z</time>
      </trkpt>
      <trkpt lat="47.33322" lon="-2.34552">
        <ele>1.2000000476837</ele>
        <time>2022-10-02T08:17:47.000Z</time>
      </trkpt>
      <trkpt lat="47.3333" lon="-2.34525">
        <ele>1.2000000476837</ele>
        <time>2022-10-02T08:17:51.000Z</time>
      </trkpt>
      <trkpt lat="47.33347" lon="-2.34497">
        <ele>1.2000000476837</ele>
        <time>2022-10-02T08:17:56.000Z</time>
      </trkpt>
      <trkpt lat="47.33353" lon="-2.34486">
        <ele>1.2000000476837</ele>
        <time>2022-10-02T08:18:00.000Z</time>
      </trkpt>
      <trkpt lat="47.33356" lon="-2.34488">
        <ele>1.2000000476837</ele>
        <time>2022-10-02T08:18:04.000Z</time>
      </trkpt>
      <trkpt lat="47.33364" lon="-2.34499">
        <ele>1.2000000476837</ele>
        <time>2022-10-02T08:18:08.000Z</time>
      </trkpt>
      <trkpt lat="47.3337" lon="-2.34508">
        <ele>1.2000000476837</ele>
        <time>2022-10-02T08:18:10.000Z</time>
      </trkpt>
      <trkpt lat="47.33376" lon="-2.34516">
        <ele>1.2000000476837</ele>
        <time>2022-10-02T08:18:12.000Z</time>
      </trkpt>
      <trkpt lat="47.33393" lon="-2.34547">
        <ele>1.2000000476837</ele>
        <time>2022-10-02T08:18:18.000Z</time>
      </trkpt>
      <trkpt lat="47.33399" lon="-2.34559">
        <ele>1.2000000476837</ele>
        <time>2022-10-02T08:18:20.000Z</time>
      </trkpt>
      <trkpt lat="47.33403" lon="-2.34565">
        <ele>1.6000000238419</ele>
        <time>2022-10-02T08:18:21.000Z</time>
      </trkpt>
      <trkpt lat="47.33407" lon="-2.34571">
        <ele>2.2000000476837</ele>
        <time>2022-10-02T08:18:22.000Z</time>
      </trkpt>
      <trkpt lat="47.3341" lon="-2.34577">
        <ele>2.5999999046326</ele>
        <time>2022-10-02T08:18:23.000Z</time>
      </trkpt>
      <trkpt lat="47.33413" lon="-2.34582">
        <ele>3</ele>
        <time>2022-10-02T08:18:24.000Z</time>
      </trkpt>
      <trkpt lat="47.33416" lon="-2.34588">
        <ele>3.4000000953674</ele>
        <time>2022-10-02T08:18:25.000Z</time>
      </trkpt>
      <trkpt lat="47.33422" lon="-2.34598">
        <ele>3.4000000953674</ele>
        <time>2022-10-02T08:18:27.000Z</time>
      </trkpt>
      <trkpt lat="47.33428" lon="-2.34609">
        <ele>3.4000000953674</ele>
        <time>2022-10-02T08:18:29.000Z</time>
      </trkpt>
      <trkpt lat="47.33434" lon="-2.3462">
        <ele>3.4000000953674</ele>
        <time>2022-10-02T08:18:31.000Z</time>
      </trkpt>
      <trkpt lat="47.33444" lon="-2.34637">
        <ele>3.4000000953674</ele>
        <time>2022-10-02T08:18:34.000Z</time>
      </trkpt>
      <trkpt lat="47.33457" lon="-2.34659">
        <ele>3.7999999523163</ele>
        <time>2022-10-02T08:18:38.000Z</time>
      </trkpt>
      <trkpt lat="47.33461" lon="-2.34665">
        <ele>4.1999998092651</ele>
        <time>2022-10-02T08:18:39.000Z</time>
      </trkpt>
      <trkpt lat="47.33464" lon="-2.3467">
        <ele>4.5999999046326</ele>
        <time>2022-10-02T08:18:40.000Z</time>
      </trkpt>
      <trkpt lat="47.33468" lon="-2.34676">
        <ele>5</ele>
        <time>2022-10-02T08:18:41.000Z</time>
      </trkpt>
      <trkpt lat="47.33471" lon="-2.34682">
        <ele>5.4000000953674</ele>
        <time>2022-10-02T08:18:42.000Z</time>
      </trkpt>
      <trkpt lat="47.33478" lon="-2.34692">
        <ele>5.4000000953674</ele>
        <time>2022-10-02T08:18:44.000Z</time>
      </trkpt>
      <trkpt lat="47.3349" lon="-2.34709">
        <ele>5.4000000953674</ele>
        <time>2022-10-02T08:18:47.000Z</time>
      </trkpt>
      <trkpt lat="47.33501" lon="-2.34724">
        <ele>5.8000001907349</ele>
        <time>2022-10-02T08:18:50.000Z</time>
      </trkpt>
      <trkpt lat="47.33504" lon="-2.34729">
        <ele>6.1999998092651</ele>
        <time>2022-10-02T08:18:51.000Z</time>
      </trkpt>
      <trkpt lat="47.33507" lon="-2.34734">
        <ele>6.5999999046326</ele>
        <time>2022-10-02T08:18:52.000Z</time>
      </trkpt>
      <trkpt lat="47.3351" lon="-2.34739">
        <ele>7</ele>
        <time>2022-10-02T08:18:53.000Z</time>
      </trkpt>
      <trkpt lat="47.33514" lon="-2.34744">
        <ele>7.4000000953674</ele>
        <time>2022-10-02T08:18:54.000Z</time>
      </trkpt>
      <trkpt lat="47.33523" lon="-2.34756">
        <ele>7.4000000953674</ele>
        <time>2022-10-02T08:18:56.000Z</time>
      </trkpt>
      <trkpt lat="47.33528" lon="-2.34762">
        <ele>7.4000000953674</ele>
        <time>2022-10-02T08:18:57.000Z</time>
      </trkpt>
      <trkpt lat="47.33535" lon="-2.3477">
        <ele>7.4000000953674</ele>
        <time>2022-10-02T08:18:59.000Z</time>
      </trkpt>
      <trkpt lat="47.33546" lon="-2.34785">
        <ele>7.4000000953674</ele>
        <time>2022-10-02T08:19:02.000Z</time>
      </trkpt>
      <trkpt lat="47.33569" lon="-2.34815">
        <ele>7.4000000953674</ele>
        <time>2022-10-02T08:19:07.000Z</time>
      </trkpt>
      <trkpt lat="47.33608" lon="-2.34861">
        <ele>7.4000000953674</ele>
        <time>2022-10-02T08:19:15.000Z</time>
      </trkpt>
      <trkpt lat="47.33614" lon="-2.34866">
        <ele>7.4000000953674</ele>
        <time>2022-10-02T08:19:16.000Z</time>
      </trkpt>
      <trkpt lat="47.33637" lon="-2.34889">
        <ele>7.4000000953674</ele>
        <time>2022-10-02T08:19:20.000Z</time>
      </trkpt>
      <trkpt lat="47.3367" lon="-2.34933">
        <ele>7</ele>
        <time>2022-10-02T08:19:26.000Z</time>
      </trkpt>
      <trkpt lat="47.33674" lon="-2.34943">
        <ele>6.5999999046326</ele>
        <time>2022-10-02T08:19:27.000Z</time>
      </trkpt>
      <trkpt lat="47.33679" lon="-2.34952">
        <ele>6.1999998092651</ele>
        <time>2022-10-02T08:19:28.000Z</time>
      </trkpt>
      <trkpt lat="47.33684" lon="-2.3496">
        <ele>5.8000001907349</ele>
        <time>2022-10-02T08:19:29.000Z</time>
      </trkpt>
      <trkpt lat="47.33688" lon="-2.34966">
        <ele>5.4000000953674</ele>
        <time>2022-10-02T08:19:30.000Z</time>
      </trkpt>
      <trkpt lat="47.33692" lon="-2.34973">
        <ele>5.4000000953674</ele>
        <time>2022-10-02T08:19:31.000Z</time>
      </trkpt>
      <trkpt lat="47.33704" lon="-2.34991">
        <ele>5.4000000953674</ele>
        <time>2022-10-02T08:19:35.000Z</time>
      </trkpt>
      <trkpt lat="47.33717" lon="-2.34989">
        <ele>5.4000000953674</ele>
        <time>2022-10-02T08:19:39.000Z</time>
      </trkpt>
      <trkpt lat="47.3372" lon="-2.34987">
        <ele>5.4000000953674</ele>
        <time>2022-10-02T08:19:40.000Z</time>
      </trkpt>
      <trkpt lat="47.33723" lon="-2.34985">
        <ele>5.4000000953674</ele>
        <time>2022-10-02T08:19:41.000Z</time>
      </trkpt>
      <trkpt lat="47.33732" lon="-2.34976">
        <ele>5.4000000953674</ele>
        <time>2022-10-02T08:19:44.000Z</time>
      </trkpt>
      <trkpt lat="47.33743" lon="-2.34968">
        <ele>5</ele>
        <time>2022-10-02T08:19:47.000Z</time>
      </trkpt>
      <trkpt lat="47.33747" lon="-2.34965">
        <ele>4.5999999046326</ele>
        <time>2022-10-02T08:19:48.000Z</time>
      </trkpt>
      <trkpt lat="47.33751" lon="-2.34963">
        <ele>4.1999998092651</ele>
        <time>2022-10-02T08:19:49.000Z</time>
      </trkpt>
      <trkpt lat="47.33756" lon="-2.3496">
        <ele>3.7999999523163</ele>
        <time>2022-10-02T08:19:50.000Z</time>
      </trkpt>
      <trkpt lat="47.33759" lon="-2.34958">
        <ele>3.4000000953674</ele>
        <time>2022-10-02T08:19:51.000Z</time>
      </trkpt>
      <trkpt lat="47.33767" lon="-2.34951">
        <ele>3.4000000953674</ele>
        <time>2022-10-02T08:19:53.000Z</time>
      </trkpt>
      <trkpt lat="47.33779" lon="-2.34937">
        <ele>3.4000000953674</ele>
        <time>2022-10-02T08:19:56.000Z</time>
      </trkpt>
      <trkpt lat="47.33787" lon="-2.34924">
        <ele>3.4000000953674</ele>
        <time>2022-10-02T08:19:59.000Z</time>
      </trkpt>
      <trkpt lat="47.33796" lon="-2.34909">
        <ele>3.4000000953674</ele>
        <time>2022-10-02T08:20:02.000Z</time>
      </trkpt>
      <trkpt lat="47.338" lon="-2.34898">
        <ele>3.4000000953674</ele>
        <time>2022-10-02T08:20:04.000Z</time>
      </trkpt>
      <trkpt lat="47.33811" lon="-2.34883">
        <ele>3.4000000953674</ele>
        <time>2022-10-02T08:20:08.000Z</time>
      </trkpt>
      <trkpt lat="47.33822" lon="-2.3487">
        <ele>3.4000000953674</ele>
        <time>2022-10-02T08:20:12.000Z</time>
      </trkpt>
      <trkpt lat="47.33836" lon="-2.34857">
        <ele>3.4000000953674</ele>
        <time>2022-10-02T08:20:16.000Z</time>
      </trkpt>
      <trkpt lat="47.3384" lon="-2.34853">
        <ele>3</ele>
        <time>2022-10-02T08:20:17.000Z</time>
      </trkpt>
      <trkpt lat="47.33844" lon="-2.3485">
        <ele>2.4000000953674</ele>
        <time>2022-10-02T08:20:18.000Z</time>
      </trkpt>
      <trkpt lat="47.33848" lon="-2.34847">
        <ele>2</ele>
        <time>2022-10-02T08:20:19.000Z</time>
      </trkpt>
      <trkpt lat="47.33851" lon="-2.34844">
        <ele>1.6000000238419</ele>
        <time>2022-10-02T08:20:20.000Z</time>
      </trkpt>
      <trkpt lat="47.33853" lon="-2.34841">
        <ele>1.2000000476837</ele>
        <time>2022-10-02T08:20:21.000Z</time>
      </trkpt>
      <trkpt lat="47.33857" lon="-2.34831">
        <ele>1.2000000476837</ele>
        <time>2022-10-02T08:20:24.000Z</time>
      </trkpt>
      <trkpt lat="47.33864" lon="-2.34808">
        <ele>1.2000000476837</ele>
        <time>2022-10-02T08:20:29.000Z</time>
      </trkpt>
      <trkpt lat="47.33866" lon="-2.34769">
        <ele>1.2000000476837</ele>
        <time>2022-10-02T08:20:35.000Z</time>
      </trkpt>
      <trkpt lat="47.33869" lon="-2.34738">
        <ele>1.7999999523163</ele>
        <time>2022-10-02T08:20:40.000Z</time>
      </trkpt>
      <trkpt lat="47.33869" lon="-2.34732">
        <ele>2.2000000476837</ele>
        <time>2022-10-02T08:20:41.000Z</time>
      </trkpt>
      <trkpt lat="47.33869" lon="-2.34726">
        <ele>2.5999999046326</ele>
        <time>2022-10-02T08:20:42.000Z</time>
      </trkpt>
      <trkpt lat="47.33869" lon="-2.3472">
        <ele>3</ele>
        <time>2022-10-02T08:20:43.000Z</time>
      </trkpt>
      <trkpt lat="47.3387" lon="-2.34714">
        <ele>3.4000000953674</ele>
        <time>2022-10-02T08:20:44.000Z</time>
      </trkpt>
      <trkpt lat="47.33871" lon="-2.34693">
        <ele>3.4000000953674</ele>
        <time>2022-10-02T08:20:47.000Z</time>
      </trkpt>
      <trkpt lat="47.33871" lon="-2.34686">
        <ele>3.4000000953674</ele>
        <time>2022-10-02T08:20:48.000Z</time>
      </trkpt>
      <trkpt lat="47.33873" lon="-2.34667">
        <ele>3.4000000953674</ele>
        <time>2022-10-02T08:20:51.000Z</time>
      </trkpt>
      <trkpt lat="47.33875" lon="-2.34654">
        <ele>3.4000000953674</ele>
        <time>2022-10-02T08:20:53.000Z</time>
      </trkpt>
      <trkpt lat="47.33878" lon="-2.34633">
        <ele>3.4000000953674</ele>
        <time>2022-10-02T08:20:56.000Z</time>
      </trkpt>
      <trkpt lat="47.33878" lon="-2.34627">
        <ele>3.7999999523163</ele>
        <time>2022-10-02T08:20:57.000Z</time>
      </trkpt>
      <trkpt lat="47.33879" lon="-2.34621">
        <ele>4.1999998092651</ele>
        <time>2022-10-02T08:20:58.000Z</time>
      </trkpt>
      <trkpt lat="47.33881" lon="-2.34616">
        <ele>4.5999999046326</ele>
        <time>2022-10-02T08:20:59.000Z</time>
      </trkpt>
      <trkpt lat="47.33882" lon="-2.34613">
        <ele>5</ele>
        <time>2022-10-02T08:21:00.000Z</time>
      </trkpt>
      <trkpt lat="47.33884" lon="-2.34611">
        <ele>5.4000000953674</ele>
        <time>2022-10-02T08:21:01.000Z</time>
      </trkpt>
      <trkpt lat="47.33888" lon="-2.34603">
        <ele>5.4000000953674</ele>
        <time>2022-10-02T08:21:06.000Z</time>
      </trkpt>
      <trkpt lat="47.33888" lon="-2.34601">
        <ele>5.4000000953674</ele>
        <time>2022-10-02T08:21:07.000Z</time>
      </trkpt>
      <trkpt lat="47.33889" lon="-2.34592">
        <ele>5.4000000953674</ele>
        <time>2022-10-02T08:21:10.000Z</time>
      </trkpt>
      <trkpt lat="47.33889" lon="-2.34589">
        <ele>5.4000000953674</ele>
        <time>2022-10-02T08:21:11.000Z</time>
      </trkpt>
      <trkpt lat="47.33895" lon="-2.34574">
        <ele>5.4000000953674</ele>
        <time>2022-10-02T08:21:15.000Z</time>
      </trkpt>
      <trkpt lat="47.33905" lon="-2.34546">
        <ele>5.4000000953674</ele>
        <time>2022-10-02T08:21:21.000Z</time>
      </trkpt>
      <trkpt lat="47.33915" lon="-2.34523">
        <ele>5.4000000953674</ele>
        <time>2022-10-02T08:21:26.000Z</time>
      </trkpt>
      <trkpt lat="47.33922" lon="-2.34501">
        <ele>5.4000000953674</ele>
        <time>2022-10-02T08:21:30.000Z</time>
      </trkpt>
      <trkpt lat="47.33929" lon="-2.34468">
        <ele>5.4000000953674</ele>
        <time>2022-10-02T08:21:35.000Z</time>
      </trkpt>
      <trkpt lat="47.3393" lon="-2.34461">
        <ele>5.4000000953674</ele>
        <time>2022-10-02T08:21:36.000Z</time>
      </trkpt>
      <trkpt lat="47.33941" lon="-2.34433">
        <ele>5.4000000953674</ele>
        <time>2022-10-02T08:21:40.000Z</time>
      </trkpt>
      <trkpt lat="47.33946" lon="-2.34417">
        <ele>5.4000000953674</ele>
        <time>2022-10-02T08:21:42.000Z</time>
      </trkpt>
      <trkpt lat="47.33947" lon="-2.3441">
        <ele>5.4000000953674</ele>
        <time>2022-10-02T08:21:43.000Z</time>
      </trkpt>
      <trkpt lat="47.33952" lon="-2.34397">
        <ele>5.4000000953674</ele>
        <time>2022-10-02T08:21:45.000Z</time>
      </trkpt>
      <trkpt lat="47.33959" lon="-2.3437">
        <ele>5.4000000953674</ele>
        <time>2022-10-02T08:21:50.000Z</time>
      </trkpt>
      <trkpt lat="47.33965" lon="-2.3436">
        <ele>5.4000000953674</ele>
        <time>2022-10-02T08:21:53.000Z</time>
      </trkpt>
      <trkpt lat="47.33967" lon="-2.34358">
        <ele>5.4000000953674</ele>
        <time>2022-10-02T08:21:54.000Z</time>
      </trkpt>
      <trkpt lat="47.33973" lon="-2.34352">
        <ele>5.4000000953674</ele>
        <time>2022-10-02T08:21:57.000Z</time>
      </trkpt>
      <trkpt lat="47.33978" lon="-2.34353">
        <ele>5.4000000953674</ele>
        <time>2022-10-02T08:21:59.000Z</time>
      </trkpt>
      <trkpt lat="47.33986" lon="-2.34361">
        <ele>5.4000000953674</ele>
        <time>2022-10-02T08:22:02.000Z</time>
      </trkpt>
      <trkpt lat="47.33988" lon="-2.34366">
        <ele>5.4000000953674</ele>
        <time>2022-10-02T08:22:03.000Z</time>
      </trkpt>
      <trkpt lat="47.34003" lon="-2.34393">
        <ele>5</ele>
        <time>2022-10-02T08:22:09.000Z</time>
      </trkpt>
      <trkpt lat="47.34005" lon="-2.34398">
        <ele>4.5999999046326</ele>
        <time>2022-10-02T08:22:10.000Z</time>
      </trkpt>
      <trkpt lat="47.34008" lon="-2.34403">
        <ele>4.1999998092651</ele>
        <time>2022-10-02T08:22:11.000Z</time>
      </trkpt>
      <trkpt lat="47.3401" lon="-2.34408">
        <ele>3.7999999523163</ele>
        <time>2022-10-02T08:22:12.000Z</time>
      </trkpt>
      <trkpt lat="47.34012" lon="-2.34414">
        <ele>3.4000000953674</ele>
        <time>2022-10-02T08:22:13.000Z</time>
      </trkpt>
      <trkpt lat="47.34018" lon="-2.34426">
        <ele>3.4000000953674</ele>
        <time>2022-10-02T08:22:15.000Z</time>
      </trkpt>
      <trkpt lat="47.34038" lon="-2.34474">
        <ele>3.4000000953674</ele>
        <time>2022-10-02T08:22:22.000Z</time>
      </trkpt>
      <trkpt lat="47.34053" lon="-2.3452">
        <ele>3.4000000953674</ele>
        <time>2022-10-02T08:22:28.000Z</time>
      </trkpt>
      <trkpt lat="47.34062" lon="-2.34555">
        <ele>3.4000000953674</ele>
        <time>2022-10-02T08:22:33.000Z</time>
      </trkpt>
      <trkpt lat="47.34072" lon="-2.34564">
        <ele>3.4000000953674</ele>
        <time>2022-10-02T08:22:36.000Z</time>
      </trkpt>
      <trkpt lat="47.34085" lon="-2.34554">
        <ele>3.4000000953674</ele>
        <time>2022-10-02T08:22:39.000Z</time>
      </trkpt>
      <trkpt lat="47.34114" lon="-2.34535">
        <ele>3.4000000953674</ele>
        <time>2022-10-02T08:22:45.000Z</time>
      </trkpt>
      <trkpt lat="47.34129" lon="-2.34527">
        <ele>3.4000000953674</ele>
        <time>2022-10-02T08:22:48.000Z</time>
      </trkpt>
      <trkpt lat="47.34144" lon="-2.3452">
        <ele>3.4000000953674</ele>
        <time>2022-10-02T08:22:51.000Z</time>
      </trkpt>
      <trkpt lat="47.34159" lon="-2.34515">
        <ele>3.4000000953674</ele>
        <time>2022-10-02T08:22:54.000Z</time>
      </trkpt>
      <trkpt lat="47.34168" lon="-2.34512">
        <ele>3.4000000953674</ele>
        <time>2022-10-02T08:22:56.000Z</time>
      </trkpt>
      <trkpt lat="47.34173" lon="-2.34511">
        <ele>3.4000000953674</ele>
        <time>2022-10-02T08:22:57.000Z</time>
      </trkpt>
      <trkpt lat="47.34187" lon="-2.34505">
        <ele>3.4000000953674</ele>
        <time>2022-10-02T08:23:00.000Z</time>
      </trkpt>
      <trkpt lat="47.34198" lon="-2.34501">
        <ele>3.4000000953674</ele>
        <time>2022-10-02T08:23:02.000Z</time>
      </trkpt>
      <trkpt lat="47.34214" lon="-2.34493">
        <ele>3.4000000953674</ele>
        <time>2022-10-02T08:23:05.000Z</time>
      </trkpt>
      <trkpt lat="47.34239" lon="-2.3448">
        <ele>3.4000000953674</ele>
        <time>2022-10-02T08:23:10.000Z</time>
      </trkpt>
      <trkpt lat="47.34262" lon="-2.34472">
        <ele>3.4000000953674</ele>
        <time>2022-10-02T08:23:14.000Z</time>
      </trkpt>
      <trkpt lat="47.34277" lon="-2.34468">
        <ele>3.4000000953674</ele>
        <time>2022-10-02T08:23:17.000Z</time>
      </trkpt>
      <trkpt lat="47.34289" lon="-2.34467">
        <ele>3.4000000953674</ele>
        <time>2022-10-02T08:23:19.000Z</time>
      </trkpt>
      <trkpt lat="47.343" lon="-2.34467">
        <ele>3.4000000953674</ele>
        <time>2022-10-02T08:23:21.000Z</time>
      </trkpt>
      <trkpt lat="47.34316" lon="-2.34464">
        <ele>3.4000000953674</ele>
        <time>2022-10-02T08:23:24.000Z</time>
      </trkpt>
      <trkpt lat="47.34327" lon="-2.34461">
        <ele>3.4000000953674</ele>
        <time>2022-10-02T08:23:26.000Z</time>
      </trkpt>
      <trkpt lat="47.34343" lon="-2.34455">
        <ele>3.4000000953674</ele>
        <time>2022-10-02T08:23:29.000Z</time>
      </trkpt>
      <trkpt lat="47.34363" lon="-2.34441">
        <ele>3.4000000953674</ele>
        <time>2022-10-02T08:23:33.000Z</time>
      </trkpt>
      <trkpt lat="47.34404" lon="-2.3442">
        <ele>3.4000000953674</ele>
        <time>2022-10-02T08:23:40.000Z</time>
      </trkpt>
      <trkpt lat="47.3441" lon="-2.34418">
        <ele>3</ele>
        <time>2022-10-02T08:23:41.000Z</time>
      </trkpt>
      <trkpt lat="47.34416" lon="-2.34414">
        <ele>2.5999999046326</ele>
        <time>2022-10-02T08:23:42.000Z</time>
      </trkpt>
      <trkpt lat="47.34422" lon="-2.34411">
        <ele>2.2000000476837</ele>
        <time>2022-10-02T08:23:43.000Z</time>
      </trkpt>
      <trkpt lat="47.34429" lon="-2.34408">
        <ele>1.7999999523163</ele>
        <time>2022-10-02T08:23:44.000Z</time>
      </trkpt>
      <trkpt lat="47.34435" lon="-2.34406">
        <ele>1.3999999761581</ele>
        <time>2022-10-02T08:23:45.000Z</time>
      </trkpt>
      <trkpt lat="47.34442" lon="-2.34404">
        <ele>1.3999999761581</ele>
        <time>2022-10-02T08:23:46.000Z</time>
      </trkpt>
      <trkpt lat="47.34489" lon="-2.34383">
        <ele>1.3999999761581</ele>
        <time>2022-10-02T08:23:54.000Z</time>
      </trkpt>
      <trkpt lat="47.34514" lon="-2.34356">
        <ele>1.3999999761581</ele>
        <time>2022-10-02T08:23:59.000Z</time>
      </trkpt>
      <trkpt lat="47.34518" lon="-2.34351">
        <ele>1.3999999761581</ele>
        <time>2022-10-02T08:24:00.000Z</time>
      </trkpt>
      <trkpt lat="47.34536" lon="-2.34334">
        <ele>1.3999999761581</ele>
        <time>2022-10-02T08:24:04.000Z</time>
      </trkpt>
      <trkpt lat="47.34554" lon="-2.34318">
        <ele>1.3999999761581</ele>
        <time>2022-10-02T08:24:08.000Z</time>
      </trkpt>
      <trkpt lat="47.34563" lon="-2.34312">
        <ele>1.3999999761581</ele>
        <time>2022-10-02T08:24:10.000Z</time>
      </trkpt>
      <trkpt lat="47.34586" lon="-2.34301">
        <ele>0.80000001192093</ele>
        <time>2022-10-02T08:24:14.000Z</time>
      </trkpt>
      <trkpt lat="47.34592" lon="-2.343">
        <ele>0.40000000596046</ele>
        <time>2022-10-02T08:24:15.000Z</time>
      </trkpt>
      <trkpt lat="47.34598" lon="-2.34299">
        <ele>17.5</ele>
        <time>2022-10-02T08:24:16.000Z</time>
      </trkpt>
      <trkpt lat="47.34604" lon="-2.34298">
        <ele>-0.40000000596046</ele>
        <time>2022-10-02T08:24:17.000Z</time>
      </trkpt>
      <trkpt lat="47.34611" lon="-2.34297">
        <ele>-0.80000001192093</ele>
        <time>2022-10-02T08:24:18.000Z</time>
      </trkpt>
      <trkpt lat="47.34622" lon="-2.34296">
        <ele>-0.80000001192093</ele>
        <time>2022-10-02T08:24:20.000Z</time>
      </trkpt>
      <trkpt lat="47.34627" lon="-2.34294">
        <ele>-0.80000001192093</ele>
        <time>2022-10-02T08:24:21.000Z</time>
      </trkpt>
      <trkpt lat="47.34632" lon="-2.34292">
        <ele>-1.2000000476837</ele>
        <time>2022-10-02T08:24:22.000Z</time>
      </trkpt>
      <trkpt lat="47.34638" lon="-2.34288">
        <ele>-1.7999999523163</ele>
        <time>2022-10-02T08:24:23.000Z</time>
      </trkpt>
      <trkpt lat="47.34643" lon="-2.34283">
        <ele>-2.2000000476837</ele>
        <time>2022-10-02T08:24:24.000Z</time>
      </trkpt>
      <trkpt lat="47.34648" lon="-2.34278">
        <ele>-2.5999999046326</ele>
        <time>2022-10-02T08:24:25.000Z</time>
      </trkpt>
      <trkpt lat="47.34654" lon="-2.34273">
        <ele>-3.2000000476837</ele>
        <time>2022-10-02T08:24:26.000Z</time>
      </trkpt>
      <trkpt lat="47.3466" lon="-2.34269">
        <ele>-3.2000000476837</ele>
        <time>2022-10-02T08:24:27.000Z</time>
      </trkpt>
      <trkpt lat="47.34672" lon="-2.34264">
        <ele>-3.2000000476837</ele>
        <time>2022-10-02T08:24:29.000Z</time>
      </trkpt>
      <trkpt lat="47.34713" lon="-2.34256">
        <ele>-3.2000000476837</ele>
        <time>2022-10-02T08:24:36.000Z</time>
      </trkpt>
      <trkpt lat="47.34751" lon="-2.34247">
        <ele>-3.2000000476837</ele>
        <time>2022-10-02T08:24:43.000Z</time>
      </trkpt>
      <trkpt lat="47.34785" lon="-2.34235">
        <ele>-3.2000000476837</ele>
        <time>2022-10-02T08:24:50.000Z</time>
      </trkpt>
      <trkpt lat="47.34804" lon="-2.3423">
        <ele>-3.2000000476837</ele>
        <time>2022-10-02T08:24:54.000Z</time>
      </trkpt>
      <trkpt lat="47.34812" lon="-2.34229">
        <ele>-3.2000000476837</ele>
        <time>2022-10-02T08:24:56.000Z</time>
      </trkpt>
      <trkpt lat="47.34825" lon="-2.34228">
        <ele>-2.5999999046326</ele>
        <time>2022-10-02T08:24:59.000Z</time>
      </trkpt>
      <trkpt lat="47.34829" lon="-2.34228">
        <ele>-2.2000000476837</ele>
        <time>2022-10-02T08:25:00.000Z</time>
      </trkpt>
      <trkpt lat="47.34833" lon="-2.34227">
        <ele>-1.7999999523163</ele>
        <time>2022-10-02T08:25:01.000Z</time>
      </trkpt>
      <trkpt lat="47.34838" lon="-2.34227">
        <ele>-1.2000000476837</ele>
        <time>2022-10-02T08:25:02.000Z</time>
      </trkpt>
      <trkpt lat="47.34841" lon="-2.34226">
        <ele>-0.80000001192093</ele>
        <time>2022-10-02T08:25:03.000Z</time>
      </trkpt>
      <trkpt lat="47.34851" lon="-2.34229">
        <ele>-0.80000001192093</ele>
        <time>2022-10-02T08:25:06.000Z</time>
      </trkpt>
      <trkpt lat="47.34855" lon="-2.34233">
        <ele>-0.40000000596046</ele>
        <time>2022-10-02T08:25:08.000Z</time>
      </trkpt>
      <trkpt lat="47.34858" lon="-2.34233">
        <ele>0.20000000298023</ele>
        <time>2022-10-02T08:25:09.000Z</time>
      </trkpt>
      <trkpt lat="47.3486" lon="-2.34232">
        <ele>0.60000002384186</ele>
        <time>2022-10-02T08:25:10.000Z</time>
      </trkpt>
      <trkpt lat="47.34862" lon="-2.3423">
        <ele>1.2000000476837</ele>
        <time>2022-10-02T08:25:11.000Z</time>
      </trkpt>
      <trkpt lat="47.34864" lon="-2.34228">
        <ele>1.6000000238419</ele>
        <time>2022-10-02T08:25:12.000Z</time>
      </trkpt>
      <trkpt lat="47.34868" lon="-2.34223">
        <ele>1.6000000238419</ele>
        <time>2022-10-02T08:25:14.000Z</time>
      </trkpt>
      <trkpt lat="47.34869" lon="-2.34221">
        <ele>2</ele>
        <time>2022-10-02T08:25:15.000Z</time>
      </trkpt>
      <trkpt lat="47.3487" lon="-2.34218">
        <ele>2.4000000953674</ele>
        <time>2022-10-02T08:25:16.000Z</time>
      </trkpt>
      <trkpt lat="47.34871" lon="-2.34215">
        <ele>3</ele>
        <time>2022-10-02T08:25:17.000Z</time>
      </trkpt>
      <trkpt lat="47.34871" lon="-2.34211">
        <ele>3.4000000953674</ele>
        <time>2022-10-02T08:25:18.000Z</time>
      </trkpt>
      <trkpt lat="47.34872" lon="-2.34207">
        <ele>3.7999999523163</ele>
        <time>2022-10-02T08:25:19.000Z</time>
      </trkpt>
      <trkpt lat="47.34874" lon="-2.34197">
        <ele>3.7999999523163</ele>
        <time>2022-10-02T08:25:23.000Z</time>
      </trkpt>
      <trkpt lat="47.34876" lon="-2.34195">
        <ele>3.7999999523163</ele>
        <time>2022-10-02T08:25:24.000Z</time>
      </trkpt>
      <trkpt lat="47.34877" lon="-2.34194">
        <ele>4.1999998092651</ele>
        <time>2022-10-02T08:25:25.000Z</time>
      </trkpt>
      <trkpt lat="47.34879" lon="-2.34194">
        <ele>4.5999999046326</ele>
        <time>2022-10-02T08:25:26.000Z</time>
      </trkpt>
      <trkpt lat="47.34881" lon="-2.34196">
        <ele>5</ele>
        <time>2022-10-02T08:25:27.000Z</time>
      </trkpt>
      <trkpt lat="47.34882" lon="-2.34198">
        <ele>5.5999999046326</ele>
        <time>2022-10-02T08:25:28.000Z</time>
      </trkpt>
      <trkpt lat="47.34883" lon="-2.34199">
        <ele>6</ele>
        <time>2022-10-02T08:25:29.000Z</time>
      </trkpt>
      <trkpt lat="47.34884" lon="-2.34201">
        <ele>6</ele>
        <time>2022-10-02T08:25:32.000Z</time>
      </trkpt>
      <trkpt lat="47.34891" lon="-2.34206">
        <ele>6</ele>
        <time>2022-10-02T08:35:20.000Z</time>
      </trkpt>
      <trkpt lat="47.34896" lon="-2.34205">
        <ele>6</ele>
        <time>2022-10-02T08:35:22.000Z</time>
      </trkpt>
      <trkpt lat="47.3491" lon="-2.34208">
        <ele>6</ele>
        <time>2022-10-02T08:35:26.000Z</time>
      </trkpt>
      <trkpt lat="47.34915" lon="-2.34208">
        <ele>6</ele>
        <time>2022-10-02T08:35:27.000Z</time>
      </trkpt>
      <trkpt lat="47.34919" lon="-2.34208">
        <ele>5.5999999046326</ele>
        <time>2022-10-02T08:35:28.000Z</time>
      </trkpt>
      <trkpt lat="47.34924" lon="-2.34207">
        <ele>5.1999998092651</ele>
        <time>2022-10-02T08:35:29.000Z</time>
      </trkpt>
      <trkpt lat="47.34929" lon="-2.34207">
        <ele>4.8000001907349</ele>
        <time>2022-10-02T08:35:30.000Z</time>
      </trkpt>
      <trkpt lat="47.34934" lon="-2.34204">
        <ele>4.4000000953674</ele>
        <time>2022-10-02T08:35:31.000Z</time>
      </trkpt>
      <trkpt lat="47.3494" lon="-2.342">
        <ele>3.7999999523163</ele>
        <time>2022-10-02T08:35:32.000Z</time>
      </trkpt>
      <trkpt lat="47.34953" lon="-2.34195">
        <ele>3.4000000953674</ele>
        <time>2022-10-02T08:35:35.000Z</time>
      </trkpt>
      <trkpt lat="47.34958" lon="-2.34193">
        <ele>3</ele>
        <time>2022-10-02T08:35:36.000Z</time>
      </trkpt>
      <trkpt lat="47.34961" lon="-2.34192">
        <ele>2.5999999046326</ele>
        <time>2022-10-02T08:35:37.000Z</time>
      </trkpt>
      <trkpt lat="47.34965" lon="-2.34192">
        <ele>2</ele>
        <time>2022-10-02T08:35:38.000Z</time>
      </trkpt>
      <trkpt lat="47.34968" lon="-2.34193">
        <ele>1.6000000238419</ele>
        <time>2022-10-02T08:35:39.000Z</time>
      </trkpt>
      <trkpt lat="47.34971" lon="-2.34196">
        <ele>1.6000000238419</ele>
        <time>2022-10-02T08:35:40.000Z</time>
      </trkpt>
      <trkpt lat="47.34973" lon="-2.342">
        <ele>1.6000000238419</ele>
        <time>2022-10-02T08:35:42.000Z</time>
      </trkpt>
      <trkpt lat="47.34976" lon="-2.34203">
        <ele>1.2000000476837</ele>
        <time>2022-10-02T08:35:45.000Z</time>
      </trkpt>
      <trkpt lat="47.34978" lon="-2.34205">
        <ele>0.80000001192093</ele>
        <time>2022-10-02T08:35:46.000Z</time>
      </trkpt>
      <trkpt lat="47.34979" lon="-2.34207">
        <ele>0.40000000596046</ele>
        <time>2022-10-02T08:35:47.000Z</time>
      </trkpt>
      <trkpt lat="47.34981" lon="-2.3421">
        <ele>18.8</ele>
        <time>2022-10-02T08:35:48.000Z</time>
      </trkpt>
      <trkpt lat="47.34982" lon="-2.34213">
        <ele>-0.60000002384186</ele>
        <time>2022-10-02T08:35:49.000Z</time>
      </trkpt>
      <trkpt lat="47.34987" lon="-2.34229">
        <ele>-0.60000002384186</ele>
        <time>2022-10-02T08:35:54.000Z</time>
      </trkpt>
      <trkpt lat="47.34989" lon="-2.3424">
        <ele>-1</ele>
        <time>2022-10-02T08:35:56.000Z</time>
      </trkpt>
      <trkpt lat="47.3499" lon="-2.34246">
        <ele>-1.3999999761581</ele>
        <time>2022-10-02T08:35:57.000Z</time>
      </trkpt>
      <trkpt lat="47.34991" lon="-2.34253">
        <ele>-1.7999999523163</ele>
        <time>2022-10-02T08:35:58.000Z</time>
      </trkpt>
      <trkpt lat="47.34993" lon="-2.34261">
        <ele>-2.4000000953674</ele>
        <time>2022-10-02T08:35:59.000Z</time>
      </trkpt>
      <trkpt lat="47.34995" lon="-2.34266">
        <ele>-2.7999999523163</ele>
        <time>2022-10-02T08:36:00.000Z</time>
      </trkpt>
      <trkpt lat="47.35001" lon="-2.3428">
        <ele>-2.7999999523163</ele>
        <time>2022-10-02T08:36:02.000Z</time>
      </trkpt>
      <trkpt lat="47.35004" lon="-2.34289">
        <ele>-3.2000000476837</ele>
        <time>2022-10-02T08:36:03.000Z</time>
      </trkpt>
      <trkpt lat="47.35007" lon="-2.34297">
        <ele>-4</ele>
        <time>2022-10-02T08:36:04.000Z</time>
      </trkpt>
      <trkpt lat="47.3501" lon="-2.34306">
        <ele>-4.5999999046326</ele>
        <time>2022-10-02T08:36:05.000Z</time>
      </trkpt>
      <trkpt lat="47.35012" lon="-2.34314">
        <ele>-5</ele>
        <time>2022-10-02T08:36:06.000Z</time>
      </trkpt>
      <trkpt lat="47.35018" lon="-2.3433">
        <ele>-5.4000000953674</ele>
        <time>2022-10-02T08:36:08.000Z</time>
      </trkpt>
      <trkpt lat="47.35019" lon="-2.34336">
        <ele>-5.8000001907349</ele>
        <time>2022-10-02T08:36:09.000Z</time>
      </trkpt>
      <trkpt lat="47.35021" lon="-2.34339">
        <ele>-6.4000000953674</ele>
        <time>2022-10-02T08:36:10.000Z</time>
      </trkpt>
      <trkpt lat="47.35023" lon="-2.34343">
        <ele>-6.8000001907349</ele>
        <time>2022-10-02T08:36:11.000Z</time>
      </trkpt>
      <trkpt lat="47.35024" lon="-2.34346">
        <ele>-7.1999998092651</ele>
        <time>2022-10-02T08:36:12.000Z</time>
      </trkpt>
      <trkpt lat="47.35024" lon="-2.3435">
        <ele>-7.1999998092651</ele>
        <time>2022-10-02T08:36:14.000Z</time>
      </trkpt>
      <trkpt lat="47.35024" lon="-2.34351">
        <ele>-7.1999998092651</ele>
        <time>2022-10-02T08:36:15.000Z</time>
      </trkpt>
      <trkpt lat="47.3502" lon="-2.34354">
        <ele>-7.1999998092651</ele>
        <time>2022-10-02T08:36:18.000Z</time>
      </trkpt>
      <trkpt lat="47.35016" lon="-2.34356">
        <ele>-7.1999998092651</ele>
        <time>2022-10-02T08:36:20.000Z</time>
      </trkpt>
      <trkpt lat="47.35003" lon="-2.34361">
        <ele>-7.1999998092651</ele>
        <time>2022-10-02T08:36:24.000Z</time>
      </trkpt>
      <trkpt lat="47.34986" lon="-2.34365">
        <ele>-7.1999998092651</ele>
        <time>2022-10-02T08:36:28.000Z</time>
      </trkpt>
      <trkpt lat="47.34982" lon="-2.34366">
        <ele>-7.1999998092651</ele>
        <time>2022-10-02T08:36:29.000Z</time>
      </trkpt>
      <trkpt lat="47.34962" lon="-2.34368">
        <ele>-7.1999998092651</ele>
        <time>2022-10-02T08:36:34.000Z</time>
      </trkpt>
      <trkpt lat="47.34947" lon="-2.3437">
        <ele>-7.1999998092651</ele>
        <time>2022-10-02T08:36:38.000Z</time>
      </trkpt>
      <trkpt lat="47.34928" lon="-2.34368">
        <ele>-7.1999998092651</ele>
        <time>2022-10-02T08:36:44.000Z</time>
      </trkpt>
      <trkpt lat="47.34913" lon="-2.34372">
        <ele>-7.1999998092651</ele>
        <time>2022-10-02T08:36:49.000Z</time>
      </trkpt>
      <trkpt lat="47.34905" lon="-2.34374">
        <ele>-6.8000001907349</ele>
        <time>2022-10-02T08:36:51.000Z</time>
      </trkpt>
      <trkpt lat="47.34901" lon="-2.34375">
        <ele>-6.4000000953674</ele>
        <time>2022-10-02T08:36:52.000Z</time>
      </trkpt>
      <trkpt lat="47.34898" lon="-2.34375">
        <ele>-5.4000000953674</ele>
        <time>2022-10-02T08:36:53.000Z</time>
      </trkpt>
      <trkpt lat="47.34895" lon="-2.34376">
        <ele>-5</ele>
        <time>2022-10-02T08:36:54.000Z</time>
      </trkpt>
      <trkpt lat="47.34892" lon="-2.34376">
        <ele>-5</ele>
        <time>2022-10-02T08:36:55.000Z</time>
      </trkpt>
      <trkpt lat="47.34876" lon="-2.34376">
        <ele>-5</ele>
        <time>2022-10-02T08:36:59.000Z</time>
      </trkpt>
      <trkpt lat="47.34855" lon="-2.34379">
        <ele>-5</ele>
        <time>2022-10-02T08:37:05.000Z</time>
      </trkpt>
      <trkpt lat="47.34841" lon="-2.34379">
        <ele>-4.5999999046326</ele>
        <time>2022-10-02T08:37:08.000Z</time>
      </trkpt>
      <trkpt lat="47.34835" lon="-2.34381">
        <ele>-4.1999998092651</ele>
        <time>2022-10-02T08:37:09.000Z</time>
      </trkpt>
      <trkpt lat="47.3483" lon="-2.34382">
        <ele>-3.7999999523163</ele>
        <time>2022-10-02T08:37:10.000Z</time>
      </trkpt>
      <trkpt lat="47.34825" lon="-2.34383">
        <ele>-3.4000000953674</ele>
        <time>2022-10-02T08:37:11.000Z</time>
      </trkpt>
      <trkpt lat="47.3482" lon="-2.34383">
        <ele>-3</ele>
        <time>2022-10-02T08:37:12.000Z</time>
      </trkpt>
      <trkpt lat="47.34806" lon="-2.34383">
        <ele>-3</ele>
        <time>2022-10-02T08:37:15.000Z</time>
      </trkpt>
      <trkpt lat="47.34797" lon="-2.34384">
        <ele>-3</ele>
        <time>2022-10-02T08:37:17.000Z</time>
      </trkpt>
      <trkpt lat="47.3479" lon="-2.34386">
        <ele>-3</ele>
        <time>2022-10-02T08:37:19.000Z</time>
      </trkpt>
      <trkpt lat="47.34782" lon="-2.34394">
        <ele>-3</ele>
        <time>2022-10-02T08:37:23.000Z</time>
      </trkpt>
      <trkpt lat="47.34776" lon="-2.34402">
        <ele>-3</ele>
        <time>2022-10-02T08:37:28.000Z</time>
      </trkpt>
      <trkpt lat="47.34775" lon="-2.34404">
        <ele>-3</ele>
        <time>2022-10-02T08:37:29.000Z</time>
      </trkpt>
      <trkpt lat="47.3477" lon="-2.34415">
        <ele>-3</ele>
        <time>2022-10-02T08:37:33.000Z</time>
      </trkpt>
      <trkpt lat="47.34767" lon="-2.34422">
        <ele>-3</ele>
        <time>2022-10-02T08:37:35.000Z</time>
      </trkpt>
      <trkpt lat="47.34765" lon="-2.34426">
        <ele>-3.4000000953674</ele>
        <time>2022-10-02T08:37:36.000Z</time>
      </trkpt>
      <trkpt lat="47.34763" lon="-2.34431">
        <ele>-3.7999999523163</ele>
        <time>2022-10-02T08:37:37.000Z</time>
      </trkpt>
      <trkpt lat="47.3476" lon="-2.34437">
        <ele>-4.1999998092651</ele>
        <time>2022-10-02T08:37:38.000Z</time>
      </trkpt>
      <trkpt lat="47.34758" lon="-2.34443">
        <ele>-4.5999999046326</ele>
        <time>2022-10-02T08:37:39.000Z</time>
      </trkpt>
      <trkpt lat="47.34756" lon="-2.34448">
        <ele>-5</ele>
        <time>2022-10-02T08:37:40.000Z</time>
      </trkpt>
      <trkpt lat="47.34751" lon="-2.34463">
        <ele>-5</ele>
        <time>2022-10-02T08:37:43.000Z</time>
      </trkpt>
      <trkpt lat="47.34749" lon="-2.34469">
        <ele>-5</ele>
        <time>2022-10-02T08:37:44.000Z</time>
      </trkpt>
      <trkpt lat="47.34743" lon="-2.34481">
        <ele>-5</ele>
        <time>2022-10-02T08:37:47.000Z</time>
      </trkpt>
      <trkpt lat="47.34727" lon="-2.34488">
        <ele>-5</ele>
        <time>2022-10-02T08:37:51.000Z</time>
      </trkpt>
      <trkpt lat="47.34712" lon="-2.34493">
        <ele>-5</ele>
        <time>2022-10-02T08:37:55.000Z</time>
      </trkpt>
      <trkpt lat="47.34704" lon="-2.34497">
        <ele>-5</ele>
        <time>2022-10-02T08:37:57.000Z</time>
      </trkpt>
      <trkpt lat="47.34689" lon="-2.34505">
        <ele>-5</ele>
        <time>2022-10-02T08:38:01.000Z</time>
      </trkpt>
      <trkpt lat="47.34681" lon="-2.34508">
        <ele>-5</ele>
        <time>2022-10-02T08:38:03.000Z</time>
      </trkpt>
      <trkpt lat="47.34653" lon="-2.34516">
        <ele>-5</ele>
        <time>2022-10-02T08:38:11.000Z</time>
      </trkpt>
      <trkpt lat="47.34628" lon="-2.34523">
        <ele>-5</ele>
        <time>2022-10-02T08:38:18.000Z</time>
      </trkpt>
      <trkpt lat="47.34611" lon="-2.3453">
        <ele>-5</ele>
        <time>2022-10-02T08:38:24.000Z</time>
      </trkpt>
      <trkpt lat="47.34612" lon="-2.34542">
        <ele>-5</ele>
        <time>2022-10-02T08:38:27.000Z</time>
      </trkpt>
      <trkpt lat="47.34613" lon="-2.34551">
        <ele>-5</ele>
        <time>2022-10-02T08:38:29.000Z</time>
      </trkpt>
      <trkpt lat="47.34617" lon="-2.34577">
        <ele>-5</ele>
        <time>2022-10-02T08:38:34.000Z</time>
      </trkpt>
      <trkpt lat="47.34626" lon="-2.34621">
        <ele>-5</ele>
        <time>2022-10-02T08:38:41.000Z</time>
      </trkpt>
      <trkpt lat="47.34629" lon="-2.34635">
        <ele>-5</ele>
        <time>2022-10-02T08:38:43.000Z</time>
      </trkpt>
      <trkpt lat="47.34632" lon="-2.34651">
        <ele>-5</ele>
        <time>2022-10-02T08:38:45.000Z</time>
      </trkpt>
      <trkpt lat="47.34634" lon="-2.34659">
        <ele>-5.4000000953674</ele>
        <time>2022-10-02T08:38:46.000Z</time>
      </trkpt>
      <trkpt lat="47.34635" lon="-2.34666">
        <ele>-5.8000001907349</ele>
        <time>2022-10-02T08:38:47.000Z</time>
      </trkpt>
      <trkpt lat="47.34636" lon="-2.34673">
        <ele>-6.4000000953674</ele>
        <time>2022-10-02T08:38:48.000Z</time>
      </trkpt>
      <trkpt lat="47.34637" lon="-2.34682">
        <ele>-6.8000001907349</ele>
        <time>2022-10-02T08:38:49.000Z</time>
      </trkpt>
      <trkpt lat="47.34638" lon="-2.34688">
        <ele>-7.1999998092651</ele>
        <time>2022-10-02T08:38:50.000Z</time>
      </trkpt>
      <trkpt lat="47.3464" lon="-2.34704">
        <ele>-7.1999998092651</ele>
        <time>2022-10-02T08:38:52.000Z</time>
      </trkpt>
      <trkpt lat="47.3464" lon="-2.34745">
        <ele>-7.1999998092651</ele>
        <time>2022-10-02T08:38:58.000Z</time>
      </trkpt>
      <trkpt lat="47.34638" lon="-2.34759">
        <ele>-7.1999998092651</ele>
        <time>2022-10-02T08:39:00.000Z</time>
      </trkpt>
      <trkpt lat="47.34632" lon="-2.34779">
        <ele>-7.1999998092651</ele>
        <time>2022-10-02T08:39:03.000Z</time>
      </trkpt>
      <trkpt lat="47.34617" lon="-2.34811">
        <ele>-7.1999998092651</ele>
        <time>2022-10-02T08:39:08.000Z</time>
      </trkpt>
      <trkpt lat="47.34599" lon="-2.34855">
        <ele>-7.1999998092651</ele>
        <time>2022-10-02T08:39:15.000Z</time>
      </trkpt>
      <trkpt lat="47.34588" lon="-2.3488">
        <ele>-7.1999998092651</ele>
        <time>2022-10-02T08:39:20.000Z</time>
      </trkpt>
      <trkpt lat="47.34582" lon="-2.34902">
        <ele>-7.1999998092651</ele>
        <time>2022-10-02T08:39:25.000Z</time>
      </trkpt>
      <trkpt lat="47.34583" lon="-2.34907">
        <ele>-7.1999998092651</ele>
        <time>2022-10-02T08:39:26.000Z</time>
      </trkpt>
      <trkpt lat="47.34589" lon="-2.34915">
        <ele>-7.1999998092651</ele>
        <time>2022-10-02T08:39:28.000Z</time>
      </trkpt>
      <trkpt lat="47.34598" lon="-2.34938">
        <ele>-7.1999998092651</ele>
        <time>2022-10-02T08:39:32.000Z</time>
      </trkpt>
      <trkpt lat="47.346" lon="-2.34944">
        <ele>-7.1999998092651</ele>
        <time>2022-10-02T08:39:33.000Z</time>
      </trkpt>
      <trkpt lat="47.3462" lon="-2.34976">
        <ele>-7.1999998092651</ele>
        <time>2022-10-02T08:39:39.000Z</time>
      </trkpt>
      <trkpt lat="47.34626" lon="-2.34987">
        <ele>-7.1999998092651</ele>
        <time>2022-10-02T08:39:41.000Z</time>
      </trkpt>
      <trkpt lat="47.3464" lon="-2.35013">
        <ele>-7.1999998092651</ele>
        <time>2022-10-02T08:39:45.000Z</time>
      </trkpt>
      <trkpt lat="47.34655" lon="-2.3503">
        <ele>-7.1999998092651</ele>
        <time>2022-10-02T08:39:49.000Z</time>
      </trkpt>
      <trkpt lat="47.34664" lon="-2.35033">
        <ele>-7.1999998092651</ele>
        <time>2022-10-02T08:39:51.000Z</time>
      </trkpt>
      <trkpt lat="47.34673" lon="-2.35031">
        <ele>-7.1999998092651</ele>
        <time>2022-10-02T08:39:53.000Z</time>
      </trkpt>
      <trkpt lat="47.34678" lon="-2.35032">
        <ele>-7.1999998092651</ele>
        <time>2022-10-02T08:39:54.000Z</time>
      </trkpt>
      <trkpt lat="47.34687" lon="-2.35038">
        <ele>-7.1999998092651</ele>
        <time>2022-10-02T08:39:57.000Z</time>
      </trkpt>
      <trkpt lat="47.34689" lon="-2.3504">
        <ele>-7.1999998092651</ele>
        <time>2022-10-02T08:39:58.000Z</time>
      </trkpt>
      <trkpt lat="47.34698" lon="-2.35051">
        <ele>-7.1999998092651</ele>
        <time>2022-10-02T08:40:01.000Z</time>
      </trkpt>
      <trkpt lat="47.347" lon="-2.35055">
        <ele>-7.5999999046326</ele>
        <time>2022-10-02T08:40:02.000Z</time>
      </trkpt>
      <trkpt lat="47.34703" lon="-2.35059">
        <ele>-8</ele>
        <time>2022-10-02T08:40:03.000Z</time>
      </trkpt>
      <trkpt lat="47.34706" lon="-2.35063">
        <ele>-8.3999996185303</ele>
        <time>2022-10-02T08:40:04.000Z</time>
      </trkpt>
      <trkpt lat="47.34709" lon="-2.35067">
        <ele>-8.8000001907349</ele>
        <time>2022-10-02T08:40:05.000Z</time>
      </trkpt>
      <trkpt lat="47.34712" lon="-2.35072">
        <ele>-9.1999998092651</ele>
        <time>2022-10-02T08:40:06.000Z</time>
      </trkpt>
      <trkpt lat="47.34716" lon="-2.35078">
        <ele>-9.1999998092651</ele>
        <time>2022-10-02T08:40:07.000Z</time>
      </trkpt>
      <trkpt lat="47.34722" lon="-2.35094">
        <ele>-9.1999998092651</ele>
        <time>2022-10-02T08:40:09.000Z</time>
      </trkpt>
      <trkpt lat="47.34729" lon="-2.3511">
        <ele>-9.1999998092651</ele>
        <time>2022-10-02T08:40:11.000Z</time>
      </trkpt>
      <trkpt lat="47.34736" lon="-2.35118">
        <ele>-9.1999998092651</ele>
        <time>2022-10-02T08:40:13.000Z</time>
      </trkpt>
      <trkpt lat="47.34739" lon="-2.35121">
        <ele>-9.1999998092651</ele>
        <time>2022-10-02T08:40:14.000Z</time>
      </trkpt>
      <trkpt lat="47.34751" lon="-2.35142">
        <ele>-9.1999998092651</ele>
        <time>2022-10-02T08:40:18.000Z</time>
      </trkpt>
      <trkpt lat="47.34755" lon="-2.35152">
        <ele>-9.1999998092651</ele>
        <time>2022-10-02T08:40:20.000Z</time>
      </trkpt>
      <trkpt lat="47.34754" lon="-2.35167">
        <ele>-9.1999998092651</ele>
        <time>2022-10-02T08:40:22.000Z</time>
      </trkpt>
      <trkpt lat="47.34752" lon="-2.35195">
        <ele>-9.1999998092651</ele>
        <time>2022-10-02T08:40:26.000Z</time>
      </trkpt>
      <trkpt lat="47.34752" lon="-2.35207">
        <ele>-9.1999998092651</ele>
        <time>2022-10-02T08:40:28.000Z</time>
      </trkpt>
      <trkpt lat="47.3475" lon="-2.35233">
        <ele>-9.1999998092651</ele>
        <time>2022-10-02T08:40:32.000Z</time>
      </trkpt>
      <trkpt lat="47.34748" lon="-2.35246">
        <ele>-9.1999998092651</ele>
        <time>2022-10-02T08:40:34.000Z</time>
      </trkpt>
      <trkpt lat="47.34746" lon="-2.35259">
        <ele>-9.1999998092651</ele>
        <time>2022-10-02T08:40:36.000Z</time>
      </trkpt>
      <trkpt lat="47.34746" lon="-2.35263">
        <ele>-9.1999998092651</ele>
        <time>2022-10-02T08:40:37.000Z</time>
      </trkpt>
      <trkpt lat="47.34742" lon="-2.35278">
        <ele>-9.1999998092651</ele>
        <time>2022-10-02T08:40:40.000Z</time>
      </trkpt>
      <trkpt lat="47.3474" lon="-2.35282">
        <ele>-9.1999998092651</ele>
        <time>2022-10-02T08:40:41.000Z</time>
      </trkpt>
      <trkpt lat="47.34735" lon="-2.35294">
        <ele>-9.1999998092651</ele>
        <time>2022-10-02T08:40:45.000Z</time>
      </trkpt>
      <trkpt lat="47.34731" lon="-2.35303">
        <ele>-8.8000001907349</ele>
        <time>2022-10-02T08:40:48.000Z</time>
      </trkpt>
      <trkpt lat="47.34731" lon="-2.35306">
        <ele>-8.3999996185303</ele>
        <time>2022-10-02T08:40:49.000Z</time>
      </trkpt>
      <trkpt lat="47.34731" lon="-2.35311">
        <ele>-7.8000001907349</ele>
        <time>2022-10-02T08:40:50.000Z</time>
      </trkpt>
      <trkpt lat="47.34731" lon="-2.35316">
        <ele>-7.4000000953674</ele>
        <time>2022-10-02T08:40:51.000Z</time>
      </trkpt>
      <trkpt lat="47.34729" lon="-2.3532">
        <ele>-7</ele>
        <time>2022-10-02T08:40:52.000Z</time>
      </trkpt>
      <trkpt lat="47.34728" lon="-2.35331">
        <ele>-7</ele>
        <time>2022-10-02T08:40:54.000Z</time>
      </trkpt>
      <trkpt lat="47.34728" lon="-2.3534">
        <ele>-7</ele>
        <time>2022-10-02T08:40:56.000Z</time>
      </trkpt>
      <trkpt lat="47.34726" lon="-2.35348">
        <ele>-7</ele>
        <time>2022-10-02T08:40:58.000Z</time>
      </trkpt>
      <trkpt lat="47.34724" lon="-2.3535">
        <ele>-7</ele>
        <time>2022-10-02T08:40:59.000Z</time>
      </trkpt>
      <trkpt lat="47.34716" lon="-2.35366">
        <ele>-7</ele>
        <time>2022-10-02T08:41:04.000Z</time>
      </trkpt>
      <trkpt lat="47.34705" lon="-2.35379">
        <ele>-7</ele>
        <time>2022-10-02T08:41:08.000Z</time>
      </trkpt>
      <trkpt lat="47.34703" lon="-2.35383">
        <ele>-7</ele>
        <time>2022-10-02T08:41:09.000Z</time>
      </trkpt>
      <trkpt lat="47.347" lon="-2.35386">
        <ele>-7</ele>
        <time>2022-10-02T08:41:10.000Z</time>
      </trkpt>
      <trkpt lat="47.34693" lon="-2.35387">
        <ele>-7</ele>
        <time>2022-10-02T08:41:12.000Z</time>
      </trkpt>
      <trkpt lat="47.34672" lon="-2.35394">
        <ele>-7</ele>
        <time>2022-10-02T08:41:18.000Z</time>
      </trkpt>
      <trkpt lat="47.34659" lon="-2.35397">
        <ele>-7</ele>
        <time>2022-10-02T08:41:22.000Z</time>
      </trkpt>
      <trkpt lat="47.34659" lon="-2.35399">
        <ele>-7</ele>
        <time>2022-10-02T08:41:23.000Z</time>
      </trkpt>
      <trkpt lat="47.34661" lon="-2.35406">
        <ele>-7</ele>
        <time>2022-10-02T08:41:25.000Z</time>
      </trkpt>
      <trkpt lat="47.34668" lon="-2.35417">
        <ele>-7</ele>
        <time>2022-10-02T08:41:28.000Z</time>
      </trkpt>
      <trkpt lat="47.34672" lon="-2.35422">
        <ele>-7</ele>
        <time>2022-10-02T08:41:29.000Z</time>
      </trkpt>
      <trkpt lat="47.34675" lon="-2.35427">
        <ele>-7.4000000953674</ele>
        <time>2022-10-02T08:41:30.000Z</time>
      </trkpt>
      <trkpt lat="47.34678" lon="-2.35434">
        <ele>-7.8000001907349</ele>
        <time>2022-10-02T08:41:31.000Z</time>
      </trkpt>
      <trkpt lat="47.34682" lon="-2.35439">
        <ele>-8.1999998092651</ele>
        <time>2022-10-02T08:41:32.000Z</time>
      </trkpt>
      <trkpt lat="47.34685" lon="-2.35444">
        <ele>-8.8000001907349</ele>
        <time>2022-10-02T08:41:33.000Z</time>
      </trkpt>
      <trkpt lat="47.34688" lon="-2.3545">
        <ele>-9.1999998092651</ele>
        <time>2022-10-02T08:41:34.000Z</time>
      </trkpt>
      <trkpt lat="47.34692" lon="-2.35456">
        <ele>-9.1999998092651</ele>
        <time>2022-10-02T08:41:35.000Z</time>
      </trkpt>
      <trkpt lat="47.34719" lon="-2.35505">
        <ele>-9.1999998092651</ele>
        <time>2022-10-02T08:41:43.000Z</time>
      </trkpt>
      <trkpt lat="47.34755" lon="-2.35562">
        <ele>-9.1999998092651</ele>
        <time>2022-10-02T08:41:53.000Z</time>
      </trkpt>
      <trkpt lat="47.3476" lon="-2.35567">
        <ele>-9.1999998092651</ele>
        <time>2022-10-02T08:41:54.000Z</time>
      </trkpt>
      <trkpt lat="47.3478" lon="-2.3559">
        <ele>-9.1999998092651</ele>
        <time>2022-10-02T08:41:59.000Z</time>
      </trkpt>
      <trkpt lat="47.34808" lon="-2.35624">
        <ele>-8.6000003814697</ele>
        <time>2022-10-02T08:42:06.000Z</time>
      </trkpt>
      <trkpt lat="47.34812" lon="-2.35627">
        <ele>-8.1999998092651</ele>
        <time>2022-10-02T08:42:07.000Z</time>
      </trkpt>
      <trkpt lat="47.34817" lon="-2.35631">
        <ele>-7.8000001907349</ele>
        <time>2022-10-02T08:42:08.000Z</time>
      </trkpt>
      <trkpt lat="47.34822" lon="-2.35635">
        <ele>-7.4000000953674</ele>
        <time>2022-10-02T08:42:09.000Z</time>
      </trkpt>
      <trkpt lat="47.34826" lon="-2.35639">
        <ele>-7</ele>
        <time>2022-10-02T08:42:10.000Z</time>
      </trkpt>
      <trkpt lat="47.34839" lon="-2.35648">
        <ele>-7</ele>
        <time>2022-10-02T08:42:13.000Z</time>
      </trkpt>
      <trkpt lat="47.34855" lon="-2.3566">
        <ele>-7</ele>
        <time>2022-10-02T08:42:17.000Z</time>
      </trkpt>
      <trkpt lat="47.34857" lon="-2.35664">
        <ele>-7</ele>
        <time>2022-10-02T08:42:18.000Z</time>
      </trkpt>
      <trkpt lat="47.34852" lon="-2.35681">
        <ele>-7</ele>
        <time>2022-10-02T08:42:21.000Z</time>
      </trkpt>
      <trkpt lat="47.34842" lon="-2.35707">
        <ele>-7</ele>
        <time>2022-10-02T08:42:25.000Z</time>
      </trkpt>
      <trkpt lat="47.3484" lon="-2.35712">
        <ele>-7</ele>
        <time>2022-10-02T08:42:26.000Z</time>
      </trkpt>
      <trkpt lat="47.34828" lon="-2.35717">
        <ele>-7</ele>
        <time>2022-10-02T08:42:29.000Z</time>
      </trkpt>
      <trkpt lat="47.34809" lon="-2.35726">
        <ele>-7</ele>
        <time>2022-10-02T08:42:34.000Z</time>
      </trkpt>
      <trkpt lat="47.34784" lon="-2.35739">
        <ele>-7</ele>
        <time>2022-10-02T08:42:40.000Z</time>
      </trkpt>
      <trkpt lat="47.34779" lon="-2.35741">
        <ele>-7</ele>
        <time>2022-10-02T08:42:41.000Z</time>
      </trkpt>
      <trkpt lat="47.34761" lon="-2.35749">
        <ele>-7</ele>
        <time>2022-10-02T08:42:45.000Z</time>
      </trkpt>
      <trkpt lat="47.34745" lon="-2.35756">
        <ele>-7</ele>
        <time>2022-10-02T08:42:48.000Z</time>
      </trkpt>
      <trkpt lat="47.34735" lon="-2.35765">
        <ele>-7</ele>
        <time>2022-10-02T08:42:50.000Z</time>
      </trkpt>
      <trkpt lat="47.34726" lon="-2.35774">
        <ele>-7</ele>
        <time>2022-10-02T08:42:52.000Z</time>
      </trkpt>
      <trkpt lat="47.34716" lon="-2.35781">
        <ele>-7</ele>
        <time>2022-10-02T08:42:54.000Z</time>
      </trkpt>
      <trkpt lat="47.34712" lon="-2.35784">
        <ele>-7</ele>
        <time>2022-10-02T08:42:55.000Z</time>
      </trkpt>
      <trkpt lat="47.34699" lon="-2.35795">
        <ele>-7</ele>
        <time>2022-10-02T08:42:58.000Z</time>
      </trkpt>
      <trkpt lat="47.34691" lon="-2.35802">
        <ele>-7</ele>
        <time>2022-10-02T08:43:00.000Z</time>
      </trkpt>
      <trkpt lat="47.34662" lon="-2.35826">
        <ele>-7</ele>
        <time>2022-10-02T08:43:06.000Z</time>
      </trkpt>
      <trkpt lat="47.34653" lon="-2.35835">
        <ele>-7</ele>
        <time>2022-10-02T08:43:08.000Z</time>
      </trkpt>
      <trkpt lat="47.34634" lon="-2.35849">
        <ele>-7</ele>
        <time>2022-10-02T08:43:12.000Z</time>
      </trkpt>
      <trkpt lat="47.34626" lon="-2.35856">
        <ele>-7</ele>
        <time>2022-10-02T08:43:14.000Z</time>
      </trkpt>
      <trkpt lat="47.34615" lon="-2.35863">
        <ele>-7</ele>
        <time>2022-10-02T08:43:16.000Z</time>
      </trkpt>
      <trkpt lat="47.34595" lon="-2.35879">
        <ele>-7</ele>
        <time>2022-10-02T08:43:20.000Z</time>
      </trkpt>
      <trkpt lat="47.34591" lon="-2.35882">
        <ele>-7</ele>
        <time>2022-10-02T08:43:21.000Z</time>
      </trkpt>
      <trkpt lat="47.34567" lon="-2.35897">
        <ele>-7</ele>
        <time>2022-10-02T08:43:26.000Z</time>
      </trkpt>
      <trkpt lat="47.34563" lon="-2.359">
        <ele>-7</ele>
        <time>2022-10-02T08:43:27.000Z</time>
      </trkpt>
      <trkpt lat="47.34537" lon="-2.3591">
        <ele>-7</ele>
        <time>2022-10-02T08:43:32.000Z</time>
      </trkpt>
      <trkpt lat="47.34526" lon="-2.35916">
        <ele>-7</ele>
        <time>2022-10-02T08:43:34.000Z</time>
      </trkpt>
      <trkpt lat="47.34505" lon="-2.35925">
        <ele>-7</ele>
        <time>2022-10-02T08:43:38.000Z</time>
      </trkpt>
      <trkpt lat="47.34474" lon="-2.35943">
        <ele>-7</ele>
        <time>2022-10-02T08:43:45.000Z</time>
      </trkpt>
      <trkpt lat="47.3447" lon="-2.35946">
        <ele>-6.5999999046326</ele>
        <time>2022-10-02T08:43:46.000Z</time>
      </trkpt>
      <trkpt lat="47.34465" lon="-2.35949">
        <ele>-6.1999998092651</ele>
        <time>2022-10-02T08:43:47.000Z</time>
      </trkpt>
      <trkpt lat="47.34461" lon="-2.35952">
        <ele>-5.8000001907349</ele>
        <time>2022-10-02T08:43:48.000Z</time>
      </trkpt>
      <trkpt lat="47.34457" lon="-2.35955">
        <ele>-5.1999998092651</ele>
        <time>2022-10-02T08:43:49.000Z</time>
      </trkpt>
      <trkpt lat="47.34453" lon="-2.35958">
        <ele>-4.8000001907349</ele>
        <time>2022-10-02T08:43:50.000Z</time>
      </trkpt>
      <trkpt lat="47.34449" lon="-2.35962">
        <ele>-4.8000001907349</ele>
        <time>2022-10-02T08:43:51.000Z</time>
      </trkpt>
      <trkpt lat="47.34429" lon="-2.35979">
        <ele>-4.8000001907349</ele>
        <time>2022-10-02T08:43:56.000Z</time>
      </trkpt>
      <trkpt lat="47.34425" lon="-2.35982">
        <ele>-4.8000001907349</ele>
        <time>2022-10-02T08:43:57.000Z</time>
      </trkpt>
      <trkpt lat="47.34421" lon="-2.35984">
        <ele>-4.8000001907349</ele>
        <time>2022-10-02T08:43:58.000Z</time>
      </trkpt>
      <trkpt lat="47.34414" lon="-2.3599">
        <ele>-4.4000000953674</ele>
        <time>2022-10-02T08:44:00.000Z</time>
      </trkpt>
      <trkpt lat="47.34412" lon="-2.35994">
        <ele>-4</ele>
        <time>2022-10-02T08:44:01.000Z</time>
      </trkpt>
      <trkpt lat="47.3441" lon="-2.35999">
        <ele>-3.5999999046326</ele>
        <time>2022-10-02T08:44:02.000Z</time>
      </trkpt>
      <trkpt lat="47.3441" lon="-2.36003">
        <ele>-3</ele>
        <time>2022-10-02T08:44:03.000Z</time>
      </trkpt>
      <trkpt lat="47.3441" lon="-2.36008">
        <ele>-2.5999999046326</ele>
        <time>2022-10-02T08:44:04.000Z</time>
      </trkpt>
      <trkpt lat="47.34412" lon="-2.36013">
        <ele>-2.5999999046326</ele>
        <time>2022-10-02T08:44:05.000Z</time>
      </trkpt>
      <trkpt lat="47.3442" lon="-2.36032">
        <ele>-2.5999999046326</ele>
        <time>2022-10-02T08:44:09.000Z</time>
      </trkpt>
      <trkpt lat="47.34423" lon="-2.36044">
        <ele>-2.5999999046326</ele>
        <time>2022-10-02T08:44:11.000Z</time>
      </trkpt>
      <trkpt lat="47.34432" lon="-2.3608">
        <ele>-2.5999999046326</ele>
        <time>2022-10-02T08:44:17.000Z</time>
      </trkpt>
      <trkpt lat="47.34436" lon="-2.36092">
        <ele>-2.5999999046326</ele>
        <time>2022-10-02T08:44:19.000Z</time>
      </trkpt>
      <trkpt lat="47.34443" lon="-2.36108">
        <ele>-2.5999999046326</ele>
        <time>2022-10-02T08:44:22.000Z</time>
      </trkpt>
      <trkpt lat="47.34458" lon="-2.36149">
        <ele>-3</ele>
        <time>2022-10-02T08:44:28.000Z</time>
      </trkpt>
      <trkpt lat="47.34462" lon="-2.36156">
        <ele>-3.4000000953674</ele>
        <time>2022-10-02T08:44:29.000Z</time>
      </trkpt>
      <trkpt lat="47.34465" lon="-2.36163">
        <ele>-3.7999999523163</ele>
        <time>2022-10-02T08:44:30.000Z</time>
      </trkpt>
      <trkpt lat="47.34469" lon="-2.3617">
        <ele>-4.4000000953674</ele>
        <time>2022-10-02T08:44:31.000Z</time>
      </trkpt>
      <trkpt lat="47.34472" lon="-2.36177">
        <ele>-4.8000001907349</ele>
        <time>2022-10-02T08:44:32.000Z</time>
      </trkpt>
      <trkpt lat="47.34476" lon="-2.36184">
        <ele>-4.8000001907349</ele>
        <time>2022-10-02T08:44:33.000Z</time>
      </trkpt>
      <trkpt lat="47.34488" lon="-2.36202">
        <ele>-4.8000001907349</ele>
        <time>2022-10-02T08:44:36.000Z</time>
      </trkpt>
      <trkpt lat="47.34501" lon="-2.36227">
        <ele>-4.8000001907349</ele>
        <time>2022-10-02T08:44:40.000Z</time>
      </trkpt>
      <trkpt lat="47.34509" lon="-2.36246">
        <ele>-4.8000001907349</ele>
        <time>2022-10-02T08:44:43.000Z</time>
      </trkpt>
      <trkpt lat="47.34513" lon="-2.36257">
        <ele>-4.8000001907349</ele>
        <time>2022-10-02T08:44:45.000Z</time>
      </trkpt>
      <trkpt lat="47.34517" lon="-2.3627">
        <ele>-4.8000001907349</ele>
        <time>2022-10-02T08:44:47.000Z</time>
      </trkpt>
      <trkpt lat="47.34524" lon="-2.36293">
        <ele>-4.8000001907349</ele>
        <time>2022-10-02T08:44:51.000Z</time>
      </trkpt>
      <trkpt lat="47.34528" lon="-2.36307">
        <ele>-4.8000001907349</ele>
        <time>2022-10-02T08:44:53.000Z</time>
      </trkpt>
      <trkpt lat="47.34546" lon="-2.36354">
        <ele>-4.8000001907349</ele>
        <time>2022-10-02T08:45:00.000Z</time>
      </trkpt>
      <trkpt lat="47.3456" lon="-2.36384">
        <ele>-4.8000001907349</ele>
        <time>2022-10-02T08:45:05.000Z</time>
      </trkpt>
      <trkpt lat="47.34576" lon="-2.36409">
        <ele>-4.8000001907349</ele>
        <time>2022-10-02T08:45:10.000Z</time>
      </trkpt>
      <trkpt lat="47.34591" lon="-2.36432">
        <ele>-4.8000001907349</ele>
        <time>2022-10-02T08:45:15.000Z</time>
      </trkpt>
      <trkpt lat="47.34595" lon="-2.36435">
        <ele>-4.4000000953674</ele>
        <time>2022-10-02T08:45:16.000Z</time>
      </trkpt>
      <trkpt lat="47.34598" lon="-2.36436">
        <ele>-4</ele>
        <time>2022-10-02T08:45:17.000Z</time>
      </trkpt>
      <trkpt lat="47.34602" lon="-2.36436">
        <ele>-3.5999999046326</ele>
        <time>2022-10-02T08:45:18.000Z</time>
      </trkpt>
      <trkpt lat="47.34607" lon="-2.36434">
        <ele>-3.2000000476837</ele>
        <time>2022-10-02T08:45:19.000Z</time>
      </trkpt>
      <trkpt lat="47.34611" lon="-2.36432">
        <ele>-2.7999999523163</ele>
        <time>2022-10-02T08:45:20.000Z</time>
      </trkpt>
      <trkpt lat="47.34615" lon="-2.3643">
        <ele>-2.7999999523163</ele>
        <time>2022-10-02T08:45:21.000Z</time>
      </trkpt>
      <trkpt lat="47.34625" lon="-2.36426">
        <ele>-2.7999999523163</ele>
        <time>2022-10-02T08:45:23.000Z</time>
      </trkpt>
      <trkpt lat="47.3465" lon="-2.36417">
        <ele>-2.7999999523163</ele>
        <time>2022-10-02T08:45:28.000Z</time>
      </trkpt>
      <trkpt lat="47.34663" lon="-2.36409">
        <ele>-2.4000000953674</ele>
        <time>2022-10-02T08:45:31.000Z</time>
      </trkpt>
      <trkpt lat="47.34667" lon="-2.36407">
        <ele>-1.3999999761581</ele>
        <time>2022-10-02T08:45:32.000Z</time>
      </trkpt>
      <trkpt lat="47.34672" lon="-2.36406">
        <ele>-1</ele>
        <time>2022-10-02T08:45:33.000Z</time>
      </trkpt>
      <trkpt lat="47.34676" lon="-2.36404">
        <ele>-0.60000002384186</ele>
        <time>2022-10-02T08:45:34.000Z</time>
      </trkpt>
      <trkpt lat="47.34699" lon="-2.36394">
        <ele>-0.60000002384186</ele>
        <time>2022-10-02T08:45:39.000Z</time>
      </trkpt>
      <trkpt lat="47.34713" lon="-2.36387">
        <ele>-0.20000000298023</ele>
        <time>2022-10-02T08:45:42.000Z</time>
      </trkpt>
      <trkpt lat="47.34718" lon="-2.36386">
        <ele>0.20000000298023</ele>
        <time>2022-10-02T08:45:43.000Z</time>
      </trkpt>
      <trkpt lat="47.34723" lon="-2.36384">
        <ele>0.60000002384186</ele>
        <time>2022-10-02T08:45:44.000Z</time>
      </trkpt>
      <trkpt lat="47.34727" lon="-2.36382">
        <ele>1</ele>
        <time>2022-10-02T08:45:45.000Z</time>
      </trkpt>
      <trkpt lat="47.34732" lon="-2.36379">
        <ele>1.3999999761581</ele>
        <time>2022-10-02T08:45:46.000Z</time>
      </trkpt>
      <trkpt lat="47.34737" lon="-2.36377">
        <ele>1.3999999761581</ele>
        <time>2022-10-02T08:45:47.000Z</time>
      </trkpt>
      <trkpt lat="47.34752" lon="-2.36368">
        <ele>1.3999999761581</ele>
        <time>2022-10-02T08:45:50.000Z</time>
      </trkpt>
      <trkpt lat="47.34787" lon="-2.36346">
        <ele>1.3999999761581</ele>
        <time>2022-10-02T08:45:57.000Z</time>
      </trkpt>
      <trkpt lat="47.34828" lon="-2.3632">
        <ele>1.3999999761581</ele>
        <time>2022-10-02T08:46:05.000Z</time>
      </trkpt>
      <trkpt lat="47.34847" lon="-2.36326">
        <ele>1.3999999761581</ele>
        <time>2022-10-02T08:46:09.000Z</time>
      </trkpt>
      <trkpt lat="47.34851" lon="-2.3633">
        <ele>1.3999999761581</ele>
        <time>2022-10-02T08:46:10.000Z</time>
      </trkpt>
      <trkpt lat="47.34855" lon="-2.36333">
        <ele>1.3999999761581</ele>
        <time>2022-10-02T08:46:11.000Z</time>
      </trkpt>
      <trkpt lat="47.34868" lon="-2.3634">
        <ele>1.3999999761581</ele>
        <time>2022-10-02T08:46:14.000Z</time>
      </trkpt>
      <trkpt lat="47.34899" lon="-2.36359">
        <ele>1.3999999761581</ele>
        <time>2022-10-02T08:46:21.000Z</time>
      </trkpt>
      <trkpt lat="47.3493" lon="-2.36378">
        <ele>1.3999999761581</ele>
        <time>2022-10-02T08:46:27.000Z</time>
      </trkpt>
      <trkpt lat="47.34941" lon="-2.36386">
        <ele>1</ele>
        <time>2022-10-02T08:46:29.000Z</time>
      </trkpt>
      <trkpt lat="47.34946" lon="-2.3639">
        <ele>0.60000002384186</ele>
        <time>2022-10-02T08:46:30.000Z</time>
      </trkpt>
      <trkpt lat="47.34953" lon="-2.36395">
        <ele>19.3</ele>
        <time>2022-10-02T08:46:31.000Z</time>
      </trkpt>
      <trkpt lat="47.34959" lon="-2.36398">
        <ele>-0.40000000596046</ele>
        <time>2022-10-02T08:46:32.000Z</time>
      </trkpt>
      <trkpt lat="47.34965" lon="-2.36402">
        <ele>-0.80000001192093</ele>
        <time>2022-10-02T08:46:33.000Z</time>
      </trkpt>
      <trkpt lat="47.34972" lon="-2.36405">
        <ele>-1.3999999761581</ele>
        <time>2022-10-02T08:46:34.000Z</time>
      </trkpt>
      <trkpt lat="47.34979" lon="-2.36409">
        <ele>-1.7999999523163</ele>
        <time>2022-10-02T08:46:35.000Z</time>
      </trkpt>
      <trkpt lat="47.34985" lon="-2.36413">
        <ele>-2.2000000476837</ele>
        <time>2022-10-02T08:46:36.000Z</time>
      </trkpt>
      <trkpt lat="47.34992" lon="-2.36418">
        <ele>-2.7999999523163</ele>
        <time>2022-10-02T08:46:37.000Z</time>
      </trkpt>
      <trkpt lat="47.34997" lon="-2.36423">
        <ele>-2.7999999523163</ele>
        <time>2022-10-02T08:46:38.000Z</time>
      </trkpt>
      <trkpt lat="47.35003" lon="-2.3643">
        <ele>-3.2000000476837</ele>
        <time>2022-10-02T08:46:39.000Z</time>
      </trkpt>
      <trkpt lat="47.35006" lon="-2.36438">
        <ele>-3.5999999046326</ele>
        <time>2022-10-02T08:46:40.000Z</time>
      </trkpt>
      <trkpt lat="47.35009" lon="-2.36447">
        <ele>-4</ele>
        <time>2022-10-02T08:46:41.000Z</time>
      </trkpt>
      <trkpt lat="47.35012" lon="-2.36456">
        <ele>-4.4000000953674</ele>
        <time>2022-10-02T08:46:42.000Z</time>
      </trkpt>
      <trkpt lat="47.35015" lon="-2.36465">
        <ele>-4.8000001907349</ele>
        <time>2022-10-02T08:46:43.000Z</time>
      </trkpt>
      <trkpt lat="47.35024" lon="-2.36491">
        <ele>-4.8000001907349</ele>
        <time>2022-10-02T08:46:46.000Z</time>
      </trkpt>
      <trkpt lat="47.35031" lon="-2.36504">
        <ele>-4.8000001907349</ele>
        <time>2022-10-02T08:46:48.000Z</time>
      </trkpt>
      <trkpt lat="47.35035" lon="-2.3651">
        <ele>-4.8000001907349</ele>
        <time>2022-10-02T08:46:49.000Z</time>
      </trkpt>
      <trkpt lat="47.35048" lon="-2.36534">
        <ele>-4.8000001907349</ele>
        <time>2022-10-02T08:46:53.000Z</time>
      </trkpt>
      <trkpt lat="47.35051" lon="-2.36541">
        <ele>-4.8000001907349</ele>
        <time>2022-10-02T08:46:54.000Z</time>
      </trkpt>
      <trkpt lat="47.35054" lon="-2.36548">
        <ele>-4.8000001907349</ele>
        <time>2022-10-02T08:46:55.000Z</time>
      </trkpt>
      <trkpt lat="47.35063" lon="-2.36568">
        <ele>-4.4000000953674</ele>
        <time>2022-10-02T08:46:58.000Z</time>
      </trkpt>
      <trkpt lat="47.35067" lon="-2.36575">
        <ele>-4</ele>
        <time>2022-10-02T08:46:59.000Z</time>
      </trkpt>
      <trkpt lat="47.3507" lon="-2.36582">
        <ele>-3.5999999046326</ele>
        <time>2022-10-02T08:47:00.000Z</time>
      </trkpt>
      <trkpt lat="47.35073" lon="-2.36589">
        <ele>-3</ele>
        <time>2022-10-02T08:47:01.000Z</time>
      </trkpt>
      <trkpt lat="47.35075" lon="-2.36597">
        <ele>-2.5999999046326</ele>
        <time>2022-10-02T08:47:02.000Z</time>
      </trkpt>
      <trkpt lat="47.3508" lon="-2.36612">
        <ele>-2.5999999046326</ele>
        <time>2022-10-02T08:47:04.000Z</time>
      </trkpt>
      <trkpt lat="47.35099" lon="-2.36663">
        <ele>-2.5999999046326</ele>
        <time>2022-10-02T08:47:11.000Z</time>
      </trkpt>
      <trkpt lat="47.35103" lon="-2.36677">
        <ele>-2.2000000476837</ele>
        <time>2022-10-02T08:47:13.000Z</time>
      </trkpt>
      <trkpt lat="47.35105" lon="-2.36684">
        <ele>-1.7999999523163</ele>
        <time>2022-10-02T08:47:14.000Z</time>
      </trkpt>
      <trkpt lat="47.35107" lon="-2.36691">
        <ele>-1.2000000476837</ele>
        <time>2022-10-02T08:47:15.000Z</time>
      </trkpt>
      <trkpt lat="47.35109" lon="-2.36698">
        <ele>-0.80000001192093</ele>
        <time>2022-10-02T08:47:16.000Z</time>
      </trkpt>
      <trkpt lat="47.35111" lon="-2.36705">
        <ele>-0.40000000596046</ele>
        <time>2022-10-02T08:47:17.000Z</time>
      </trkpt>
      <trkpt lat="47.35116" lon="-2.36726">
        <ele>-0.40000000596046</ele>
        <time>2022-10-02T08:47:20.000Z</time>
      </trkpt>
      <trkpt lat="47.35121" lon="-2.36747">
        <ele>-0.40000000596046</ele>
        <time>2022-10-02T08:47:23.000Z</time>
      </trkpt>
      <trkpt lat="47.3513" lon="-2.36784">
        <ele>-0.40000000596046</ele>
        <time>2022-10-02T08:47:28.000Z</time>
      </trkpt>
      <trkpt lat="47.35141" lon="-2.36838">
        <ele>-0.40000000596046</ele>
        <time>2022-10-02T08:47:35.000Z</time>
      </trkpt>
      <trkpt lat="47.3515" lon="-2.36876">
        <ele>-0.40000000596046</ele>
        <time>2022-10-02T08:47:40.000Z</time>
      </trkpt>
      <trkpt lat="47.35152" lon="-2.36882">
        <ele>-0.40000000596046</ele>
        <time>2022-10-02T08:47:41.000Z</time>
      </trkpt>
      <trkpt lat="47.35166" lon="-2.36923">
        <ele>-0.40000000596046</ele>
        <time>2022-10-02T08:47:47.000Z</time>
      </trkpt>
      <trkpt lat="47.35187" lon="-2.36964">
        <ele>-0.40000000596046</ele>
        <time>2022-10-02T08:47:54.000Z</time>
      </trkpt>
      <trkpt lat="47.35192" lon="-2.36976">
        <ele>-0.40000000596046</ele>
        <time>2022-10-02T08:47:56.000Z</time>
      </trkpt>
      <trkpt lat="47.35203" lon="-2.37">
        <ele>-0.40000000596046</ele>
        <time>2022-10-02T08:48:00.000Z</time>
      </trkpt>
      <trkpt lat="47.35206" lon="-2.37008">
        <ele>-0.40000000596046</ele>
        <time>2022-10-02T08:48:01.000Z</time>
      </trkpt>
      <trkpt lat="47.35212" lon="-2.37028">
        <ele>-0.40000000596046</ele>
        <time>2022-10-02T08:48:04.000Z</time>
      </trkpt>
      <trkpt lat="47.35222" lon="-2.37072">
        <ele>-0.40000000596046</ele>
        <time>2022-10-02T08:48:10.000Z</time>
      </trkpt>
      <trkpt lat="47.35223" lon="-2.3708">
        <ele>-0.40000000596046</ele>
        <time>2022-10-02T08:48:11.000Z</time>
      </trkpt>
      <trkpt lat="47.35234" lon="-2.37136">
        <ele>-0.40000000596046</ele>
        <time>2022-10-02T08:48:18.000Z</time>
      </trkpt>
      <trkpt lat="47.35237" lon="-2.37143">
        <ele>-0.40000000596046</ele>
        <time>2022-10-02T08:48:19.000Z</time>
      </trkpt>
      <trkpt lat="47.35246" lon="-2.37168">
        <ele>-0.40000000596046</ele>
        <time>2022-10-02T08:48:23.000Z</time>
      </trkpt>
      <trkpt lat="47.35251" lon="-2.37179">
        <ele>-0.40000000596046</ele>
        <time>2022-10-02T08:48:25.000Z</time>
      </trkpt>
      <trkpt lat="47.35259" lon="-2.37193">
        <ele>-0.40000000596046</ele>
        <time>2022-10-02T08:48:28.000Z</time>
      </trkpt>
      <trkpt lat="47.35274" lon="-2.37213">
        <ele>-0.40000000596046</ele>
        <time>2022-10-02T08:48:34.000Z</time>
      </trkpt>
      <trkpt lat="47.35277" lon="-2.37217">
        <ele>-0.40000000596046</ele>
        <time>2022-10-02T08:48:35.000Z</time>
      </trkpt>
      <trkpt lat="47.35281" lon="-2.37227">
        <ele>-0.40000000596046</ele>
        <time>2022-10-02T08:48:37.000Z</time>
      </trkpt>
      <trkpt lat="47.35282" lon="-2.37241">
        <ele>-0.40000000596046</ele>
        <time>2022-10-02T08:48:39.000Z</time>
      </trkpt>
      <trkpt lat="47.35282" lon="-2.37268">
        <ele>-0.40000000596046</ele>
        <time>2022-10-02T08:48:44.000Z</time>
      </trkpt>
      <trkpt lat="47.35283" lon="-2.373">
        <ele>-0.40000000596046</ele>
        <time>2022-10-02T08:48:51.000Z</time>
      </trkpt>
      <trkpt lat="47.35285" lon="-2.37336">
        <ele>-0.40000000596046</ele>
        <time>2022-10-02T08:48:57.000Z</time>
      </trkpt>
      <trkpt lat="47.35286" lon="-2.37382">
        <ele>-0.40000000596046</ele>
        <time>2022-10-02T08:49:04.000Z</time>
      </trkpt>
      <trkpt lat="47.35289" lon="-2.37432">
        <ele>-0.40000000596046</ele>
        <time>2022-10-02T08:49:11.000Z</time>
      </trkpt>
      <trkpt lat="47.35291" lon="-2.37465">
        <ele>-0.40000000596046</ele>
        <time>2022-10-02T08:49:15.000Z</time>
      </trkpt>
      <trkpt lat="47.35294" lon="-2.37483">
        <ele>-0.40000000596046</ele>
        <time>2022-10-02T08:49:17.000Z</time>
      </trkpt>
      <trkpt lat="47.35305" lon="-2.37536">
        <ele>-0.40000000596046</ele>
        <time>2022-10-02T08:49:23.000Z</time>
      </trkpt>
      <trkpt lat="47.3531" lon="-2.37561">
        <ele>-1.2000000476837</ele>
        <time>2022-10-02T08:49:26.000Z</time>
      </trkpt>
      <trkpt lat="47.35312" lon="-2.3757">
        <ele>-1.6000000238419</ele>
        <time>2022-10-02T08:49:27.000Z</time>
      </trkpt>
      <trkpt lat="47.35314" lon="-2.37578">
        <ele>-2</ele>
        <time>2022-10-02T08:49:28.000Z</time>
      </trkpt>
      <trkpt lat="47.35316" lon="-2.37586">
        <ele>-2.4000000953674</ele>
        <time>2022-10-02T08:49:29.000Z</time>
      </trkpt>
      <trkpt lat="47.35318" lon="-2.37594">
        <ele>-2.4000000953674</ele>
        <time>2022-10-02T08:49:30.000Z</time>
      </trkpt>
      <trkpt lat="47.35329" lon="-2.37642">
        <ele>-2.4000000953674</ele>
        <time>2022-10-02T08:49:36.000Z</time>
      </trkpt>
      <trkpt lat="47.35344" lon="-2.37698">
        <ele>-2.4000000953674</ele>
        <time>2022-10-02T08:49:43.000Z</time>
      </trkpt>
      <trkpt lat="47.35362" lon="-2.37769">
        <ele>-2.4000000953674</ele>
        <time>2022-10-02T08:49:51.000Z</time>
      </trkpt>
      <trkpt lat="47.35356" lon="-2.37788">
        <ele>-2.4000000953674</ele>
        <time>2022-10-02T08:49:54.000Z</time>
      </trkpt>
      <trkpt lat="47.3534" lon="-2.37793">
        <ele>-2.4000000953674</ele>
        <time>2022-10-02T08:49:57.000Z</time>
      </trkpt>
      <trkpt lat="47.35335" lon="-2.37794">
        <ele>-2.7999999523163</ele>
        <time>2022-10-02T08:49:58.000Z</time>
      </trkpt>
      <trkpt lat="47.35329" lon="-2.37796">
        <ele>-3.4000000953674</ele>
        <time>2022-10-02T08:49:59.000Z</time>
      </trkpt>
      <trkpt lat="47.35323" lon="-2.37797">
        <ele>-3.7999999523163</ele>
        <time>2022-10-02T08:50:00.000Z</time>
      </trkpt>
      <trkpt lat="47.35317" lon="-2.378">
        <ele>-4.1999998092651</ele>
        <time>2022-10-02T08:50:01.000Z</time>
      </trkpt>
      <trkpt lat="47.35312" lon="-2.37801">
        <ele>-4.5999999046326</ele>
        <time>2022-10-02T08:50:02.000Z</time>
      </trkpt>
      <trkpt lat="47.35305" lon="-2.37804">
        <ele>-4.5999999046326</ele>
        <time>2022-10-02T08:50:03.000Z</time>
      </trkpt>
      <trkpt lat="47.35265" lon="-2.37824">
        <ele>-4.5999999046326</ele>
        <time>2022-10-02T08:50:10.000Z</time>
      </trkpt>
      <trkpt lat="47.35254" lon="-2.37834">
        <ele>-4.5999999046326</ele>
        <time>2022-10-02T08:50:12.000Z</time>
      </trkpt>
      <trkpt lat="47.35239" lon="-2.37848">
        <ele>-4.5999999046326</ele>
        <time>2022-10-02T08:50:15.000Z</time>
      </trkpt>
      <trkpt lat="47.35206" lon="-2.37872">
        <ele>-4.5999999046326</ele>
        <time>2022-10-02T08:50:21.000Z</time>
      </trkpt>
      <trkpt lat="47.35178" lon="-2.37892">
        <ele>-5</ele>
        <time>2022-10-02T08:50:26.000Z</time>
      </trkpt>
      <trkpt lat="47.35172" lon="-2.37896">
        <ele>-5.4000000953674</ele>
        <time>2022-10-02T08:50:27.000Z</time>
      </trkpt>
      <trkpt lat="47.35167" lon="-2.37901">
        <ele>-5.8000001907349</ele>
        <time>2022-10-02T08:50:28.000Z</time>
      </trkpt>
      <trkpt lat="47.35161" lon="-2.37906">
        <ele>-6.1999998092651</ele>
        <time>2022-10-02T08:50:29.000Z</time>
      </trkpt>
      <trkpt lat="47.35155" lon="-2.3791">
        <ele>-6.8000001907349</ele>
        <time>2022-10-02T08:50:30.000Z</time>
      </trkpt>
      <trkpt lat="47.35144" lon="-2.37918">
        <ele>-6.8000001907349</ele>
        <time>2022-10-02T08:50:32.000Z</time>
      </trkpt>
      <trkpt lat="47.3511" lon="-2.37946">
        <ele>-6.8000001907349</ele>
        <time>2022-10-02T08:50:38.000Z</time>
      </trkpt>
      <trkpt lat="47.35072" lon="-2.37975">
        <ele>-6.8000001907349</ele>
        <time>2022-10-02T08:50:45.000Z</time>
      </trkpt>
      <trkpt lat="47.35032" lon="-2.38009">
        <ele>-6.8000001907349</ele>
        <time>2022-10-02T08:50:53.000Z</time>
      </trkpt>
      <trkpt lat="47.35027" lon="-2.38013">
        <ele>-6.8000001907349</ele>
        <time>2022-10-02T08:50:54.000Z</time>
      </trkpt>
      <trkpt lat="47.35014" lon="-2.38025">
        <ele>-6.8000001907349</ele>
        <time>2022-10-02T08:50:57.000Z</time>
      </trkpt>
      <trkpt lat="47.34986" lon="-2.38048">
        <ele>-6.8000001907349</ele>
        <time>2022-10-02T08:51:03.000Z</time>
      </trkpt>
      <trkpt lat="47.34982" lon="-2.38051">
        <ele>-6.8000001907349</ele>
        <time>2022-10-02T08:51:04.000Z</time>
      </trkpt>
      <trkpt lat="47.34968" lon="-2.38046">
        <ele>-6.8000001907349</ele>
        <time>2022-10-02T08:51:07.000Z</time>
      </trkpt>
      <trkpt lat="47.34962" lon="-2.38033">
        <ele>-6.8000001907349</ele>
        <time>2022-10-02T08:51:09.000Z</time>
      </trkpt>
      <trkpt lat="47.34959" lon="-2.38027">
        <ele>-6.8000001907349</ele>
        <time>2022-10-02T08:51:10.000Z</time>
      </trkpt>
      <trkpt lat="47.34947" lon="-2.38009">
        <ele>-6.1999998092651</ele>
        <time>2022-10-02T08:51:13.000Z</time>
      </trkpt>
      <trkpt lat="47.34944" lon="-2.38003">
        <ele>-5.8000001907349</ele>
        <time>2022-10-02T08:51:14.000Z</time>
      </trkpt>
      <trkpt lat="47.34939" lon="-2.37997">
        <ele>-5.4000000953674</ele>
        <time>2022-10-02T08:51:15.000Z</time>
      </trkpt>
      <trkpt lat="47.34935" lon="-2.37992">
        <ele>-5</ele>
        <time>2022-10-02T08:51:16.000Z</time>
      </trkpt>
      <trkpt lat="47.3493" lon="-2.37987">
        <ele>-4.5999999046326</ele>
        <time>2022-10-02T08:51:17.000Z</time>
      </trkpt>
      <trkpt lat="47.34916" lon="-2.37974">
        <ele>-4.5999999046326</ele>
        <time>2022-10-02T08:51:20.000Z</time>
      </trkpt>
      <trkpt lat="47.3488" lon="-2.37949">
        <ele>-4.5999999046326</ele>
        <time>2022-10-02T08:51:27.000Z</time>
      </trkpt>
      <trkpt lat="47.34851" lon="-2.37927">
        <ele>-4.5999999046326</ele>
        <time>2022-10-02T08:51:33.000Z</time>
      </trkpt>
      <trkpt lat="47.34824" lon="-2.37903">
        <ele>-4.5999999046326</ele>
        <time>2022-10-02T08:51:39.000Z</time>
      </trkpt>
      <trkpt lat="47.348" lon="-2.37886">
        <ele>-4.5999999046326</ele>
        <time>2022-10-02T08:51:44.000Z</time>
      </trkpt>
      <trkpt lat="47.34795" lon="-2.37882">
        <ele>-4.5999999046326</ele>
        <time>2022-10-02T08:51:45.000Z</time>
      </trkpt>
      <trkpt lat="47.34774" lon="-2.37865">
        <ele>-4.5999999046326</ele>
        <time>2022-10-02T08:51:50.000Z</time>
      </trkpt>
      <trkpt lat="47.34771" lon="-2.37863">
        <ele>-4.5999999046326</ele>
        <time>2022-10-02T08:51:51.000Z</time>
      </trkpt>
      <trkpt lat="47.34758" lon="-2.37865">
        <ele>-4.5999999046326</ele>
        <time>2022-10-02T08:51:54.000Z</time>
      </trkpt>
      <trkpt lat="47.34751" lon="-2.37882">
        <ele>-4.5999999046326</ele>
        <time>2022-10-02T08:51:57.000Z</time>
      </trkpt>
      <trkpt lat="47.34749" lon="-2.37889">
        <ele>-4.5999999046326</ele>
        <time>2022-10-02T08:51:58.000Z</time>
      </trkpt>
      <trkpt lat="47.34739" lon="-2.37914">
        <ele>-4.5999999046326</ele>
        <time>2022-10-02T08:52:02.000Z</time>
      </trkpt>
      <trkpt lat="47.34734" lon="-2.37921">
        <ele>-4.5999999046326</ele>
        <time>2022-10-02T08:52:03.000Z</time>
      </trkpt>
      <trkpt lat="47.34722" lon="-2.37937">
        <ele>-4.5999999046326</ele>
        <time>2022-10-02T08:52:06.000Z</time>
      </trkpt>
      <trkpt lat="47.34712" lon="-2.37949">
        <ele>-4.5999999046326</ele>
        <time>2022-10-02T08:52:08.000Z</time>
      </trkpt>
      <trkpt lat="47.34702" lon="-2.3796">
        <ele>-4.5999999046326</ele>
        <time>2022-10-02T08:52:10.000Z</time>
      </trkpt>
      <trkpt lat="47.34688" lon="-2.37975">
        <ele>-4.5999999046326</ele>
        <time>2022-10-02T08:52:13.000Z</time>
      </trkpt>
      <trkpt lat="47.3466" lon="-2.37997">
        <ele>-4</ele>
        <time>2022-10-02T08:52:18.000Z</time>
      </trkpt>
      <trkpt lat="47.34654" lon="-2.38001">
        <ele>-3.2000000476837</ele>
        <time>2022-10-02T08:52:19.000Z</time>
      </trkpt>
      <trkpt lat="47.34649" lon="-2.38005">
        <ele>-2.7999999523163</ele>
        <time>2022-10-02T08:52:20.000Z</time>
      </trkpt>
      <trkpt lat="47.34644" lon="-2.3801">
        <ele>-2.4000000953674</ele>
        <time>2022-10-02T08:52:21.000Z</time>
      </trkpt>
      <trkpt lat="47.34623" lon="-2.38029">
        <ele>-2.4000000953674</ele>
        <time>2022-10-02T08:52:25.000Z</time>
      </trkpt>
      <trkpt lat="47.34583" lon="-2.38066">
        <ele>-2.4000000953674</ele>
        <time>2022-10-02T08:52:33.000Z</time>
      </trkpt>
      <trkpt lat="47.34565" lon="-2.38083">
        <ele>-2.4000000953674</ele>
        <time>2022-10-02T08:52:37.000Z</time>
      </trkpt>
      <trkpt lat="47.34555" lon="-2.38089">
        <ele>-2.4000000953674</ele>
        <time>2022-10-02T08:52:39.000Z</time>
      </trkpt>
      <trkpt lat="47.34545" lon="-2.38098">
        <ele>-2.4000000953674</ele>
        <time>2022-10-02T08:52:41.000Z</time>
      </trkpt>
      <trkpt lat="47.3454" lon="-2.38112">
        <ele>-2.4000000953674</ele>
        <time>2022-10-02T08:52:43.000Z</time>
      </trkpt>
      <trkpt lat="47.34535" lon="-2.38147">
        <ele>-2.4000000953674</ele>
        <time>2022-10-02T08:52:47.000Z</time>
      </trkpt>
      <trkpt lat="47.34529" lon="-2.38199">
        <ele>-2.4000000953674</ele>
        <time>2022-10-02T08:52:53.000Z</time>
      </trkpt>
      <trkpt lat="47.34523" lon="-2.38252">
        <ele>-2.4000000953674</ele>
        <time>2022-10-02T08:52:59.000Z</time>
      </trkpt>
      <trkpt lat="47.34521" lon="-2.38261">
        <ele>-2.4000000953674</ele>
        <time>2022-10-02T08:53:00.000Z</time>
      </trkpt>
      <trkpt lat="47.34511" lon="-2.38274">
        <ele>-2.4000000953674</ele>
        <time>2022-10-02T08:53:02.000Z</time>
      </trkpt>
      <trkpt lat="47.34496" lon="-2.38285">
        <ele>-2.4000000953674</ele>
        <time>2022-10-02T08:53:05.000Z</time>
      </trkpt>
      <trkpt lat="47.34491" lon="-2.38289">
        <ele>-2.4000000953674</ele>
        <time>2022-10-02T08:53:06.000Z</time>
      </trkpt>
      <trkpt lat="47.34486" lon="-2.38293">
        <ele>-2</ele>
        <time>2022-10-02T08:53:07.000Z</time>
      </trkpt>
      <trkpt lat="47.3448" lon="-2.38296">
        <ele>-1.2000000476837</ele>
        <time>2022-10-02T08:53:08.000Z</time>
      </trkpt>
      <trkpt lat="47.34475" lon="-2.38299">
        <ele>-0.80000001192093</ele>
        <time>2022-10-02T08:53:09.000Z</time>
      </trkpt>
      <trkpt lat="47.34469" lon="-2.38303">
        <ele>-0.40000000596046</ele>
        <time>2022-10-02T08:53:10.000Z</time>
      </trkpt>
      <trkpt lat="47.34459" lon="-2.3831">
        <ele>-0.40000000596046</ele>
        <time>2022-10-02T08:53:12.000Z</time>
      </trkpt>
      <trkpt lat="47.34433" lon="-2.38324">
        <ele>-0.40000000596046</ele>
        <time>2022-10-02T08:53:17.000Z</time>
      </trkpt>
      <trkpt lat="47.34407" lon="-2.38341">
        <ele>-0.40000000596046</ele>
        <time>2022-10-02T08:53:22.000Z</time>
      </trkpt>
      <trkpt lat="47.34386" lon="-2.38356">
        <ele>-0.40000000596046</ele>
        <time>2022-10-02T08:53:26.000Z</time>
      </trkpt>
      <trkpt lat="47.34381" lon="-2.3836">
        <ele>-0.40000000596046</ele>
        <time>2022-10-02T08:53:27.000Z</time>
      </trkpt>
      <trkpt lat="47.34352" lon="-2.38387">
        <ele>-0.40000000596046</ele>
        <time>2022-10-02T08:53:33.000Z</time>
      </trkpt>
      <trkpt lat="47.34348" lon="-2.38394">
        <ele>-0.40000000596046</ele>
        <time>2022-10-02T08:53:34.000Z</time>
      </trkpt>
      <trkpt lat="47.34336" lon="-2.38415">
        <ele>-0.40000000596046</ele>
        <time>2022-10-02T08:53:37.000Z</time>
      </trkpt>
      <trkpt lat="47.3433" lon="-2.38431">
        <ele>-0.40000000596046</ele>
        <time>2022-10-02T08:53:39.000Z</time>
      </trkpt>
      <trkpt lat="47.34313" lon="-2.38479">
        <ele>-0.40000000596046</ele>
        <time>2022-10-02T08:53:45.000Z</time>
      </trkpt>
      <trkpt lat="47.34307" lon="-2.38491">
        <ele>-0.40000000596046</ele>
        <time>2022-10-02T08:53:47.000Z</time>
      </trkpt>
      <trkpt lat="47.34299" lon="-2.38499">
        <ele>-0.40000000596046</ele>
        <time>2022-10-02T08:53:49.000Z</time>
      </trkpt>
      <trkpt lat="47.34283" lon="-2.38504">
        <ele>-0.40000000596046</ele>
        <time>2022-10-02T08:53:52.000Z</time>
      </trkpt>
      <trkpt lat="47.34278" lon="-2.38505">
        <ele>-0.40000000596046</ele>
        <time>2022-10-02T08:53:53.000Z</time>
      </trkpt>
      <trkpt lat="47.34248" lon="-2.3851">
        <ele>-0.40000000596046</ele>
        <time>2022-10-02T08:53:59.000Z</time>
      </trkpt>
      <trkpt lat="47.34217" lon="-2.38514">
        <ele>23.2</ele>
        <time>2022-10-02T08:54:05.000Z</time>
      </trkpt>
      <trkpt lat="47.34212" lon="-2.38515">
        <ele>0.40000000596046</ele>
        <time>2022-10-02T08:54:06.000Z</time>
      </trkpt>
      <trkpt lat="47.34206" lon="-2.38515">
        <ele>0.80000001192093</ele>
        <time>2022-10-02T08:54:07.000Z</time>
      </trkpt>
      <trkpt lat="47.34201" lon="-2.38517">
        <ele>1.2000000476837</ele>
        <time>2022-10-02T08:54:08.000Z</time>
      </trkpt>
      <trkpt lat="47.34195" lon="-2.38516">
        <ele>1.6000000238419</ele>
        <time>2022-10-02T08:54:09.000Z</time>
      </trkpt>
      <trkpt lat="47.34184" lon="-2.38516">
        <ele>1.6000000238419</ele>
        <time>2022-10-02T08:54:11.000Z</time>
      </trkpt>
      <trkpt lat="47.34179" lon="-2.38515">
        <ele>1.6000000238419</ele>
        <time>2022-10-02T08:54:12.000Z</time>
      </trkpt>
      <trkpt lat="47.3416" lon="-2.38513">
        <ele>1.6000000238419</ele>
        <time>2022-10-02T08:54:16.000Z</time>
      </trkpt>
      <trkpt lat="47.34155" lon="-2.38512">
        <ele>1.6000000238419</ele>
        <time>2022-10-02T08:54:17.000Z</time>
      </trkpt>
      <trkpt lat="47.3414" lon="-2.38516">
        <ele>1.6000000238419</ele>
        <time>2022-10-02T08:54:20.000Z</time>
      </trkpt>
      <trkpt lat="47.34135" lon="-2.38517">
        <ele>2.2000000476837</ele>
        <time>2022-10-02T08:54:21.000Z</time>
      </trkpt>
      <trkpt lat="47.3413" lon="-2.38519">
        <ele>3</ele>
        <time>2022-10-02T08:54:22.000Z</time>
      </trkpt>
      <trkpt lat="47.34126" lon="-2.38522">
        <ele>3.4000000953674</ele>
        <time>2022-10-02T08:54:23.000Z</time>
      </trkpt>
      <trkpt lat="47.34122" lon="-2.38525">
        <ele>3.7999999523163</ele>
        <time>2022-10-02T08:54:24.000Z</time>
      </trkpt>
      <trkpt lat="47.34117" lon="-2.38527">
        <ele>3.7999999523163</ele>
        <time>2022-10-02T08:54:25.000Z</time>
      </trkpt>
      <trkpt lat="47.34105" lon="-2.38538">
        <ele>3.7999999523163</ele>
        <time>2022-10-02T08:54:28.000Z</time>
      </trkpt>
      <trkpt lat="47.34095" lon="-2.3855">
        <ele>3.7999999523163</ele>
        <time>2022-10-02T08:54:31.000Z</time>
      </trkpt>
      <trkpt lat="47.34088" lon="-2.3856">
        <ele>3.7999999523163</ele>
        <time>2022-10-02T08:54:33.000Z</time>
      </trkpt>
      <trkpt lat="47.34083" lon="-2.3858">
        <ele>3.7999999523163</ele>
        <time>2022-10-02T08:54:36.000Z</time>
      </trkpt>
      <trkpt lat="47.34082" lon="-2.38587">
        <ele>3.7999999523163</ele>
        <time>2022-10-02T08:54:37.000Z</time>
      </trkpt>
      <trkpt lat="47.34071" lon="-2.38612">
        <ele>3.7999999523163</ele>
        <time>2022-10-02T08:54:41.000Z</time>
      </trkpt>
      <trkpt lat="47.34062" lon="-2.38627">
        <ele>4.1999998092651</ele>
        <time>2022-10-02T08:54:44.000Z</time>
      </trkpt>
      <trkpt lat="47.34059" lon="-2.38631">
        <ele>4.5999999046326</ele>
        <time>2022-10-02T08:54:45.000Z</time>
      </trkpt>
      <trkpt lat="47.34055" lon="-2.38637">
        <ele>5</ele>
        <time>2022-10-02T08:54:46.000Z</time>
      </trkpt>
      <trkpt lat="47.34052" lon="-2.38641">
        <ele>6</ele>
        <time>2022-10-02T08:54:47.000Z</time>
      </trkpt>
      <trkpt lat="47.34039" lon="-2.3866">
        <ele>6</ele>
        <time>2022-10-02T08:54:51.000Z</time>
      </trkpt>
      <trkpt lat="47.34029" lon="-2.38672">
        <ele>6</ele>
        <time>2022-10-02T08:54:54.000Z</time>
      </trkpt>
      <trkpt lat="47.34025" lon="-2.38675">
        <ele>6</ele>
        <time>2022-10-02T08:54:55.000Z</time>
      </trkpt>
      <trkpt lat="47.34008" lon="-2.3869">
        <ele>6</ele>
        <time>2022-10-02T08:55:00.000Z</time>
      </trkpt>
      <trkpt lat="47.34004" lon="-2.38694">
        <ele>6.4000000953674</ele>
        <time>2022-10-02T08:55:01.000Z</time>
      </trkpt>
      <trkpt lat="47.34001" lon="-2.38698">
        <ele>6.8000001907349</ele>
        <time>2022-10-02T08:55:02.000Z</time>
      </trkpt>
      <trkpt lat="47.33997" lon="-2.38701">
        <ele>7.1999998092651</ele>
        <time>2022-10-02T08:55:03.000Z</time>
      </trkpt>
      <trkpt lat="47.33994" lon="-2.38704">
        <ele>7.5999999046326</ele>
        <time>2022-10-02T08:55:04.000Z</time>
      </trkpt>
      <trkpt lat="47.3399" lon="-2.38707">
        <ele>8</ele>
        <time>2022-10-02T08:55:05.000Z</time>
      </trkpt>
      <trkpt lat="47.33987" lon="-2.38711">
        <ele>8</ele>
        <time>2022-10-02T08:55:06.000Z</time>
      </trkpt>
      <trkpt lat="47.33983" lon="-2.38715">
        <ele>8</ele>
        <time>2022-10-02T08:55:07.000Z</time>
      </trkpt>
      <trkpt lat="47.33981" lon="-2.38719">
        <ele>8</ele>
        <time>2022-10-02T08:55:08.000Z</time>
      </trkpt>
      <trkpt lat="47.33961" lon="-2.38745">
        <ele>8</ele>
        <time>2022-10-02T08:55:14.000Z</time>
      </trkpt>
      <trkpt lat="47.33954" lon="-2.38753">
        <ele>8</ele>
        <time>2022-10-02T08:55:16.000Z</time>
      </trkpt>
      <trkpt lat="47.33937" lon="-2.38774">
        <ele>8</ele>
        <time>2022-10-02T08:55:21.000Z</time>
      </trkpt>
      <trkpt lat="47.33926" lon="-2.38786">
        <ele>8.3999996185303</ele>
        <time>2022-10-02T08:55:24.000Z</time>
      </trkpt>
      <trkpt lat="47.33923" lon="-2.3879">
        <ele>8.8000001907349</ele>
        <time>2022-10-02T08:55:25.000Z</time>
      </trkpt>
      <trkpt lat="47.33919" lon="-2.38793">
        <ele>9.1999998092651</ele>
        <time>2022-10-02T08:55:26.000Z</time>
      </trkpt>
      <trkpt lat="47.33915" lon="-2.38798">
        <ele>9.6000003814697</ele>
        <time>2022-10-02T08:55:27.000Z</time>
      </trkpt>
      <trkpt lat="47.33912" lon="-2.38801">
        <ele>10</ele>
        <time>2022-10-02T08:55:28.000Z</time>
      </trkpt>
      <trkpt lat="47.33898" lon="-2.38816">
        <ele>10</ele>
        <time>2022-10-02T08:55:32.000Z</time>
      </trkpt>
      <trkpt lat="47.33876" lon="-2.38839">
        <ele>10</ele>
        <time>2022-10-02T08:55:38.000Z</time>
      </trkpt>
      <trkpt lat="47.33872" lon="-2.38841">
        <ele>10</ele>
        <time>2022-10-02T08:55:39.000Z</time>
      </trkpt>
      <trkpt lat="47.33846" lon="-2.38866">
        <ele>10</ele>
        <time>2022-10-02T08:55:46.000Z</time>
      </trkpt>
      <trkpt lat="47.33839" lon="-2.38872">
        <ele>10.60000038147</ele>
        <time>2022-10-02T08:55:48.000Z</time>
      </trkpt>
      <trkpt lat="47.33836" lon="-2.38875">
        <ele>11</ele>
        <time>2022-10-02T08:55:49.000Z</time>
      </trkpt>
      <trkpt lat="47.33833" lon="-2.38879">
        <ele>11.39999961853</ele>
        <time>2022-10-02T08:55:50.000Z</time>
      </trkpt>
      <trkpt lat="47.33829" lon="-2.38883">
        <ele>12</ele>
        <time>2022-10-02T08:55:51.000Z</time>
      </trkpt>
      <trkpt lat="47.33826" lon="-2.38887">
        <ele>12.39999961853</ele>
        <time>2022-10-02T08:55:52.000Z</time>
      </trkpt>
      <trkpt lat="47.33819" lon="-2.38893">
        <ele>12.39999961853</ele>
        <time>2022-10-02T08:55:54.000Z</time>
      </trkpt>
      <trkpt lat="47.33794" lon="-2.38918">
        <ele>12.39999961853</ele>
        <time>2022-10-02T08:56:01.000Z</time>
      </trkpt>
      <trkpt lat="47.33776" lon="-2.38945">
        <ele>12.39999961853</ele>
        <time>2022-10-02T08:56:07.000Z</time>
      </trkpt>
      <trkpt lat="47.33763" lon="-2.38969">
        <ele>12.39999961853</ele>
        <time>2022-10-02T08:56:12.000Z</time>
      </trkpt>
      <trkpt lat="47.33757" lon="-2.38978">
        <ele>12.39999961853</ele>
        <time>2022-10-02T08:56:14.000Z</time>
      </trkpt>
      <trkpt lat="47.3375" lon="-2.38994">
        <ele>12.39999961853</ele>
        <time>2022-10-02T08:56:17.000Z</time>
      </trkpt>
      <trkpt lat="47.33745" lon="-2.39012">
        <ele>12.39999961853</ele>
        <time>2022-10-02T08:56:20.000Z</time>
      </trkpt>
      <trkpt lat="47.33744" lon="-2.39019">
        <ele>12.39999961853</ele>
        <time>2022-10-02T08:56:21.000Z</time>
      </trkpt>
      <trkpt lat="47.33741" lon="-2.39045">
        <ele>12.39999961853</ele>
        <time>2022-10-02T08:56:25.000Z</time>
      </trkpt>
      <trkpt lat="47.33738" lon="-2.39093">
        <ele>12.39999961853</ele>
        <time>2022-10-02T08:56:32.000Z</time>
      </trkpt>
      <trkpt lat="47.33737" lon="-2.39154">
        <ele>12.39999961853</ele>
        <time>2022-10-02T08:56:40.000Z</time>
      </trkpt>
      <trkpt lat="47.33735" lon="-2.3921">
        <ele>12.39999961853</ele>
        <time>2022-10-02T08:56:47.000Z</time>
      </trkpt>
      <trkpt lat="47.3373" lon="-2.39263">
        <ele>12.39999961853</ele>
        <time>2022-10-02T08:56:54.000Z</time>
      </trkpt>
      <trkpt lat="47.33726" lon="-2.39297">
        <ele>12.39999961853</ele>
        <time>2022-10-02T08:56:59.000Z</time>
      </trkpt>
      <trkpt lat="47.33724" lon="-2.39301">
        <ele>12.800000190735</ele>
        <time>2022-10-02T08:57:00.000Z</time>
      </trkpt>
      <trkpt lat="47.3372" lon="-2.39305">
        <ele>13.39999961853</ele>
        <time>2022-10-02T08:57:01.000Z</time>
      </trkpt>
      <trkpt lat="47.33716" lon="-2.39308">
        <ele>13.800000190735</ele>
        <time>2022-10-02T08:57:02.000Z</time>
      </trkpt>
      <trkpt lat="47.33714" lon="-2.39313">
        <ele>14.199999809265</ele>
        <time>2022-10-02T08:57:03.000Z</time>
      </trkpt>
      <trkpt lat="47.33713" lon="-2.39319">
        <ele>14.60000038147</ele>
        <time>2022-10-02T08:57:04.000Z</time>
      </trkpt>
      <trkpt lat="47.33712" lon="-2.3934">
        <ele>14.60000038147</ele>
        <time>2022-10-02T08:57:07.000Z</time>
      </trkpt>
      <trkpt lat="47.33712" lon="-2.39347">
        <ele>14.60000038147</ele>
        <time>2022-10-02T08:57:08.000Z</time>
      </trkpt>
      <trkpt lat="47.3371" lon="-2.39373">
        <ele>14.60000038147</ele>
        <time>2022-10-02T08:57:12.000Z</time>
      </trkpt>
      <trkpt lat="47.33708" lon="-2.39385">
        <ele>14.60000038147</ele>
        <time>2022-10-02T08:57:14.000Z</time>
      </trkpt>
      <trkpt lat="47.33707" lon="-2.39391">
        <ele>15</ele>
        <time>2022-10-02T08:57:15.000Z</time>
      </trkpt>
      <trkpt lat="47.33707" lon="-2.39396">
        <ele>16</ele>
        <time>2022-10-02T08:57:16.000Z</time>
      </trkpt>
      <trkpt lat="47.33706" lon="-2.39402">
        <ele>16.39999961853</ele>
        <time>2022-10-02T08:57:17.000Z</time>
      </trkpt>
      <trkpt lat="47.33706" lon="-2.39408">
        <ele>16.799999237061</ele>
        <time>2022-10-02T08:57:18.000Z</time>
      </trkpt>
      <trkpt lat="47.33705" lon="-2.3942">
        <ele>16.799999237061</ele>
        <time>2022-10-02T08:57:20.000Z</time>
      </trkpt>
      <trkpt lat="47.33702" lon="-2.39432">
        <ele>16.799999237061</ele>
        <time>2022-10-02T08:57:22.000Z</time>
      </trkpt>
      <trkpt lat="47.33697" lon="-2.39446">
        <ele>16.799999237061</ele>
        <time>2022-10-02T08:57:25.000Z</time>
      </trkpt>
      <trkpt lat="47.33693" lon="-2.39464">
        <ele>16.799999237061</ele>
        <time>2022-10-02T08:57:29.000Z</time>
      </trkpt>
      <trkpt lat="47.33687" lon="-2.3948">
        <ele>16.799999237061</ele>
        <time>2022-10-02T08:57:34.000Z</time>
      </trkpt>
      <trkpt lat="47.33683" lon="-2.39502">
        <ele>16.799999237061</ele>
        <time>2022-10-02T08:57:41.000Z</time>
      </trkpt>
      <trkpt lat="47.33673" lon="-2.39535">
        <ele>16.799999237061</ele>
        <time>2022-10-02T08:57:48.000Z</time>
      </trkpt>
      <trkpt lat="47.33658" lon="-2.39576">
        <ele>16.799999237061</ele>
        <time>2022-10-02T08:57:55.000Z</time>
      </trkpt>
      <trkpt lat="47.33638" lon="-2.39633">
        <ele>16.39999961853</ele>
        <time>2022-10-02T08:58:03.000Z</time>
      </trkpt>
      <trkpt lat="47.33635" lon="-2.39641">
        <ele>15.60000038147</ele>
        <time>2022-10-02T08:58:04.000Z</time>
      </trkpt>
      <trkpt lat="47.33632" lon="-2.39648">
        <ele>15.199999809265</ele>
        <time>2022-10-02T08:58:05.000Z</time>
      </trkpt>
      <trkpt lat="47.33629" lon="-2.39653">
        <ele>14.800000190735</ele>
        <time>2022-10-02T08:58:06.000Z</time>
      </trkpt>
      <trkpt lat="47.33622" lon="-2.39663">
        <ele>14.800000190735</ele>
        <time>2022-10-02T08:58:08.000Z</time>
      </trkpt>
      <trkpt lat="47.33608" lon="-2.39683">
        <ele>14.39999961853</ele>
        <time>2022-10-02T08:58:12.000Z</time>
      </trkpt>
      <trkpt lat="47.33605" lon="-2.39689">
        <ele>14</ele>
        <time>2022-10-02T08:58:13.000Z</time>
      </trkpt>
      <trkpt lat="47.33601" lon="-2.39695">
        <ele>13.60000038147</ele>
        <time>2022-10-02T08:58:14.000Z</time>
      </trkpt>
      <trkpt lat="47.33598" lon="-2.39701">
        <ele>13</ele>
        <time>2022-10-02T08:58:15.000Z</time>
      </trkpt>
      <trkpt lat="47.33595" lon="-2.39706">
        <ele>12.60000038147</ele>
        <time>2022-10-02T08:58:16.000Z</time>
      </trkpt>
      <trkpt lat="47.33586" lon="-2.39723">
        <ele>12.60000038147</ele>
        <time>2022-10-02T08:58:19.000Z</time>
      </trkpt>
      <trkpt lat="47.33578" lon="-2.39733">
        <ele>12.60000038147</ele>
        <time>2022-10-02T08:58:21.000Z</time>
      </trkpt>
      <trkpt lat="47.33558" lon="-2.39752">
        <ele>12.60000038147</ele>
        <time>2022-10-02T08:58:26.000Z</time>
      </trkpt>
      <trkpt lat="47.33549" lon="-2.39762">
        <ele>12.60000038147</ele>
        <time>2022-10-02T08:58:28.000Z</time>
      </trkpt>
      <trkpt lat="47.33522" lon="-2.39799">
        <ele>12.60000038147</ele>
        <time>2022-10-02T08:58:35.000Z</time>
      </trkpt>
      <trkpt lat="47.33494" lon="-2.39841">
        <ele>12.60000038147</ele>
        <time>2022-10-02T08:58:43.000Z</time>
      </trkpt>
      <trkpt lat="47.33491" lon="-2.39846">
        <ele>13.199999809265</ele>
        <time>2022-10-02T08:58:44.000Z</time>
      </trkpt>
      <trkpt lat="47.33488" lon="-2.39851">
        <ele>13.60000038147</ele>
        <time>2022-10-02T08:58:45.000Z</time>
      </trkpt>
      <trkpt lat="47.33485" lon="-2.39856">
        <ele>14</ele>
        <time>2022-10-02T08:58:46.000Z</time>
      </trkpt>
      <trkpt lat="47.33481" lon="-2.39861">
        <ele>14.39999961853</ele>
        <time>2022-10-02T08:58:47.000Z</time>
      </trkpt>
      <trkpt lat="47.33477" lon="-2.39865">
        <ele>14.800000190735</ele>
        <time>2022-10-02T08:58:48.000Z</time>
      </trkpt>
      <trkpt lat="47.3347" lon="-2.39875">
        <ele>14.800000190735</ele>
        <time>2022-10-02T08:58:50.000Z</time>
      </trkpt>
      <trkpt lat="47.33456" lon="-2.39893">
        <ele>15.199999809265</ele>
        <time>2022-10-02T08:58:54.000Z</time>
      </trkpt>
      <trkpt lat="47.33453" lon="-2.39897">
        <ele>15.60000038147</ele>
        <time>2022-10-02T08:58:55.000Z</time>
      </trkpt>
      <trkpt lat="47.33449" lon="-2.39901">
        <ele>16</ele>
        <time>2022-10-02T08:58:56.000Z</time>
      </trkpt>
      <trkpt lat="47.33445" lon="-2.39905">
        <ele>16.60000038147</ele>
        <time>2022-10-02T08:58:57.000Z</time>
      </trkpt>
      <trkpt lat="47.33442" lon="-2.3991">
        <ele>17</ele>
        <time>2022-10-02T08:58:58.000Z</time>
      </trkpt>
      <trkpt lat="47.33436" lon="-2.39918">
        <ele>17</ele>
        <time>2022-10-02T08:59:00.000Z</time>
      </trkpt>
      <trkpt lat="47.33424" lon="-2.39938">
        <ele>17</ele>
        <time>2022-10-02T08:59:04.000Z</time>
      </trkpt>
      <trkpt lat="47.33409" lon="-2.39962">
        <ele>17</ele>
        <time>2022-10-02T08:59:09.000Z</time>
      </trkpt>
      <trkpt lat="47.33388" lon="-2.39996">
        <ele>17</ele>
        <time>2022-10-02T08:59:16.000Z</time>
      </trkpt>
      <trkpt lat="47.33385" lon="-2.40001">
        <ele>17.39999961853</ele>
        <time>2022-10-02T08:59:17.000Z</time>
      </trkpt>
      <trkpt lat="47.33382" lon="-2.40005">
        <ele>17.799999237061</ele>
        <time>2022-10-02T08:59:18.000Z</time>
      </trkpt>
      <trkpt lat="47.33379" lon="-2.4001">
        <ele>18.60000038147</ele>
        <time>2022-10-02T08:59:19.000Z</time>
      </trkpt>
      <trkpt lat="47.33376" lon="-2.40014">
        <ele>19</ele>
        <time>2022-10-02T08:59:20.000Z</time>
      </trkpt>
      <trkpt lat="47.3337" lon="-2.40023">
        <ele>19</ele>
        <time>2022-10-02T08:59:22.000Z</time>
      </trkpt>
      <trkpt lat="47.33362" lon="-2.40044">
        <ele>19</ele>
        <time>2022-10-02T08:59:26.000Z</time>
      </trkpt>
      <trkpt lat="47.3336" lon="-2.40057">
        <ele>19</ele>
        <time>2022-10-02T08:59:28.000Z</time>
      </trkpt>
      <trkpt lat="47.33359" lon="-2.40064">
        <ele>19</ele>
        <time>2022-10-02T08:59:29.000Z</time>
      </trkpt>
      <trkpt lat="47.33359" lon="-2.4007">
        <ele>19.39999961853</ele>
        <time>2022-10-02T08:59:30.000Z</time>
      </trkpt>
      <trkpt lat="47.33358" lon="-2.40077">
        <ele>19.799999237061</ele>
        <time>2022-10-02T08:59:31.000Z</time>
      </trkpt>
      <trkpt lat="47.33357" lon="-2.40084">
        <ele>20.200000762939</ele>
        <time>2022-10-02T08:59:32.000Z</time>
      </trkpt>
      <trkpt lat="47.33356" lon="-2.40092">
        <ele>20.60000038147</ele>
        <time>2022-10-02T08:59:33.000Z</time>
      </trkpt>
      <trkpt lat="47.33355" lon="-2.40099">
        <ele>21</ele>
        <time>2022-10-02T08:59:34.000Z</time>
      </trkpt>
      <trkpt lat="47.33352" lon="-2.40144">
        <ele>21</ele>
        <time>2022-10-02T08:59:40.000Z</time>
      </trkpt>
      <trkpt lat="47.3335" lon="-2.40152">
        <ele>21</ele>
        <time>2022-10-02T08:59:41.000Z</time>
      </trkpt>
      <trkpt lat="47.33344" lon="-2.40195">
        <ele>21</ele>
        <time>2022-10-02T08:59:47.000Z</time>
      </trkpt>
      <trkpt lat="47.33343" lon="-2.40202">
        <ele>21</ele>
        <time>2022-10-02T08:59:48.000Z</time>
      </trkpt>
      <trkpt lat="47.33342" lon="-2.40218">
        <ele>21</ele>
        <time>2022-10-02T08:59:50.000Z</time>
      </trkpt>
      <trkpt lat="47.3334" lon="-2.40242">
        <ele>21</ele>
        <time>2022-10-02T08:59:53.000Z</time>
      </trkpt>
      <trkpt lat="47.33338" lon="-2.40258">
        <ele>21</ele>
        <time>2022-10-02T08:59:55.000Z</time>
      </trkpt>
      <trkpt lat="47.33334" lon="-2.40289">
        <ele>21</ele>
        <time>2022-10-02T08:59:59.000Z</time>
      </trkpt>
      <trkpt lat="47.33326" lon="-2.40326">
        <ele>21</ele>
        <time>2022-10-02T09:00:04.000Z</time>
      </trkpt>
      <trkpt lat="47.3332" lon="-2.40341">
        <ele>20.60000038147</ele>
        <time>2022-10-02T09:00:06.000Z</time>
      </trkpt>
      <trkpt lat="47.33318" lon="-2.40348">
        <ele>20.200000762939</ele>
        <time>2022-10-02T09:00:07.000Z</time>
      </trkpt>
      <trkpt lat="47.33316" lon="-2.40356">
        <ele>19.799999237061</ele>
        <time>2022-10-02T09:00:08.000Z</time>
      </trkpt>
      <trkpt lat="47.33314" lon="-2.40363">
        <ele>18.799999237061</ele>
        <time>2022-10-02T09:00:09.000Z</time>
      </trkpt>
      <trkpt lat="47.33313" lon="-2.40369">
        <ele>18.39999961853</ele>
        <time>2022-10-02T09:00:10.000Z</time>
      </trkpt>
      <trkpt lat="47.33314" lon="-2.40375">
        <ele>18</ele>
        <time>2022-10-02T09:00:11.000Z</time>
      </trkpt>
      <trkpt lat="47.33315" lon="-2.40379">
        <ele>17.60000038147</ele>
        <time>2022-10-02T09:00:12.000Z</time>
      </trkpt>
      <trkpt lat="47.33316" lon="-2.40385">
        <ele>17</ele>
        <time>2022-10-02T09:00:13.000Z</time>
      </trkpt>
      <trkpt lat="47.33316" lon="-2.40391">
        <ele>16.60000038147</ele>
        <time>2022-10-02T09:00:14.000Z</time>
      </trkpt>
      <trkpt lat="47.33316" lon="-2.40398">
        <ele>16.60000038147</ele>
        <time>2022-10-02T09:00:15.000Z</time>
      </trkpt>
      <trkpt lat="47.33316" lon="-2.40405">
        <ele>16.60000038147</ele>
        <time>2022-10-02T09:00:16.000Z</time>
      </trkpt>
      <trkpt lat="47.33314" lon="-2.40421">
        <ele>16.200000762939</ele>
        <time>2022-10-02T09:00:18.000Z</time>
      </trkpt>
      <trkpt lat="47.33313" lon="-2.40431">
        <ele>15.800000190735</ele>
        <time>2022-10-02T09:00:19.000Z</time>
      </trkpt>
      <trkpt lat="47.33311" lon="-2.4044">
        <ele>15.39999961853</ele>
        <time>2022-10-02T09:00:20.000Z</time>
      </trkpt>
      <trkpt lat="47.3331" lon="-2.4045">
        <ele>15</ele>
        <time>2022-10-02T09:00:21.000Z</time>
      </trkpt>
      <trkpt lat="47.33309" lon="-2.4046">
        <ele>14.60000038147</ele>
        <time>2022-10-02T09:00:22.000Z</time>
      </trkpt>
      <trkpt lat="47.33304" lon="-2.40489">
        <ele>14.60000038147</ele>
        <time>2022-10-02T09:00:25.000Z</time>
      </trkpt>
      <trkpt lat="47.33301" lon="-2.40498">
        <ele>14.60000038147</ele>
        <time>2022-10-02T09:00:26.000Z</time>
      </trkpt>
      <trkpt lat="47.33291" lon="-2.40521">
        <ele>14.60000038147</ele>
        <time>2022-10-02T09:00:29.000Z</time>
      </trkpt>
      <trkpt lat="47.33285" lon="-2.40536">
        <ele>14.60000038147</ele>
        <time>2022-10-02T09:00:31.000Z</time>
      </trkpt>
      <trkpt lat="47.33276" lon="-2.4056">
        <ele>14.60000038147</ele>
        <time>2022-10-02T09:00:34.000Z</time>
      </trkpt>
      <trkpt lat="47.33274" lon="-2.40568">
        <ele>14.60000038147</ele>
        <time>2022-10-02T09:00:35.000Z</time>
      </trkpt>
      <trkpt lat="47.33262" lon="-2.4061">
        <ele>14.60000038147</ele>
        <time>2022-10-02T09:00:40.000Z</time>
      </trkpt>
      <trkpt lat="47.33247" lon="-2.40666">
        <ele>14.60000038147</ele>
        <time>2022-10-02T09:00:47.000Z</time>
      </trkpt>
      <trkpt lat="47.33235" lon="-2.40715">
        <ele>14.60000038147</ele>
        <time>2022-10-02T09:00:53.000Z</time>
      </trkpt>
      <trkpt lat="47.33234" lon="-2.40724">
        <ele>14.60000038147</ele>
        <time>2022-10-02T09:00:54.000Z</time>
      </trkpt>
      <trkpt lat="47.33228" lon="-2.40772">
        <ele>15</ele>
        <time>2022-10-02T09:01:00.000Z</time>
      </trkpt>
      <trkpt lat="47.33227" lon="-2.40779">
        <ele>15.39999961853</ele>
        <time>2022-10-02T09:01:01.000Z</time>
      </trkpt>
      <trkpt lat="47.33224" lon="-2.40786">
        <ele>15.800000190735</ele>
        <time>2022-10-02T09:01:02.000Z</time>
      </trkpt>
      <trkpt lat="47.33221" lon="-2.40792">
        <ele>16.200000762939</ele>
        <time>2022-10-02T09:01:03.000Z</time>
      </trkpt>
      <trkpt lat="47.33218" lon="-2.40798">
        <ele>16.60000038147</ele>
        <time>2022-10-02T09:01:04.000Z</time>
      </trkpt>
      <trkpt lat="47.33216" lon="-2.40804">
        <ele>16.60000038147</ele>
        <time>2022-10-02T09:01:05.000Z</time>
      </trkpt>
      <trkpt lat="47.33213" lon="-2.40809">
        <ele>16.60000038147</ele>
        <time>2022-10-02T09:01:06.000Z</time>
      </trkpt>
      <trkpt lat="47.33206" lon="-2.40819">
        <ele>16.60000038147</ele>
        <time>2022-10-02T09:01:08.000Z</time>
      </trkpt>
      <trkpt lat="47.33199" lon="-2.4083">
        <ele>16.60000038147</ele>
        <time>2022-10-02T09:01:10.000Z</time>
      </trkpt>
      <trkpt lat="47.33196" lon="-2.40836">
        <ele>17</ele>
        <time>2022-10-02T09:01:11.000Z</time>
      </trkpt>
      <trkpt lat="47.33192" lon="-2.40841">
        <ele>17.39999961853</ele>
        <time>2022-10-02T09:01:12.000Z</time>
      </trkpt>
      <trkpt lat="47.33189" lon="-2.40846">
        <ele>17.799999237061</ele>
        <time>2022-10-02T09:01:13.000Z</time>
      </trkpt>
      <trkpt lat="47.33185" lon="-2.40851">
        <ele>18.200000762939</ele>
        <time>2022-10-02T09:01:14.000Z</time>
      </trkpt>
      <trkpt lat="47.33182" lon="-2.40856">
        <ele>18.60000038147</ele>
        <time>2022-10-02T09:01:15.000Z</time>
      </trkpt>
      <trkpt lat="47.33179" lon="-2.40861">
        <ele>18.60000038147</ele>
        <time>2022-10-02T09:01:16.000Z</time>
      </trkpt>
      <trkpt lat="47.33161" lon="-2.40892">
        <ele>18.60000038147</ele>
        <time>2022-10-02T09:01:22.000Z</time>
      </trkpt>
      <trkpt lat="47.33158" lon="-2.40897">
        <ele>19.39999961853</ele>
        <time>2022-10-02T09:01:23.000Z</time>
      </trkpt>
      <trkpt lat="47.33154" lon="-2.40902">
        <ele>19.799999237061</ele>
        <time>2022-10-02T09:01:24.000Z</time>
      </trkpt>
      <trkpt lat="47.33151" lon="-2.40908">
        <ele>20.200000762939</ele>
        <time>2022-10-02T09:01:25.000Z</time>
      </trkpt>
      <trkpt lat="47.33148" lon="-2.40913">
        <ele>20.60000038147</ele>
        <time>2022-10-02T09:01:26.000Z</time>
      </trkpt>
      <trkpt lat="47.33145" lon="-2.40918">
        <ele>20.60000038147</ele>
        <time>2022-10-02T09:01:27.000Z</time>
      </trkpt>
      <trkpt lat="47.33142" lon="-2.40924">
        <ele>20.60000038147</ele>
        <time>2022-10-02T09:01:28.000Z</time>
      </trkpt>
      <trkpt lat="47.33131" lon="-2.40947">
        <ele>20.60000038147</ele>
        <time>2022-10-02T09:01:32.000Z</time>
      </trkpt>
      <trkpt lat="47.33116" lon="-2.40982">
        <ele>20.60000038147</ele>
        <time>2022-10-02T09:01:38.000Z</time>
      </trkpt>
      <trkpt lat="47.33101" lon="-2.41024">
        <ele>20.60000038147</ele>
        <time>2022-10-02T09:01:45.000Z</time>
      </trkpt>
      <trkpt lat="47.331" lon="-2.4103">
        <ele>20.60000038147</ele>
        <time>2022-10-02T09:01:46.000Z</time>
      </trkpt>
      <trkpt lat="47.33094" lon="-2.41049">
        <ele>20.60000038147</ele>
        <time>2022-10-02T09:01:49.000Z</time>
      </trkpt>
      <trkpt lat="47.33088" lon="-2.41067">
        <ele>20.60000038147</ele>
        <time>2022-10-02T09:01:52.000Z</time>
      </trkpt>
      <trkpt lat="47.33082" lon="-2.41085">
        <ele>20.60000038147</ele>
        <time>2022-10-02T09:01:55.000Z</time>
      </trkpt>
      <trkpt lat="47.33075" lon="-2.41102">
        <ele>21</ele>
        <time>2022-10-02T09:01:58.000Z</time>
      </trkpt>
      <trkpt lat="47.33073" lon="-2.41107">
        <ele>21.39999961853</ele>
        <time>2022-10-02T09:01:59.000Z</time>
      </trkpt>
      <trkpt lat="47.33071" lon="-2.41112">
        <ele>22</ele>
        <time>2022-10-02T09:02:00.000Z</time>
      </trkpt>
      <trkpt lat="47.33068" lon="-2.41118">
        <ele>22.39999961853</ele>
        <time>2022-10-02T09:02:01.000Z</time>
      </trkpt>
      <trkpt lat="47.33066" lon="-2.41122">
        <ele>22.799999237061</ele>
        <time>2022-10-02T09:02:02.000Z</time>
      </trkpt>
      <trkpt lat="47.3306" lon="-2.41133">
        <ele>22.799999237061</ele>
        <time>2022-10-02T09:02:04.000Z</time>
      </trkpt>
      <trkpt lat="47.3304" lon="-2.41172">
        <ele>22.799999237061</ele>
        <time>2022-10-02T09:02:12.000Z</time>
      </trkpt>
      <trkpt lat="47.3303" lon="-2.41192">
        <ele>22.799999237061</ele>
        <time>2022-10-02T09:02:16.000Z</time>
      </trkpt>
      <trkpt lat="47.33025" lon="-2.41203">
        <ele>22.799999237061</ele>
        <time>2022-10-02T09:02:18.000Z</time>
      </trkpt>
      <trkpt lat="47.3302" lon="-2.41212">
        <ele>22.799999237061</ele>
        <time>2022-10-02T09:02:20.000Z</time>
      </trkpt>
      <trkpt lat="47.33005" lon="-2.41233">
        <ele>22.799999237061</ele>
        <time>2022-10-02T09:02:25.000Z</time>
      </trkpt>
      <trkpt lat="47.33001" lon="-2.41237">
        <ele>22.799999237061</ele>
        <time>2022-10-02T09:02:26.000Z</time>
      </trkpt>
      <trkpt lat="47.32989" lon="-2.41246">
        <ele>22.799999237061</ele>
        <time>2022-10-02T09:02:29.000Z</time>
      </trkpt>
      <trkpt lat="47.32959" lon="-2.4126">
        <ele>22.799999237061</ele>
        <time>2022-10-02T09:02:36.000Z</time>
      </trkpt>
      <trkpt lat="47.32938" lon="-2.41265">
        <ele>22.799999237061</ele>
        <time>2022-10-02T09:02:41.000Z</time>
      </trkpt>
      <trkpt lat="47.32934" lon="-2.41267">
        <ele>22.799999237061</ele>
        <time>2022-10-02T09:02:42.000Z</time>
      </trkpt>
      <trkpt lat="47.32925" lon="-2.4127">
        <ele>22.799999237061</ele>
        <time>2022-10-02T09:02:44.000Z</time>
      </trkpt>
      <trkpt lat="47.32916" lon="-2.41269">
        <ele>22.799999237061</ele>
        <time>2022-10-02T09:02:46.000Z</time>
      </trkpt>
      <trkpt lat="47.32902" lon="-2.4127">
        <ele>22.799999237061</ele>
        <time>2022-10-02T09:02:49.000Z</time>
      </trkpt>
      <trkpt lat="47.32892" lon="-2.41271">
        <ele>22.799999237061</ele>
        <time>2022-10-02T09:02:51.000Z</time>
      </trkpt>
      <trkpt lat="47.32853" lon="-2.41275">
        <ele>22.799999237061</ele>
        <time>2022-10-02T09:02:59.000Z</time>
      </trkpt>
      <trkpt lat="47.32843" lon="-2.41277">
        <ele>23.200000762939</ele>
        <time>2022-10-02T09:03:01.000Z</time>
      </trkpt>
      <trkpt lat="47.32838" lon="-2.41278">
        <ele>24</ele>
        <time>2022-10-02T09:03:02.000Z</time>
      </trkpt>
      <trkpt lat="47.32832" lon="-2.41279">
        <ele>24.39999961853</ele>
        <time>2022-10-02T09:03:03.000Z</time>
      </trkpt>
      <trkpt lat="47.32827" lon="-2.4128">
        <ele>24.799999237061</ele>
        <time>2022-10-02T09:03:04.000Z</time>
      </trkpt>
      <trkpt lat="47.32822" lon="-2.4128">
        <ele>24.799999237061</ele>
        <time>2022-10-02T09:03:05.000Z</time>
      </trkpt>
      <trkpt lat="47.32793" lon="-2.41282">
        <ele>24.799999237061</ele>
        <time>2022-10-02T09:03:10.000Z</time>
      </trkpt>
      <trkpt lat="47.32759" lon="-2.41289">
        <ele>24.799999237061</ele>
        <time>2022-10-02T09:03:16.000Z</time>
      </trkpt>
      <trkpt lat="47.32747" lon="-2.41297">
        <ele>24.799999237061</ele>
        <time>2022-10-02T09:03:19.000Z</time>
      </trkpt>
      <trkpt lat="47.32742" lon="-2.41307">
        <ele>24.799999237061</ele>
        <time>2022-10-02T09:03:21.000Z</time>
      </trkpt>
      <trkpt lat="47.32743" lon="-2.41336">
        <ele>24.799999237061</ele>
        <time>2022-10-02T09:03:26.000Z</time>
      </trkpt>
      <trkpt lat="47.32744" lon="-2.41343">
        <ele>24.799999237061</ele>
        <time>2022-10-02T09:03:27.000Z</time>
      </trkpt>
      <trkpt lat="47.32751" lon="-2.41378">
        <ele>24.799999237061</ele>
        <time>2022-10-02T09:03:32.000Z</time>
      </trkpt>
      <trkpt lat="47.32755" lon="-2.41424">
        <ele>24.799999237061</ele>
        <time>2022-10-02T09:03:38.000Z</time>
      </trkpt>
      <trkpt lat="47.32755" lon="-2.41482">
        <ele>24.799999237061</ele>
        <time>2022-10-02T09:03:46.000Z</time>
      </trkpt>
      <trkpt lat="47.32754" lon="-2.41529">
        <ele>24.799999237061</ele>
        <time>2022-10-02T09:03:53.000Z</time>
      </trkpt>
      <trkpt lat="47.32754" lon="-2.41535">
        <ele>24.799999237061</ele>
        <time>2022-10-02T09:03:56.000Z</time>
      </trkpt>
      <trkpt lat="47.32753" lon="-2.41538">
        <ele>24.799999237061</ele>
        <time>2022-10-02T09:03:58.000Z</time>
      </trkpt>
      <trkpt lat="47.32752" lon="-2.4154">
        <ele>24.799999237061</ele>
        <time>2022-10-02T09:04:00.000Z</time>
      </trkpt>
      <trkpt lat="47.32753" lon="-2.41547">
        <ele>24.799999237061</ele>
        <time>2022-10-02T09:04:02.000Z</time>
      </trkpt>
      <trkpt lat="47.3276" lon="-2.41566">
        <ele>24.799999237061</ele>
        <time>2022-10-02T09:04:06.000Z</time>
      </trkpt>
      <trkpt lat="47.32762" lon="-2.41573">
        <ele>24.799999237061</ele>
        <time>2022-10-02T09:04:07.000Z</time>
      </trkpt>
      <trkpt lat="47.3276" lon="-2.41592">
        <ele>24.799999237061</ele>
        <time>2022-10-02T09:04:10.000Z</time>
      </trkpt>
      <trkpt lat="47.32747" lon="-2.41618">
        <ele>24.799999237061</ele>
        <time>2022-10-02T09:04:15.000Z</time>
      </trkpt>
      <trkpt lat="47.3274" lon="-2.41626">
        <ele>24.799999237061</ele>
        <time>2022-10-02T09:04:17.000Z</time>
      </trkpt>
      <trkpt lat="47.32731" lon="-2.41627">
        <ele>24.799999237061</ele>
        <time>2022-10-02T09:04:19.000Z</time>
      </trkpt>
      <trkpt lat="47.32717" lon="-2.41625">
        <ele>24.799999237061</ele>
        <time>2022-10-02T09:04:22.000Z</time>
      </trkpt>
      <trkpt lat="47.32707" lon="-2.41624">
        <ele>24.799999237061</ele>
        <time>2022-10-02T09:04:24.000Z</time>
      </trkpt>
      <trkpt lat="47.32698" lon="-2.41624">
        <ele>24.799999237061</ele>
        <time>2022-10-02T09:04:26.000Z</time>
      </trkpt>
      <trkpt lat="47.32688" lon="-2.41624">
        <ele>24.799999237061</ele>
        <time>2022-10-02T09:04:28.000Z</time>
      </trkpt>
      <trkpt lat="47.32679" lon="-2.41622">
        <ele>24.799999237061</ele>
        <time>2022-10-02T09:04:30.000Z</time>
      </trkpt>
      <trkpt lat="47.32664" lon="-2.41617">
        <ele>25.200000762939</ele>
        <time>2022-10-02T09:04:33.000Z</time>
      </trkpt>
      <trkpt lat="47.32659" lon="-2.41615">
        <ele>25.60000038147</ele>
        <time>2022-10-02T09:04:34.000Z</time>
      </trkpt>
      <trkpt lat="47.32654" lon="-2.41613">
        <ele>26</ele>
        <time>2022-10-02T09:04:35.000Z</time>
      </trkpt>
      <trkpt lat="47.3265" lon="-2.41612">
        <ele>26.39999961853</ele>
        <time>2022-10-02T09:04:36.000Z</time>
      </trkpt>
      <trkpt lat="47.32645" lon="-2.41611">
        <ele>26.799999237061</ele>
        <time>2022-10-02T09:04:37.000Z</time>
      </trkpt>
      <trkpt lat="47.3264" lon="-2.4161">
        <ele>26.799999237061</ele>
        <time>2022-10-02T09:04:38.000Z</time>
      </trkpt>
      <trkpt lat="47.32627" lon="-2.41604">
        <ele>26.799999237061</ele>
        <time>2022-10-02T09:04:41.000Z</time>
      </trkpt>
      <trkpt lat="47.32619" lon="-2.41601">
        <ele>26.799999237061</ele>
        <time>2022-10-02T09:04:43.000Z</time>
      </trkpt>
      <trkpt lat="47.32614" lon="-2.416">
        <ele>27.200000762939</ele>
        <time>2022-10-02T09:04:44.000Z</time>
      </trkpt>
      <trkpt lat="47.3261" lon="-2.416">
        <ele>27.60000038147</ele>
        <time>2022-10-02T09:04:45.000Z</time>
      </trkpt>
      <trkpt lat="47.32606" lon="-2.41601">
        <ele>28.200000762939</ele>
        <time>2022-10-02T09:04:46.000Z</time>
      </trkpt>
      <trkpt lat="47.32602" lon="-2.41602">
        <ele>28.60000038147</ele>
        <time>2022-10-02T09:04:47.000Z</time>
      </trkpt>
      <trkpt lat="47.32597" lon="-2.41603">
        <ele>29</ele>
        <time>2022-10-02T09:04:48.000Z</time>
      </trkpt>
      <trkpt lat="47.32593" lon="-2.41604">
        <ele>29</ele>
        <time>2022-10-02T09:04:49.000Z</time>
      </trkpt>
      <trkpt lat="47.32579" lon="-2.41597">
        <ele>29</ele>
        <time>2022-10-02T09:04:52.000Z</time>
      </trkpt>
      <trkpt lat="47.32575" lon="-2.41594">
        <ele>29</ele>
        <time>2022-10-02T09:04:53.000Z</time>
      </trkpt>
      <trkpt lat="47.32554" lon="-2.41576">
        <ele>29</ele>
        <time>2022-10-02T09:04:58.000Z</time>
      </trkpt>
      <trkpt lat="47.32549" lon="-2.41575">
        <ele>29</ele>
        <time>2022-10-02T09:04:59.000Z</time>
      </trkpt>
      <trkpt lat="47.3254" lon="-2.41575">
        <ele>29.39999961853</ele>
        <time>2022-10-02T09:05:01.000Z</time>
      </trkpt>
      <trkpt lat="47.32536" lon="-2.41576">
        <ele>29.799999237061</ele>
        <time>2022-10-02T09:05:02.000Z</time>
      </trkpt>
      <trkpt lat="47.32531" lon="-2.41578">
        <ele>30.200000762939</ele>
        <time>2022-10-02T09:05:03.000Z</time>
      </trkpt>
      <trkpt lat="47.32527" lon="-2.41579">
        <ele>30.60000038147</ele>
        <time>2022-10-02T09:05:04.000Z</time>
      </trkpt>
      <trkpt lat="47.32523" lon="-2.41581">
        <ele>31</ele>
        <time>2022-10-02T09:05:05.000Z</time>
      </trkpt>
      <trkpt lat="47.32509" lon="-2.41586">
        <ele>31</ele>
        <time>2022-10-02T09:05:08.000Z</time>
      </trkpt>
      <trkpt lat="47.32499" lon="-2.41585">
        <ele>31</ele>
        <time>2022-10-02T09:05:10.000Z</time>
      </trkpt>
      <trkpt lat="47.32464" lon="-2.41571">
        <ele>31</ele>
        <time>2022-10-02T09:05:17.000Z</time>
      </trkpt>
      <trkpt lat="47.32439" lon="-2.41564">
        <ele>31</ele>
        <time>2022-10-02T09:05:22.000Z</time>
      </trkpt>
      <trkpt lat="47.32434" lon="-2.41564">
        <ele>31</ele>
        <time>2022-10-02T09:05:23.000Z</time>
      </trkpt>
      <trkpt lat="47.32403" lon="-2.41563">
        <ele>31</ele>
        <time>2022-10-02T09:05:29.000Z</time>
      </trkpt>
      <trkpt lat="47.32377" lon="-2.41548">
        <ele>31</ele>
        <time>2022-10-02T09:05:34.000Z</time>
      </trkpt>
      <trkpt lat="47.32372" lon="-2.41546">
        <ele>31</ele>
        <time>2022-10-02T09:05:35.000Z</time>
      </trkpt>
      <trkpt lat="47.32355" lon="-2.41544">
        <ele>31</ele>
        <time>2022-10-02T09:05:38.000Z</time>
      </trkpt>
      <trkpt lat="47.3235" lon="-2.41546">
        <ele>30.60000038147</ele>
        <time>2022-10-02T09:05:39.000Z</time>
      </trkpt>
      <trkpt lat="47.32345" lon="-2.41548">
        <ele>30.200000762939</ele>
        <time>2022-10-02T09:05:40.000Z</time>
      </trkpt>
      <trkpt lat="47.3234" lon="-2.41551">
        <ele>29.799999237061</ele>
        <time>2022-10-02T09:05:41.000Z</time>
      </trkpt>
      <trkpt lat="47.32336" lon="-2.41554">
        <ele>29.39999961853</ele>
        <time>2022-10-02T09:05:42.000Z</time>
      </trkpt>
      <trkpt lat="47.32332" lon="-2.41558">
        <ele>29</ele>
        <time>2022-10-02T09:05:43.000Z</time>
      </trkpt>
      <trkpt lat="47.32322" lon="-2.41574">
        <ele>29</ele>
        <time>2022-10-02T09:05:46.000Z</time>
      </trkpt>
      <trkpt lat="47.3232" lon="-2.4158">
        <ele>29</ele>
        <time>2022-10-02T09:05:47.000Z</time>
      </trkpt>
      <trkpt lat="47.32312" lon="-2.41614">
        <ele>29</ele>
        <time>2022-10-02T09:05:52.000Z</time>
      </trkpt>
      <trkpt lat="47.32309" lon="-2.41621">
        <ele>29</ele>
        <time>2022-10-02T09:05:53.000Z</time>
      </trkpt>
      <trkpt lat="47.32301" lon="-2.41644">
        <ele>29</ele>
        <time>2022-10-02T09:05:57.000Z</time>
      </trkpt>
      <trkpt lat="47.32299" lon="-2.41669">
        <ele>29</ele>
        <time>2022-10-02T09:06:01.000Z</time>
      </trkpt>
      <trkpt lat="47.32299" lon="-2.41706">
        <ele>29</ele>
        <time>2022-10-02T09:06:06.000Z</time>
      </trkpt>
      <trkpt lat="47.32297" lon="-2.41715">
        <ele>29</ele>
        <time>2022-10-02T09:06:07.000Z</time>
      </trkpt>
      <trkpt lat="47.32289" lon="-2.41735">
        <ele>29</ele>
        <time>2022-10-02T09:06:10.000Z</time>
      </trkpt>
      <trkpt lat="47.32286" lon="-2.41741">
        <ele>29</ele>
        <time>2022-10-02T09:06:11.000Z</time>
      </trkpt>
      <trkpt lat="47.32282" lon="-2.41761">
        <ele>29</ele>
        <time>2022-10-02T09:06:14.000Z</time>
      </trkpt>
      <trkpt lat="47.32278" lon="-2.41788">
        <ele>29</ele>
        <time>2022-10-02T09:06:18.000Z</time>
      </trkpt>
      <trkpt lat="47.32275" lon="-2.41793">
        <ele>29</ele>
        <time>2022-10-02T09:06:19.000Z</time>
      </trkpt>
      <trkpt lat="47.32255" lon="-2.41835">
        <ele>29</ele>
        <time>2022-10-02T09:06:26.000Z</time>
      </trkpt>
      <trkpt lat="47.32253" lon="-2.41841">
        <ele>28.39999961853</ele>
        <time>2022-10-02T09:06:27.000Z</time>
      </trkpt>
      <trkpt lat="47.3225" lon="-2.41847">
        <ele>28</ele>
        <time>2022-10-02T09:06:28.000Z</time>
      </trkpt>
      <trkpt lat="47.32248" lon="-2.41853">
        <ele>27.60000038147</ele>
        <time>2022-10-02T09:06:29.000Z</time>
      </trkpt>
      <trkpt lat="47.32247" lon="-2.41858">
        <ele>27.200000762939</ele>
        <time>2022-10-02T09:06:30.000Z</time>
      </trkpt>
      <trkpt lat="47.32247" lon="-2.41861">
        <ele>26.799999237061</ele>
        <time>2022-10-02T09:06:31.000Z</time>
      </trkpt>
      <trkpt lat="47.32251" lon="-2.41871">
        <ele>26.799999237061</ele>
        <time>2022-10-02T09:06:35.000Z</time>
      </trkpt>
      <trkpt lat="47.32261" lon="-2.4189">
        <ele>26.799999237061</ele>
        <time>2022-10-02T09:06:41.000Z</time>
      </trkpt>
      <trkpt lat="47.32276" lon="-2.41916">
        <ele>26.799999237061</ele>
        <time>2022-10-02T09:06:48.000Z</time>
      </trkpt>
      <trkpt lat="47.32286" lon="-2.41934">
        <ele>26.799999237061</ele>
        <time>2022-10-02T09:06:52.000Z</time>
      </trkpt>
      <trkpt lat="47.32291" lon="-2.41944">
        <ele>26.799999237061</ele>
        <time>2022-10-02T09:06:54.000Z</time>
      </trkpt>
      <trkpt lat="47.32297" lon="-2.41954">
        <ele>26.799999237061</ele>
        <time>2022-10-02T09:06:56.000Z</time>
      </trkpt>
      <trkpt lat="47.32306" lon="-2.41965">
        <ele>26.799999237061</ele>
        <time>2022-10-02T09:06:59.000Z</time>
      </trkpt>
      <trkpt lat="47.32324" lon="-2.41984">
        <ele>26.799999237061</ele>
        <time>2022-10-02T09:07:05.000Z</time>
      </trkpt>
      <trkpt lat="47.32351" lon="-2.42008">
        <ele>26.799999237061</ele>
        <time>2022-10-02T09:07:13.000Z</time>
      </trkpt>
      <trkpt lat="47.32363" lon="-2.42021">
        <ele>27.200000762939</ele>
        <time>2022-10-02T09:07:17.000Z</time>
      </trkpt>
      <trkpt lat="47.32366" lon="-2.42024">
        <ele>27.60000038147</ele>
        <time>2022-10-02T09:07:18.000Z</time>
      </trkpt>
      <trkpt lat="47.32368" lon="-2.42028">
        <ele>28</ele>
        <time>2022-10-02T09:07:19.000Z</time>
      </trkpt>
      <trkpt lat="47.32371" lon="-2.42031">
        <ele>28.39999961853</ele>
        <time>2022-10-02T09:07:20.000Z</time>
      </trkpt>
      <trkpt lat="47.32373" lon="-2.42035">
        <ele>28.799999237061</ele>
        <time>2022-10-02T09:07:21.000Z</time>
      </trkpt>
      <trkpt lat="47.32392" lon="-2.42053">
        <ele>28.799999237061</ele>
        <time>2022-10-02T09:07:27.000Z</time>
      </trkpt>
      <trkpt lat="47.32411" lon="-2.42072">
        <ele>29.799999237061</ele>
        <time>2022-10-02T09:07:33.000Z</time>
      </trkpt>
      <trkpt lat="47.32414" lon="-2.42075">
        <ele>30.200000762939</ele>
        <time>2022-10-02T09:07:34.000Z</time>
      </trkpt>
      <trkpt lat="47.32418" lon="-2.42079">
        <ele>30.60000038147</ele>
        <time>2022-10-02T09:07:35.000Z</time>
      </trkpt>
      <trkpt lat="47.3242" lon="-2.42083">
        <ele>31</ele>
        <time>2022-10-02T09:07:36.000Z</time>
      </trkpt>
      <trkpt lat="47.32434" lon="-2.42101">
        <ele>31</ele>
        <time>2022-10-02T09:07:41.000Z</time>
      </trkpt>
      <trkpt lat="47.3244" lon="-2.4212">
        <ele>31</ele>
        <time>2022-10-02T09:07:46.000Z</time>
      </trkpt>
      <trkpt lat="47.32435" lon="-2.42134">
        <ele>31</ele>
        <time>2022-10-02T09:07:49.000Z</time>
      </trkpt>
      <trkpt lat="47.32433" lon="-2.42139">
        <ele>31</ele>
        <time>2022-10-02T09:07:50.000Z</time>
      </trkpt>
      <trkpt lat="47.3243" lon="-2.42144">
        <ele>31</ele>
        <time>2022-10-02T09:07:51.000Z</time>
      </trkpt>
      <trkpt lat="47.32418" lon="-2.42162">
        <ele>31</ele>
        <time>2022-10-02T09:07:55.000Z</time>
      </trkpt>
      <trkpt lat="47.3241" lon="-2.42171">
        <ele>31</ele>
        <time>2022-10-02T09:07:57.000Z</time>
      </trkpt>
      <trkpt lat="47.32389" lon="-2.42192">
        <ele>31</ele>
        <time>2022-10-02T09:08:02.000Z</time>
      </trkpt>
      <trkpt lat="47.32376" lon="-2.42205">
        <ele>31</ele>
        <time>2022-10-02T09:08:05.000Z</time>
      </trkpt>
      <trkpt lat="47.3237" lon="-2.42216">
        <ele>31</ele>
        <time>2022-10-02T09:08:07.000Z</time>
      </trkpt>
      <trkpt lat="47.32358" lon="-2.42234">
        <ele>31</ele>
        <time>2022-10-02T09:08:11.000Z</time>
      </trkpt>
      <trkpt lat="47.32355" lon="-2.42239">
        <ele>31</ele>
        <time>2022-10-02T09:08:12.000Z</time>
      </trkpt>
      <trkpt lat="47.3233" lon="-2.42279">
        <ele>31</ele>
        <time>2022-10-02T09:08:20.000Z</time>
      </trkpt>
      <trkpt lat="47.32322" lon="-2.42297">
        <ele>31</ele>
        <time>2022-10-02T09:08:23.000Z</time>
      </trkpt>
      <trkpt lat="47.32321" lon="-2.42311">
        <ele>31</ele>
        <time>2022-10-02T09:08:25.000Z</time>
      </trkpt>
      <trkpt lat="47.32325" lon="-2.42349">
        <ele>31</ele>
        <time>2022-10-02T09:08:30.000Z</time>
      </trkpt>
      <trkpt lat="47.32326" lon="-2.42364">
        <ele>31</ele>
        <time>2022-10-02T09:08:32.000Z</time>
      </trkpt>
      <trkpt lat="47.32327" lon="-2.42395">
        <ele>30.60000038147</ele>
        <time>2022-10-02T09:08:36.000Z</time>
      </trkpt>
      <trkpt lat="47.32326" lon="-2.42402">
        <ele>30.200000762939</ele>
        <time>2022-10-02T09:08:37.000Z</time>
      </trkpt>
      <trkpt lat="47.32324" lon="-2.42409">
        <ele>29.799999237061</ele>
        <time>2022-10-02T09:08:38.000Z</time>
      </trkpt>
      <trkpt lat="47.32321" lon="-2.42416">
        <ele>29.200000762939</ele>
        <time>2022-10-02T09:08:39.000Z</time>
      </trkpt>
      <trkpt lat="47.32319" lon="-2.42422">
        <ele>28.799999237061</ele>
        <time>2022-10-02T09:08:40.000Z</time>
      </trkpt>
      <trkpt lat="47.32315" lon="-2.42428">
        <ele>28.799999237061</ele>
        <time>2022-10-02T09:08:41.000Z</time>
      </trkpt>
      <trkpt lat="47.32309" lon="-2.42439">
        <ele>28.799999237061</ele>
        <time>2022-10-02T09:08:43.000Z</time>
      </trkpt>
      <trkpt lat="47.32304" lon="-2.42451">
        <ele>28.799999237061</ele>
        <time>2022-10-02T09:08:45.000Z</time>
      </trkpt>
      <trkpt lat="47.32295" lon="-2.42474">
        <ele>28.799999237061</ele>
        <time>2022-10-02T09:08:49.000Z</time>
      </trkpt>
      <trkpt lat="47.32293" lon="-2.4248">
        <ele>28.799999237061</ele>
        <time>2022-10-02T09:08:50.000Z</time>
      </trkpt>
      <trkpt lat="47.32279" lon="-2.42511">
        <ele>28.39999961853</ele>
        <time>2022-10-02T09:08:55.000Z</time>
      </trkpt>
      <trkpt lat="47.32276" lon="-2.42518">
        <ele>28</ele>
        <time>2022-10-02T09:08:56.000Z</time>
      </trkpt>
      <trkpt lat="47.32272" lon="-2.42525">
        <ele>27.60000038147</ele>
        <time>2022-10-02T09:08:57.000Z</time>
      </trkpt>
      <trkpt lat="47.32269" lon="-2.42533">
        <ele>27</ele>
        <time>2022-10-02T09:08:58.000Z</time>
      </trkpt>
      <trkpt lat="47.32265" lon="-2.42541">
        <ele>26.60000038147</ele>
        <time>2022-10-02T09:08:59.000Z</time>
      </trkpt>
      <trkpt lat="47.3226" lon="-2.42549">
        <ele>26.200000762939</ele>
        <time>2022-10-02T09:09:00.000Z</time>
      </trkpt>
      <trkpt lat="47.32256" lon="-2.42557">
        <ele>25.799999237061</ele>
        <time>2022-10-02T09:09:01.000Z</time>
      </trkpt>
      <trkpt lat="47.32251" lon="-2.42565">
        <ele>25.39999961853</ele>
        <time>2022-10-02T09:09:02.000Z</time>
      </trkpt>
      <trkpt lat="47.32247" lon="-2.42574">
        <ele>24.799999237061</ele>
        <time>2022-10-02T09:09:03.000Z</time>
      </trkpt>
      <trkpt lat="47.32242" lon="-2.42582">
        <ele>24.39999961853</ele>
        <time>2022-10-02T09:09:04.000Z</time>
      </trkpt>
      <trkpt lat="47.32237" lon="-2.4259">
        <ele>24</ele>
        <time>2022-10-02T09:09:05.000Z</time>
      </trkpt>
      <trkpt lat="47.32232" lon="-2.42598">
        <ele>23.60000038147</ele>
        <time>2022-10-02T09:09:06.000Z</time>
      </trkpt>
      <trkpt lat="47.32227" lon="-2.42606">
        <ele>23.200000762939</ele>
        <time>2022-10-02T09:09:07.000Z</time>
      </trkpt>
      <trkpt lat="47.32222" lon="-2.42614">
        <ele>22.799999237061</ele>
        <time>2022-10-02T09:09:08.000Z</time>
      </trkpt>
      <trkpt lat="47.32217" lon="-2.42622">
        <ele>22.39999961853</ele>
        <time>2022-10-02T09:09:09.000Z</time>
      </trkpt>
      <trkpt lat="47.32212" lon="-2.42629">
        <ele>22</ele>
        <time>2022-10-02T09:09:10.000Z</time>
      </trkpt>
      <trkpt lat="47.32206" lon="-2.42637">
        <ele>21.60000038147</ele>
        <time>2022-10-02T09:09:11.000Z</time>
      </trkpt>
      <trkpt lat="47.322" lon="-2.42644">
        <ele>20.60000038147</ele>
        <time>2022-10-02T09:09:12.000Z</time>
      </trkpt>
      <trkpt lat="47.32194" lon="-2.42651">
        <ele>20.200000762939</ele>
        <time>2022-10-02T09:09:13.000Z</time>
      </trkpt>
      <trkpt lat="47.32189" lon="-2.42659">
        <ele>20.200000762939</ele>
        <time>2022-10-02T09:09:14.000Z</time>
      </trkpt>
      <trkpt lat="47.32177" lon="-2.42674">
        <ele>19.799999237061</ele>
        <time>2022-10-02T09:09:16.000Z</time>
      </trkpt>
      <trkpt lat="47.32172" lon="-2.42682">
        <ele>19.200000762939</ele>
        <time>2022-10-02T09:09:17.000Z</time>
      </trkpt>
      <trkpt lat="47.32167" lon="-2.4269">
        <ele>18.799999237061</ele>
        <time>2022-10-02T09:09:18.000Z</time>
      </trkpt>
      <trkpt lat="47.32162" lon="-2.42697">
        <ele>18.39999961853</ele>
        <time>2022-10-02T09:09:19.000Z</time>
      </trkpt>
      <trkpt lat="47.32157" lon="-2.42705">
        <ele>18</ele>
        <time>2022-10-02T09:09:20.000Z</time>
      </trkpt>
      <trkpt lat="47.32152" lon="-2.42712">
        <ele>17.39999961853</ele>
        <time>2022-10-02T09:09:21.000Z</time>
      </trkpt>
      <trkpt lat="47.32147" lon="-2.42719">
        <ele>17</ele>
        <time>2022-10-02T09:09:22.000Z</time>
      </trkpt>
      <trkpt lat="47.32142" lon="-2.42726">
        <ele>16.60000038147</ele>
        <time>2022-10-02T09:09:23.000Z</time>
      </trkpt>
      <trkpt lat="47.32137" lon="-2.42733">
        <ele>16.200000762939</ele>
        <time>2022-10-02T09:09:24.000Z</time>
      </trkpt>
      <trkpt lat="47.32132" lon="-2.42739">
        <ele>15.60000038147</ele>
        <time>2022-10-02T09:09:25.000Z</time>
      </trkpt>
      <trkpt lat="47.32114" lon="-2.42757">
        <ele>15.60000038147</ele>
        <time>2022-10-02T09:09:28.000Z</time>
      </trkpt>
      <trkpt lat="47.32108" lon="-2.42762">
        <ele>15.199999809265</ele>
        <time>2022-10-02T09:09:29.000Z</time>
      </trkpt>
      <trkpt lat="47.32102" lon="-2.42765">
        <ele>14.800000190735</ele>
        <time>2022-10-02T09:09:30.000Z</time>
      </trkpt>
      <trkpt lat="47.32096" lon="-2.42769">
        <ele>14.39999961853</ele>
        <time>2022-10-02T09:09:31.000Z</time>
      </trkpt>
      <trkpt lat="47.32089" lon="-2.42773">
        <ele>14</ele>
        <time>2022-10-02T09:09:32.000Z</time>
      </trkpt>
      <trkpt lat="47.32083" lon="-2.42776">
        <ele>13.60000038147</ele>
        <time>2022-10-02T09:09:33.000Z</time>
      </trkpt>
      <trkpt lat="47.32058" lon="-2.42789">
        <ele>12.800000190735</ele>
        <time>2022-10-02T09:09:37.000Z</time>
      </trkpt>
      <trkpt lat="47.32052" lon="-2.42793">
        <ele>12.39999961853</ele>
        <time>2022-10-02T09:09:38.000Z</time>
      </trkpt>
      <trkpt lat="47.32046" lon="-2.42797">
        <ele>12</ele>
        <time>2022-10-02T09:09:39.000Z</time>
      </trkpt>
      <trkpt lat="47.3204" lon="-2.42802">
        <ele>11.60000038147</ele>
        <time>2022-10-02T09:09:40.000Z</time>
      </trkpt>
      <trkpt lat="47.32032" lon="-2.42815">
        <ele>11.60000038147</ele>
        <time>2022-10-02T09:09:42.000Z</time>
      </trkpt>
      <trkpt lat="47.32025" lon="-2.42828">
        <ele>11.60000038147</ele>
        <time>2022-10-02T09:09:44.000Z</time>
      </trkpt>
      <trkpt lat="47.32019" lon="-2.42842">
        <ele>11.60000038147</ele>
        <time>2022-10-02T09:09:46.000Z</time>
      </trkpt>
      <trkpt lat="47.3201" lon="-2.42868">
        <ele>11.60000038147</ele>
        <time>2022-10-02T09:09:49.000Z</time>
      </trkpt>
      <trkpt lat="47.32007" lon="-2.42886">
        <ele>11.60000038147</ele>
        <time>2022-10-02T09:09:51.000Z</time>
      </trkpt>
      <trkpt lat="47.32006" lon="-2.42902">
        <ele>11.60000038147</ele>
        <time>2022-10-02T09:09:53.000Z</time>
      </trkpt>
      <trkpt lat="47.32004" lon="-2.42925">
        <ele>11.60000038147</ele>
        <time>2022-10-02T09:09:56.000Z</time>
      </trkpt>
      <trkpt lat="47.32001" lon="-2.42966">
        <ele>11.60000038147</ele>
        <time>2022-10-02T09:10:02.000Z</time>
      </trkpt>
      <trkpt lat="47.32002" lon="-2.43014">
        <ele>11.60000038147</ele>
        <time>2022-10-02T09:10:08.000Z</time>
      </trkpt>
      <trkpt lat="47.32002" lon="-2.43022">
        <ele>11.199999809265</ele>
        <time>2022-10-02T09:10:09.000Z</time>
      </trkpt>
      <trkpt lat="47.32004" lon="-2.43031">
        <ele>10.800000190735</ele>
        <time>2022-10-02T09:10:10.000Z</time>
      </trkpt>
      <trkpt lat="47.32005" lon="-2.4304">
        <ele>10.39999961853</ele>
        <time>2022-10-02T09:10:11.000Z</time>
      </trkpt>
      <trkpt lat="47.32007" lon="-2.43049">
        <ele>9.8000001907349</ele>
        <time>2022-10-02T09:10:12.000Z</time>
      </trkpt>
      <trkpt lat="47.32009" lon="-2.43057">
        <ele>9.3999996185303</ele>
        <time>2022-10-02T09:10:13.000Z</time>
      </trkpt>
      <trkpt lat="47.32011" lon="-2.43066">
        <ele>9.3999996185303</ele>
        <time>2022-10-02T09:10:14.000Z</time>
      </trkpt>
      <trkpt lat="47.32021" lon="-2.4312">
        <ele>9.3999996185303</ele>
        <time>2022-10-02T09:10:20.000Z</time>
      </trkpt>
      <trkpt lat="47.32023" lon="-2.43129">
        <ele>9</ele>
        <time>2022-10-02T09:10:21.000Z</time>
      </trkpt>
      <trkpt lat="47.32026" lon="-2.43138">
        <ele>8.6000003814697</ele>
        <time>2022-10-02T09:10:22.000Z</time>
      </trkpt>
      <trkpt lat="47.32027" lon="-2.43146">
        <ele>8.1999998092651</ele>
        <time>2022-10-02T09:10:23.000Z</time>
      </trkpt>
      <trkpt lat="47.32029" lon="-2.43155">
        <ele>7.8000001907349</ele>
        <time>2022-10-02T09:10:24.000Z</time>
      </trkpt>
      <trkpt lat="47.32031" lon="-2.43164">
        <ele>7.1999998092651</ele>
        <time>2022-10-02T09:10:25.000Z</time>
      </trkpt>
      <trkpt lat="47.32033" lon="-2.43172">
        <ele>7.1999998092651</ele>
        <time>2022-10-02T09:10:26.000Z</time>
      </trkpt>
      <trkpt lat="47.32038" lon="-2.43196">
        <ele>7.1999998092651</ele>
        <time>2022-10-02T09:10:29.000Z</time>
      </trkpt>
      <trkpt lat="47.3204" lon="-2.4321">
        <ele>7.1999998092651</ele>
        <time>2022-10-02T09:10:31.000Z</time>
      </trkpt>
      <trkpt lat="47.32041" lon="-2.43216">
        <ele>7.1999998092651</ele>
        <time>2022-10-02T09:10:32.000Z</time>
      </trkpt>
      <trkpt lat="47.32042" lon="-2.43232">
        <ele>7.1999998092651</ele>
        <time>2022-10-02T09:10:35.000Z</time>
      </trkpt>
      <trkpt lat="47.32031" lon="-2.43243">
        <ele>7.1999998092651</ele>
        <time>2022-10-02T09:10:38.000Z</time>
      </trkpt>
      <trkpt lat="47.32026" lon="-2.43247">
        <ele>6.8000001907349</ele>
        <time>2022-10-02T09:10:39.000Z</time>
      </trkpt>
      <trkpt lat="47.32022" lon="-2.43251">
        <ele>6.4000000953674</ele>
        <time>2022-10-02T09:10:40.000Z</time>
      </trkpt>
      <trkpt lat="47.32017" lon="-2.43255">
        <ele>6</ele>
        <time>2022-10-02T09:10:41.000Z</time>
      </trkpt>
      <trkpt lat="47.32012" lon="-2.43258">
        <ele>5.5999999046326</ele>
        <time>2022-10-02T09:10:42.000Z</time>
      </trkpt>
      <trkpt lat="47.32007" lon="-2.4326">
        <ele>5.1999998092651</ele>
        <time>2022-10-02T09:10:43.000Z</time>
      </trkpt>
      <trkpt lat="47.32001" lon="-2.43263">
        <ele>5.1999998092651</ele>
        <time>2022-10-02T09:10:44.000Z</time>
      </trkpt>
      <trkpt lat="47.31984" lon="-2.43274">
        <ele>4.8000001907349</ele>
        <time>2022-10-02T09:10:47.000Z</time>
      </trkpt>
      <trkpt lat="47.31978" lon="-2.43278">
        <ele>4.4000000953674</ele>
        <time>2022-10-02T09:10:48.000Z</time>
      </trkpt>
      <trkpt lat="47.31972" lon="-2.43282">
        <ele>4</ele>
        <time>2022-10-02T09:10:49.000Z</time>
      </trkpt>
      <trkpt lat="47.31966" lon="-2.43285">
        <ele>3</ele>
        <time>2022-10-02T09:10:50.000Z</time>
      </trkpt>
      <trkpt lat="47.31959" lon="-2.43288">
        <ele>3</ele>
        <time>2022-10-02T09:10:51.000Z</time>
      </trkpt>
      <trkpt lat="47.31952" lon="-2.43291">
        <ele>2.5999999046326</ele>
        <time>2022-10-02T09:10:52.000Z</time>
      </trkpt>
      <trkpt lat="47.31945" lon="-2.43295">
        <ele>2.2000000476837</ele>
        <time>2022-10-02T09:10:53.000Z</time>
      </trkpt>
      <trkpt lat="47.31938" lon="-2.43298">
        <ele>1.6000000238419</ele>
        <time>2022-10-02T09:10:54.000Z</time>
      </trkpt>
      <trkpt lat="47.3193" lon="-2.43302">
        <ele>1</ele>
        <time>2022-10-02T09:10:55.000Z</time>
      </trkpt>
      <trkpt lat="47.31921" lon="-2.43306">
        <ele>0.40000000596046</ele>
        <time>2022-10-02T09:10:56.000Z</time>
      </trkpt>
      <trkpt lat="47.31913" lon="-2.43311">
        <ele>-0.20000000298023</ele>
        <time>2022-10-02T09:10:57.000Z</time>
      </trkpt>
      <trkpt lat="47.31905" lon="-2.43316">
        <ele>-0.80000001192093</ele>
        <time>2022-10-02T09:10:58.000Z</time>
      </trkpt>
      <trkpt lat="47.31897" lon="-2.43321">
        <ele>-1.3999999761581</ele>
        <time>2022-10-02T09:10:59.000Z</time>
      </trkpt>
      <trkpt lat="47.31889" lon="-2.43326">
        <ele>-2.2000000476837</ele>
        <time>2022-10-02T09:11:00.000Z</time>
      </trkpt>
      <trkpt lat="47.31882" lon="-2.43332">
        <ele>-2.7999999523163</ele>
        <time>2022-10-02T09:11:01.000Z</time>
      </trkpt>
      <trkpt lat="47.31874" lon="-2.43337">
        <ele>-3.4000000953674</ele>
        <time>2022-10-02T09:11:02.000Z</time>
      </trkpt>
      <trkpt lat="47.31867" lon="-2.43343">
        <ele>-4</ele>
        <time>2022-10-02T09:11:03.000Z</time>
      </trkpt>
      <trkpt lat="47.31846" lon="-2.4336">
        <ele>-4.4000000953674</ele>
        <time>2022-10-02T09:11:06.000Z</time>
      </trkpt>
      <trkpt lat="47.3184" lon="-2.43366">
        <ele>-5</ele>
        <time>2022-10-02T09:11:07.000Z</time>
      </trkpt>
      <trkpt lat="47.31833" lon="-2.43371">
        <ele>-5.4000000953674</ele>
        <time>2022-10-02T09:11:08.000Z</time>
      </trkpt>
      <trkpt lat="47.31827" lon="-2.43376">
        <ele>-5.8000001907349</ele>
        <time>2022-10-02T09:11:09.000Z</time>
      </trkpt>
      <trkpt lat="47.3182" lon="-2.4338">
        <ele>-6.1999998092651</ele>
        <time>2022-10-02T09:11:10.000Z</time>
      </trkpt>
      <trkpt lat="47.31807" lon="-2.43389">
        <ele>-6.1999998092651</ele>
        <time>2022-10-02T09:11:12.000Z</time>
      </trkpt>
      <trkpt lat="47.31786" lon="-2.434">
        <ele>-6.5999999046326</ele>
        <time>2022-10-02T09:11:15.000Z</time>
      </trkpt>
      <trkpt lat="47.31779" lon="-2.43403">
        <ele>-7</ele>
        <time>2022-10-02T09:11:16.000Z</time>
      </trkpt>
      <trkpt lat="47.31772" lon="-2.43406">
        <ele>-7.4000000953674</ele>
        <time>2022-10-02T09:11:17.000Z</time>
      </trkpt>
      <trkpt lat="47.31765" lon="-2.4341">
        <ele>-7.8000001907349</ele>
        <time>2022-10-02T09:11:18.000Z</time>
      </trkpt>
      <trkpt lat="47.31758" lon="-2.43414">
        <ele>-8.1999998092651</ele>
        <time>2022-10-02T09:11:19.000Z</time>
      </trkpt>
      <trkpt lat="47.31722" lon="-2.43439">
        <ele>-8.1999998092651</ele>
        <time>2022-10-02T09:11:25.000Z</time>
      </trkpt>
      <trkpt lat="47.31717" lon="-2.43445">
        <ele>-8.1999998092651</ele>
        <time>2022-10-02T09:11:26.000Z</time>
      </trkpt>
      <trkpt lat="47.31713" lon="-2.43452">
        <ele>-8.6000003814697</ele>
        <time>2022-10-02T09:11:27.000Z</time>
      </trkpt>
      <trkpt lat="47.31709" lon="-2.4346">
        <ele>-9</ele>
        <time>2022-10-02T09:11:28.000Z</time>
      </trkpt>
      <trkpt lat="47.31705" lon="-2.43468">
        <ele>-9.3999996185303</ele>
        <time>2022-10-02T09:11:29.000Z</time>
      </trkpt>
      <trkpt lat="47.31701" lon="-2.43476">
        <ele>-9.8000001907349</ele>
        <time>2022-10-02T09:11:30.000Z</time>
      </trkpt>
      <trkpt lat="47.31698" lon="-2.43484">
        <ele>-10.199999809265</ele>
        <time>2022-10-02T09:11:31.000Z</time>
      </trkpt>
      <trkpt lat="47.31685" lon="-2.4351">
        <ele>-10.199999809265</ele>
        <time>2022-10-02T09:11:34.000Z</time>
      </trkpt>
      <trkpt lat="47.31656" lon="-2.43552">
        <ele>-10.199999809265</ele>
        <time>2022-10-02T09:11:40.000Z</time>
      </trkpt>
      <trkpt lat="47.31634" lon="-2.43576">
        <ele>-10.60000038147</ele>
        <time>2022-10-02T09:11:44.000Z</time>
      </trkpt>
      <trkpt lat="47.31629" lon="-2.43582">
        <ele>-11.199999809265</ele>
        <time>2022-10-02T09:11:45.000Z</time>
      </trkpt>
      <trkpt lat="47.31623" lon="-2.43587">
        <ele>-11.60000038147</ele>
        <time>2022-10-02T09:11:46.000Z</time>
      </trkpt>
      <trkpt lat="47.31617" lon="-2.43592">
        <ele>-12</ele>
        <time>2022-10-02T09:11:47.000Z</time>
      </trkpt>
      <trkpt lat="47.31611" lon="-2.43597">
        <ele>-12.39999961853</ele>
        <time>2022-10-02T09:11:48.000Z</time>
      </trkpt>
      <trkpt lat="47.31568" lon="-2.43628">
        <ele>-12.39999961853</ele>
        <time>2022-10-02T09:11:55.000Z</time>
      </trkpt>
      <trkpt lat="47.31528" lon="-2.4366">
        <ele>-12.39999961853</ele>
        <time>2022-10-02T09:12:02.000Z</time>
      </trkpt>
      <trkpt lat="47.31489" lon="-2.4369">
        <ele>-12.800000190735</ele>
        <time>2022-10-02T09:12:09.000Z</time>
      </trkpt>
      <trkpt lat="47.31484" lon="-2.43695">
        <ele>-13.199999809265</ele>
        <time>2022-10-02T09:12:10.000Z</time>
      </trkpt>
      <trkpt lat="47.31478" lon="-2.43699">
        <ele>-13.60000038147</ele>
        <time>2022-10-02T09:12:11.000Z</time>
      </trkpt>
      <trkpt lat="47.31472" lon="-2.43703">
        <ele>-14</ele>
        <time>2022-10-02T09:12:12.000Z</time>
      </trkpt>
      <trkpt lat="47.31466" lon="-2.43707">
        <ele>-14.39999961853</ele>
        <time>2022-10-02T09:12:13.000Z</time>
      </trkpt>
      <trkpt lat="47.31444" lon="-2.43723">
        <ele>-14.39999961853</ele>
        <time>2022-10-02T09:12:17.000Z</time>
      </trkpt>
      <trkpt lat="47.31404" lon="-2.43751">
        <ele>-14.39999961853</ele>
        <time>2022-10-02T09:12:24.000Z</time>
      </trkpt>
      <trkpt lat="47.31357" lon="-2.43789">
        <ele>-14.800000190735</ele>
        <time>2022-10-02T09:12:32.000Z</time>
      </trkpt>
      <trkpt lat="47.31351" lon="-2.43794">
        <ele>-15.199999809265</ele>
        <time>2022-10-02T09:12:33.000Z</time>
      </trkpt>
      <trkpt lat="47.31345" lon="-2.43799">
        <ele>-15.60000038147</ele>
        <time>2022-10-02T09:12:34.000Z</time>
      </trkpt>
      <trkpt lat="47.3134" lon="-2.43803">
        <ele>-16</ele>
        <time>2022-10-02T09:12:35.000Z</time>
      </trkpt>
      <trkpt lat="47.31334" lon="-2.43808">
        <ele>-16.39999961853</ele>
        <time>2022-10-02T09:12:36.000Z</time>
      </trkpt>
      <trkpt lat="47.31324" lon="-2.43816">
        <ele>-16.39999961853</ele>
        <time>2022-10-02T09:12:38.000Z</time>
      </trkpt>
      <trkpt lat="47.31309" lon="-2.43816">
        <ele>-16.39999961853</ele>
        <time>2022-10-02T09:12:41.000Z</time>
      </trkpt>
      <trkpt lat="47.31295" lon="-2.438">
        <ele>-16.39999961853</ele>
        <time>2022-10-02T09:12:44.000Z</time>
      </trkpt>
      <trkpt lat="47.31285" lon="-2.43777">
        <ele>-16.39999961853</ele>
        <time>2022-10-02T09:12:47.000Z</time>
      </trkpt>
      <trkpt lat="47.31279" lon="-2.43759">
        <ele>-16.39999961853</ele>
        <time>2022-10-02T09:12:49.000Z</time>
      </trkpt>
      <trkpt lat="47.31252" lon="-2.4369">
        <ele>-16.39999961853</ele>
        <time>2022-10-02T09:12:57.000Z</time>
      </trkpt>
      <trkpt lat="47.31239" lon="-2.43634">
        <ele>-16.39999961853</ele>
        <time>2022-10-02T09:13:03.000Z</time>
      </trkpt>
      <trkpt lat="47.31227" lon="-2.43555">
        <ele>-16.39999961853</ele>
        <time>2022-10-02T09:13:11.000Z</time>
      </trkpt>
      <trkpt lat="47.31215" lon="-2.43476">
        <ele>-16.39999961853</ele>
        <time>2022-10-02T09:13:19.000Z</time>
      </trkpt>
      <trkpt lat="47.31212" lon="-2.43457">
        <ele>-16.39999961853</ele>
        <time>2022-10-02T09:13:21.000Z</time>
      </trkpt>
      <trkpt lat="47.31203" lon="-2.43395">
        <ele>-16.39999961853</ele>
        <time>2022-10-02T09:13:28.000Z</time>
      </trkpt>
      <trkpt lat="47.3119" lon="-2.43323">
        <ele>-16.39999961853</ele>
        <time>2022-10-02T09:13:36.000Z</time>
      </trkpt>
      <trkpt lat="47.31176" lon="-2.43291">
        <ele>-16.39999961853</ele>
        <time>2022-10-02T09:13:40.000Z</time>
      </trkpt>
      <trkpt lat="47.31171" lon="-2.43283">
        <ele>-16.39999961853</ele>
        <time>2022-10-02T09:13:41.000Z</time>
      </trkpt>
      <trkpt lat="47.31136" lon="-2.43229">
        <ele>-16.39999961853</ele>
        <time>2022-10-02T09:13:49.000Z</time>
      </trkpt>
      <trkpt lat="47.31112" lon="-2.43191">
        <ele>-16.39999961853</ele>
        <time>2022-10-02T09:13:56.000Z</time>
      </trkpt>
      <trkpt lat="47.311" lon="-2.43192">
        <ele>-16.39999961853</ele>
        <time>2022-10-02T09:13:59.000Z</time>
      </trkpt>
      <trkpt lat="47.31091" lon="-2.43197">
        <ele>-16.39999961853</ele>
        <time>2022-10-02T09:14:01.000Z</time>
      </trkpt>
      <trkpt lat="47.31087" lon="-2.43201">
        <ele>-16.39999961853</ele>
        <time>2022-10-02T09:14:02.000Z</time>
      </trkpt>
      <trkpt lat="47.31083" lon="-2.43205">
        <ele>-16.39999961853</ele>
        <time>2022-10-02T09:14:03.000Z</time>
      </trkpt>
      <trkpt lat="47.31075" lon="-2.43213">
        <ele>-16.39999961853</ele>
        <time>2022-10-02T09:14:05.000Z</time>
      </trkpt>
      <trkpt lat="47.31058" lon="-2.43228">
        <ele>-16.39999961853</ele>
        <time>2022-10-02T09:14:09.000Z</time>
      </trkpt>
      <trkpt lat="47.31034" lon="-2.43259">
        <ele>-16.39999961853</ele>
        <time>2022-10-02T09:14:15.000Z</time>
      </trkpt>
      <trkpt lat="47.31006" lon="-2.43296">
        <ele>-16.39999961853</ele>
        <time>2022-10-02T09:14:22.000Z</time>
      </trkpt>
      <trkpt lat="47.31001" lon="-2.433">
        <ele>-16.39999961853</ele>
        <time>2022-10-02T09:14:23.000Z</time>
      </trkpt>
      <trkpt lat="47.30987" lon="-2.43309">
        <ele>-16.799999237061</ele>
        <time>2022-10-02T09:14:26.000Z</time>
      </trkpt>
      <trkpt lat="47.30982" lon="-2.43312">
        <ele>-17.200000762939</ele>
        <time>2022-10-02T09:14:27.000Z</time>
      </trkpt>
      <trkpt lat="47.30977" lon="-2.43314">
        <ele>-17.60000038147</ele>
        <time>2022-10-02T09:14:28.000Z</time>
      </trkpt>
      <trkpt lat="47.30972" lon="-2.43316">
        <ele>-18</ele>
        <time>2022-10-02T09:14:29.000Z</time>
      </trkpt>
      <trkpt lat="47.30967" lon="-2.43318">
        <ele>-18.39999961853</ele>
        <time>2022-10-02T09:14:30.000Z</time>
      </trkpt>
      <trkpt lat="47.30962" lon="-2.43321">
        <ele>-18.39999961853</ele>
        <time>2022-10-02T09:14:31.000Z</time>
      </trkpt>
      <trkpt lat="47.30957" lon="-2.43324">
        <ele>-18.39999961853</ele>
        <time>2022-10-02T09:14:32.000Z</time>
      </trkpt>
      <trkpt lat="47.30951" lon="-2.43325">
        <ele>-18.39999961853</ele>
        <time>2022-10-02T09:14:33.000Z</time>
      </trkpt>
      <trkpt lat="47.30931" lon="-2.43335">
        <ele>-18.39999961853</ele>
        <time>2022-10-02T09:14:38.000Z</time>
      </trkpt>
      <trkpt lat="47.30899" lon="-2.43348">
        <ele>-18.39999961853</ele>
        <time>2022-10-02T09:14:44.000Z</time>
      </trkpt>
      <trkpt lat="47.30863" lon="-2.43363">
        <ele>-18.39999961853</ele>
        <time>2022-10-02T09:14:51.000Z</time>
      </trkpt>
      <trkpt lat="47.30838" lon="-2.43373">
        <ele>-18.39999961853</ele>
        <time>2022-10-02T09:14:56.000Z</time>
      </trkpt>
      <trkpt lat="47.30833" lon="-2.43374">
        <ele>-18.39999961853</ele>
        <time>2022-10-02T09:14:57.000Z</time>
      </trkpt>
      <trkpt lat="47.308" lon="-2.43385">
        <ele>-18.39999961853</ele>
        <time>2022-10-02T09:15:03.000Z</time>
      </trkpt>
      <trkpt lat="47.30789" lon="-2.43385">
        <ele>-18.39999961853</ele>
        <time>2022-10-02T09:15:05.000Z</time>
      </trkpt>
      <trkpt lat="47.30777" lon="-2.43385">
        <ele>-18.39999961853</ele>
        <time>2022-10-02T09:15:07.000Z</time>
      </trkpt>
      <trkpt lat="47.30771" lon="-2.43385">
        <ele>-18.39999961853</ele>
        <time>2022-10-02T09:15:08.000Z</time>
      </trkpt>
      <trkpt lat="47.30716" lon="-2.43387">
        <ele>-18.39999961853</ele>
        <time>2022-10-02T09:15:17.000Z</time>
      </trkpt>
      <trkpt lat="47.3071" lon="-2.43388">
        <ele>-18.39999961853</ele>
        <time>2022-10-02T09:15:18.000Z</time>
      </trkpt>
      <trkpt lat="47.30671" lon="-2.43393">
        <ele>-18.39999961853</ele>
        <time>2022-10-02T09:15:25.000Z</time>
      </trkpt>
      <trkpt lat="47.30636" lon="-2.43402">
        <ele>-18.39999961853</ele>
        <time>2022-10-02T09:15:31.000Z</time>
      </trkpt>
      <trkpt lat="47.30596" lon="-2.43413">
        <ele>-18.39999961853</ele>
        <time>2022-10-02T09:15:38.000Z</time>
      </trkpt>
      <trkpt lat="47.30556" lon="-2.43418">
        <ele>-18.39999961853</ele>
        <time>2022-10-02T09:15:45.000Z</time>
      </trkpt>
      <trkpt lat="47.30509" lon="-2.43411">
        <ele>-18.39999961853</ele>
        <time>2022-10-02T09:15:53.000Z</time>
      </trkpt>
      <trkpt lat="47.3047" lon="-2.4341">
        <ele>-18.39999961853</ele>
        <time>2022-10-02T09:16:00.000Z</time>
      </trkpt>
      <trkpt lat="47.30454" lon="-2.43414">
        <ele>-18.39999961853</ele>
        <time>2022-10-02T09:16:03.000Z</time>
      </trkpt>
      <trkpt lat="47.30443" lon="-2.43417">
        <ele>-18.39999961853</ele>
        <time>2022-10-02T09:16:05.000Z</time>
      </trkpt>
      <trkpt lat="47.30429" lon="-2.43405">
        <ele>-18.39999961853</ele>
        <time>2022-10-02T09:16:08.000Z</time>
      </trkpt>
      <trkpt lat="47.30423" lon="-2.43382">
        <ele>-18.39999961853</ele>
        <time>2022-10-02T09:16:11.000Z</time>
      </trkpt>
      <trkpt lat="47.3042" lon="-2.43366">
        <ele>-18.39999961853</ele>
        <time>2022-10-02T09:16:13.000Z</time>
      </trkpt>
      <trkpt lat="47.30414" lon="-2.43333">
        <ele>-18.39999961853</ele>
        <time>2022-10-02T09:16:17.000Z</time>
      </trkpt>
      <trkpt lat="47.30401" lon="-2.43278">
        <ele>-18.39999961853</ele>
        <time>2022-10-02T09:16:24.000Z</time>
      </trkpt>
      <trkpt lat="47.30391" lon="-2.43249">
        <ele>-18.39999961853</ele>
        <time>2022-10-02T09:16:28.000Z</time>
      </trkpt>
      <trkpt lat="47.30383" lon="-2.43239">
        <ele>-18.39999961853</ele>
        <time>2022-10-02T09:16:30.000Z</time>
      </trkpt>
      <trkpt lat="47.30368" lon="-2.43235">
        <ele>-18.39999961853</ele>
        <time>2022-10-02T09:16:33.000Z</time>
      </trkpt>
      <trkpt lat="47.30351" lon="-2.43238">
        <ele>-18.39999961853</ele>
        <time>2022-10-02T09:16:36.000Z</time>
      </trkpt>
      <trkpt lat="47.3034" lon="-2.43241">
        <ele>-18.39999961853</ele>
        <time>2022-10-02T09:16:38.000Z</time>
      </trkpt>
      <trkpt lat="47.30301" lon="-2.4325">
        <ele>-18.39999961853</ele>
        <time>2022-10-02T09:16:45.000Z</time>
      </trkpt>
      <trkpt lat="47.30296" lon="-2.43251">
        <ele>-18.39999961853</ele>
        <time>2022-10-02T09:16:46.000Z</time>
      </trkpt>
      <trkpt lat="47.30273" lon="-2.43258">
        <ele>-18.39999961853</ele>
        <time>2022-10-02T09:16:50.000Z</time>
      </trkpt>
      <trkpt lat="47.3024" lon="-2.4327">
        <ele>-18.39999961853</ele>
        <time>2022-10-02T09:16:56.000Z</time>
      </trkpt>
      <trkpt lat="47.30206" lon="-2.43284">
        <ele>-18.39999961853</ele>
        <time>2022-10-02T09:17:02.000Z</time>
      </trkpt>
      <trkpt lat="47.3018" lon="-2.43297">
        <ele>-18.39999961853</ele>
        <time>2022-10-02T09:17:07.000Z</time>
      </trkpt>
      <trkpt lat="47.30148" lon="-2.43308">
        <ele>-18.39999961853</ele>
        <time>2022-10-02T09:17:13.000Z</time>
      </trkpt>
      <trkpt lat="47.30122" lon="-2.43316">
        <ele>-18.39999961853</ele>
        <time>2022-10-02T09:17:18.000Z</time>
      </trkpt>
      <trkpt lat="47.30111" lon="-2.43319">
        <ele>-18.39999961853</ele>
        <time>2022-10-02T09:17:20.000Z</time>
      </trkpt>
      <trkpt lat="47.30068" lon="-2.43329">
        <ele>-18.39999961853</ele>
        <time>2022-10-02T09:17:28.000Z</time>
      </trkpt>
      <trkpt lat="47.30046" lon="-2.43332">
        <ele>-18.39999961853</ele>
        <time>2022-10-02T09:17:32.000Z</time>
      </trkpt>
      <trkpt lat="47.30035" lon="-2.43332">
        <ele>-18.39999961853</ele>
        <time>2022-10-02T09:17:34.000Z</time>
      </trkpt>
      <trkpt lat="47.30025" lon="-2.43331">
        <ele>-18.39999961853</ele>
        <time>2022-10-02T09:17:36.000Z</time>
      </trkpt>
      <trkpt lat="47.3001" lon="-2.43323">
        <ele>-18.39999961853</ele>
        <time>2022-10-02T09:17:39.000Z</time>
      </trkpt>
      <trkpt lat="47.30006" lon="-2.4332">
        <ele>-18.39999961853</ele>
        <time>2022-10-02T09:17:40.000Z</time>
      </trkpt>
      <trkpt lat="47.29983" lon="-2.43301">
        <ele>-18.39999961853</ele>
        <time>2022-10-02T09:17:45.000Z</time>
      </trkpt>
      <trkpt lat="47.29978" lon="-2.43298">
        <ele>-18.39999961853</ele>
        <time>2022-10-02T09:17:46.000Z</time>
      </trkpt>
      <trkpt lat="47.29958" lon="-2.43296">
        <ele>-18.39999961853</ele>
        <time>2022-10-02T09:17:50.000Z</time>
      </trkpt>
      <trkpt lat="47.29953" lon="-2.43298">
        <ele>-18.39999961853</ele>
        <time>2022-10-02T09:17:51.000Z</time>
      </trkpt>
      <trkpt lat="47.29937" lon="-2.43302">
        <ele>-18.39999961853</ele>
        <time>2022-10-02T09:17:54.000Z</time>
      </trkpt>
      <trkpt lat="47.29928" lon="-2.43306">
        <ele>-18.39999961853</ele>
        <time>2022-10-02T09:17:56.000Z</time>
      </trkpt>
      <trkpt lat="47.29911" lon="-2.4331">
        <ele>-18.39999961853</ele>
        <time>2022-10-02T09:18:00.000Z</time>
      </trkpt>
      <trkpt lat="47.29892" lon="-2.43317">
        <ele>-18.39999961853</ele>
        <time>2022-10-02T09:18:06.000Z</time>
      </trkpt>
      <trkpt lat="47.29881" lon="-2.43312">
        <ele>-18.39999961853</ele>
        <time>2022-10-02T09:18:10.000Z</time>
      </trkpt>
      <trkpt lat="47.29872" lon="-2.43295">
        <ele>-18.39999961853</ele>
        <time>2022-10-02T09:18:14.000Z</time>
      </trkpt>
      <trkpt lat="47.29854" lon="-2.43256">
        <ele>-18.39999961853</ele>
        <time>2022-10-02T09:18:21.000Z</time>
      </trkpt>
      <trkpt lat="47.29833" lon="-2.43213">
        <ele>-18.39999961853</ele>
        <time>2022-10-02T09:18:29.000Z</time>
      </trkpt>
      <trkpt lat="47.2983" lon="-2.43209">
        <ele>-18.39999961853</ele>
        <time>2022-10-02T09:18:30.000Z</time>
      </trkpt>
      <trkpt lat="47.29812" lon="-2.43187">
        <ele>-18.39999961853</ele>
        <time>2022-10-02T09:18:35.000Z</time>
      </trkpt>
      <trkpt lat="47.29808" lon="-2.43184">
        <ele>-18.39999961853</ele>
        <time>2022-10-02T09:18:36.000Z</time>
      </trkpt>
      <trkpt lat="47.29794" lon="-2.43183">
        <ele>-18.39999961853</ele>
        <time>2022-10-02T09:18:39.000Z</time>
      </trkpt>
      <trkpt lat="47.2979" lon="-2.43185">
        <ele>-18.39999961853</ele>
        <time>2022-10-02T09:18:40.000Z</time>
      </trkpt>
      <trkpt lat="47.2976" lon="-2.43192">
        <ele>-18.39999961853</ele>
        <time>2022-10-02T09:18:46.000Z</time>
      </trkpt>
      <trkpt lat="47.29714" lon="-2.43205">
        <ele>-18.39999961853</ele>
        <time>2022-10-02T09:18:55.000Z</time>
      </trkpt>
      <trkpt lat="47.29674" lon="-2.43218">
        <ele>-18.39999961853</ele>
        <time>2022-10-02T09:19:03.000Z</time>
      </trkpt>
      <trkpt lat="47.29639" lon="-2.43229">
        <ele>-18.39999961853</ele>
        <time>2022-10-02T09:19:10.000Z</time>
      </trkpt>
      <trkpt lat="47.29602" lon="-2.43245">
        <ele>-18.39999961853</ele>
        <time>2022-10-02T09:19:18.000Z</time>
      </trkpt>
      <trkpt lat="47.29573" lon="-2.43264">
        <ele>-18.39999961853</ele>
        <time>2022-10-02T09:19:25.000Z</time>
      </trkpt>
      <trkpt lat="47.29569" lon="-2.43268">
        <ele>-18.39999961853</ele>
        <time>2022-10-02T09:19:26.000Z</time>
      </trkpt>
      <trkpt lat="47.29557" lon="-2.43287">
        <ele>-18.39999961853</ele>
        <time>2022-10-02T09:19:30.000Z</time>
      </trkpt>
      <trkpt lat="47.29551" lon="-2.43298">
        <ele>-18</ele>
        <time>2022-10-02T09:19:32.000Z</time>
      </trkpt>
      <trkpt lat="47.29548" lon="-2.43303">
        <ele>-17.60000038147</ele>
        <time>2022-10-02T09:19:33.000Z</time>
      </trkpt>
      <trkpt lat="47.29545" lon="-2.43308">
        <ele>-17.200000762939</ele>
        <time>2022-10-02T09:19:34.000Z</time>
      </trkpt>
      <trkpt lat="47.29542" lon="-2.43313">
        <ele>-16.799999237061</ele>
        <time>2022-10-02T09:19:35.000Z</time>
      </trkpt>
      <trkpt lat="47.29539" lon="-2.43318">
        <ele>-16.39999961853</ele>
        <time>2022-10-02T09:19:36.000Z</time>
      </trkpt>
      <trkpt lat="47.29534" lon="-2.43328">
        <ele>-16.39999961853</ele>
        <time>2022-10-02T09:19:38.000Z</time>
      </trkpt>
      <trkpt lat="47.29514" lon="-2.43363">
        <ele>-16.39999961853</ele>
        <time>2022-10-02T09:19:45.000Z</time>
      </trkpt>
      <trkpt lat="47.29497" lon="-2.4339">
        <ele>-16.39999961853</ele>
        <time>2022-10-02T09:19:51.000Z</time>
      </trkpt>
      <trkpt lat="47.29495" lon="-2.43396">
        <ele>-16.39999961853</ele>
        <time>2022-10-02T09:19:52.000Z</time>
      </trkpt>
      <trkpt lat="47.29485" lon="-2.43418">
        <ele>-16.39999961853</ele>
        <time>2022-10-02T09:19:56.000Z</time>
      </trkpt>
      <trkpt lat="47.29467" lon="-2.43449">
        <ele>-16.39999961853</ele>
        <time>2022-10-02T09:20:02.000Z</time>
      </trkpt>
      <trkpt lat="47.29454" lon="-2.43463">
        <ele>-16.39999961853</ele>
        <time>2022-10-02T09:20:06.000Z</time>
      </trkpt>
      <trkpt lat="47.2945" lon="-2.43461">
        <ele>-16.39999961853</ele>
        <time>2022-10-02T09:20:07.000Z</time>
      </trkpt>
      <trkpt lat="47.29447" lon="-2.43456">
        <ele>-16.799999237061</ele>
        <time>2022-10-02T09:20:08.000Z</time>
      </trkpt>
      <trkpt lat="47.29445" lon="-2.43449">
        <ele>-17.200000762939</ele>
        <time>2022-10-02T09:20:09.000Z</time>
      </trkpt>
      <trkpt lat="47.29443" lon="-2.43443">
        <ele>-17.60000038147</ele>
        <time>2022-10-02T09:20:10.000Z</time>
      </trkpt>
      <trkpt lat="47.2944" lon="-2.43439">
        <ele>-18</ele>
        <time>2022-10-02T09:20:11.000Z</time>
      </trkpt>
      <trkpt lat="47.29438" lon="-2.43433">
        <ele>-18.39999961853</ele>
        <time>2022-10-02T09:20:12.000Z</time>
      </trkpt>
      <trkpt lat="47.29437" lon="-2.43427">
        <ele>-18.39999961853</ele>
        <time>2022-10-02T09:20:13.000Z</time>
      </trkpt>
      <trkpt lat="47.29435" lon="-2.43406">
        <ele>-18.39999961853</ele>
        <time>2022-10-02T09:20:16.000Z</time>
      </trkpt>
      <trkpt lat="47.29433" lon="-2.434">
        <ele>-18.39999961853</ele>
        <time>2022-10-02T09:20:17.000Z</time>
      </trkpt>
      <trkpt lat="47.29431" lon="-2.43394">
        <ele>-18.39999961853</ele>
        <time>2022-10-02T09:20:18.000Z</time>
      </trkpt>
      <trkpt lat="47.2942" lon="-2.43386">
        <ele>-18.39999961853</ele>
        <time>2022-10-02T09:20:21.000Z</time>
      </trkpt>
      <trkpt lat="47.29416" lon="-2.43386">
        <ele>-18.39999961853</ele>
        <time>2022-10-02T09:20:22.000Z</time>
      </trkpt>
      <trkpt lat="47.29411" lon="-2.43379">
        <ele>-18.39999961853</ele>
        <time>2022-10-02T09:20:24.000Z</time>
      </trkpt>
      <trkpt lat="47.2941" lon="-2.43374">
        <ele>-18.39999961853</ele>
        <time>2022-10-02T09:20:25.000Z</time>
      </trkpt>
      <trkpt lat="47.29408" lon="-2.43358">
        <ele>-18.39999961853</ele>
        <time>2022-10-02T09:20:28.000Z</time>
      </trkpt>
      <trkpt lat="47.29404" lon="-2.43347">
        <ele>-18.39999961853</ele>
        <time>2022-10-02T09:20:30.000Z</time>
      </trkpt>
      <trkpt lat="47.2939" lon="-2.43328">
        <ele>-18.39999961853</ele>
        <time>2022-10-02T09:20:34.000Z</time>
      </trkpt>
      <trkpt lat="47.29387" lon="-2.43323">
        <ele>-18.39999961853</ele>
        <time>2022-10-02T09:20:35.000Z</time>
      </trkpt>
      <trkpt lat="47.29368" lon="-2.43299">
        <ele>-18.39999961853</ele>
        <time>2022-10-02T09:20:40.000Z</time>
      </trkpt>
      <trkpt lat="47.29365" lon="-2.43293">
        <ele>-18.39999961853</ele>
        <time>2022-10-02T09:20:41.000Z</time>
      </trkpt>
      <trkpt lat="47.29361" lon="-2.43274">
        <ele>-18.39999961853</ele>
        <time>2022-10-02T09:20:44.000Z</time>
      </trkpt>
      <trkpt lat="47.29361" lon="-2.43267">
        <ele>-18.39999961853</ele>
        <time>2022-10-02T09:20:45.000Z</time>
      </trkpt>
      <trkpt lat="47.2936" lon="-2.43255">
        <ele>-18.39999961853</ele>
        <time>2022-10-02T09:20:47.000Z</time>
      </trkpt>
      <trkpt lat="47.29363" lon="-2.43239">
        <ele>-18.39999961853</ele>
        <time>2022-10-02T09:20:50.000Z</time>
      </trkpt>
      <trkpt lat="47.29373" lon="-2.43217">
        <ele>-18.39999961853</ele>
        <time>2022-10-02T09:20:54.000Z</time>
      </trkpt>
      <trkpt lat="47.29374" lon="-2.43194">
        <ele>-18.39999961853</ele>
        <time>2022-10-02T09:20:57.000Z</time>
      </trkpt>
      <trkpt lat="47.29372" lon="-2.43178">
        <ele>-18.39999961853</ele>
        <time>2022-10-02T09:20:59.000Z</time>
      </trkpt>
      <trkpt lat="47.29367" lon="-2.43157">
        <ele>-18.39999961853</ele>
        <time>2022-10-02T09:21:02.000Z</time>
      </trkpt>
      <trkpt lat="47.29353" lon="-2.43117">
        <ele>-18.39999961853</ele>
        <time>2022-10-02T09:21:08.000Z</time>
      </trkpt>
      <trkpt lat="47.2935" lon="-2.43111">
        <ele>-18.39999961853</ele>
        <time>2022-10-02T09:21:09.000Z</time>
      </trkpt>
      <trkpt lat="47.29341" lon="-2.43094">
        <ele>-18.39999961853</ele>
        <time>2022-10-02T09:21:12.000Z</time>
      </trkpt>
      <trkpt lat="47.29337" lon="-2.43089">
        <ele>-18.39999961853</ele>
        <time>2022-10-02T09:21:13.000Z</time>
      </trkpt>
      <trkpt lat="47.29314" lon="-2.43073">
        <ele>-18.39999961853</ele>
        <time>2022-10-02T09:21:18.000Z</time>
      </trkpt>
      <trkpt lat="47.29305" lon="-2.43057">
        <ele>-18.39999961853</ele>
        <time>2022-10-02T09:21:21.000Z</time>
      </trkpt>
      <trkpt lat="47.29306" lon="-2.43034">
        <ele>-18.39999961853</ele>
        <time>2022-10-02T09:21:24.000Z</time>
      </trkpt>
      <trkpt lat="47.29307" lon="-2.43026">
        <ele>-18.39999961853</ele>
        <time>2022-10-02T09:21:25.000Z</time>
      </trkpt>
      <trkpt lat="47.29307" lon="-2.43017">
        <ele>-18.39999961853</ele>
        <time>2022-10-02T09:21:26.000Z</time>
      </trkpt>
      <trkpt lat="47.2931" lon="-2.42994">
        <ele>-18.39999961853</ele>
        <time>2022-10-02T09:21:29.000Z</time>
      </trkpt>
      <trkpt lat="47.29313" lon="-2.42971">
        <ele>-18.39999961853</ele>
        <time>2022-10-02T09:21:32.000Z</time>
      </trkpt>
      <trkpt lat="47.29312" lon="-2.42955">
        <ele>-18.39999961853</ele>
        <time>2022-10-02T09:21:34.000Z</time>
      </trkpt>
      <trkpt lat="47.29311" lon="-2.42947">
        <ele>-18.39999961853</ele>
        <time>2022-10-02T09:21:35.000Z</time>
      </trkpt>
      <trkpt lat="47.29316" lon="-2.42915">
        <ele>-18.39999961853</ele>
        <time>2022-10-02T09:21:39.000Z</time>
      </trkpt>
      <trkpt lat="47.2933" lon="-2.42863">
        <ele>-18.39999961853</ele>
        <time>2022-10-02T09:21:46.000Z</time>
      </trkpt>
      <trkpt lat="47.2935" lon="-2.42824">
        <ele>-18.39999961853</ele>
        <time>2022-10-02T09:21:52.000Z</time>
      </trkpt>
      <trkpt lat="47.29367" lon="-2.42808">
        <ele>-18.39999961853</ele>
        <time>2022-10-02T09:21:56.000Z</time>
      </trkpt>
      <trkpt lat="47.29372" lon="-2.42803">
        <ele>-18.39999961853</ele>
        <time>2022-10-02T09:21:57.000Z</time>
      </trkpt>
      <trkpt lat="47.2938" lon="-2.42783">
        <ele>-18.39999961853</ele>
        <time>2022-10-02T09:22:00.000Z</time>
      </trkpt>
      <trkpt lat="47.29383" lon="-2.42767">
        <ele>-18.39999961853</ele>
        <time>2022-10-02T09:22:02.000Z</time>
      </trkpt>
      <trkpt lat="47.29389" lon="-2.42744">
        <ele>-18.39999961853</ele>
        <time>2022-10-02T09:22:05.000Z</time>
      </trkpt>
      <trkpt lat="47.29412" lon="-2.42687">
        <ele>-18.39999961853</ele>
        <time>2022-10-02T09:22:13.000Z</time>
      </trkpt>
      <trkpt lat="47.29417" lon="-2.42674">
        <ele>-18.39999961853</ele>
        <time>2022-10-02T09:22:15.000Z</time>
      </trkpt>
      <trkpt lat="47.29418" lon="-2.42658">
        <ele>-18.39999961853</ele>
        <time>2022-10-02T09:22:17.000Z</time>
      </trkpt>
      <trkpt lat="47.29422" lon="-2.42613">
        <ele>-18.39999961853</ele>
        <time>2022-10-02T09:22:23.000Z</time>
      </trkpt>
      <trkpt lat="47.29423" lon="-2.4259">
        <ele>-18.39999961853</ele>
        <time>2022-10-02T09:22:26.000Z</time>
      </trkpt>
      <trkpt lat="47.29428" lon="-2.42578">
        <ele>-18.39999961853</ele>
        <time>2022-10-02T09:22:28.000Z</time>
      </trkpt>
      <trkpt lat="47.29439" lon="-2.42566">
        <ele>-18.39999961853</ele>
        <time>2022-10-02T09:22:31.000Z</time>
      </trkpt>
      <trkpt lat="47.29443" lon="-2.42561">
        <ele>-18.39999961853</ele>
        <time>2022-10-02T09:22:32.000Z</time>
      </trkpt>
      <trkpt lat="47.29453" lon="-2.42549">
        <ele>-18.39999961853</ele>
        <time>2022-10-02T09:22:35.000Z</time>
      </trkpt>
      <trkpt lat="47.29461" lon="-2.42543">
        <ele>-18.39999961853</ele>
        <time>2022-10-02T09:22:37.000Z</time>
      </trkpt>
      <trkpt lat="47.2948" lon="-2.42521">
        <ele>-18.39999961853</ele>
        <time>2022-10-02T09:22:42.000Z</time>
      </trkpt>
      <trkpt lat="47.29508" lon="-2.42489">
        <ele>-18.39999961853</ele>
        <time>2022-10-02T09:22:49.000Z</time>
      </trkpt>
      <trkpt lat="47.29516" lon="-2.42481">
        <ele>-18.39999961853</ele>
        <time>2022-10-02T09:22:51.000Z</time>
      </trkpt>
      <trkpt lat="47.29531" lon="-2.42471">
        <ele>-18.39999961853</ele>
        <time>2022-10-02T09:22:54.000Z</time>
      </trkpt>
      <trkpt lat="47.29546" lon="-2.42447">
        <ele>-18.39999961853</ele>
        <time>2022-10-02T09:22:58.000Z</time>
      </trkpt>
      <trkpt lat="47.29549" lon="-2.42441">
        <ele>-18.39999961853</ele>
        <time>2022-10-02T09:22:59.000Z</time>
      </trkpt>
      <trkpt lat="47.29557" lon="-2.42431">
        <ele>-18.39999961853</ele>
        <time>2022-10-02T09:23:01.000Z</time>
      </trkpt>
      <trkpt lat="47.29566" lon="-2.42425">
        <ele>-18.39999961853</ele>
        <time>2022-10-02T09:23:03.000Z</time>
      </trkpt>
      <trkpt lat="47.2957" lon="-2.42423">
        <ele>-18.39999961853</ele>
        <time>2022-10-02T09:23:04.000Z</time>
      </trkpt>
      <trkpt lat="47.29585" lon="-2.42424">
        <ele>-18.39999961853</ele>
        <time>2022-10-02T09:23:07.000Z</time>
      </trkpt>
      <trkpt lat="47.2959" lon="-2.42425">
        <ele>-18.39999961853</ele>
        <time>2022-10-02T09:23:08.000Z</time>
      </trkpt>
      <trkpt lat="47.296" lon="-2.42428">
        <ele>-18.39999961853</ele>
        <time>2022-10-02T09:23:10.000Z</time>
      </trkpt>
      <trkpt lat="47.29613" lon="-2.42434">
        <ele>-18.39999961853</ele>
        <time>2022-10-02T09:23:13.000Z</time>
      </trkpt>
      <trkpt lat="47.29623" lon="-2.42434">
        <ele>-18.39999961853</ele>
        <time>2022-10-02T09:23:17.000Z</time>
      </trkpt>
      <trkpt lat="47.29624" lon="-2.42433">
        <ele>-18.39999961853</ele>
        <time>2022-10-02T09:23:18.000Z</time>
      </trkpt>
      <trkpt lat="47.29627" lon="-2.4242">
        <ele>-18.39999961853</ele>
        <time>2022-10-02T09:23:21.000Z</time>
      </trkpt>
      <trkpt lat="47.29629" lon="-2.42414">
        <ele>-18.39999961853</ele>
        <time>2022-10-02T09:23:22.000Z</time>
      </trkpt>
      <trkpt lat="47.29633" lon="-2.42393">
        <ele>-18.39999961853</ele>
        <time>2022-10-02T09:23:25.000Z</time>
      </trkpt>
      <trkpt lat="47.29645" lon="-2.42346">
        <ele>-18.39999961853</ele>
        <time>2022-10-02T09:23:31.000Z</time>
      </trkpt>
      <trkpt lat="47.29659" lon="-2.42284">
        <ele>-18.39999961853</ele>
        <time>2022-10-02T09:23:39.000Z</time>
      </trkpt>
      <trkpt lat="47.29676" lon="-2.42222">
        <ele>-18.39999961853</ele>
        <time>2022-10-02T09:23:47.000Z</time>
      </trkpt>
      <trkpt lat="47.29697" lon="-2.42182">
        <ele>-18.39999961853</ele>
        <time>2022-10-02T09:23:53.000Z</time>
      </trkpt>
      <trkpt lat="47.29725" lon="-2.42133">
        <ele>-18.39999961853</ele>
        <time>2022-10-02T09:24:00.000Z</time>
      </trkpt>
      <trkpt lat="47.29759" lon="-2.4207">
        <ele>-18.39999961853</ele>
        <time>2022-10-02T09:24:09.000Z</time>
      </trkpt>
      <trkpt lat="47.29785" lon="-2.42021">
        <ele>-18.39999961853</ele>
        <time>2022-10-02T09:24:16.000Z</time>
      </trkpt>
      <trkpt lat="47.29787" lon="-2.42012">
        <ele>-18.39999961853</ele>
        <time>2022-10-02T09:24:17.000Z</time>
      </trkpt>
      <trkpt lat="47.29788" lon="-2.41995">
        <ele>-18.39999961853</ele>
        <time>2022-10-02T09:24:19.000Z</time>
      </trkpt>
      <trkpt lat="47.29783" lon="-2.41965">
        <ele>-18.39999961853</ele>
        <time>2022-10-02T09:24:23.000Z</time>
      </trkpt>
      <trkpt lat="47.29779" lon="-2.4195">
        <ele>-18.39999961853</ele>
        <time>2022-10-02T09:24:25.000Z</time>
      </trkpt>
      <trkpt lat="47.29772" lon="-2.41915">
        <ele>-18.39999961853</ele>
        <time>2022-10-02T09:24:30.000Z</time>
      </trkpt>
      <trkpt lat="47.29767" lon="-2.41863">
        <ele>-18.39999961853</ele>
        <time>2022-10-02T09:24:37.000Z</time>
      </trkpt>
      <trkpt lat="47.2977" lon="-2.41814">
        <ele>-18.39999961853</ele>
        <time>2022-10-02T09:24:43.000Z</time>
      </trkpt>
      <trkpt lat="47.2977" lon="-2.41768">
        <ele>-18.39999961853</ele>
        <time>2022-10-02T09:24:49.000Z</time>
      </trkpt>
      <trkpt lat="47.29769" lon="-2.4176">
        <ele>-18.39999961853</ele>
        <time>2022-10-02T09:24:50.000Z</time>
      </trkpt>
      <trkpt lat="47.29766" lon="-2.41749">
        <ele>-18.39999961853</ele>
        <time>2022-10-02T09:24:52.000Z</time>
      </trkpt>
      <trkpt lat="47.29759" lon="-2.41744">
        <ele>-18.39999961853</ele>
        <time>2022-10-02T09:24:54.000Z</time>
      </trkpt>
      <trkpt lat="47.29753" lon="-2.41746">
        <ele>-18.39999961853</ele>
        <time>2022-10-02T09:24:57.000Z</time>
      </trkpt>
      <trkpt lat="47.29753" lon="-2.41746">
        <ele>-18.39999961853</ele>
        <time>2022-10-02T09:24:58.000Z</time>
      </trkpt>
      <trkpt lat="47.29747" lon="-2.41749">
        <ele>-18.39999961853</ele>
        <time>2022-10-02T09:26:48.000Z</time>
      </trkpt>
      <trkpt lat="47.29745" lon="-2.4175">
        <ele>-18.39999961853</ele>
        <time>2022-10-02T09:26:49.000Z</time>
      </trkpt>
      <trkpt lat="47.29732" lon="-2.41763">
        <ele>-18.39999961853</ele>
        <time>2022-10-02T09:26:54.000Z</time>
      </trkpt>
      <trkpt lat="47.2972" lon="-2.41784">
        <ele>-18.39999961853</ele>
        <time>2022-10-02T09:26:59.000Z</time>
      </trkpt>
      <trkpt lat="47.29701" lon="-2.41814">
        <ele>-18.39999961853</ele>
        <time>2022-10-02T09:27:06.000Z</time>
      </trkpt>
      <trkpt lat="47.29694" lon="-2.4182">
        <ele>-18.39999961853</ele>
        <time>2022-10-02T09:27:08.000Z</time>
      </trkpt>
      <trkpt lat="47.29682" lon="-2.41822">
        <ele>-18.39999961853</ele>
        <time>2022-10-02T09:27:11.000Z</time>
      </trkpt>
      <trkpt lat="47.29678" lon="-2.41823">
        <ele>-18.39999961853</ele>
        <time>2022-10-02T09:27:12.000Z</time>
      </trkpt>
      <trkpt lat="47.29661" lon="-2.41826">
        <ele>-18.39999961853</ele>
        <time>2022-10-02T09:27:16.000Z</time>
      </trkpt>
      <trkpt lat="47.29652" lon="-2.41825">
        <ele>-18.39999961853</ele>
        <time>2022-10-02T09:27:18.000Z</time>
      </trkpt>
      <trkpt lat="47.29643" lon="-2.41813">
        <ele>-18.39999961853</ele>
        <time>2022-10-02T09:27:21.000Z</time>
      </trkpt>
      <trkpt lat="47.29639" lon="-2.41802">
        <ele>-18.39999961853</ele>
        <time>2022-10-02T09:27:23.000Z</time>
      </trkpt>
      <trkpt lat="47.29635" lon="-2.4179">
        <ele>-18.39999961853</ele>
        <time>2022-10-02T09:27:25.000Z</time>
      </trkpt>
      <trkpt lat="47.29635" lon="-2.41784">
        <ele>-18.39999961853</ele>
        <time>2022-10-02T09:27:26.000Z</time>
      </trkpt>
      <trkpt lat="47.29632" lon="-2.41771">
        <ele>-18.39999961853</ele>
        <time>2022-10-02T09:27:28.000Z</time>
      </trkpt>
      <trkpt lat="47.29625" lon="-2.4176">
        <ele>-18.39999961853</ele>
        <time>2022-10-02T09:27:30.000Z</time>
      </trkpt>
      <trkpt lat="47.29613" lon="-2.41745">
        <ele>-18.39999961853</ele>
        <time>2022-10-02T09:27:33.000Z</time>
      </trkpt>
      <trkpt lat="47.29602" lon="-2.41733">
        <ele>-18.39999961853</ele>
        <time>2022-10-02T09:27:36.000Z</time>
      </trkpt>
      <trkpt lat="47.29576" lon="-2.41713">
        <ele>-18.39999961853</ele>
        <time>2022-10-02T09:27:42.000Z</time>
      </trkpt>
      <trkpt lat="47.29568" lon="-2.41709">
        <ele>-18.39999961853</ele>
        <time>2022-10-02T09:27:44.000Z</time>
      </trkpt>
      <trkpt lat="47.29556" lon="-2.41702">
        <ele>-18.39999961853</ele>
        <time>2022-10-02T09:27:47.000Z</time>
      </trkpt>
      <trkpt lat="47.29549" lon="-2.41694">
        <ele>-18.39999961853</ele>
        <time>2022-10-02T09:27:49.000Z</time>
      </trkpt>
      <trkpt lat="47.2954" lon="-2.41672">
        <ele>-18.39999961853</ele>
        <time>2022-10-02T09:27:53.000Z</time>
      </trkpt>
      <trkpt lat="47.29538" lon="-2.41666">
        <ele>-18.39999961853</ele>
        <time>2022-10-02T09:27:54.000Z</time>
      </trkpt>
      <trkpt lat="47.29528" lon="-2.41628">
        <ele>-18.39999961853</ele>
        <time>2022-10-02T09:28:00.000Z</time>
      </trkpt>
      <trkpt lat="47.29526" lon="-2.41597">
        <ele>-18.39999961853</ele>
        <time>2022-10-02T09:28:04.000Z</time>
      </trkpt>
      <trkpt lat="47.29526" lon="-2.4159">
        <ele>-18.39999961853</ele>
        <time>2022-10-02T09:28:05.000Z</time>
      </trkpt>
      <trkpt lat="47.29534" lon="-2.41562">
        <ele>-18.39999961853</ele>
        <time>2022-10-02T09:28:09.000Z</time>
      </trkpt>
      <trkpt lat="47.29539" lon="-2.41543">
        <ele>-18.39999961853</ele>
        <time>2022-10-02T09:28:12.000Z</time>
      </trkpt>
      <trkpt lat="47.29539" lon="-2.41524">
        <ele>-18.39999961853</ele>
        <time>2022-10-02T09:28:15.000Z</time>
      </trkpt>
      <trkpt lat="47.29533" lon="-2.41506">
        <ele>-18.39999961853</ele>
        <time>2022-10-02T09:28:18.000Z</time>
      </trkpt>
      <trkpt lat="47.2953" lon="-2.415">
        <ele>-18.39999961853</ele>
        <time>2022-10-02T09:28:19.000Z</time>
      </trkpt>
      <trkpt lat="47.29526" lon="-2.41494">
        <ele>-18.39999961853</ele>
        <time>2022-10-02T09:28:20.000Z</time>
      </trkpt>
      <trkpt lat="47.29516" lon="-2.41478">
        <ele>-18.39999961853</ele>
        <time>2022-10-02T09:28:23.000Z</time>
      </trkpt>
      <trkpt lat="47.29511" lon="-2.41475">
        <ele>-18.39999961853</ele>
        <time>2022-10-02T09:28:24.000Z</time>
      </trkpt>
      <trkpt lat="47.29497" lon="-2.41479">
        <ele>-18.39999961853</ele>
        <time>2022-10-02T09:28:27.000Z</time>
      </trkpt>
      <trkpt lat="47.29475" lon="-2.41485">
        <ele>-18.39999961853</ele>
        <time>2022-10-02T09:28:32.000Z</time>
      </trkpt>
      <trkpt lat="47.29466" lon="-2.41483">
        <ele>-18.39999961853</ele>
        <time>2022-10-02T09:28:34.000Z</time>
      </trkpt>
      <trkpt lat="47.29456" lon="-2.41485">
        <ele>-18.39999961853</ele>
        <time>2022-10-02T09:28:37.000Z</time>
      </trkpt>
      <trkpt lat="47.29447" lon="-2.41487">
        <ele>-18.39999961853</ele>
        <time>2022-10-02T09:28:43.000Z</time>
      </trkpt>
      <trkpt lat="47.29433" lon="-2.41482">
        <ele>-18.39999961853</ele>
        <time>2022-10-02T09:28:48.000Z</time>
      </trkpt>
      <trkpt lat="47.29422" lon="-2.41471">
        <ele>-18.39999961853</ele>
        <time>2022-10-02T09:28:51.000Z</time>
      </trkpt>
      <trkpt lat="47.29419" lon="-2.41467">
        <ele>-18.39999961853</ele>
        <time>2022-10-02T09:28:52.000Z</time>
      </trkpt>
      <trkpt lat="47.29405" lon="-2.41449">
        <ele>-18.39999961853</ele>
        <time>2022-10-02T09:28:56.000Z</time>
      </trkpt>
      <trkpt lat="47.29396" lon="-2.41433">
        <ele>-18.39999961853</ele>
        <time>2022-10-02T09:28:59.000Z</time>
      </trkpt>
      <trkpt lat="47.29378" lon="-2.4139">
        <ele>-18.39999961853</ele>
        <time>2022-10-02T09:29:06.000Z</time>
      </trkpt>
      <trkpt lat="47.29365" lon="-2.41369">
        <ele>-18.39999961853</ele>
        <time>2022-10-02T09:29:10.000Z</time>
      </trkpt>
      <trkpt lat="47.29357" lon="-2.4136">
        <ele>-18.39999961853</ele>
        <time>2022-10-02T09:29:12.000Z</time>
      </trkpt>
      <trkpt lat="47.29354" lon="-2.41355">
        <ele>-18.39999961853</ele>
        <time>2022-10-02T09:29:13.000Z</time>
      </trkpt>
      <trkpt lat="47.29349" lon="-2.41336">
        <ele>-18.39999961853</ele>
        <time>2022-10-02T09:29:16.000Z</time>
      </trkpt>
      <trkpt lat="47.29354" lon="-2.41315">
        <ele>-18.39999961853</ele>
        <time>2022-10-02T09:29:19.000Z</time>
      </trkpt>
      <trkpt lat="47.29359" lon="-2.41303">
        <ele>-18.39999961853</ele>
        <time>2022-10-02T09:29:21.000Z</time>
      </trkpt>
      <trkpt lat="47.29361" lon="-2.41295">
        <ele>-18.39999961853</ele>
        <time>2022-10-02T09:29:22.000Z</time>
      </trkpt>
      <trkpt lat="47.2936" lon="-2.4128">
        <ele>-18.39999961853</ele>
        <time>2022-10-02T09:29:24.000Z</time>
      </trkpt>
      <trkpt lat="47.29359" lon="-2.41265">
        <ele>-18.39999961853</ele>
        <time>2022-10-02T09:29:26.000Z</time>
      </trkpt>
      <trkpt lat="47.29355" lon="-2.4125">
        <ele>-18.39999961853</ele>
        <time>2022-10-02T09:29:28.000Z</time>
      </trkpt>
      <trkpt lat="47.29351" lon="-2.41243">
        <ele>-18.39999961853</ele>
        <time>2022-10-02T09:29:29.000Z</time>
      </trkpt>
      <trkpt lat="47.29334" lon="-2.41221">
        <ele>-18.39999961853</ele>
        <time>2022-10-02T09:29:33.000Z</time>
      </trkpt>
      <trkpt lat="47.293" lon="-2.41181">
        <ele>-18.39999961853</ele>
        <time>2022-10-02T09:29:41.000Z</time>
      </trkpt>
      <trkpt lat="47.29292" lon="-2.41156">
        <ele>-18.39999961853</ele>
        <time>2022-10-02T09:29:45.000Z</time>
      </trkpt>
      <trkpt lat="47.29289" lon="-2.4115">
        <ele>-17.60000038147</ele>
        <time>2022-10-02T09:29:46.000Z</time>
      </trkpt>
      <trkpt lat="47.29286" lon="-2.41143">
        <ele>-17.200000762939</ele>
        <time>2022-10-02T09:29:47.000Z</time>
      </trkpt>
      <trkpt lat="47.29282" lon="-2.41136">
        <ele>-16.799999237061</ele>
        <time>2022-10-02T09:29:48.000Z</time>
      </trkpt>
      <trkpt lat="47.29278" lon="-2.41131">
        <ele>-16.39999961853</ele>
        <time>2022-10-02T09:29:49.000Z</time>
      </trkpt>
      <trkpt lat="47.29274" lon="-2.41125">
        <ele>-16.39999961853</ele>
        <time>2022-10-02T09:29:50.000Z</time>
      </trkpt>
      <trkpt lat="47.29252" lon="-2.41098">
        <ele>-16.39999961853</ele>
        <time>2022-10-02T09:29:56.000Z</time>
      </trkpt>
      <trkpt lat="47.29249" lon="-2.41092">
        <ele>-16.39999961853</ele>
        <time>2022-10-02T09:29:57.000Z</time>
      </trkpt>
      <trkpt lat="47.29246" lon="-2.41073">
        <ele>-16.39999961853</ele>
        <time>2022-10-02T09:30:00.000Z</time>
      </trkpt>
      <trkpt lat="47.29255" lon="-2.41056">
        <ele>-16.799999237061</ele>
        <time>2022-10-02T09:30:03.000Z</time>
      </trkpt>
      <trkpt lat="47.29257" lon="-2.41049">
        <ele>-17.200000762939</ele>
        <time>2022-10-02T09:30:04.000Z</time>
      </trkpt>
      <trkpt lat="47.29257" lon="-2.41041">
        <ele>-17.60000038147</ele>
        <time>2022-10-02T09:30:05.000Z</time>
      </trkpt>
      <trkpt lat="47.29254" lon="-2.41035">
        <ele>-18</ele>
        <time>2022-10-02T09:30:06.000Z</time>
      </trkpt>
      <trkpt lat="47.2925" lon="-2.4103">
        <ele>-18.39999961853</ele>
        <time>2022-10-02T09:30:07.000Z</time>
      </trkpt>
      <trkpt lat="47.29242" lon="-2.41021">
        <ele>-18.39999961853</ele>
        <time>2022-10-02T09:30:09.000Z</time>
      </trkpt>
      <trkpt lat="47.2923" lon="-2.41001">
        <ele>-18.39999961853</ele>
        <time>2022-10-02T09:30:13.000Z</time>
      </trkpt>
      <trkpt lat="47.29225" lon="-2.40988">
        <ele>-18.39999961853</ele>
        <time>2022-10-02T09:30:15.000Z</time>
      </trkpt>
      <trkpt lat="47.2922" lon="-2.40975">
        <ele>-18.39999961853</ele>
        <time>2022-10-02T09:30:17.000Z</time>
      </trkpt>
      <trkpt lat="47.29214" lon="-2.40962">
        <ele>-18.39999961853</ele>
        <time>2022-10-02T09:30:19.000Z</time>
      </trkpt>
      <trkpt lat="47.2921" lon="-2.40957">
        <ele>-18.39999961853</ele>
        <time>2022-10-02T09:30:20.000Z</time>
      </trkpt>
      <trkpt lat="47.29202" lon="-2.40949">
        <ele>-18.39999961853</ele>
        <time>2022-10-02T09:30:22.000Z</time>
      </trkpt>
      <trkpt lat="47.29192" lon="-2.40945">
        <ele>-18.39999961853</ele>
        <time>2022-10-02T09:30:24.000Z</time>
      </trkpt>
      <trkpt lat="47.29182" lon="-2.40942">
        <ele>-18.39999961853</ele>
        <time>2022-10-02T09:30:26.000Z</time>
      </trkpt>
      <trkpt lat="47.29168" lon="-2.40935">
        <ele>-18.39999961853</ele>
        <time>2022-10-02T09:30:29.000Z</time>
      </trkpt>
      <trkpt lat="47.29162" lon="-2.4092">
        <ele>-18.39999961853</ele>
        <time>2022-10-02T09:30:32.000Z</time>
      </trkpt>
      <trkpt lat="47.29162" lon="-2.40908">
        <ele>-18.39999961853</ele>
        <time>2022-10-02T09:30:34.000Z</time>
      </trkpt>
      <trkpt lat="47.29163" lon="-2.40901">
        <ele>-18.39999961853</ele>
        <time>2022-10-02T09:30:35.000Z</time>
      </trkpt>
      <trkpt lat="47.29166" lon="-2.40888">
        <ele>-18.39999961853</ele>
        <time>2022-10-02T09:30:37.000Z</time>
      </trkpt>
      <trkpt lat="47.29171" lon="-2.40865">
        <ele>-18.39999961853</ele>
        <time>2022-10-02T09:30:40.000Z</time>
      </trkpt>
      <trkpt lat="47.29173" lon="-2.4085">
        <ele>-18.39999961853</ele>
        <time>2022-10-02T09:30:42.000Z</time>
      </trkpt>
      <trkpt lat="47.29172" lon="-2.4082">
        <ele>-18.39999961853</ele>
        <time>2022-10-02T09:30:46.000Z</time>
      </trkpt>
      <trkpt lat="47.29173" lon="-2.40812">
        <ele>-18.39999961853</ele>
        <time>2022-10-02T09:30:47.000Z</time>
      </trkpt>
      <trkpt lat="47.2918" lon="-2.4079">
        <ele>-18.39999961853</ele>
        <time>2022-10-02T09:30:50.000Z</time>
      </trkpt>
      <trkpt lat="47.29182" lon="-2.40783">
        <ele>-18.39999961853</ele>
        <time>2022-10-02T09:30:51.000Z</time>
      </trkpt>
      <trkpt lat="47.29195" lon="-2.4075">
        <ele>-18.39999961853</ele>
        <time>2022-10-02T09:30:56.000Z</time>
      </trkpt>
      <trkpt lat="47.29198" lon="-2.40744">
        <ele>-18.39999961853</ele>
        <time>2022-10-02T09:30:57.000Z</time>
      </trkpt>
      <trkpt lat="47.29217" lon="-2.40719">
        <ele>-18.39999961853</ele>
        <time>2022-10-02T09:31:02.000Z</time>
      </trkpt>
      <trkpt lat="47.29219" lon="-2.40712">
        <ele>-18.39999961853</ele>
        <time>2022-10-02T09:31:03.000Z</time>
      </trkpt>
      <trkpt lat="47.29233" lon="-2.40681">
        <ele>-18.39999961853</ele>
        <time>2022-10-02T09:31:08.000Z</time>
      </trkpt>
      <trkpt lat="47.29231" lon="-2.40657">
        <ele>-18.39999961853</ele>
        <time>2022-10-02T09:31:11.000Z</time>
      </trkpt>
      <trkpt lat="47.29225" lon="-2.40642">
        <ele>-18.39999961853</ele>
        <time>2022-10-02T09:31:13.000Z</time>
      </trkpt>
      <trkpt lat="47.29222" lon="-2.40635">
        <ele>-18.39999961853</ele>
        <time>2022-10-02T09:31:14.000Z</time>
      </trkpt>
      <trkpt lat="47.29218" lon="-2.40627">
        <ele>-18.39999961853</ele>
        <time>2022-10-02T09:31:15.000Z</time>
      </trkpt>
      <trkpt lat="47.29213" lon="-2.40621">
        <ele>-18.39999961853</ele>
        <time>2022-10-02T09:31:16.000Z</time>
      </trkpt>
      <trkpt lat="47.29198" lon="-2.40611">
        <ele>-18.39999961853</ele>
        <time>2022-10-02T09:31:19.000Z</time>
      </trkpt>
      <trkpt lat="47.2918" lon="-2.40622">
        <ele>-18.39999961853</ele>
        <time>2022-10-02T09:31:23.000Z</time>
      </trkpt>
      <trkpt lat="47.29167" lon="-2.40631">
        <ele>-18.39999961853</ele>
        <time>2022-10-02T09:31:26.000Z</time>
      </trkpt>
      <trkpt lat="47.29156" lon="-2.40641">
        <ele>-18.39999961853</ele>
        <time>2022-10-02T09:31:29.000Z</time>
      </trkpt>
      <trkpt lat="47.29152" lon="-2.40642">
        <ele>-18.39999961853</ele>
        <time>2022-10-02T09:31:30.000Z</time>
      </trkpt>
      <trkpt lat="47.29145" lon="-2.4064">
        <ele>-18.39999961853</ele>
        <time>2022-10-02T09:31:32.000Z</time>
      </trkpt>
      <trkpt lat="47.29142" lon="-2.40628">
        <ele>-18.39999961853</ele>
        <time>2022-10-02T09:31:34.000Z</time>
      </trkpt>
      <trkpt lat="47.29141" lon="-2.40616">
        <ele>-18.39999961853</ele>
        <time>2022-10-02T09:31:36.000Z</time>
      </trkpt>
      <trkpt lat="47.2914" lon="-2.40602">
        <ele>-18.39999961853</ele>
        <time>2022-10-02T09:31:38.000Z</time>
      </trkpt>
      <trkpt lat="47.29138" lon="-2.40595">
        <ele>-18.39999961853</ele>
        <time>2022-10-02T09:31:39.000Z</time>
      </trkpt>
      <trkpt lat="47.29136" lon="-2.40589">
        <ele>-18</ele>
        <time>2022-10-02T09:31:40.000Z</time>
      </trkpt>
      <trkpt lat="47.29133" lon="-2.40583">
        <ele>-17.60000038147</ele>
        <time>2022-10-02T09:31:41.000Z</time>
      </trkpt>
      <trkpt lat="47.2913" lon="-2.40578">
        <ele>-17.200000762939</ele>
        <time>2022-10-02T09:31:42.000Z</time>
      </trkpt>
      <trkpt lat="47.29126" lon="-2.40572">
        <ele>-16.799999237061</ele>
        <time>2022-10-02T09:31:43.000Z</time>
      </trkpt>
      <trkpt lat="47.29123" lon="-2.40567">
        <ele>-16.39999961853</ele>
        <time>2022-10-02T09:31:44.000Z</time>
      </trkpt>
      <trkpt lat="47.29101" lon="-2.40542">
        <ele>-16.39999961853</ele>
        <time>2022-10-02T09:31:50.000Z</time>
      </trkpt>
      <trkpt lat="47.29101" lon="-2.40523">
        <ele>-16.39999961853</ele>
        <time>2022-10-02T09:31:53.000Z</time>
      </trkpt>
      <trkpt lat="47.29112" lon="-2.40503">
        <ele>-16.39999961853</ele>
        <time>2022-10-02T09:31:57.000Z</time>
      </trkpt>
      <trkpt lat="47.29124" lon="-2.40495">
        <ele>-16.39999961853</ele>
        <time>2022-10-02T09:32:00.000Z</time>
      </trkpt>
      <trkpt lat="47.29138" lon="-2.40488">
        <ele>-16.39999961853</ele>
        <time>2022-10-02T09:32:03.000Z</time>
      </trkpt>
      <trkpt lat="47.29147" lon="-2.40485">
        <ele>-16.39999961853</ele>
        <time>2022-10-02T09:32:05.000Z</time>
      </trkpt>
      <trkpt lat="47.29156" lon="-2.40486">
        <ele>-16.39999961853</ele>
        <time>2022-10-02T09:32:07.000Z</time>
      </trkpt>
      <trkpt lat="47.29165" lon="-2.40498">
        <ele>-16.39999961853</ele>
        <time>2022-10-02T09:32:10.000Z</time>
      </trkpt>
      <trkpt lat="47.29174" lon="-2.40517">
        <ele>-16.39999961853</ele>
        <time>2022-10-02T09:32:14.000Z</time>
      </trkpt>
      <trkpt lat="47.29186" lon="-2.40517">
        <ele>-16.39999961853</ele>
        <time>2022-10-02T09:32:17.000Z</time>
      </trkpt>
      <trkpt lat="47.2919" lon="-2.40515">
        <ele>-16.39999961853</ele>
        <time>2022-10-02T09:32:18.000Z</time>
      </trkpt>
      <trkpt lat="47.29212" lon="-2.40504">
        <ele>-16.799999237061</ele>
        <time>2022-10-02T09:32:23.000Z</time>
      </trkpt>
      <trkpt lat="47.29216" lon="-2.40501">
        <ele>-17.200000762939</ele>
        <time>2022-10-02T09:32:24.000Z</time>
      </trkpt>
      <trkpt lat="47.29221" lon="-2.40498">
        <ele>-17.60000038147</ele>
        <time>2022-10-02T09:32:25.000Z</time>
      </trkpt>
      <trkpt lat="47.29226" lon="-2.40494">
        <ele>-18</ele>
        <time>2022-10-02T09:32:26.000Z</time>
      </trkpt>
      <trkpt lat="47.29231" lon="-2.40491">
        <ele>-18.39999961853</ele>
        <time>2022-10-02T09:32:27.000Z</time>
      </trkpt>
      <trkpt lat="47.29247" lon="-2.40483">
        <ele>-18.39999961853</ele>
        <time>2022-10-02T09:32:30.000Z</time>
      </trkpt>
      <trkpt lat="47.29277" lon="-2.4047">
        <ele>-18.39999961853</ele>
        <time>2022-10-02T09:32:36.000Z</time>
      </trkpt>
      <trkpt lat="47.29282" lon="-2.40468">
        <ele>-18.39999961853</ele>
        <time>2022-10-02T09:32:37.000Z</time>
      </trkpt>
      <trkpt lat="47.29294" lon="-2.40454">
        <ele>-18.39999961853</ele>
        <time>2022-10-02T09:32:40.000Z</time>
      </trkpt>
      <trkpt lat="47.29299" lon="-2.4044">
        <ele>-18.39999961853</ele>
        <time>2022-10-02T09:32:42.000Z</time>
      </trkpt>
      <trkpt lat="47.29308" lon="-2.40412">
        <ele>-18.39999961853</ele>
        <time>2022-10-02T09:32:46.000Z</time>
      </trkpt>
      <trkpt lat="47.29305" lon="-2.40391">
        <ele>-18.39999961853</ele>
        <time>2022-10-02T09:32:49.000Z</time>
      </trkpt>
      <trkpt lat="47.29295" lon="-2.40372">
        <ele>-18.39999961853</ele>
        <time>2022-10-02T09:32:52.000Z</time>
      </trkpt>
      <trkpt lat="47.29289" lon="-2.4036">
        <ele>-18.39999961853</ele>
        <time>2022-10-02T09:32:54.000Z</time>
      </trkpt>
      <trkpt lat="47.29289" lon="-2.40339">
        <ele>-18.39999961853</ele>
        <time>2022-10-02T09:32:57.000Z</time>
      </trkpt>
      <trkpt lat="47.293" lon="-2.40326">
        <ele>-18.39999961853</ele>
        <time>2022-10-02T09:33:00.000Z</time>
      </trkpt>
      <trkpt lat="47.29326" lon="-2.40298">
        <ele>-18.39999961853</ele>
        <time>2022-10-02T09:33:06.000Z</time>
      </trkpt>
      <trkpt lat="47.29338" lon="-2.40283">
        <ele>-18.39999961853</ele>
        <time>2022-10-02T09:33:09.000Z</time>
      </trkpt>
      <trkpt lat="47.29348" lon="-2.40275">
        <ele>-18.39999961853</ele>
        <time>2022-10-02T09:33:11.000Z</time>
      </trkpt>
      <trkpt lat="47.29362" lon="-2.40262">
        <ele>-18.39999961853</ele>
        <time>2022-10-02T09:33:14.000Z</time>
      </trkpt>
      <trkpt lat="47.29374" lon="-2.40249">
        <ele>-18.39999961853</ele>
        <time>2022-10-02T09:33:17.000Z</time>
      </trkpt>
      <trkpt lat="47.29396" lon="-2.40234">
        <ele>-18.39999961853</ele>
        <time>2022-10-02T09:33:22.000Z</time>
      </trkpt>
      <trkpt lat="47.29427" lon="-2.40217">
        <ele>-18.39999961853</ele>
        <time>2022-10-02T09:33:29.000Z</time>
      </trkpt>
      <trkpt lat="47.29435" lon="-2.40217">
        <ele>-18.39999961853</ele>
        <time>2022-10-02T09:33:31.000Z</time>
      </trkpt>
      <trkpt lat="47.29443" lon="-2.40215">
        <ele>-18.39999961853</ele>
        <time>2022-10-02T09:33:33.000Z</time>
      </trkpt>
      <trkpt lat="47.2945" lon="-2.40197">
        <ele>-18.39999961853</ele>
        <time>2022-10-02T09:33:36.000Z</time>
      </trkpt>
      <trkpt lat="47.29453" lon="-2.40175">
        <ele>-18.39999961853</ele>
        <time>2022-10-02T09:33:39.000Z</time>
      </trkpt>
      <trkpt lat="47.29454" lon="-2.40168">
        <ele>-18.39999961853</ele>
        <time>2022-10-02T09:33:40.000Z</time>
      </trkpt>
      <trkpt lat="47.29455" lon="-2.40161">
        <ele>-18.39999961853</ele>
        <time>2022-10-02T09:33:41.000Z</time>
      </trkpt>
      <trkpt lat="47.29457" lon="-2.40148">
        <ele>-18.39999961853</ele>
        <time>2022-10-02T09:33:43.000Z</time>
      </trkpt>
      <trkpt lat="47.29457" lon="-2.40125">
        <ele>-18.39999961853</ele>
        <time>2022-10-02T09:33:46.000Z</time>
      </trkpt>
      <trkpt lat="47.29463" lon="-2.40079">
        <ele>-18.39999961853</ele>
        <time>2022-10-02T09:33:52.000Z</time>
      </trkpt>
      <trkpt lat="47.29464" lon="-2.40053">
        <ele>-18.39999961853</ele>
        <time>2022-10-02T09:33:55.000Z</time>
      </trkpt>
      <trkpt lat="47.29463" lon="-2.40028">
        <ele>-18.39999961853</ele>
        <time>2022-10-02T09:33:58.000Z</time>
      </trkpt>
      <trkpt lat="47.29463" lon="-2.39995">
        <ele>-18.39999961853</ele>
        <time>2022-10-02T09:34:02.000Z</time>
      </trkpt>
      <trkpt lat="47.29465" lon="-2.3998">
        <ele>-18.39999961853</ele>
        <time>2022-10-02T09:34:04.000Z</time>
      </trkpt>
      <trkpt lat="47.2947" lon="-2.39961">
        <ele>-18.39999961853</ele>
        <time>2022-10-02T09:34:07.000Z</time>
      </trkpt>
      <trkpt lat="47.29474" lon="-2.3995">
        <ele>-18.39999961853</ele>
        <time>2022-10-02T09:34:09.000Z</time>
      </trkpt>
      <trkpt lat="47.29484" lon="-2.39924">
        <ele>-18.39999961853</ele>
        <time>2022-10-02T09:34:15.000Z</time>
      </trkpt>
      <trkpt lat="47.29486" lon="-2.39914">
        <ele>-18.39999961853</ele>
        <time>2022-10-02T09:34:20.000Z</time>
      </trkpt>
      <trkpt lat="47.29487" lon="-2.39912">
        <ele>-18.39999961853</ele>
        <time>2022-10-02T09:34:28.000Z</time>
      </trkpt>
      <trkpt lat="47.29491" lon="-2.39907">
        <ele>-18.39999961853</ele>
        <time>2022-10-02T09:34:31.000Z</time>
      </trkpt>
      <trkpt lat="47.29503" lon="-2.39891">
        <ele>-18.39999961853</ele>
        <time>2022-10-02T09:34:36.000Z</time>
      </trkpt>
      <trkpt lat="47.29519" lon="-2.39862">
        <ele>-18.39999961853</ele>
        <time>2022-10-02T09:34:42.000Z</time>
      </trkpt>
      <trkpt lat="47.29533" lon="-2.39832">
        <ele>-18.39999961853</ele>
        <time>2022-10-02T09:34:48.000Z</time>
      </trkpt>
      <trkpt lat="47.29552" lon="-2.39795">
        <ele>-18.39999961853</ele>
        <time>2022-10-02T09:34:54.000Z</time>
      </trkpt>
      <trkpt lat="47.29568" lon="-2.39757">
        <ele>-18.39999961853</ele>
        <time>2022-10-02T09:35:00.000Z</time>
      </trkpt>
      <trkpt lat="47.29571" lon="-2.39751">
        <ele>-18.39999961853</ele>
        <time>2022-10-02T09:35:01.000Z</time>
      </trkpt>
      <trkpt lat="47.29597" lon="-2.39704">
        <ele>-18.39999961853</ele>
        <time>2022-10-02T09:35:09.000Z</time>
      </trkpt>
      <trkpt lat="47.2961" lon="-2.39681">
        <ele>-18.39999961853</ele>
        <time>2022-10-02T09:35:13.000Z</time>
      </trkpt>
      <trkpt lat="47.2962" lon="-2.39664">
        <ele>-18.39999961853</ele>
        <time>2022-10-02T09:35:16.000Z</time>
      </trkpt>
      <trkpt lat="47.29622" lon="-2.39657">
        <ele>-18.39999961853</ele>
        <time>2022-10-02T09:35:17.000Z</time>
      </trkpt>
      <trkpt lat="47.29627" lon="-2.39644">
        <ele>-18.39999961853</ele>
        <time>2022-10-02T09:35:19.000Z</time>
      </trkpt>
      <trkpt lat="47.29629" lon="-2.39622">
        <ele>-18.39999961853</ele>
        <time>2022-10-02T09:35:22.000Z</time>
      </trkpt>
      <trkpt lat="47.29631" lon="-2.39583">
        <ele>-18.39999961853</ele>
        <time>2022-10-02T09:35:28.000Z</time>
      </trkpt>
      <trkpt lat="47.29623" lon="-2.39573">
        <ele>-18.39999961853</ele>
        <time>2022-10-02T09:35:31.000Z</time>
      </trkpt>
      <trkpt lat="47.2962" lon="-2.39574">
        <ele>-18</ele>
        <time>2022-10-02T09:35:32.000Z</time>
      </trkpt>
      <trkpt lat="47.29616" lon="-2.39574">
        <ele>-17.60000038147</ele>
        <time>2022-10-02T09:35:33.000Z</time>
      </trkpt>
      <trkpt lat="47.29613" lon="-2.39574">
        <ele>-17.200000762939</ele>
        <time>2022-10-02T09:35:34.000Z</time>
      </trkpt>
      <trkpt lat="47.29612" lon="-2.39571">
        <ele>-16.799999237061</ele>
        <time>2022-10-02T09:35:35.000Z</time>
      </trkpt>
      <trkpt lat="47.29613" lon="-2.39568">
        <ele>-16.39999961853</ele>
        <time>2022-10-02T09:35:36.000Z</time>
      </trkpt>
      <trkpt lat="47.29617" lon="-2.39564">
        <ele>-16</ele>
        <time>2022-10-02T09:35:38.000Z</time>
      </trkpt>
      <trkpt lat="47.29621" lon="-2.39563">
        <ele>-15.60000038147</ele>
        <time>2022-10-02T09:35:39.000Z</time>
      </trkpt>
      <trkpt lat="47.29623" lon="-2.39561">
        <ele>-15.199999809265</ele>
        <time>2022-10-02T09:35:40.000Z</time>
      </trkpt>
      <trkpt lat="47.29625" lon="-2.39558">
        <ele>-14.60000038147</ele>
        <time>2022-10-02T09:35:41.000Z</time>
      </trkpt>
      <trkpt lat="47.29626" lon="-2.39555">
        <ele>-14.199999809265</ele>
        <time>2022-10-02T09:35:42.000Z</time>
      </trkpt>
      <trkpt lat="47.29619" lon="-2.39552">
        <ele>-14.199999809265</ele>
        <time>2022-10-02T09:35:45.000Z</time>
      </trkpt>
      <trkpt lat="47.2961" lon="-2.39552">
        <ele>-13.800000190735</ele>
        <time>2022-10-02T09:35:48.000Z</time>
      </trkpt>
      <trkpt lat="47.29606" lon="-2.39551">
        <ele>-13.39999961853</ele>
        <time>2022-10-02T09:35:49.000Z</time>
      </trkpt>
      <trkpt lat="47.29604" lon="-2.39551">
        <ele>-13</ele>
        <time>2022-10-02T09:35:50.000Z</time>
      </trkpt>
      <trkpt lat="47.29601" lon="-2.3955">
        <ele>-12.60000038147</ele>
        <time>2022-10-02T09:35:51.000Z</time>
      </trkpt>
      <trkpt lat="47.29599" lon="-2.3955">
        <ele>-12.199999809265</ele>
        <time>2022-10-02T09:35:52.000Z</time>
      </trkpt>
      <trkpt lat="47.29594" lon="-2.39549">
        <ele>-11.60000038147</ele>
        <time>2022-10-02T09:35:54.000Z</time>
      </trkpt>
      <trkpt lat="47.29591" lon="-2.39548">
        <ele>-10.800000190735</ele>
        <time>2022-10-02T09:35:55.000Z</time>
      </trkpt>
      <trkpt lat="47.29589" lon="-2.39548">
        <ele>-10.39999961853</ele>
        <time>2022-10-02T09:35:56.000Z</time>
      </trkpt>
      <trkpt lat="47.29586" lon="-2.39547">
        <ele>-10</ele>
        <time>2022-10-02T09:35:57.000Z</time>
      </trkpt>
      <trkpt lat="47.29584" lon="-2.39547">
        <ele>-10</ele>
        <time>2022-10-02T09:35:58.000Z</time>
      </trkpt>
      <trkpt lat="47.29564" lon="-2.39543">
        <ele>-10</ele>
        <time>2022-10-02T09:36:03.000Z</time>
      </trkpt>
      <trkpt lat="47.2956" lon="-2.39542">
        <ele>-10.39999961853</ele>
        <time>2022-10-02T09:36:04.000Z</time>
      </trkpt>
      <trkpt lat="47.29557" lon="-2.3954">
        <ele>-11</ele>
        <time>2022-10-02T09:36:05.000Z</time>
      </trkpt>
      <trkpt lat="47.29556" lon="-2.39537">
        <ele>-11.39999961853</ele>
        <time>2022-10-02T09:36:06.000Z</time>
      </trkpt>
      <trkpt lat="47.29556" lon="-2.39532">
        <ele>-11.800000190735</ele>
        <time>2022-10-02T09:36:07.000Z</time>
      </trkpt>
      <trkpt lat="47.29557" lon="-2.39527">
        <ele>-12.199999809265</ele>
        <time>2022-10-02T09:36:08.000Z</time>
      </trkpt>
      <trkpt lat="47.29556" lon="-2.39523">
        <ele>-12.199999809265</ele>
        <time>2022-10-02T09:36:09.000Z</time>
      </trkpt>
      <trkpt lat="47.29555" lon="-2.39512">
        <ele>-12.60000038147</ele>
        <time>2022-10-02T09:36:11.000Z</time>
      </trkpt>
      <trkpt lat="47.29555" lon="-2.39506">
        <ele>-13</ele>
        <time>2022-10-02T09:36:12.000Z</time>
      </trkpt>
      <trkpt lat="47.29556" lon="-2.39501">
        <ele>-13.39999961853</ele>
        <time>2022-10-02T09:36:13.000Z</time>
      </trkpt>
      <trkpt lat="47.29558" lon="-2.39495">
        <ele>-14</ele>
        <time>2022-10-02T09:36:14.000Z</time>
      </trkpt>
      <trkpt lat="47.29561" lon="-2.39492">
        <ele>-14.39999961853</ele>
        <time>2022-10-02T09:36:15.000Z</time>
      </trkpt>
      <trkpt lat="47.29565" lon="-2.3949">
        <ele>-15</ele>
        <time>2022-10-02T09:36:16.000Z</time>
      </trkpt>
      <trkpt lat="47.29569" lon="-2.39492">
        <ele>-15.39999961853</ele>
        <time>2022-10-02T09:36:17.000Z</time>
      </trkpt>
      <trkpt lat="47.29573" lon="-2.39494">
        <ele>-16</ele>
        <time>2022-10-02T09:36:18.000Z</time>
      </trkpt>
      <trkpt lat="47.29577" lon="-2.39496">
        <ele>-16.60000038147</ele>
        <time>2022-10-02T09:36:19.000Z</time>
      </trkpt>
      <trkpt lat="47.29581" lon="-2.39497">
        <ele>-16.60000038147</ele>
        <time>2022-10-02T09:36:20.000Z</time>
      </trkpt>
      <trkpt lat="47.29594" lon="-2.39492">
        <ele>-16.60000038147</ele>
        <time>2022-10-02T09:36:23.000Z</time>
      </trkpt>
      <trkpt lat="47.29604" lon="-2.39478">
        <ele>-16.60000038147</ele>
        <time>2022-10-02T09:36:26.000Z</time>
      </trkpt>
      <trkpt lat="47.29607" lon="-2.39473">
        <ele>-16.60000038147</ele>
        <time>2022-10-02T09:36:27.000Z</time>
      </trkpt>
      <trkpt lat="47.29629" lon="-2.39433">
        <ele>-16.60000038147</ele>
        <time>2022-10-02T09:36:35.000Z</time>
      </trkpt>
      <trkpt lat="47.29632" lon="-2.3941">
        <ele>-16.60000038147</ele>
        <time>2022-10-02T09:36:39.000Z</time>
      </trkpt>
      <trkpt lat="47.29633" lon="-2.39398">
        <ele>-16.60000038147</ele>
        <time>2022-10-02T09:36:41.000Z</time>
      </trkpt>
      <trkpt lat="47.29637" lon="-2.39388">
        <ele>-16.60000038147</ele>
        <time>2022-10-02T09:36:43.000Z</time>
      </trkpt>
      <trkpt lat="47.29641" lon="-2.39366">
        <ele>-16.60000038147</ele>
        <time>2022-10-02T09:36:47.000Z</time>
      </trkpt>
      <trkpt lat="47.29645" lon="-2.39314">
        <ele>-16.60000038147</ele>
        <time>2022-10-02T09:36:55.000Z</time>
      </trkpt>
      <trkpt lat="47.2965" lon="-2.39262">
        <ele>-16.60000038147</ele>
        <time>2022-10-02T09:37:03.000Z</time>
      </trkpt>
      <trkpt lat="47.29657" lon="-2.39225">
        <ele>-16.60000038147</ele>
        <time>2022-10-02T09:37:09.000Z</time>
      </trkpt>
      <trkpt lat="47.29663" lon="-2.392">
        <ele>-16.60000038147</ele>
        <time>2022-10-02T09:37:15.000Z</time>
      </trkpt>
      <trkpt lat="47.29664" lon="-2.3919">
        <ele>-16.60000038147</ele>
        <time>2022-10-02T09:37:18.000Z</time>
      </trkpt>
      <trkpt lat="47.29663" lon="-2.39187">
        <ele>-16.60000038147</ele>
        <time>2022-10-02T09:37:19.000Z</time>
      </trkpt>
      <trkpt lat="47.29651" lon="-2.39185">
        <ele>-16.60000038147</ele>
        <time>2022-10-02T09:37:23.000Z</time>
      </trkpt>
      <trkpt lat="47.29639" lon="-2.39172">
        <ele>-16.60000038147</ele>
        <time>2022-10-02T09:37:27.000Z</time>
      </trkpt>
      <trkpt lat="47.29631" lon="-2.39146">
        <ele>-16.60000038147</ele>
        <time>2022-10-02T09:37:32.000Z</time>
      </trkpt>
      <trkpt lat="47.29627" lon="-2.39119">
        <ele>-16.60000038147</ele>
        <time>2022-10-02T09:37:37.000Z</time>
      </trkpt>
      <trkpt lat="47.29626" lon="-2.39107">
        <ele>-16.60000038147</ele>
        <time>2022-10-02T09:37:39.000Z</time>
      </trkpt>
      <trkpt lat="47.29624" lon="-2.39062">
        <ele>-16.60000038147</ele>
        <time>2022-10-02T09:37:46.000Z</time>
      </trkpt>
      <trkpt lat="47.29623" lon="-2.3903">
        <ele>-16.60000038147</ele>
        <time>2022-10-02T09:37:51.000Z</time>
      </trkpt>
      <trkpt lat="47.29621" lon="-2.39024">
        <ele>-16.60000038147</ele>
        <time>2022-10-02T09:37:52.000Z</time>
      </trkpt>
      <trkpt lat="47.29616" lon="-2.39015">
        <ele>-16.200000762939</ele>
        <time>2022-10-02T09:37:54.000Z</time>
      </trkpt>
      <trkpt lat="47.29611" lon="-2.39012">
        <ele>-15.60000038147</ele>
        <time>2022-10-02T09:37:55.000Z</time>
      </trkpt>
      <trkpt lat="47.29607" lon="-2.39009">
        <ele>-15.199999809265</ele>
        <time>2022-10-02T09:37:56.000Z</time>
      </trkpt>
      <trkpt lat="47.29603" lon="-2.39007">
        <ele>-14.800000190735</ele>
        <time>2022-10-02T09:37:57.000Z</time>
      </trkpt>
      <trkpt lat="47.29599" lon="-2.39005">
        <ele>-14.39999961853</ele>
        <time>2022-10-02T09:37:58.000Z</time>
      </trkpt>
      <trkpt lat="47.29585" lon="-2.39">
        <ele>-14.39999961853</ele>
        <time>2022-10-02T09:38:01.000Z</time>
      </trkpt>
      <trkpt lat="47.29544" lon="-2.38977">
        <ele>-14.39999961853</ele>
        <time>2022-10-02T09:38:10.000Z</time>
      </trkpt>
      <trkpt lat="47.29509" lon="-2.38945">
        <ele>-14.39999961853</ele>
        <time>2022-10-02T09:38:18.000Z</time>
      </trkpt>
      <trkpt lat="47.29505" lon="-2.38941">
        <ele>-14.39999961853</ele>
        <time>2022-10-02T09:38:19.000Z</time>
      </trkpt>
      <trkpt lat="47.29493" lon="-2.38917">
        <ele>-14.39999961853</ele>
        <time>2022-10-02T09:38:23.000Z</time>
      </trkpt>
      <trkpt lat="47.29491" lon="-2.3891">
        <ele>-14.39999961853</ele>
        <time>2022-10-02T09:38:24.000Z</time>
      </trkpt>
      <trkpt lat="47.29477" lon="-2.38866">
        <ele>-14.39999961853</ele>
        <time>2022-10-02T09:38:31.000Z</time>
      </trkpt>
      <trkpt lat="47.29471" lon="-2.38847">
        <ele>-14.39999961853</ele>
        <time>2022-10-02T09:38:34.000Z</time>
      </trkpt>
      <trkpt lat="47.2947" lon="-2.38833">
        <ele>-14.39999961853</ele>
        <time>2022-10-02T09:38:36.000Z</time>
      </trkpt>
      <trkpt lat="47.2947" lon="-2.38787">
        <ele>-14.39999961853</ele>
        <time>2022-10-02T09:38:42.000Z</time>
      </trkpt>
      <trkpt lat="47.2947" lon="-2.38733">
        <ele>-14.39999961853</ele>
        <time>2022-10-02T09:38:49.000Z</time>
      </trkpt>
      <trkpt lat="47.29465" lon="-2.38686">
        <ele>-14.39999961853</ele>
        <time>2022-10-02T09:38:55.000Z</time>
      </trkpt>
      <trkpt lat="47.29458" lon="-2.38655">
        <ele>-14.39999961853</ele>
        <time>2022-10-02T09:38:59.000Z</time>
      </trkpt>
      <trkpt lat="47.29458" lon="-2.38648">
        <ele>-14.39999961853</ele>
        <time>2022-10-02T09:39:00.000Z</time>
      </trkpt>
      <trkpt lat="47.29461" lon="-2.38625">
        <ele>-14.39999961853</ele>
        <time>2022-10-02T09:39:03.000Z</time>
      </trkpt>
      <trkpt lat="47.29461" lon="-2.38616">
        <ele>-14.39999961853</ele>
        <time>2022-10-02T09:39:04.000Z</time>
      </trkpt>
      <trkpt lat="47.29459" lon="-2.38534">
        <ele>-14.39999961853</ele>
        <time>2022-10-02T09:39:14.000Z</time>
      </trkpt>
      <trkpt lat="47.29459" lon="-2.38491">
        <ele>-14.800000190735</ele>
        <time>2022-10-02T09:39:19.000Z</time>
      </trkpt>
      <trkpt lat="47.29458" lon="-2.38482">
        <ele>-15.199999809265</ele>
        <time>2022-10-02T09:39:20.000Z</time>
      </trkpt>
      <trkpt lat="47.29458" lon="-2.38474">
        <ele>-15.60000038147</ele>
        <time>2022-10-02T09:39:21.000Z</time>
      </trkpt>
      <trkpt lat="47.29458" lon="-2.38465">
        <ele>-16</ele>
        <time>2022-10-02T09:39:22.000Z</time>
      </trkpt>
      <trkpt lat="47.29457" lon="-2.38457">
        <ele>-16.39999961853</ele>
        <time>2022-10-02T09:39:23.000Z</time>
      </trkpt>
      <trkpt lat="47.29453" lon="-2.38375">
        <ele>-16.39999961853</ele>
        <time>2022-10-02T09:39:33.000Z</time>
      </trkpt>
      <trkpt lat="47.29454" lon="-2.38323">
        <ele>-16.39999961853</ele>
        <time>2022-10-02T09:39:40.000Z</time>
      </trkpt>
      <trkpt lat="47.29456" lon="-2.38278">
        <ele>-16.39999961853</ele>
        <time>2022-10-02T09:39:47.000Z</time>
      </trkpt>
      <trkpt lat="47.29453" lon="-2.38229">
        <ele>-16.39999961853</ele>
        <time>2022-10-02T09:39:54.000Z</time>
      </trkpt>
      <trkpt lat="47.29445" lon="-2.38166">
        <ele>-16.39999961853</ele>
        <time>2022-10-02T09:40:02.000Z</time>
      </trkpt>
      <trkpt lat="47.29438" lon="-2.38132">
        <ele>-16.39999961853</ele>
        <time>2022-10-02T09:40:06.000Z</time>
      </trkpt>
      <trkpt lat="47.29436" lon="-2.38124">
        <ele>-16.39999961853</ele>
        <time>2022-10-02T09:40:07.000Z</time>
      </trkpt>
      <trkpt lat="47.29414" lon="-2.38063">
        <ele>-16.39999961853</ele>
        <time>2022-10-02T09:40:15.000Z</time>
      </trkpt>
      <trkpt lat="47.29399" lon="-2.3802">
        <ele>-16.39999961853</ele>
        <time>2022-10-02T09:40:21.000Z</time>
      </trkpt>
      <trkpt lat="47.29386" lon="-2.37979">
        <ele>-16.39999961853</ele>
        <time>2022-10-02T09:40:27.000Z</time>
      </trkpt>
      <trkpt lat="47.29369" lon="-2.37933">
        <ele>-16.39999961853</ele>
        <time>2022-10-02T09:40:34.000Z</time>
      </trkpt>
      <trkpt lat="47.2936" lon="-2.37908">
        <ele>-16</ele>
        <time>2022-10-02T09:40:38.000Z</time>
      </trkpt>
      <trkpt lat="47.29357" lon="-2.37902">
        <ele>-15.60000038147</ele>
        <time>2022-10-02T09:40:39.000Z</time>
      </trkpt>
      <trkpt lat="47.29355" lon="-2.37896">
        <ele>-15.199999809265</ele>
        <time>2022-10-02T09:40:40.000Z</time>
      </trkpt>
      <trkpt lat="47.29353" lon="-2.37889">
        <ele>-14.800000190735</ele>
        <time>2022-10-02T09:40:41.000Z</time>
      </trkpt>
      <trkpt lat="47.29351" lon="-2.37882">
        <ele>-14.39999961853</ele>
        <time>2022-10-02T09:40:42.000Z</time>
      </trkpt>
      <trkpt lat="47.29339" lon="-2.37842">
        <ele>-14.39999961853</ele>
        <time>2022-10-02T09:40:48.000Z</time>
      </trkpt>
      <trkpt lat="47.29336" lon="-2.37815">
        <ele>-14</ele>
        <time>2022-10-02T09:40:52.000Z</time>
      </trkpt>
      <trkpt lat="47.29335" lon="-2.37808">
        <ele>-13.60000038147</ele>
        <time>2022-10-02T09:40:53.000Z</time>
      </trkpt>
      <trkpt lat="47.29335" lon="-2.37801">
        <ele>-13.199999809265</ele>
        <time>2022-10-02T09:40:54.000Z</time>
      </trkpt>
      <trkpt lat="47.29334" lon="-2.37795">
        <ele>-12.60000038147</ele>
        <time>2022-10-02T09:40:55.000Z</time>
      </trkpt>
      <trkpt lat="47.29334" lon="-2.37788">
        <ele>-12.199999809265</ele>
        <time>2022-10-02T09:40:56.000Z</time>
      </trkpt>
      <trkpt lat="47.29333" lon="-2.37764">
        <ele>-12.199999809265</ele>
        <time>2022-10-02T09:41:00.000Z</time>
      </trkpt>
      <trkpt lat="47.29332" lon="-2.37753">
        <ele>-11.800000190735</ele>
        <time>2022-10-02T09:41:02.000Z</time>
      </trkpt>
      <trkpt lat="47.29332" lon="-2.37747">
        <ele>-11.39999961853</ele>
        <time>2022-10-02T09:41:03.000Z</time>
      </trkpt>
      <trkpt lat="47.29332" lon="-2.37741">
        <ele>-11</ele>
        <time>2022-10-02T09:41:04.000Z</time>
      </trkpt>
      <trkpt lat="47.29332" lon="-2.37735">
        <ele>-10.60000038147</ele>
        <time>2022-10-02T09:41:05.000Z</time>
      </trkpt>
      <trkpt lat="47.29332" lon="-2.3773">
        <ele>-10.199999809265</ele>
        <time>2022-10-02T09:41:06.000Z</time>
      </trkpt>
      <trkpt lat="47.29332" lon="-2.37714">
        <ele>-9.8000001907349</ele>
        <time>2022-10-02T09:41:09.000Z</time>
      </trkpt>
      <trkpt lat="47.29331" lon="-2.37709">
        <ele>-9.3999996185303</ele>
        <time>2022-10-02T09:41:10.000Z</time>
      </trkpt>
      <trkpt lat="47.29331" lon="-2.37704">
        <ele>-9</ele>
        <time>2022-10-02T09:41:11.000Z</time>
      </trkpt>
      <trkpt lat="47.29331" lon="-2.37699">
        <ele>-8.6000003814697</ele>
        <time>2022-10-02T09:41:12.000Z</time>
      </trkpt>
      <trkpt lat="47.29331" lon="-2.37694">
        <ele>-8.1999998092651</ele>
        <time>2022-10-02T09:41:13.000Z</time>
      </trkpt>
      <trkpt lat="47.29331" lon="-2.3769">
        <ele>-8.1999998092651</ele>
        <time>2022-10-02T09:41:14.000Z</time>
      </trkpt>
      <trkpt lat="47.29331" lon="-2.37675">
        <ele>-7.8000001907349</ele>
        <time>2022-10-02T09:41:17.000Z</time>
      </trkpt>
      <trkpt lat="47.29331" lon="-2.3767">
        <ele>-7.1999998092651</ele>
        <time>2022-10-02T09:41:18.000Z</time>
      </trkpt>
      <trkpt lat="47.29331" lon="-2.37665">
        <ele>-6.8000001907349</ele>
        <time>2022-10-02T09:41:19.000Z</time>
      </trkpt>
      <trkpt lat="47.2933" lon="-2.37661">
        <ele>-6.4000000953674</ele>
        <time>2022-10-02T09:41:20.000Z</time>
      </trkpt>
      <trkpt lat="47.2933" lon="-2.37656">
        <ele>-6</ele>
        <time>2022-10-02T09:41:21.000Z</time>
      </trkpt>
      <trkpt lat="47.29323" lon="-2.37631">
        <ele>-6</ele>
        <time>2022-10-02T09:41:26.000Z</time>
      </trkpt>
      <trkpt lat="47.2931" lon="-2.37602">
        <ele>-6</ele>
        <time>2022-10-02T09:41:32.000Z</time>
      </trkpt>
      <trkpt lat="47.29307" lon="-2.37598">
        <ele>-6</ele>
        <time>2022-10-02T09:41:33.000Z</time>
      </trkpt>
      <trkpt lat="47.29287" lon="-2.37563">
        <ele>-6</ele>
        <time>2022-10-02T09:41:40.000Z</time>
      </trkpt>
      <trkpt lat="47.2928" lon="-2.37552">
        <ele>-6</ele>
        <time>2022-10-02T09:41:42.000Z</time>
      </trkpt>
      <trkpt lat="47.29268" lon="-2.37529">
        <ele>-6</ele>
        <time>2022-10-02T09:41:46.000Z</time>
      </trkpt>
      <trkpt lat="47.29246" lon="-2.37498">
        <ele>-6</ele>
        <time>2022-10-02T09:41:53.000Z</time>
      </trkpt>
      <trkpt lat="47.29232" lon="-2.37474">
        <ele>-5.5999999046326</ele>
        <time>2022-10-02T09:41:58.000Z</time>
      </trkpt>
      <trkpt lat="47.29229" lon="-2.37469">
        <ele>-5.1999998092651</ele>
        <time>2022-10-02T09:41:59.000Z</time>
      </trkpt>
      <trkpt lat="47.29225" lon="-2.37465">
        <ele>-4.8000001907349</ele>
        <time>2022-10-02T09:42:00.000Z</time>
      </trkpt>
      <trkpt lat="47.29222" lon="-2.3746">
        <ele>-4.4000000953674</ele>
        <time>2022-10-02T09:42:01.000Z</time>
      </trkpt>
      <trkpt lat="47.29219" lon="-2.37455">
        <ele>-4</ele>
        <time>2022-10-02T09:42:02.000Z</time>
      </trkpt>
      <trkpt lat="47.292" lon="-2.37425">
        <ele>-4</ele>
        <time>2022-10-02T09:42:09.000Z</time>
      </trkpt>
      <trkpt lat="47.29191" lon="-2.37411">
        <ele>-3.5999999046326</ele>
        <time>2022-10-02T09:42:12.000Z</time>
      </trkpt>
      <trkpt lat="47.29188" lon="-2.37407">
        <ele>-3</ele>
        <time>2022-10-02T09:42:13.000Z</time>
      </trkpt>
      <trkpt lat="47.29186" lon="-2.37402">
        <ele>-2.5999999046326</ele>
        <time>2022-10-02T09:42:14.000Z</time>
      </trkpt>
      <trkpt lat="47.29183" lon="-2.37397">
        <ele>-2.2000000476837</ele>
        <time>2022-10-02T09:42:15.000Z</time>
      </trkpt>
      <trkpt lat="47.2918" lon="-2.37392">
        <ele>-1.7999999523163</ele>
        <time>2022-10-02T09:42:16.000Z</time>
      </trkpt>
      <trkpt lat="47.29174" lon="-2.37383">
        <ele>-1.7999999523163</ele>
        <time>2022-10-02T09:42:18.000Z</time>
      </trkpt>
      <trkpt lat="47.29155" lon="-2.37344">
        <ele>-1.7999999523163</ele>
        <time>2022-10-02T09:42:25.000Z</time>
      </trkpt>
      <trkpt lat="47.29146" lon="-2.37322">
        <ele>-1.3999999761581</ele>
        <time>2022-10-02T09:42:29.000Z</time>
      </trkpt>
      <trkpt lat="47.29143" lon="-2.37317">
        <ele>-1</ele>
        <time>2022-10-02T09:42:30.000Z</time>
      </trkpt>
      <trkpt lat="47.2914" lon="-2.37313">
        <ele>-0.60000002384186</ele>
        <time>2022-10-02T09:42:31.000Z</time>
      </trkpt>
      <trkpt lat="47.29136" lon="-2.37309">
        <ele>-0.20000000298023</ele>
        <time>2022-10-02T09:42:32.000Z</time>
      </trkpt>
      <trkpt lat="47.29132" lon="-2.37304">
        <ele>0.20000000298023</ele>
        <time>2022-10-02T09:42:33.000Z</time>
      </trkpt>
      <trkpt lat="47.29113" lon="-2.37284">
        <ele>0.20000000298023</ele>
        <time>2022-10-02T09:42:38.000Z</time>
      </trkpt>
      <trkpt lat="47.29073" lon="-2.37243">
        <ele>0.20000000298023</ele>
        <time>2022-10-02T09:42:48.000Z</time>
      </trkpt>
      <trkpt lat="47.29057" lon="-2.37225">
        <ele>0.20000000298023</ele>
        <time>2022-10-02T09:42:52.000Z</time>
      </trkpt>
      <trkpt lat="47.29048" lon="-2.37217">
        <ele>0.20000000298023</ele>
        <time>2022-10-02T09:42:54.000Z</time>
      </trkpt>
      <trkpt lat="47.29043" lon="-2.37213">
        <ele>-0.20000000298023</ele>
        <time>2022-10-02T09:42:55.000Z</time>
      </trkpt>
      <trkpt lat="47.29039" lon="-2.37209">
        <ele>-0.60000002384186</ele>
        <time>2022-10-02T09:42:56.000Z</time>
      </trkpt>
      <trkpt lat="47.29034" lon="-2.37204">
        <ele>-1</ele>
        <time>2022-10-02T09:42:57.000Z</time>
      </trkpt>
      <trkpt lat="47.29029" lon="-2.37199">
        <ele>-1.3999999761581</ele>
        <time>2022-10-02T09:42:58.000Z</time>
      </trkpt>
      <trkpt lat="47.29024" lon="-2.37194">
        <ele>-1.7999999523163</ele>
        <time>2022-10-02T09:42:59.000Z</time>
      </trkpt>
      <trkpt lat="47.29015" lon="-2.37183">
        <ele>-1.7999999523163</ele>
        <time>2022-10-02T09:43:01.000Z</time>
      </trkpt>
      <trkpt lat="47.29011" lon="-2.37179">
        <ele>-1.7999999523163</ele>
        <time>2022-10-02T09:43:02.000Z</time>
      </trkpt>
      <trkpt lat="47.29008" lon="-2.37176">
        <ele>-2.4000000953674</ele>
        <time>2022-10-02T09:43:03.000Z</time>
      </trkpt>
      <trkpt lat="47.29004" lon="-2.37173">
        <ele>-2.7999999523163</ele>
        <time>2022-10-02T09:43:04.000Z</time>
      </trkpt>
      <trkpt lat="47.29" lon="-2.37172">
        <ele>-3.2000000476837</ele>
        <time>2022-10-02T09:43:05.000Z</time>
      </trkpt>
      <trkpt lat="47.28996" lon="-2.37173">
        <ele>-3.7999999523163</ele>
        <time>2022-10-02T09:43:06.000Z</time>
      </trkpt>
      <trkpt lat="47.28992" lon="-2.37175">
        <ele>-4.1999998092651</ele>
        <time>2022-10-02T09:43:07.000Z</time>
      </trkpt>
      <trkpt lat="47.28988" lon="-2.37177">
        <ele>-4.5999999046326</ele>
        <time>2022-10-02T09:43:08.000Z</time>
      </trkpt>
      <trkpt lat="47.28986" lon="-2.37179">
        <ele>-5</ele>
        <time>2022-10-02T09:43:09.000Z</time>
      </trkpt>
      <trkpt lat="47.28983" lon="-2.37181">
        <ele>-5.4000000953674</ele>
        <time>2022-10-02T09:43:10.000Z</time>
      </trkpt>
      <trkpt lat="47.28982" lon="-2.37182">
        <ele>-5.8000001907349</ele>
        <time>2022-10-02T09:43:11.000Z</time>
      </trkpt>
      <trkpt lat="47.2898" lon="-2.37183">
        <ele>-6.1999998092651</ele>
        <time>2022-10-02T09:43:12.000Z</time>
      </trkpt>
      <trkpt lat="47.28978" lon="-2.37184">
        <ele>-6.1999998092651</ele>
        <time>2022-10-02T09:43:14.000Z</time>
      </trkpt>
      <trkpt lat="47.28979" lon="-2.37184">
        <ele>-6.1999998092651</ele>
        <time>2022-10-02T09:43:15.000Z</time>
      </trkpt>
      <trkpt lat="47.28976" lon="-2.37186">
        <ele>-6.1999998092651</ele>
        <time>2022-10-02T09:43:32.000Z</time>
      </trkpt>
      <trkpt lat="47.28972" lon="-2.3719">
        <ele>-6.1999998092651</ele>
        <time>2022-10-02T09:43:34.000Z</time>
      </trkpt>
      <trkpt lat="47.28962" lon="-2.37197">
        <ele>-6.1999998092651</ele>
        <time>2022-10-02T09:43:37.000Z</time>
      </trkpt>
      <trkpt lat="47.28958" lon="-2.37199">
        <ele>-6.1999998092651</ele>
        <time>2022-10-02T09:43:38.000Z</time>
      </trkpt>
      <trkpt lat="47.28953" lon="-2.372">
        <ele>-6.8000001907349</ele>
        <time>2022-10-02T09:43:39.000Z</time>
      </trkpt>
      <trkpt lat="47.28948" lon="-2.37202">
        <ele>-7.1999998092651</ele>
        <time>2022-10-02T09:43:40.000Z</time>
      </trkpt>
      <trkpt lat="47.28943" lon="-2.37204">
        <ele>-7.5999999046326</ele>
        <time>2022-10-02T09:43:41.000Z</time>
      </trkpt>
      <trkpt lat="47.28937" lon="-2.37206">
        <ele>-8</ele>
        <time>2022-10-02T09:43:42.000Z</time>
      </trkpt>
      <trkpt lat="47.28931" lon="-2.37209">
        <ele>-8.6000003814697</ele>
        <time>2022-10-02T09:43:43.000Z</time>
      </trkpt>
      <trkpt lat="47.28926" lon="-2.37211">
        <ele>-9</ele>
        <time>2022-10-02T09:43:44.000Z</time>
      </trkpt>
      <trkpt lat="47.28919" lon="-2.37214">
        <ele>-9.3999996185303</ele>
        <time>2022-10-02T09:43:45.000Z</time>
      </trkpt>
      <trkpt lat="47.28913" lon="-2.37217">
        <ele>-9.8000001907349</ele>
        <time>2022-10-02T09:43:46.000Z</time>
      </trkpt>
      <trkpt lat="47.28906" lon="-2.37219">
        <ele>-10.199999809265</ele>
        <time>2022-10-02T09:43:47.000Z</time>
      </trkpt>
      <trkpt lat="47.289" lon="-2.37222">
        <ele>-10.60000038147</ele>
        <time>2022-10-02T09:43:48.000Z</time>
      </trkpt>
      <trkpt lat="47.28893" lon="-2.37225">
        <ele>-10.60000038147</ele>
        <time>2022-10-02T09:43:49.000Z</time>
      </trkpt>
      <trkpt lat="47.28868" lon="-2.37235">
        <ele>-11</ele>
        <time>2022-10-02T09:43:53.000Z</time>
      </trkpt>
      <trkpt lat="47.28864" lon="-2.37238">
        <ele>-11.39999961853</ele>
        <time>2022-10-02T09:43:54.000Z</time>
      </trkpt>
      <trkpt lat="47.28859" lon="-2.37239">
        <ele>-11.800000190735</ele>
        <time>2022-10-02T09:43:55.000Z</time>
      </trkpt>
      <trkpt lat="47.28855" lon="-2.37241">
        <ele>-12.199999809265</ele>
        <time>2022-10-02T09:43:56.000Z</time>
      </trkpt>
      <trkpt lat="47.2885" lon="-2.37241">
        <ele>-12.60000038147</ele>
        <time>2022-10-02T09:43:57.000Z</time>
      </trkpt>
      <trkpt lat="47.28844" lon="-2.37234">
        <ele>-12.60000038147</ele>
        <time>2022-10-02T09:43:59.000Z</time>
      </trkpt>
      <trkpt lat="47.28838" lon="-2.37217">
        <ele>-12.60000038147</ele>
        <time>2022-10-02T09:44:03.000Z</time>
      </trkpt>
      <trkpt lat="47.28837" lon="-2.37202">
        <ele>-12.60000038147</ele>
        <time>2022-10-02T09:44:06.000Z</time>
      </trkpt>
      <trkpt lat="47.28835" lon="-2.37191">
        <ele>-12.60000038147</ele>
        <time>2022-10-02T09:44:08.000Z</time>
      </trkpt>
      <trkpt lat="47.28827" lon="-2.3715">
        <ele>-12.60000038147</ele>
        <time>2022-10-02T09:44:15.000Z</time>
      </trkpt>
      <trkpt lat="47.28826" lon="-2.3712">
        <ele>-12.60000038147</ele>
        <time>2022-10-02T09:44:20.000Z</time>
      </trkpt>
      <trkpt lat="47.28826" lon="-2.37109">
        <ele>-12.60000038147</ele>
        <time>2022-10-02T09:44:24.000Z</time>
      </trkpt>
      <trkpt lat="47.28824" lon="-2.37111">
        <ele>-12.199999809265</ele>
        <time>2022-10-02T09:44:27.000Z</time>
      </trkpt>
      <trkpt lat="47.28824" lon="-2.37112">
        <ele>-11.800000190735</ele>
        <time>2022-10-02T09:44:28.000Z</time>
      </trkpt>
      <trkpt lat="47.28823" lon="-2.37113">
        <ele>-11.39999961853</ele>
        <time>2022-10-02T09:44:29.000Z</time>
      </trkpt>
      <trkpt lat="47.28822" lon="-2.37114">
        <ele>-11</ele>
        <time>2022-10-02T09:44:30.000Z</time>
      </trkpt>
      <trkpt lat="47.28821" lon="-2.37115">
        <ele>-10.60000038147</ele>
        <time>2022-10-02T09:44:31.000Z</time>
      </trkpt>
      <trkpt lat="47.28818" lon="-2.37116">
        <ele>-10.199999809265</ele>
        <time>2022-10-02T09:44:33.000Z</time>
      </trkpt>
      <trkpt lat="47.28817" lon="-2.37116">
        <ele>-9.8000001907349</ele>
        <time>2022-10-02T09:44:34.000Z</time>
      </trkpt>
      <trkpt lat="47.28815" lon="-2.37116">
        <ele>-9.3999996185303</ele>
        <time>2022-10-02T09:44:35.000Z</time>
      </trkpt>
      <trkpt lat="47.28813" lon="-2.37117">
        <ele>-9</ele>
        <time>2022-10-02T09:44:36.000Z</time>
      </trkpt>
      <trkpt lat="47.28811" lon="-2.37117">
        <ele>-8.3999996185303</ele>
        <time>2022-10-02T09:44:37.000Z</time>
      </trkpt>
      <trkpt lat="47.28807" lon="-2.37117">
        <ele>-8.3999996185303</ele>
        <time>2022-10-02T09:44:39.000Z</time>
      </trkpt>
      <trkpt lat="47.28806" lon="-2.37117">
        <ele>-8</ele>
        <time>2022-10-02T09:44:40.000Z</time>
      </trkpt>
      <trkpt lat="47.28804" lon="-2.37117">
        <ele>-7.5999999046326</ele>
        <time>2022-10-02T09:44:41.000Z</time>
      </trkpt>
      <trkpt lat="47.28803" lon="-2.37115">
        <ele>-7.1999998092651</ele>
        <time>2022-10-02T09:44:42.000Z</time>
      </trkpt>
      <trkpt lat="47.28802" lon="-2.37113">
        <ele>-6.8000001907349</ele>
        <time>2022-10-02T09:44:43.000Z</time>
      </trkpt>
      <trkpt lat="47.288" lon="-2.37109">
        <ele>-6.1999998092651</ele>
        <time>2022-10-02T09:44:44.000Z</time>
      </trkpt>
      <trkpt lat="47.28799" lon="-2.37106">
        <ele>-6.1999998092651</ele>
        <time>2022-10-02T09:44:45.000Z</time>
      </trkpt>
      <trkpt lat="47.28794" lon="-2.3709">
        <ele>-6.1999998092651</ele>
        <time>2022-10-02T09:44:50.000Z</time>
      </trkpt>
      <trkpt lat="47.28792" lon="-2.37082">
        <ele>-5.8000001907349</ele>
        <time>2022-10-02T09:44:53.000Z</time>
      </trkpt>
      <trkpt lat="47.28792" lon="-2.37079">
        <ele>-5.4000000953674</ele>
        <time>2022-10-02T09:44:54.000Z</time>
      </trkpt>
      <trkpt lat="47.28791" lon="-2.37074">
        <ele>-5</ele>
        <time>2022-10-02T09:44:55.000Z</time>
      </trkpt>
      <trkpt lat="47.2879" lon="-2.37069">
        <ele>-4.4000000953674</ele>
        <time>2022-10-02T09:44:56.000Z</time>
      </trkpt>
      <trkpt lat="47.28788" lon="-2.37065">
        <ele>-4</ele>
        <time>2022-10-02T09:44:57.000Z</time>
      </trkpt>
      <trkpt lat="47.28784" lon="-2.3705">
        <ele>-3.5999999046326</ele>
        <time>2022-10-02T09:45:01.000Z</time>
      </trkpt>
      <trkpt lat="47.28783" lon="-2.37047">
        <ele>-3.2000000476837</ele>
        <time>2022-10-02T09:45:02.000Z</time>
      </trkpt>
      <trkpt lat="47.28783" lon="-2.37044">
        <ele>-2.7999999523163</ele>
        <time>2022-10-02T09:45:03.000Z</time>
      </trkpt>
      <trkpt lat="47.28782" lon="-2.37041">
        <ele>-2.4000000953674</ele>
        <time>2022-10-02T09:45:04.000Z</time>
      </trkpt>
      <trkpt lat="47.28781" lon="-2.37039">
        <ele>-2</ele>
        <time>2022-10-02T09:45:05.000Z</time>
      </trkpt>
      <trkpt lat="47.28779" lon="-2.3703">
        <ele>-2</ele>
        <time>2022-10-02T09:45:08.000Z</time>
      </trkpt>
      <trkpt lat="47.28778" lon="-2.37024">
        <ele>-2</ele>
        <time>2022-10-02T09:45:10.000Z</time>
      </trkpt>
      <trkpt lat="47.28775" lon="-2.37014">
        <ele>-2</ele>
        <time>2022-10-02T09:45:13.000Z</time>
      </trkpt>
      <trkpt lat="47.28769" lon="-2.37004">
        <ele>-1.6000000238419</ele>
        <time>2022-10-02T09:45:17.000Z</time>
      </trkpt>
      <trkpt lat="47.28768" lon="-2.37002">
        <ele>-1.2000000476837</ele>
        <time>2022-10-02T09:45:18.000Z</time>
      </trkpt>
      <trkpt lat="47.28766" lon="-2.37">
        <ele>-0.80000001192093</ele>
        <time>2022-10-02T09:45:19.000Z</time>
      </trkpt>
      <trkpt lat="47.28764" lon="-2.36998">
        <ele>-0.40000000596046</ele>
        <time>2022-10-02T09:45:20.000Z</time>
      </trkpt>
      <trkpt lat="47.28761" lon="-2.36994">
        <ele>19.9</ele>
        <time>2022-10-02T09:45:21.000Z</time>
      </trkpt>
      <trkpt lat="47.28757" lon="-2.36984">
        <ele>20.2</ele>
        <time>2022-10-02T09:45:24.000Z</time>
      </trkpt>
      <trkpt lat="47.28756" lon="-2.36977">
        <ele>20.2</ele>
        <time>2022-10-02T09:45:26.000Z</time>
      </trkpt>
      <trkpt lat="47.28755" lon="-2.36969">
        <ele>19.9</ele>
        <time>2022-10-02T09:45:28.000Z</time>
      </trkpt>
      <trkpt lat="47.28754" lon="-2.36965">
        <ele>-0.40000000596046</ele>
        <time>2022-10-02T09:45:29.000Z</time>
      </trkpt>
      <trkpt lat="47.28752" lon="-2.36961">
        <ele>-0.80000001192093</ele>
        <time>2022-10-02T09:45:30.000Z</time>
      </trkpt>
      <trkpt lat="47.2875" lon="-2.36958">
        <ele>-1.2000000476837</ele>
        <time>2022-10-02T09:45:31.000Z</time>
      </trkpt>
      <trkpt lat="47.28747" lon="-2.36954">
        <ele>-1.6000000238419</ele>
        <time>2022-10-02T09:45:32.000Z</time>
      </trkpt>
      <trkpt lat="47.28743" lon="-2.36949">
        <ele>-2.2000000476837</ele>
        <time>2022-10-02T09:45:33.000Z</time>
      </trkpt>
      <trkpt lat="47.28738" lon="-2.36945">
        <ele>-2.7999999523163</ele>
        <time>2022-10-02T09:45:34.000Z</time>
      </trkpt>
      <trkpt lat="47.28733" lon="-2.36941">
        <ele>-3.4000000953674</ele>
        <time>2022-10-02T09:45:35.000Z</time>
      </trkpt>
      <trkpt lat="47.28729" lon="-2.36937">
        <ele>-3.7999999523163</ele>
        <time>2022-10-02T09:45:36.000Z</time>
      </trkpt>
      <trkpt lat="47.28726" lon="-2.36934">
        <ele>-4.4000000953674</ele>
        <time>2022-10-02T09:45:37.000Z</time>
      </trkpt>
      <trkpt lat="47.28718" lon="-2.36922">
        <ele>-4.4000000953674</ele>
        <time>2022-10-02T09:45:40.000Z</time>
      </trkpt>
      <trkpt lat="47.28717" lon="-2.36918">
        <ele>-4.4000000953674</ele>
        <time>2022-10-02T09:45:41.000Z</time>
      </trkpt>
      <trkpt lat="47.28714" lon="-2.3691">
        <ele>-4.4000000953674</ele>
        <time>2022-10-02T09:45:44.000Z</time>
      </trkpt>
      <trkpt lat="47.28713" lon="-2.36906">
        <ele>-4.4000000953674</ele>
        <time>2022-10-02T09:45:45.000Z</time>
      </trkpt>
      <trkpt lat="47.28709" lon="-2.36897">
        <ele>-4</ele>
        <time>2022-10-02T09:45:47.000Z</time>
      </trkpt>
      <trkpt lat="47.28707" lon="-2.36893">
        <ele>-3.5999999046326</ele>
        <time>2022-10-02T09:45:48.000Z</time>
      </trkpt>
      <trkpt lat="47.28705" lon="-2.36887">
        <ele>-3.2000000476837</ele>
        <time>2022-10-02T09:45:49.000Z</time>
      </trkpt>
      <trkpt lat="47.28703" lon="-2.36881">
        <ele>-2.7999999523163</ele>
        <time>2022-10-02T09:45:50.000Z</time>
      </trkpt>
      <trkpt lat="47.28701" lon="-2.36877">
        <ele>-2.4000000953674</ele>
        <time>2022-10-02T09:45:51.000Z</time>
      </trkpt>
      <trkpt lat="47.28692" lon="-2.36856">
        <ele>-2.4000000953674</ele>
        <time>2022-10-02T09:45:56.000Z</time>
      </trkpt>
      <trkpt lat="47.2868" lon="-2.36828">
        <ele>-2.4000000953674</ele>
        <time>2022-10-02T09:46:02.000Z</time>
      </trkpt>
      <trkpt lat="47.28675" lon="-2.36816">
        <ele>-2</ele>
        <time>2022-10-02T09:46:05.000Z</time>
      </trkpt>
      <trkpt lat="47.28673" lon="-2.36812">
        <ele>-1.6000000238419</ele>
        <time>2022-10-02T09:46:06.000Z</time>
      </trkpt>
      <trkpt lat="47.28671" lon="-2.36808">
        <ele>-1.2000000476837</ele>
        <time>2022-10-02T09:46:07.000Z</time>
      </trkpt>
      <trkpt lat="47.2867" lon="-2.36805">
        <ele>-0.80000001192093</ele>
        <time>2022-10-02T09:46:08.000Z</time>
      </trkpt>
      <trkpt lat="47.28668" lon="-2.368">
        <ele>-0.40000000596046</ele>
        <time>2022-10-02T09:46:09.000Z</time>
      </trkpt>
      <trkpt lat="47.28658" lon="-2.36793">
        <ele>-0.40000000596046</ele>
        <time>2022-10-02T09:46:12.000Z</time>
      </trkpt>
      <trkpt lat="47.28652" lon="-2.36795">
        <ele>-0.40000000596046</ele>
        <time>2022-10-02T09:46:14.000Z</time>
      </trkpt>
      <trkpt lat="47.28648" lon="-2.36798">
        <ele>-0.40000000596046</ele>
        <time>2022-10-02T09:46:15.000Z</time>
      </trkpt>
      <trkpt lat="47.28639" lon="-2.36812">
        <ele>-0.40000000596046</ele>
        <time>2022-10-02T09:46:18.000Z</time>
      </trkpt>
      <trkpt lat="47.28627" lon="-2.36824">
        <ele>-0.40000000596046</ele>
        <time>2022-10-02T09:46:21.000Z</time>
      </trkpt>
      <trkpt lat="47.28605" lon="-2.36844">
        <ele>-0.80000001192093</ele>
        <time>2022-10-02T09:46:26.000Z</time>
      </trkpt>
      <trkpt lat="47.286" lon="-2.36844">
        <ele>-1.2000000476837</ele>
        <time>2022-10-02T09:46:27.000Z</time>
      </trkpt>
      <trkpt lat="47.28595" lon="-2.36842">
        <ele>-1.6000000238419</ele>
        <time>2022-10-02T09:46:28.000Z</time>
      </trkpt>
      <trkpt lat="47.28591" lon="-2.36837">
        <ele>-2</ele>
        <time>2022-10-02T09:46:29.000Z</time>
      </trkpt>
      <trkpt lat="47.28588" lon="-2.36833">
        <ele>-2.4000000953674</ele>
        <time>2022-10-02T09:46:30.000Z</time>
      </trkpt>
      <trkpt lat="47.28586" lon="-2.36827">
        <ele>-2.4000000953674</ele>
        <time>2022-10-02T09:46:31.000Z</time>
      </trkpt>
      <trkpt lat="47.28572" lon="-2.36802">
        <ele>-2.4000000953674</ele>
        <time>2022-10-02T09:46:37.000Z</time>
      </trkpt>
      <trkpt lat="47.28569" lon="-2.36797">
        <ele>-2.4000000953674</ele>
        <time>2022-10-02T09:46:38.000Z</time>
      </trkpt>
      <trkpt lat="47.28546" lon="-2.36755">
        <ele>-2.4000000953674</ele>
        <time>2022-10-02T09:46:47.000Z</time>
      </trkpt>
      <trkpt lat="47.28538" lon="-2.36736">
        <ele>-1.7999999523163</ele>
        <time>2022-10-02T09:46:51.000Z</time>
      </trkpt>
      <trkpt lat="47.28536" lon="-2.36731">
        <ele>-1.3999999761581</ele>
        <time>2022-10-02T09:46:52.000Z</time>
      </trkpt>
      <trkpt lat="47.28534" lon="-2.36726">
        <ele>-1</ele>
        <time>2022-10-02T09:46:53.000Z</time>
      </trkpt>
      <trkpt lat="47.28533" lon="-2.36721">
        <ele>-0.60000002384186</ele>
        <time>2022-10-02T09:46:54.000Z</time>
      </trkpt>
      <trkpt lat="47.28531" lon="-2.36717">
        <ele>-0.20000000298023</ele>
        <time>2022-10-02T09:46:55.000Z</time>
      </trkpt>
      <trkpt lat="47.28527" lon="-2.3671">
        <ele>-0.20000000298023</ele>
        <time>2022-10-02T09:46:57.000Z</time>
      </trkpt>
      <trkpt lat="47.28522" lon="-2.36701">
        <ele>0.40000000596046</ele>
        <time>2022-10-02T09:47:00.000Z</time>
      </trkpt>
      <trkpt lat="47.2852" lon="-2.36699">
        <ele>0.80000001192093</ele>
        <time>2022-10-02T09:47:01.000Z</time>
      </trkpt>
      <trkpt lat="47.28518" lon="-2.36696">
        <ele>1.6000000238419</ele>
        <time>2022-10-02T09:47:02.000Z</time>
      </trkpt>
      <trkpt lat="47.28516" lon="-2.36692">
        <ele>2</ele>
        <time>2022-10-02T09:47:03.000Z</time>
      </trkpt>
      <trkpt lat="47.2851" lon="-2.36683">
        <ele>2</ele>
        <time>2022-10-02T09:47:07.000Z</time>
      </trkpt>
      <trkpt lat="47.28499" lon="-2.36672">
        <ele>2</ele>
        <time>2022-10-02T09:47:12.000Z</time>
      </trkpt>
      <trkpt lat="47.28494" lon="-2.36665">
        <ele>2.4000000953674</ele>
        <time>2022-10-02T09:47:14.000Z</time>
      </trkpt>
      <trkpt lat="47.28492" lon="-2.3666">
        <ele>2.7999999523163</ele>
        <time>2022-10-02T09:47:15.000Z</time>
      </trkpt>
      <trkpt lat="47.2849" lon="-2.36656">
        <ele>3.2000000476837</ele>
        <time>2022-10-02T09:47:16.000Z</time>
      </trkpt>
      <trkpt lat="47.28489" lon="-2.36652">
        <ele>3.5999999046326</ele>
        <time>2022-10-02T09:47:17.000Z</time>
      </trkpt>
      <trkpt lat="47.28488" lon="-2.36647">
        <ele>4</ele>
        <time>2022-10-02T09:47:18.000Z</time>
      </trkpt>
      <trkpt lat="47.28482" lon="-2.36625">
        <ele>4</ele>
        <time>2022-10-02T09:47:23.000Z</time>
      </trkpt>
      <trkpt lat="47.28473" lon="-2.3659">
        <ele>4</ele>
        <time>2022-10-02T09:47:30.000Z</time>
      </trkpt>
      <trkpt lat="47.2847" lon="-2.36562">
        <ele>4</ele>
        <time>2022-10-02T09:47:36.000Z</time>
      </trkpt>
      <trkpt lat="47.28481" lon="-2.36546">
        <ele>4</ele>
        <time>2022-10-02T09:47:40.000Z</time>
      </trkpt>
      <trkpt lat="47.28498" lon="-2.36524">
        <ele>4</ele>
        <time>2022-10-02T09:47:46.000Z</time>
      </trkpt>
      <trkpt lat="47.28509" lon="-2.36511">
        <ele>4.4000000953674</ele>
        <time>2022-10-02T09:47:50.000Z</time>
      </trkpt>
      <trkpt lat="47.28512" lon="-2.36508">
        <ele>5.4000000953674</ele>
        <time>2022-10-02T09:47:51.000Z</time>
      </trkpt>
      <trkpt lat="47.28515" lon="-2.36506">
        <ele>5.8000001907349</ele>
        <time>2022-10-02T09:47:52.000Z</time>
      </trkpt>
      <trkpt lat="47.28518" lon="-2.36503">
        <ele>6.1999998092651</ele>
        <time>2022-10-02T09:47:53.000Z</time>
      </trkpt>
      <trkpt lat="47.2852" lon="-2.36496">
        <ele>6.1999998092651</ele>
        <time>2022-10-02T09:47:55.000Z</time>
      </trkpt>
      <trkpt lat="47.28518" lon="-2.36476">
        <ele>6.5999999046326</ele>
        <time>2022-10-02T09:47:59.000Z</time>
      </trkpt>
      <trkpt lat="47.28517" lon="-2.36471">
        <ele>7.1999998092651</ele>
        <time>2022-10-02T09:48:00.000Z</time>
      </trkpt>
      <trkpt lat="47.28516" lon="-2.36467">
        <ele>7.5999999046326</ele>
        <time>2022-10-02T09:48:01.000Z</time>
      </trkpt>
      <trkpt lat="47.28515" lon="-2.36462">
        <ele>8</ele>
        <time>2022-10-02T09:48:02.000Z</time>
      </trkpt>
      <trkpt lat="47.28513" lon="-2.36458">
        <ele>8.3999996185303</ele>
        <time>2022-10-02T09:48:03.000Z</time>
      </trkpt>
      <trkpt lat="47.28506" lon="-2.36446">
        <ele>8.3999996185303</ele>
        <time>2022-10-02T09:48:06.000Z</time>
      </trkpt>
      <trkpt lat="47.28502" lon="-2.36444">
        <ele>8.3999996185303</ele>
        <time>2022-10-02T09:48:07.000Z</time>
      </trkpt>
      <trkpt lat="47.28486" lon="-2.36432">
        <ele>8.3999996185303</ele>
        <time>2022-10-02T09:48:12.000Z</time>
      </trkpt>
      <trkpt lat="47.28475" lon="-2.3642">
        <ele>8.3999996185303</ele>
        <time>2022-10-02T09:48:17.000Z</time>
      </trkpt>
      <trkpt lat="47.28463" lon="-2.36406">
        <ele>8.3999996185303</ele>
        <time>2022-10-02T09:48:22.000Z</time>
      </trkpt>
      <trkpt lat="47.28458" lon="-2.36401">
        <ele>8.3999996185303</ele>
        <time>2022-10-02T09:48:23.000Z</time>
      </trkpt>
      <trkpt lat="47.28439" lon="-2.36385">
        <ele>8.3999996185303</ele>
        <time>2022-10-02T09:48:27.000Z</time>
      </trkpt>
      <trkpt lat="47.2842" lon="-2.36364">
        <ele>8.3999996185303</ele>
        <time>2022-10-02T09:48:33.000Z</time>
      </trkpt>
      <trkpt lat="47.28409" lon="-2.36348">
        <ele>8.3999996185303</ele>
        <time>2022-10-02T09:48:38.000Z</time>
      </trkpt>
      <trkpt lat="47.28399" lon="-2.3634">
        <ele>8.3999996185303</ele>
        <time>2022-10-02T09:48:43.000Z</time>
      </trkpt>
      <trkpt lat="47.28391" lon="-2.36333">
        <ele>8</ele>
        <time>2022-10-02T09:48:46.000Z</time>
      </trkpt>
      <trkpt lat="47.28388" lon="-2.36331">
        <ele>7.5999999046326</ele>
        <time>2022-10-02T09:48:47.000Z</time>
      </trkpt>
      <trkpt lat="47.28384" lon="-2.3633">
        <ele>7.1999998092651</ele>
        <time>2022-10-02T09:48:48.000Z</time>
      </trkpt>
      <trkpt lat="47.2838" lon="-2.36328">
        <ele>6.8000001907349</ele>
        <time>2022-10-02T09:48:49.000Z</time>
      </trkpt>
      <trkpt lat="47.28377" lon="-2.36326">
        <ele>6.4000000953674</ele>
        <time>2022-10-02T09:48:50.000Z</time>
      </trkpt>
      <trkpt lat="47.28372" lon="-2.36323">
        <ele>6.4000000953674</ele>
        <time>2022-10-02T09:48:52.000Z</time>
      </trkpt>
      <trkpt lat="47.28365" lon="-2.36312">
        <ele>6.4000000953674</ele>
        <time>2022-10-02T09:48:56.000Z</time>
      </trkpt>
      <trkpt lat="47.28365" lon="-2.36309">
        <ele>6</ele>
        <time>2022-10-02T09:48:57.000Z</time>
      </trkpt>
      <trkpt lat="47.28365" lon="-2.36305">
        <ele>5.4000000953674</ele>
        <time>2022-10-02T09:48:58.000Z</time>
      </trkpt>
      <trkpt lat="47.28366" lon="-2.36301">
        <ele>5</ele>
        <time>2022-10-02T09:48:59.000Z</time>
      </trkpt>
      <trkpt lat="47.28367" lon="-2.36295">
        <ele>4.5999999046326</ele>
        <time>2022-10-02T09:49:00.000Z</time>
      </trkpt>
      <trkpt lat="47.28369" lon="-2.36289">
        <ele>4.1999998092651</ele>
        <time>2022-10-02T09:49:01.000Z</time>
      </trkpt>
      <trkpt lat="47.28374" lon="-2.36276">
        <ele>4.1999998092651</ele>
        <time>2022-10-02T09:49:04.000Z</time>
      </trkpt>
      <trkpt lat="47.2838" lon="-2.36255">
        <ele>4.1999998092651</ele>
        <time>2022-10-02T09:49:08.000Z</time>
      </trkpt>
      <trkpt lat="47.28381" lon="-2.36252">
        <ele>4.8000001907349</ele>
        <time>2022-10-02T09:49:09.000Z</time>
      </trkpt>
      <trkpt lat="47.28383" lon="-2.36249">
        <ele>5.1999998092651</ele>
        <time>2022-10-02T09:49:10.000Z</time>
      </trkpt>
      <trkpt lat="47.28385" lon="-2.36245">
        <ele>5.5999999046326</ele>
        <time>2022-10-02T09:49:11.000Z</time>
      </trkpt>
      <trkpt lat="47.28387" lon="-2.3624">
        <ele>6.1999998092651</ele>
        <time>2022-10-02T09:49:12.000Z</time>
      </trkpt>
      <trkpt lat="47.28389" lon="-2.36235">
        <ele>6.5999999046326</ele>
        <time>2022-10-02T09:49:13.000Z</time>
      </trkpt>
      <trkpt lat="47.28395" lon="-2.36228">
        <ele>7</ele>
        <time>2022-10-02T09:49:15.000Z</time>
      </trkpt>
      <trkpt lat="47.28397" lon="-2.36225">
        <ele>7.4000000953674</ele>
        <time>2022-10-02T09:49:16.000Z</time>
      </trkpt>
      <trkpt lat="47.28401" lon="-2.36222">
        <ele>7.8000001907349</ele>
        <time>2022-10-02T09:49:17.000Z</time>
      </trkpt>
      <trkpt lat="47.28404" lon="-2.36219">
        <ele>8.3999996185303</ele>
        <time>2022-10-02T09:49:18.000Z</time>
      </trkpt>
      <trkpt lat="47.28406" lon="-2.36217">
        <ele>8.8000001907349</ele>
        <time>2022-10-02T09:49:19.000Z</time>
      </trkpt>
      <trkpt lat="47.28409" lon="-2.36216">
        <ele>8.8000001907349</ele>
        <time>2022-10-02T09:49:20.000Z</time>
      </trkpt>
      <trkpt lat="47.28423" lon="-2.36212">
        <ele>8.8000001907349</ele>
        <time>2022-10-02T09:49:25.000Z</time>
      </trkpt>
      <trkpt lat="47.28425" lon="-2.3621">
        <ele>9.1999998092651</ele>
        <time>2022-10-02T09:49:26.000Z</time>
      </trkpt>
      <trkpt lat="47.28427" lon="-2.36209">
        <ele>9.6000003814697</ele>
        <time>2022-10-02T09:49:27.000Z</time>
      </trkpt>
      <trkpt lat="47.28429" lon="-2.36208">
        <ele>10</ele>
        <time>2022-10-02T09:49:28.000Z</time>
      </trkpt>
      <trkpt lat="47.2843" lon="-2.36207">
        <ele>10.39999961853</ele>
        <time>2022-10-02T09:49:29.000Z</time>
      </trkpt>
      <trkpt lat="47.28431" lon="-2.36206">
        <ele>10.800000190735</ele>
        <time>2022-10-02T09:49:30.000Z</time>
      </trkpt>
      <trkpt lat="47.28435" lon="-2.36205">
        <ele>10.800000190735</ele>
        <time>2022-10-02T09:49:32.000Z</time>
      </trkpt>
      <trkpt lat="47.28448" lon="-2.36184">
        <ele>11.199999809265</ele>
        <time>2022-10-02T09:50:01.000Z</time>
      </trkpt>
      <trkpt lat="47.28447" lon="-2.36181">
        <ele>11.60000038147</ele>
        <time>2022-10-02T09:50:02.000Z</time>
      </trkpt>
      <trkpt lat="47.28447" lon="-2.36178">
        <ele>12</ele>
        <time>2022-10-02T09:50:03.000Z</time>
      </trkpt>
      <trkpt lat="47.28447" lon="-2.36174">
        <ele>12.39999961853</ele>
        <time>2022-10-02T09:50:04.000Z</time>
      </trkpt>
      <trkpt lat="47.28448" lon="-2.36171">
        <ele>12.800000190735</ele>
        <time>2022-10-02T09:50:05.000Z</time>
      </trkpt>
      <trkpt lat="47.28449" lon="-2.36158">
        <ele>13.199999809265</ele>
        <time>2022-10-02T09:50:09.000Z</time>
      </trkpt>
      <trkpt lat="47.28448" lon="-2.36154">
        <ele>13.800000190735</ele>
        <time>2022-10-02T09:50:10.000Z</time>
      </trkpt>
      <trkpt lat="47.28445" lon="-2.36151">
        <ele>14.199999809265</ele>
        <time>2022-10-02T09:50:11.000Z</time>
      </trkpt>
      <trkpt lat="47.28444" lon="-2.36148">
        <ele>14.60000038147</ele>
        <time>2022-10-02T09:50:12.000Z</time>
      </trkpt>
      <trkpt lat="47.28443" lon="-2.36146">
        <ele>15</ele>
        <time>2022-10-02T09:50:13.000Z</time>
      </trkpt>
      <trkpt lat="47.28442" lon="-2.36133">
        <ele>15</ele>
        <time>2022-10-02T09:50:16.000Z</time>
      </trkpt>
      <trkpt lat="47.28439" lon="-2.36119">
        <ele>15.800000190735</ele>
        <time>2022-10-02T09:50:20.000Z</time>
      </trkpt>
      <trkpt lat="47.28439" lon="-2.36115">
        <ele>16.200000762939</ele>
        <time>2022-10-02T09:50:21.000Z</time>
      </trkpt>
      <trkpt lat="47.28439" lon="-2.36111">
        <ele>16.799999237061</ele>
        <time>2022-10-02T09:50:22.000Z</time>
      </trkpt>
      <trkpt lat="47.28438" lon="-2.36107">
        <ele>17.200000762939</ele>
        <time>2022-10-02T09:50:23.000Z</time>
      </trkpt>
      <trkpt lat="47.28437" lon="-2.36096">
        <ele>17.200000762939</ele>
        <time>2022-10-02T09:50:26.000Z</time>
      </trkpt>
      <trkpt lat="47.28437" lon="-2.36088">
        <ele>17.60000038147</ele>
        <time>2022-10-02T09:50:28.000Z</time>
      </trkpt>
      <trkpt lat="47.28436" lon="-2.36084">
        <ele>18</ele>
        <time>2022-10-02T09:50:29.000Z</time>
      </trkpt>
      <trkpt lat="47.28436" lon="-2.36079">
        <ele>18.39999961853</ele>
        <time>2022-10-02T09:50:30.000Z</time>
      </trkpt>
      <trkpt lat="47.28436" lon="-2.36075">
        <ele>18.799999237061</ele>
        <time>2022-10-02T09:50:31.000Z</time>
      </trkpt>
      <trkpt lat="47.28436" lon="-2.36071">
        <ele>19.200000762939</ele>
        <time>2022-10-02T09:50:32.000Z</time>
      </trkpt>
      <trkpt lat="47.28435" lon="-2.36052">
        <ele>19.200000762939</ele>
        <time>2022-10-02T09:50:37.000Z</time>
      </trkpt>
      <trkpt lat="47.28437" lon="-2.36038">
        <ele>19.60000038147</ele>
        <time>2022-10-02T09:50:41.000Z</time>
      </trkpt>
      <trkpt lat="47.28437" lon="-2.36035">
        <ele>20</ele>
        <time>2022-10-02T09:50:42.000Z</time>
      </trkpt>
      <trkpt lat="47.28437" lon="-2.36031">
        <ele>20.39999961853</ele>
        <time>2022-10-02T09:50:43.000Z</time>
      </trkpt>
      <trkpt lat="47.28438" lon="-2.36028">
        <ele>20.799999237061</ele>
        <time>2022-10-02T09:50:44.000Z</time>
      </trkpt>
      <trkpt lat="47.28439" lon="-2.36026">
        <ele>21.39999961853</ele>
        <time>2022-10-02T09:50:45.000Z</time>
      </trkpt>
      <trkpt lat="47.28441" lon="-2.36018">
        <ele>21.39999961853</ele>
        <time>2022-10-02T09:50:48.000Z</time>
      </trkpt>
      <trkpt lat="47.28443" lon="-2.3601">
        <ele>21.39999961853</ele>
        <time>2022-10-02T09:50:53.000Z</time>
      </trkpt>
      <trkpt lat="47.28449" lon="-2.3599">
        <ele>21.39999961853</ele>
        <time>2022-10-02T09:50:59.000Z</time>
      </trkpt>
      <trkpt lat="47.28455" lon="-2.35966">
        <ele>21.39999961853</ele>
        <time>2022-10-02T09:51:05.000Z</time>
      </trkpt>
      <trkpt lat="47.28462" lon="-2.35948">
        <ele>20.799999237061</ele>
        <time>2022-10-02T09:51:08.000Z</time>
      </trkpt>
      <trkpt lat="47.28465" lon="-2.35941">
        <ele>20.39999961853</ele>
        <time>2022-10-02T09:51:09.000Z</time>
      </trkpt>
      <trkpt lat="47.28467" lon="-2.35935">
        <ele>19.60000038147</ele>
        <time>2022-10-02T09:51:10.000Z</time>
      </trkpt>
      <trkpt lat="47.28469" lon="-2.35929">
        <ele>19</ele>
        <time>2022-10-02T09:51:11.000Z</time>
      </trkpt>
      <trkpt lat="47.28471" lon="-2.35923">
        <ele>18.60000038147</ele>
        <time>2022-10-02T09:51:12.000Z</time>
      </trkpt>
      <trkpt lat="47.28473" lon="-2.35917">
        <ele>18</ele>
        <time>2022-10-02T09:51:13.000Z</time>
      </trkpt>
      <trkpt lat="47.28473" lon="-2.3591">
        <ele>17.60000038147</ele>
        <time>2022-10-02T09:51:14.000Z</time>
      </trkpt>
      <trkpt lat="47.28471" lon="-2.35903">
        <ele>17</ele>
        <time>2022-10-02T09:51:15.000Z</time>
      </trkpt>
      <trkpt lat="47.28468" lon="-2.35899">
        <ele>16.39999961853</ele>
        <time>2022-10-02T09:51:16.000Z</time>
      </trkpt>
      <trkpt lat="47.28465" lon="-2.35895">
        <ele>15.800000190735</ele>
        <time>2022-10-02T09:51:17.000Z</time>
      </trkpt>
      <trkpt lat="47.28462" lon="-2.35892">
        <ele>15.199999809265</ele>
        <time>2022-10-02T09:51:18.000Z</time>
      </trkpt>
      <trkpt lat="47.28458" lon="-2.35889">
        <ele>14.39999961853</ele>
        <time>2022-10-02T09:51:19.000Z</time>
      </trkpt>
      <trkpt lat="47.28454" lon="-2.35887">
        <ele>13.800000190735</ele>
        <time>2022-10-02T09:51:20.000Z</time>
      </trkpt>
      <trkpt lat="47.2845" lon="-2.35886">
        <ele>13.199999809265</ele>
        <time>2022-10-02T09:51:21.000Z</time>
      </trkpt>
      <trkpt lat="47.28445" lon="-2.35884">
        <ele>12.39999961853</ele>
        <time>2022-10-02T09:51:22.000Z</time>
      </trkpt>
      <trkpt lat="47.28434" lon="-2.35872">
        <ele>12.39999961853</ele>
        <time>2022-10-02T09:51:26.000Z</time>
      </trkpt>
      <trkpt lat="47.28422" lon="-2.35856">
        <ele>12.39999961853</ele>
        <time>2022-10-02T09:51:31.000Z</time>
      </trkpt>
      <trkpt lat="47.28409" lon="-2.35831">
        <ele>12.39999961853</ele>
        <time>2022-10-02T09:51:36.000Z</time>
      </trkpt>
      <trkpt lat="47.28388" lon="-2.35805">
        <ele>12.39999961853</ele>
        <time>2022-10-02T09:51:41.000Z</time>
      </trkpt>
      <trkpt lat="47.28368" lon="-2.35794">
        <ele>12.39999961853</ele>
        <time>2022-10-02T09:51:46.000Z</time>
      </trkpt>
      <trkpt lat="47.28363" lon="-2.35796">
        <ele>12</ele>
        <time>2022-10-02T09:51:47.000Z</time>
      </trkpt>
      <trkpt lat="47.28359" lon="-2.35799">
        <ele>11.60000038147</ele>
        <time>2022-10-02T09:51:48.000Z</time>
      </trkpt>
      <trkpt lat="47.28355" lon="-2.35801">
        <ele>11.199999809265</ele>
        <time>2022-10-02T09:51:49.000Z</time>
      </trkpt>
      <trkpt lat="47.2835" lon="-2.35805">
        <ele>10.800000190735</ele>
        <time>2022-10-02T09:51:50.000Z</time>
      </trkpt>
      <trkpt lat="47.28345" lon="-2.35808">
        <ele>10.39999961853</ele>
        <time>2022-10-02T09:51:51.000Z</time>
      </trkpt>
      <trkpt lat="47.28331" lon="-2.35824">
        <ele>10.39999961853</ele>
        <time>2022-10-02T09:51:55.000Z</time>
      </trkpt>
      <trkpt lat="47.28328" lon="-2.35829">
        <ele>10.39999961853</ele>
        <time>2022-10-02T09:51:56.000Z</time>
      </trkpt>
      <trkpt lat="47.28309" lon="-2.35847">
        <ele>10.39999961853</ele>
        <time>2022-10-02T09:52:01.000Z</time>
      </trkpt>
      <trkpt lat="47.28294" lon="-2.3586">
        <ele>10</ele>
        <time>2022-10-02T09:52:04.000Z</time>
      </trkpt>
      <trkpt lat="47.28291" lon="-2.35864">
        <ele>9.6000003814697</ele>
        <time>2022-10-02T09:52:05.000Z</time>
      </trkpt>
      <trkpt lat="47.28286" lon="-2.35867">
        <ele>9.1999998092651</ele>
        <time>2022-10-02T09:52:06.000Z</time>
      </trkpt>
      <trkpt lat="47.28282" lon="-2.35871">
        <ele>8.8000001907349</ele>
        <time>2022-10-02T09:52:07.000Z</time>
      </trkpt>
      <trkpt lat="47.28278" lon="-2.35874">
        <ele>8.3999996185303</ele>
        <time>2022-10-02T09:52:08.000Z</time>
      </trkpt>
      <trkpt lat="47.28274" lon="-2.35879">
        <ele>8.3999996185303</ele>
        <time>2022-10-02T09:52:09.000Z</time>
      </trkpt>
      <trkpt lat="47.2827" lon="-2.35883">
        <ele>8.3999996185303</ele>
        <time>2022-10-02T09:52:10.000Z</time>
      </trkpt>
      <trkpt lat="47.28263" lon="-2.3589">
        <ele>8.3999996185303</ele>
        <time>2022-10-02T09:52:12.000Z</time>
      </trkpt>
      <trkpt lat="47.28255" lon="-2.35895">
        <ele>8.3999996185303</ele>
        <time>2022-10-02T09:52:14.000Z</time>
      </trkpt>
      <trkpt lat="47.28244" lon="-2.35897">
        <ele>8.3999996185303</ele>
        <time>2022-10-02T09:52:16.000Z</time>
      </trkpt>
      <trkpt lat="47.28234" lon="-2.35897">
        <ele>8</ele>
        <time>2022-10-02T09:52:18.000Z</time>
      </trkpt>
      <trkpt lat="47.28228" lon="-2.35897">
        <ele>7.5999999046326</ele>
        <time>2022-10-02T09:52:19.000Z</time>
      </trkpt>
      <trkpt lat="47.28223" lon="-2.35897">
        <ele>7.1999998092651</ele>
        <time>2022-10-02T09:52:20.000Z</time>
      </trkpt>
      <trkpt lat="47.28219" lon="-2.35897">
        <ele>6.8000001907349</ele>
        <time>2022-10-02T09:52:21.000Z</time>
      </trkpt>
      <trkpt lat="47.28213" lon="-2.35896">
        <ele>6.4000000953674</ele>
        <time>2022-10-02T09:52:22.000Z</time>
      </trkpt>
      <trkpt lat="47.28204" lon="-2.35896">
        <ele>6.4000000953674</ele>
        <time>2022-10-02T09:52:24.000Z</time>
      </trkpt>
      <trkpt lat="47.28186" lon="-2.3589">
        <ele>6.4000000953674</ele>
        <time>2022-10-02T09:52:29.000Z</time>
      </trkpt>
      <trkpt lat="47.28184" lon="-2.35876">
        <ele>6.4000000953674</ele>
        <time>2022-10-02T09:52:33.000Z</time>
      </trkpt>
      <trkpt lat="47.28185" lon="-2.35874">
        <ele>6.4000000953674</ele>
        <time>2022-10-02T09:52:34.000Z</time>
      </trkpt>
      <trkpt lat="47.28184" lon="-2.35862">
        <ele>6.4000000953674</ele>
        <time>2022-10-02T09:52:37.000Z</time>
      </trkpt>
      <trkpt lat="47.28182" lon="-2.35858">
        <ele>6.4000000953674</ele>
        <time>2022-10-02T09:52:38.000Z</time>
      </trkpt>
      <trkpt lat="47.28171" lon="-2.35846">
        <ele>6.4000000953674</ele>
        <time>2022-10-02T09:52:42.000Z</time>
      </trkpt>
      <trkpt lat="47.28163" lon="-2.35841">
        <ele>6.4000000953674</ele>
        <time>2022-10-02T09:52:44.000Z</time>
      </trkpt>
      <trkpt lat="47.2815" lon="-2.35829">
        <ele>6.4000000953674</ele>
        <time>2022-10-02T09:52:48.000Z</time>
      </trkpt>
      <trkpt lat="47.28143" lon="-2.35811">
        <ele>6.4000000953674</ele>
        <time>2022-10-02T09:52:52.000Z</time>
      </trkpt>
      <trkpt lat="47.28143" lon="-2.35805">
        <ele>6.4000000953674</ele>
        <time>2022-10-02T09:52:53.000Z</time>
      </trkpt>
      <trkpt lat="47.2814" lon="-2.35781">
        <ele>6.4000000953674</ele>
        <time>2022-10-02T09:52:58.000Z</time>
      </trkpt>
      <trkpt lat="47.28136" lon="-2.35778">
        <ele>6.4000000953674</ele>
        <time>2022-10-02T09:52:59.000Z</time>
      </trkpt>
      <trkpt lat="47.28129" lon="-2.35773">
        <ele>6.4000000953674</ele>
        <time>2022-10-02T09:53:01.000Z</time>
      </trkpt>
      <trkpt lat="47.28126" lon="-2.35772">
        <ele>6</ele>
        <time>2022-10-02T09:53:02.000Z</time>
      </trkpt>
      <trkpt lat="47.28122" lon="-2.35771">
        <ele>5.4000000953674</ele>
        <time>2022-10-02T09:53:03.000Z</time>
      </trkpt>
      <trkpt lat="47.28118" lon="-2.35773">
        <ele>5</ele>
        <time>2022-10-02T09:53:04.000Z</time>
      </trkpt>
      <trkpt lat="47.28115" lon="-2.35775">
        <ele>4.5999999046326</ele>
        <time>2022-10-02T09:53:05.000Z</time>
      </trkpt>
      <trkpt lat="47.28112" lon="-2.35778">
        <ele>4.1999998092651</ele>
        <time>2022-10-02T09:53:06.000Z</time>
      </trkpt>
      <trkpt lat="47.28105" lon="-2.35787">
        <ele>4.1999998092651</ele>
        <time>2022-10-02T09:53:09.000Z</time>
      </trkpt>
      <trkpt lat="47.28096" lon="-2.35807">
        <ele>4.1999998092651</ele>
        <time>2022-10-02T09:53:14.000Z</time>
      </trkpt>
      <trkpt lat="47.28093" lon="-2.35808">
        <ele>4.1999998092651</ele>
        <time>2022-10-02T09:53:15.000Z</time>
      </trkpt>
      <trkpt lat="47.28088" lon="-2.35809">
        <ele>4.1999998092651</ele>
        <time>2022-10-02T09:53:17.000Z</time>
      </trkpt>
      <trkpt lat="47.28079" lon="-2.35799">
        <ele>4.1999998092651</ele>
        <time>2022-10-02T09:53:21.000Z</time>
      </trkpt>
      <trkpt lat="47.28079" lon="-2.35795">
        <ele>4.1999998092651</ele>
        <time>2022-10-02T09:53:22.000Z</time>
      </trkpt>
      <trkpt lat="47.28082" lon="-2.35781">
        <ele>4.5999999046326</ele>
        <time>2022-10-02T09:53:25.000Z</time>
      </trkpt>
      <trkpt lat="47.28084" lon="-2.35777">
        <ele>5</ele>
        <time>2022-10-02T09:53:26.000Z</time>
      </trkpt>
      <trkpt lat="47.28085" lon="-2.35773">
        <ele>5.4000000953674</ele>
        <time>2022-10-02T09:53:27.000Z</time>
      </trkpt>
      <trkpt lat="47.28085" lon="-2.35768">
        <ele>6</ele>
        <time>2022-10-02T09:53:28.000Z</time>
      </trkpt>
      <trkpt lat="47.28085" lon="-2.35764">
        <ele>6.4000000953674</ele>
        <time>2022-10-02T09:53:29.000Z</time>
      </trkpt>
      <trkpt lat="47.2809" lon="-2.35741">
        <ele>6.4000000953674</ele>
        <time>2022-10-02T09:53:35.000Z</time>
      </trkpt>
      <trkpt lat="47.28092" lon="-2.35734">
        <ele>7.1999998092651</ele>
        <time>2022-10-02T09:53:37.000Z</time>
      </trkpt>
      <trkpt lat="47.28092" lon="-2.35729">
        <ele>7.8000001907349</ele>
        <time>2022-10-02T09:53:38.000Z</time>
      </trkpt>
      <trkpt lat="47.28093" lon="-2.35724">
        <ele>8.1999998092651</ele>
        <time>2022-10-02T09:53:39.000Z</time>
      </trkpt>
      <trkpt lat="47.28094" lon="-2.3572">
        <ele>8.6000003814697</ele>
        <time>2022-10-02T09:53:40.000Z</time>
      </trkpt>
      <trkpt lat="47.28094" lon="-2.35716">
        <ele>8.6000003814697</ele>
        <time>2022-10-02T09:53:41.000Z</time>
      </trkpt>
      <trkpt lat="47.28092" lon="-2.35693">
        <ele>8.6000003814697</ele>
        <time>2022-10-02T09:53:47.000Z</time>
      </trkpt>
      <trkpt lat="47.28089" lon="-2.35681">
        <ele>8.6000003814697</ele>
        <time>2022-10-02T09:53:49.000Z</time>
      </trkpt>
      <trkpt lat="47.28084" lon="-2.35665">
        <ele>8.6000003814697</ele>
        <time>2022-10-02T09:53:51.000Z</time>
      </trkpt>
      <trkpt lat="47.28081" lon="-2.3565">
        <ele>8.6000003814697</ele>
        <time>2022-10-02T09:53:53.000Z</time>
      </trkpt>
      <trkpt lat="47.2808" lon="-2.35644">
        <ele>8.1999998092651</ele>
        <time>2022-10-02T09:53:54.000Z</time>
      </trkpt>
      <trkpt lat="47.28077" lon="-2.35638">
        <ele>7.8000001907349</ele>
        <time>2022-10-02T09:53:55.000Z</time>
      </trkpt>
      <trkpt lat="47.28076" lon="-2.35631">
        <ele>7.1999998092651</ele>
        <time>2022-10-02T09:53:56.000Z</time>
      </trkpt>
      <trkpt lat="47.28075" lon="-2.35624">
        <ele>6.5999999046326</ele>
        <time>2022-10-02T09:53:57.000Z</time>
      </trkpt>
      <trkpt lat="47.28074" lon="-2.35617">
        <ele>6</ele>
        <time>2022-10-02T09:53:58.000Z</time>
      </trkpt>
      <trkpt lat="47.28072" lon="-2.3561">
        <ele>5.4000000953674</ele>
        <time>2022-10-02T09:53:59.000Z</time>
      </trkpt>
      <trkpt lat="47.2807" lon="-2.35603">
        <ele>4.8000001907349</ele>
        <time>2022-10-02T09:54:00.000Z</time>
      </trkpt>
      <trkpt lat="47.28068" lon="-2.35596">
        <ele>4.1999998092651</ele>
        <time>2022-10-02T09:54:01.000Z</time>
      </trkpt>
      <trkpt lat="47.28065" lon="-2.35591">
        <ele>4.1999998092651</ele>
        <time>2022-10-02T09:54:02.000Z</time>
      </trkpt>
      <trkpt lat="47.28051" lon="-2.35581">
        <ele>3.7999999523163</ele>
        <time>2022-10-02T09:54:05.000Z</time>
      </trkpt>
      <trkpt lat="47.28045" lon="-2.35578">
        <ele>3.4000000953674</ele>
        <time>2022-10-02T09:54:06.000Z</time>
      </trkpt>
      <trkpt lat="47.2804" lon="-2.35576">
        <ele>3</ele>
        <time>2022-10-02T09:54:07.000Z</time>
      </trkpt>
      <trkpt lat="47.28035" lon="-2.35575">
        <ele>2.4000000953674</ele>
        <time>2022-10-02T09:54:08.000Z</time>
      </trkpt>
      <trkpt lat="47.28032" lon="-2.35573">
        <ele>2</ele>
        <time>2022-10-02T09:54:09.000Z</time>
      </trkpt>
      <trkpt lat="47.28029" lon="-2.3557">
        <ele>2</ele>
        <time>2022-10-02T09:54:10.000Z</time>
      </trkpt>
      <trkpt lat="47.28027" lon="-2.35568">
        <ele>2</ele>
        <time>2022-10-02T09:54:13.000Z</time>
      </trkpt>
      <trkpt lat="47.28026" lon="-2.35565">
        <ele>2</ele>
        <time>2022-10-02T09:59:16.000Z</time>
      </trkpt>
      <trkpt lat="47.2802" lon="-2.35561">
        <ele>2</ele>
        <time>2022-10-02T09:59:19.000Z</time>
      </trkpt>
      <trkpt lat="47.2801" lon="-2.35561">
        <ele>2</ele>
        <time>2022-10-02T09:59:23.000Z</time>
      </trkpt>
      <trkpt lat="47.28006" lon="-2.35562">
        <ele>2</ele>
        <time>2022-10-02T09:59:24.000Z</time>
      </trkpt>
      <trkpt lat="47.27984" lon="-2.35569">
        <ele>2</ele>
        <time>2022-10-02T09:59:30.000Z</time>
      </trkpt>
      <trkpt lat="47.27957" lon="-2.3558">
        <ele>2</ele>
        <time>2022-10-02T09:59:37.000Z</time>
      </trkpt>
      <trkpt lat="47.27934" lon="-2.35584">
        <ele>2</ele>
        <time>2022-10-02T09:59:42.000Z</time>
      </trkpt>
      <trkpt lat="47.2793" lon="-2.35585">
        <ele>2</ele>
        <time>2022-10-02T09:59:43.000Z</time>
      </trkpt>
      <trkpt lat="47.27915" lon="-2.35589">
        <ele>1.2000000476837</ele>
        <time>2022-10-02T09:59:46.000Z</time>
      </trkpt>
      <trkpt lat="47.2791" lon="-2.3559">
        <ele>0.80000001192093</ele>
        <time>2022-10-02T09:59:47.000Z</time>
      </trkpt>
      <trkpt lat="47.27904" lon="-2.35592">
        <ele>0.40000000596046</ele>
        <time>2022-10-02T09:59:48.000Z</time>
      </trkpt>
      <trkpt lat="47.27899" lon="-2.35593">
        <ele>17.7</ele>
        <time>2022-10-02T09:59:49.000Z</time>
      </trkpt>
      <trkpt lat="47.27895" lon="-2.35595">
        <ele>17.6</ele>
        <time>2022-10-02T09:59:50.000Z</time>
      </trkpt>
      <trkpt lat="47.27878" lon="-2.35598">
        <ele>16.9</ele>
        <time>2022-10-02T09:59:53.000Z</time>
      </trkpt>
      <trkpt lat="47.27861" lon="-2.35601">
        <ele>-0.40000000596046</ele>
        <time>2022-10-02T09:59:56.000Z</time>
      </trkpt>
      <trkpt lat="47.27855" lon="-2.35604">
        <ele>-1</ele>
        <time>2022-10-02T09:59:57.000Z</time>
      </trkpt>
      <trkpt lat="47.27849" lon="-2.35606">
        <ele>-1.3999999761581</ele>
        <time>2022-10-02T09:59:58.000Z</time>
      </trkpt>
      <trkpt lat="47.27842" lon="-2.35608">
        <ele>-1.7999999523163</ele>
        <time>2022-10-02T09:59:59.000Z</time>
      </trkpt>
      <trkpt lat="47.27836" lon="-2.35609">
        <ele>-2.2000000476837</ele>
        <time>2022-10-02T10:00:00.000Z</time>
      </trkpt>
      <trkpt lat="47.27812" lon="-2.35616">
        <ele>-2.2000000476837</ele>
        <time>2022-10-02T10:00:04.000Z</time>
      </trkpt>
      <trkpt lat="47.27794" lon="-2.35622">
        <ele>-2.5999999046326</ele>
        <time>2022-10-02T10:00:07.000Z</time>
      </trkpt>
      <trkpt lat="47.27788" lon="-2.35625">
        <ele>-3</ele>
        <time>2022-10-02T10:00:08.000Z</time>
      </trkpt>
      <trkpt lat="47.27782" lon="-2.35629">
        <ele>-3.4000000953674</ele>
        <time>2022-10-02T10:00:09.000Z</time>
      </trkpt>
      <trkpt lat="47.27777" lon="-2.35634">
        <ele>-4.1999998092651</ele>
        <time>2022-10-02T10:00:10.000Z</time>
      </trkpt>
      <trkpt lat="47.2775" lon="-2.35665">
        <ele>-4.1999998092651</ele>
        <time>2022-10-02T10:00:16.000Z</time>
      </trkpt>
      <trkpt lat="47.27726" lon="-2.35703">
        <ele>-4.5999999046326</ele>
        <time>2022-10-02T10:00:22.000Z</time>
      </trkpt>
      <trkpt lat="47.27721" lon="-2.35708">
        <ele>-5</ele>
        <time>2022-10-02T10:00:23.000Z</time>
      </trkpt>
      <trkpt lat="47.27717" lon="-2.35713">
        <ele>-5.4000000953674</ele>
        <time>2022-10-02T10:00:24.000Z</time>
      </trkpt>
      <trkpt lat="47.27712" lon="-2.35719">
        <ele>-5.8000001907349</ele>
        <time>2022-10-02T10:00:25.000Z</time>
      </trkpt>
      <trkpt lat="47.27707" lon="-2.35723">
        <ele>-6.1999998092651</ele>
        <time>2022-10-02T10:00:26.000Z</time>
      </trkpt>
      <trkpt lat="47.27702" lon="-2.35726">
        <ele>-6.1999998092651</ele>
        <time>2022-10-02T10:00:27.000Z</time>
      </trkpt>
      <trkpt lat="47.27688" lon="-2.3574">
        <ele>-6.1999998092651</ele>
        <time>2022-10-02T10:00:30.000Z</time>
      </trkpt>
      <trkpt lat="47.2768" lon="-2.35747">
        <ele>-6.1999998092651</ele>
        <time>2022-10-02T10:00:32.000Z</time>
      </trkpt>
      <trkpt lat="47.27675" lon="-2.35746">
        <ele>-6.5999999046326</ele>
        <time>2022-10-02T10:00:33.000Z</time>
      </trkpt>
      <trkpt lat="47.27671" lon="-2.35742">
        <ele>-7.1999998092651</ele>
        <time>2022-10-02T10:00:34.000Z</time>
      </trkpt>
      <trkpt lat="47.27667" lon="-2.35735">
        <ele>-8</ele>
        <time>2022-10-02T10:00:35.000Z</time>
      </trkpt>
      <trkpt lat="47.27664" lon="-2.3573">
        <ele>-8.3999996185303</ele>
        <time>2022-10-02T10:00:36.000Z</time>
      </trkpt>
      <trkpt lat="47.27659" lon="-2.35726">
        <ele>-8.3999996185303</ele>
        <time>2022-10-02T10:00:37.000Z</time>
      </trkpt>
      <trkpt lat="47.27647" lon="-2.35722">
        <ele>-8.3999996185303</ele>
        <time>2022-10-02T10:00:39.000Z</time>
      </trkpt>
      <trkpt lat="47.27616" lon="-2.35715">
        <ele>-8.3999996185303</ele>
        <time>2022-10-02T10:00:44.000Z</time>
      </trkpt>
      <trkpt lat="47.27584" lon="-2.35707">
        <ele>-8.8000001907349</ele>
        <time>2022-10-02T10:00:49.000Z</time>
      </trkpt>
      <trkpt lat="47.27577" lon="-2.35705">
        <ele>-9.1999998092651</ele>
        <time>2022-10-02T10:00:50.000Z</time>
      </trkpt>
      <trkpt lat="47.27571" lon="-2.35704">
        <ele>-9.6000003814697</ele>
        <time>2022-10-02T10:00:51.000Z</time>
      </trkpt>
      <trkpt lat="47.27564" lon="-2.35702">
        <ele>-10</ele>
        <time>2022-10-02T10:00:52.000Z</time>
      </trkpt>
      <trkpt lat="47.27558" lon="-2.35701">
        <ele>-10.39999961853</ele>
        <time>2022-10-02T10:00:53.000Z</time>
      </trkpt>
      <trkpt lat="47.27539" lon="-2.35697">
        <ele>-10.39999961853</ele>
        <time>2022-10-02T10:00:56.000Z</time>
      </trkpt>
      <trkpt lat="47.27526" lon="-2.35695">
        <ele>-10.39999961853</ele>
        <time>2022-10-02T10:00:58.000Z</time>
      </trkpt>
      <trkpt lat="47.27493" lon="-2.35686">
        <ele>-10.800000190735</ele>
        <time>2022-10-02T10:01:03.000Z</time>
      </trkpt>
      <trkpt lat="47.27487" lon="-2.35684">
        <ele>-11.199999809265</ele>
        <time>2022-10-02T10:01:04.000Z</time>
      </trkpt>
      <trkpt lat="47.2748" lon="-2.35683">
        <ele>-11.60000038147</ele>
        <time>2022-10-02T10:01:05.000Z</time>
      </trkpt>
      <trkpt lat="47.27473" lon="-2.35683">
        <ele>-12</ele>
        <time>2022-10-02T10:01:06.000Z</time>
      </trkpt>
      <trkpt lat="47.27467" lon="-2.35681">
        <ele>-12.39999961853</ele>
        <time>2022-10-02T10:01:07.000Z</time>
      </trkpt>
      <trkpt lat="47.27427" lon="-2.3567">
        <ele>-12.39999961853</ele>
        <time>2022-10-02T10:01:13.000Z</time>
      </trkpt>
      <trkpt lat="47.27411" lon="-2.35665">
        <ele>-12.39999961853</ele>
        <time>2022-10-02T10:01:17.000Z</time>
      </trkpt>
      <trkpt lat="47.27406" lon="-2.35661">
        <ele>-12.39999961853</ele>
        <time>2022-10-02T10:01:21.000Z</time>
      </trkpt>
      <trkpt lat="47.27403" lon="-2.35662">
        <ele>-12.39999961853</ele>
        <time>2022-10-02T10:01:22.000Z</time>
      </trkpt>
      <trkpt lat="47.27398" lon="-2.35669">
        <ele>-12.39999961853</ele>
        <time>2022-10-02T10:01:24.000Z</time>
      </trkpt>
      <trkpt lat="47.27387" lon="-2.35682">
        <ele>-12.39999961853</ele>
        <time>2022-10-02T10:01:27.000Z</time>
      </trkpt>
      <trkpt lat="47.27378" lon="-2.35688">
        <ele>-12.39999961853</ele>
        <time>2022-10-02T10:01:29.000Z</time>
      </trkpt>
      <trkpt lat="47.27363" lon="-2.35695">
        <ele>-12.39999961853</ele>
        <time>2022-10-02T10:01:32.000Z</time>
      </trkpt>
      <trkpt lat="47.27359" lon="-2.35699">
        <ele>-12.39999961853</ele>
        <time>2022-10-02T10:01:33.000Z</time>
      </trkpt>
      <trkpt lat="47.27355" lon="-2.35702">
        <ele>-12.39999961853</ele>
        <time>2022-10-02T10:01:34.000Z</time>
      </trkpt>
      <trkpt lat="47.27329" lon="-2.35723">
        <ele>-12.800000190735</ele>
        <time>2022-10-02T10:01:41.000Z</time>
      </trkpt>
      <trkpt lat="47.27325" lon="-2.35725">
        <ele>-13.39999961853</ele>
        <time>2022-10-02T10:01:42.000Z</time>
      </trkpt>
      <trkpt lat="47.27322" lon="-2.35728">
        <ele>-13.800000190735</ele>
        <time>2022-10-02T10:01:43.000Z</time>
      </trkpt>
      <trkpt lat="47.2732" lon="-2.35732">
        <ele>-14.199999809265</ele>
        <time>2022-10-02T10:01:44.000Z</time>
      </trkpt>
      <trkpt lat="47.27319" lon="-2.35737">
        <ele>-14.60000038147</ele>
        <time>2022-10-02T10:01:45.000Z</time>
      </trkpt>
      <trkpt lat="47.27317" lon="-2.3574">
        <ele>-14.60000038147</ele>
        <time>2022-10-02T10:01:46.000Z</time>
      </trkpt>
      <trkpt lat="47.27308" lon="-2.35735">
        <ele>-14.60000038147</ele>
        <time>2022-10-02T10:01:49.000Z</time>
      </trkpt>
      <trkpt lat="47.27301" lon="-2.35719">
        <ele>-14.60000038147</ele>
        <time>2022-10-02T10:01:52.000Z</time>
      </trkpt>
      <trkpt lat="47.27299" lon="-2.35715">
        <ele>-14.60000038147</ele>
        <time>2022-10-02T10:01:53.000Z</time>
      </trkpt>
      <trkpt lat="47.27285" lon="-2.35677">
        <ele>-14.60000038147</ele>
        <time>2022-10-02T10:02:01.000Z</time>
      </trkpt>
      <trkpt lat="47.27276" lon="-2.35654">
        <ele>-14.60000038147</ele>
        <time>2022-10-02T10:02:07.000Z</time>
      </trkpt>
      <trkpt lat="47.27265" lon="-2.3563">
        <ele>-14.60000038147</ele>
        <time>2022-10-02T10:02:13.000Z</time>
      </trkpt>
      <trkpt lat="47.27252" lon="-2.35603">
        <ele>-14.60000038147</ele>
        <time>2022-10-02T10:02:19.000Z</time>
      </trkpt>
      <trkpt lat="47.27238" lon="-2.35571">
        <ele>-14.60000038147</ele>
        <time>2022-10-02T10:02:26.000Z</time>
      </trkpt>
      <trkpt lat="47.27221" lon="-2.3553">
        <ele>-14.60000038147</ele>
        <time>2022-10-02T10:02:34.000Z</time>
      </trkpt>
      <trkpt lat="47.272" lon="-2.35485">
        <ele>-14.60000038147</ele>
        <time>2022-10-02T10:02:43.000Z</time>
      </trkpt>
      <trkpt lat="47.27197" lon="-2.3548">
        <ele>-14.199999809265</ele>
        <time>2022-10-02T10:02:44.000Z</time>
      </trkpt>
      <trkpt lat="47.27194" lon="-2.35475">
        <ele>-13.800000190735</ele>
        <time>2022-10-02T10:02:45.000Z</time>
      </trkpt>
      <trkpt lat="47.27192" lon="-2.3547">
        <ele>-13.39999961853</ele>
        <time>2022-10-02T10:02:46.000Z</time>
      </trkpt>
      <trkpt lat="47.27189" lon="-2.35465">
        <ele>-13</ele>
        <time>2022-10-02T10:02:47.000Z</time>
      </trkpt>
      <trkpt lat="47.27186" lon="-2.35459">
        <ele>-12.60000038147</ele>
        <time>2022-10-02T10:02:48.000Z</time>
      </trkpt>
      <trkpt lat="47.27178" lon="-2.35443">
        <ele>-12.60000038147</ele>
        <time>2022-10-02T10:02:51.000Z</time>
      </trkpt>
      <trkpt lat="47.27155" lon="-2.354">
        <ele>-12.60000038147</ele>
        <time>2022-10-02T10:02:59.000Z</time>
      </trkpt>
      <trkpt lat="47.27134" lon="-2.35361">
        <ele>-12.60000038147</ele>
        <time>2022-10-02T10:03:06.000Z</time>
      </trkpt>
      <trkpt lat="47.27112" lon="-2.35327">
        <ele>-12.60000038147</ele>
        <time>2022-10-02T10:03:12.000Z</time>
      </trkpt>
      <trkpt lat="47.27083" lon="-2.35285">
        <ele>-12.60000038147</ele>
        <time>2022-10-02T10:03:20.000Z</time>
      </trkpt>
      <trkpt lat="47.27057" lon="-2.35243">
        <ele>-12.60000038147</ele>
        <time>2022-10-02T10:03:28.000Z</time>
      </trkpt>
      <trkpt lat="47.27025" lon="-2.35193">
        <ele>-12.60000038147</ele>
        <time>2022-10-02T10:03:37.000Z</time>
      </trkpt>
      <trkpt lat="47.27001" lon="-2.35156">
        <ele>-12.60000038147</ele>
        <time>2022-10-02T10:03:44.000Z</time>
      </trkpt>
      <trkpt lat="47.26998" lon="-2.35152">
        <ele>-12.60000038147</ele>
        <time>2022-10-02T10:03:45.000Z</time>
      </trkpt>
      <trkpt lat="47.26976" lon="-2.35115">
        <ele>-12.60000038147</ele>
        <time>2022-10-02T10:03:52.000Z</time>
      </trkpt>
      <trkpt lat="47.26946" lon="-2.35073">
        <ele>-12.60000038147</ele>
        <time>2022-10-02T10:04:01.000Z</time>
      </trkpt>
      <trkpt lat="47.26929" lon="-2.35052">
        <ele>-12.60000038147</ele>
        <time>2022-10-02T10:04:06.000Z</time>
      </trkpt>
      <trkpt lat="47.26926" lon="-2.35047">
        <ele>-12.60000038147</ele>
        <time>2022-10-02T10:04:07.000Z</time>
      </trkpt>
      <trkpt lat="47.26894" lon="-2.34998">
        <ele>-12.60000038147</ele>
        <time>2022-10-02T10:04:16.000Z</time>
      </trkpt>
      <trkpt lat="47.26861" lon="-2.34947">
        <ele>-12.60000038147</ele>
        <time>2022-10-02T10:04:26.000Z</time>
      </trkpt>
      <trkpt lat="47.26846" lon="-2.34923">
        <ele>-12.60000038147</ele>
        <time>2022-10-02T10:04:31.000Z</time>
      </trkpt>
      <trkpt lat="47.26838" lon="-2.34914">
        <ele>-12.60000038147</ele>
        <time>2022-10-02T10:04:33.000Z</time>
      </trkpt>
      <trkpt lat="47.26828" lon="-2.34898">
        <ele>-12.60000038147</ele>
        <time>2022-10-02T10:04:36.000Z</time>
      </trkpt>
      <trkpt lat="47.26817" lon="-2.34884">
        <ele>-12.60000038147</ele>
        <time>2022-10-02T10:04:39.000Z</time>
      </trkpt>
      <trkpt lat="47.26806" lon="-2.34868">
        <ele>-12.60000038147</ele>
        <time>2022-10-02T10:04:42.000Z</time>
      </trkpt>
      <trkpt lat="47.26789" lon="-2.34841">
        <ele>-13</ele>
        <time>2022-10-02T10:04:47.000Z</time>
      </trkpt>
      <trkpt lat="47.26785" lon="-2.34836">
        <ele>-13.39999961853</ele>
        <time>2022-10-02T10:04:48.000Z</time>
      </trkpt>
      <trkpt lat="47.26782" lon="-2.34831">
        <ele>-13.800000190735</ele>
        <time>2022-10-02T10:04:49.000Z</time>
      </trkpt>
      <trkpt lat="47.26778" lon="-2.34826">
        <ele>-14.199999809265</ele>
        <time>2022-10-02T10:04:50.000Z</time>
      </trkpt>
      <trkpt lat="47.26774" lon="-2.34821">
        <ele>-14.60000038147</ele>
        <time>2022-10-02T10:04:51.000Z</time>
      </trkpt>
      <trkpt lat="47.2677" lon="-2.34816">
        <ele>-14.60000038147</ele>
        <time>2022-10-02T10:04:52.000Z</time>
      </trkpt>
      <trkpt lat="47.26763" lon="-2.34808">
        <ele>-14.60000038147</ele>
        <time>2022-10-02T10:04:54.000Z</time>
      </trkpt>
      <trkpt lat="47.26759" lon="-2.34803">
        <ele>-14.60000038147</ele>
        <time>2022-10-02T10:04:55.000Z</time>
      </trkpt>
      <trkpt lat="47.26741" lon="-2.34778">
        <ele>-14.60000038147</ele>
        <time>2022-10-02T10:05:00.000Z</time>
      </trkpt>
      <trkpt lat="47.2671" lon="-2.34739">
        <ele>-14.60000038147</ele>
        <time>2022-10-02T10:05:08.000Z</time>
      </trkpt>
      <trkpt lat="47.26674" lon="-2.34695">
        <ele>-14.60000038147</ele>
        <time>2022-10-02T10:05:17.000Z</time>
      </trkpt>
      <trkpt lat="47.26638" lon="-2.34651">
        <ele>-14.60000038147</ele>
        <time>2022-10-02T10:05:26.000Z</time>
      </trkpt>
      <trkpt lat="47.26615" lon="-2.34622">
        <ele>-14.60000038147</ele>
        <time>2022-10-02T10:05:32.000Z</time>
      </trkpt>
      <trkpt lat="47.26586" lon="-2.34588">
        <ele>-14.60000038147</ele>
        <time>2022-10-02T10:05:39.000Z</time>
      </trkpt>
      <trkpt lat="47.26556" lon="-2.34556">
        <ele>-14.60000038147</ele>
        <time>2022-10-02T10:05:46.000Z</time>
      </trkpt>
      <trkpt lat="47.26525" lon="-2.34526">
        <ele>-14.60000038147</ele>
        <time>2022-10-02T10:05:53.000Z</time>
      </trkpt>
      <trkpt lat="47.26497" lon="-2.34505">
        <ele>-14.60000038147</ele>
        <time>2022-10-02T10:05:59.000Z</time>
      </trkpt>
      <trkpt lat="47.26463" lon="-2.34482">
        <ele>-14.60000038147</ele>
        <time>2022-10-02T10:06:06.000Z</time>
      </trkpt>
      <trkpt lat="47.26422" lon="-2.34452">
        <ele>-14.60000038147</ele>
        <time>2022-10-02T10:06:15.000Z</time>
      </trkpt>
      <trkpt lat="47.26391" lon="-2.34426">
        <ele>-14.60000038147</ele>
        <time>2022-10-02T10:06:22.000Z</time>
      </trkpt>
      <trkpt lat="47.26354" lon="-2.34393">
        <ele>-14.60000038147</ele>
        <time>2022-10-02T10:06:30.000Z</time>
      </trkpt>
      <trkpt lat="47.26345" lon="-2.34385">
        <ele>-14.60000038147</ele>
        <time>2022-10-02T10:06:32.000Z</time>
      </trkpt>
      <trkpt lat="47.26334" lon="-2.34382">
        <ele>-14.60000038147</ele>
        <time>2022-10-02T10:06:34.000Z</time>
      </trkpt>
      <trkpt lat="47.2632" lon="-2.34375">
        <ele>-14.60000038147</ele>
        <time>2022-10-02T10:06:37.000Z</time>
      </trkpt>
      <trkpt lat="47.26306" lon="-2.3435">
        <ele>-14.60000038147</ele>
        <time>2022-10-02T10:06:41.000Z</time>
      </trkpt>
      <trkpt lat="47.26297" lon="-2.3434">
        <ele>-14.60000038147</ele>
        <time>2022-10-02T10:06:43.000Z</time>
      </trkpt>
      <trkpt lat="47.26273" lon="-2.34316">
        <ele>-14.60000038147</ele>
        <time>2022-10-02T10:06:48.000Z</time>
      </trkpt>
      <trkpt lat="47.26235" lon="-2.34275">
        <ele>-14.60000038147</ele>
        <time>2022-10-02T10:06:56.000Z</time>
      </trkpt>
      <trkpt lat="47.26197" lon="-2.34235">
        <ele>-14.60000038147</ele>
        <time>2022-10-02T10:07:04.000Z</time>
      </trkpt>
      <trkpt lat="47.26159" lon="-2.34197">
        <ele>-14.60000038147</ele>
        <time>2022-10-02T10:07:12.000Z</time>
      </trkpt>
      <trkpt lat="47.2615" lon="-2.34188">
        <ele>-14.60000038147</ele>
        <time>2022-10-02T10:07:14.000Z</time>
      </trkpt>
      <trkpt lat="47.26134" lon="-2.34179">
        <ele>-14.60000038147</ele>
        <time>2022-10-02T10:07:17.000Z</time>
      </trkpt>
      <trkpt lat="47.26121" lon="-2.34165">
        <ele>-14.60000038147</ele>
        <time>2022-10-02T10:07:20.000Z</time>
      </trkpt>
      <trkpt lat="47.26116" lon="-2.34162">
        <ele>-14.60000038147</ele>
        <time>2022-10-02T10:07:21.000Z</time>
      </trkpt>
      <trkpt lat="47.26067" lon="-2.34138">
        <ele>-14.60000038147</ele>
        <time>2022-10-02T10:07:30.000Z</time>
      </trkpt>
      <trkpt lat="47.26025" lon="-2.34116">
        <ele>-14.60000038147</ele>
        <time>2022-10-02T10:07:38.000Z</time>
      </trkpt>
      <trkpt lat="47.25976" lon="-2.34093">
        <ele>-14.60000038147</ele>
        <time>2022-10-02T10:07:47.000Z</time>
      </trkpt>
      <trkpt lat="47.25935" lon="-2.34076">
        <ele>-14.60000038147</ele>
        <time>2022-10-02T10:07:55.000Z</time>
      </trkpt>
      <trkpt lat="47.25925" lon="-2.34075">
        <ele>-14.60000038147</ele>
        <time>2022-10-02T10:07:57.000Z</time>
      </trkpt>
      <trkpt lat="47.25915" lon="-2.34078">
        <ele>-14.60000038147</ele>
        <time>2022-10-02T10:07:59.000Z</time>
      </trkpt>
      <trkpt lat="47.25903" lon="-2.34093">
        <ele>-14.60000038147</ele>
        <time>2022-10-02T10:08:02.000Z</time>
      </trkpt>
      <trkpt lat="47.259" lon="-2.341">
        <ele>-14.60000038147</ele>
        <time>2022-10-02T10:08:03.000Z</time>
      </trkpt>
      <trkpt lat="47.25896" lon="-2.34107">
        <ele>-14.60000038147</ele>
        <time>2022-10-02T10:08:04.000Z</time>
      </trkpt>
      <trkpt lat="47.25886" lon="-2.34134">
        <ele>-14.60000038147</ele>
        <time>2022-10-02T10:08:08.000Z</time>
      </trkpt>
      <trkpt lat="47.25882" lon="-2.34146">
        <ele>-14.60000038147</ele>
        <time>2022-10-02T10:08:10.000Z</time>
      </trkpt>
      <trkpt lat="47.25878" lon="-2.34159">
        <ele>-14.60000038147</ele>
        <time>2022-10-02T10:08:12.000Z</time>
      </trkpt>
      <trkpt lat="47.25876" lon="-2.34163">
        <ele>-14.60000038147</ele>
        <time>2022-10-02T10:08:13.000Z</time>
      </trkpt>
      <trkpt lat="47.25865" lon="-2.34163">
        <ele>-14.60000038147</ele>
        <time>2022-10-02T10:08:16.000Z</time>
      </trkpt>
      <trkpt lat="47.25862" lon="-2.34161">
        <ele>-14.60000038147</ele>
        <time>2022-10-02T10:08:17.000Z</time>
      </trkpt>
      <trkpt lat="47.25851" lon="-2.34157">
        <ele>-14.60000038147</ele>
        <time>2022-10-02T10:08:21.000Z</time>
      </trkpt>
      <trkpt lat="47.25841" lon="-2.34153">
        <ele>-14.60000038147</ele>
        <time>2022-10-02T10:08:25.000Z</time>
      </trkpt>
      <trkpt lat="47.25837" lon="-2.34156">
        <ele>-14.60000038147</ele>
        <time>2022-10-02T10:08:27.000Z</time>
      </trkpt>
      <trkpt lat="47.25836" lon="-2.34163">
        <ele>-14.60000038147</ele>
        <time>2022-10-02T10:08:29.000Z</time>
      </trkpt>
      <trkpt lat="47.2583" lon="-2.34174">
        <ele>-14.60000038147</ele>
        <time>2022-10-02T10:08:32.000Z</time>
      </trkpt>
      <trkpt lat="47.25817" lon="-2.34174">
        <ele>-14.60000038147</ele>
        <time>2022-10-02T10:08:35.000Z</time>
      </trkpt>
      <trkpt lat="47.25792" lon="-2.34172">
        <ele>-14.60000038147</ele>
        <time>2022-10-02T10:08:40.000Z</time>
      </trkpt>
      <trkpt lat="47.25758" lon="-2.34179">
        <ele>-14.60000038147</ele>
        <time>2022-10-02T10:08:46.000Z</time>
      </trkpt>
      <trkpt lat="47.25725" lon="-2.34184">
        <ele>-14.60000038147</ele>
        <time>2022-10-02T10:08:52.000Z</time>
      </trkpt>
      <trkpt lat="47.25697" lon="-2.34189">
        <ele>-14.60000038147</ele>
        <time>2022-10-02T10:08:58.000Z</time>
      </trkpt>
      <trkpt lat="47.25679" lon="-2.34191">
        <ele>-14.60000038147</ele>
        <time>2022-10-02T10:09:02.000Z</time>
      </trkpt>
      <trkpt lat="47.25668" lon="-2.34181">
        <ele>-14.60000038147</ele>
        <time>2022-10-02T10:09:05.000Z</time>
      </trkpt>
      <trkpt lat="47.25663" lon="-2.34171">
        <ele>-14.60000038147</ele>
        <time>2022-10-02T10:09:07.000Z</time>
      </trkpt>
      <trkpt lat="47.25652" lon="-2.34149">
        <ele>-14.60000038147</ele>
        <time>2022-10-02T10:09:11.000Z</time>
      </trkpt>
      <trkpt lat="47.25647" lon="-2.34137">
        <ele>-14.60000038147</ele>
        <time>2022-10-02T10:09:13.000Z</time>
      </trkpt>
      <trkpt lat="47.25643" lon="-2.34119">
        <ele>-14.60000038147</ele>
        <time>2022-10-02T10:09:16.000Z</time>
      </trkpt>
      <trkpt lat="47.2564" lon="-2.34079">
        <ele>-14.60000038147</ele>
        <time>2022-10-02T10:09:22.000Z</time>
      </trkpt>
      <trkpt lat="47.25641" lon="-2.34073">
        <ele>-14.60000038147</ele>
        <time>2022-10-02T10:09:23.000Z</time>
      </trkpt>
      <trkpt lat="47.25645" lon="-2.34052">
        <ele>-14.60000038147</ele>
        <time>2022-10-02T10:09:26.000Z</time>
      </trkpt>
      <trkpt lat="47.25647" lon="-2.34039">
        <ele>-14.60000038147</ele>
        <time>2022-10-02T10:09:28.000Z</time>
      </trkpt>
      <trkpt lat="47.25648" lon="-2.34032">
        <ele>-14.199999809265</ele>
        <time>2022-10-02T10:09:29.000Z</time>
      </trkpt>
      <trkpt lat="47.25649" lon="-2.34025">
        <ele>-13.800000190735</ele>
        <time>2022-10-02T10:09:30.000Z</time>
      </trkpt>
      <trkpt lat="47.2565" lon="-2.34018">
        <ele>-13.39999961853</ele>
        <time>2022-10-02T10:09:31.000Z</time>
      </trkpt>
      <trkpt lat="47.25651" lon="-2.34012">
        <ele>-13</ele>
        <time>2022-10-02T10:09:32.000Z</time>
      </trkpt>
      <trkpt lat="47.25652" lon="-2.34006">
        <ele>-12.60000038147</ele>
        <time>2022-10-02T10:09:33.000Z</time>
      </trkpt>
      <trkpt lat="47.25655" lon="-2.33992">
        <ele>-12.60000038147</ele>
        <time>2022-10-02T10:09:35.000Z</time>
      </trkpt>
      <trkpt lat="47.25661" lon="-2.33952">
        <ele>-12.60000038147</ele>
        <time>2022-10-02T10:09:41.000Z</time>
      </trkpt>
      <trkpt lat="47.25658" lon="-2.33925">
        <ele>-12.60000038147</ele>
        <time>2022-10-02T10:09:45.000Z</time>
      </trkpt>
      <trkpt lat="47.25646" lon="-2.3386">
        <ele>-12.60000038147</ele>
        <time>2022-10-02T10:09:54.000Z</time>
      </trkpt>
      <trkpt lat="47.25641" lon="-2.33831">
        <ele>-12.60000038147</ele>
        <time>2022-10-02T10:09:58.000Z</time>
      </trkpt>
      <trkpt lat="47.25641" lon="-2.33818">
        <ele>-12.60000038147</ele>
        <time>2022-10-02T10:10:00.000Z</time>
      </trkpt>
      <trkpt lat="47.25638" lon="-2.33805">
        <ele>-12.60000038147</ele>
        <time>2022-10-02T10:10:02.000Z</time>
      </trkpt>
      <trkpt lat="47.25632" lon="-2.33783">
        <ele>-12.60000038147</ele>
        <time>2022-10-02T10:10:06.000Z</time>
      </trkpt>
      <trkpt lat="47.25626" lon="-2.33775">
        <ele>-12.60000038147</ele>
        <time>2022-10-02T10:10:08.000Z</time>
      </trkpt>
      <trkpt lat="47.25619" lon="-2.33769">
        <ele>-12.60000038147</ele>
        <time>2022-10-02T10:10:10.000Z</time>
      </trkpt>
      <trkpt lat="47.256" lon="-2.33762">
        <ele>-12.60000038147</ele>
        <time>2022-10-02T10:10:14.000Z</time>
      </trkpt>
      <trkpt lat="47.25595" lon="-2.3376">
        <ele>-12.60000038147</ele>
        <time>2022-10-02T10:10:15.000Z</time>
      </trkpt>
      <trkpt lat="47.25559" lon="-2.3376">
        <ele>-12.60000038147</ele>
        <time>2022-10-02T10:10:22.000Z</time>
      </trkpt>
      <trkpt lat="47.25522" lon="-2.33759">
        <ele>-12.60000038147</ele>
        <time>2022-10-02T10:10:29.000Z</time>
      </trkpt>
      <trkpt lat="47.25484" lon="-2.33755">
        <ele>-12.60000038147</ele>
        <time>2022-10-02T10:10:36.000Z</time>
      </trkpt>
      <trkpt lat="47.25463" lon="-2.33746">
        <ele>-12.60000038147</ele>
        <time>2022-10-02T10:10:40.000Z</time>
      </trkpt>
      <trkpt lat="47.25458" lon="-2.33742">
        <ele>-12.60000038147</ele>
        <time>2022-10-02T10:10:41.000Z</time>
      </trkpt>
      <trkpt lat="47.25452" lon="-2.33722">
        <ele>-12.60000038147</ele>
        <time>2022-10-02T10:10:44.000Z</time>
      </trkpt>
      <trkpt lat="47.25451" lon="-2.33714">
        <ele>-12.60000038147</ele>
        <time>2022-10-02T10:10:45.000Z</time>
      </trkpt>
      <trkpt lat="47.25447" lon="-2.33677">
        <ele>-12.60000038147</ele>
        <time>2022-10-02T10:10:50.000Z</time>
      </trkpt>
      <trkpt lat="47.25445" lon="-2.33654">
        <ele>-12.60000038147</ele>
        <time>2022-10-02T10:10:53.000Z</time>
      </trkpt>
      <trkpt lat="47.25443" lon="-2.33642">
        <ele>-12.60000038147</ele>
        <time>2022-10-02T10:10:55.000Z</time>
      </trkpt>
      <trkpt lat="47.25442" lon="-2.33636">
        <ele>-12.60000038147</ele>
        <time>2022-10-02T10:10:56.000Z</time>
      </trkpt>
      <trkpt lat="47.25441" lon="-2.33615">
        <ele>-12.60000038147</ele>
        <time>2022-10-02T10:10:59.000Z</time>
      </trkpt>
      <trkpt lat="47.25441" lon="-2.33609">
        <ele>-12.60000038147</ele>
        <time>2022-10-02T10:11:00.000Z</time>
      </trkpt>
      <trkpt lat="47.25441" lon="-2.33586">
        <ele>-12.60000038147</ele>
        <time>2022-10-02T10:11:04.000Z</time>
      </trkpt>
      <trkpt lat="47.25451" lon="-2.3358">
        <ele>-12.60000038147</ele>
        <time>2022-10-02T10:11:07.000Z</time>
      </trkpt>
      <trkpt lat="47.25457" lon="-2.33576">
        <ele>-12.60000038147</ele>
        <time>2022-10-02T10:11:09.000Z</time>
      </trkpt>
      <trkpt lat="47.25457" lon="-2.33572">
        <ele>-12.60000038147</ele>
        <time>2022-10-02T10:11:10.000Z</time>
      </trkpt>
      <trkpt lat="47.25454" lon="-2.33553">
        <ele>-12.60000038147</ele>
        <time>2022-10-02T10:11:14.000Z</time>
      </trkpt>
      <trkpt lat="47.25449" lon="-2.33525">
        <ele>-12.60000038147</ele>
        <time>2022-10-02T10:11:19.000Z</time>
      </trkpt>
      <trkpt lat="47.25444" lon="-2.33498">
        <ele>-12.60000038147</ele>
        <time>2022-10-02T10:11:24.000Z</time>
      </trkpt>
      <trkpt lat="47.25436" lon="-2.33473">
        <ele>-12.60000038147</ele>
        <time>2022-10-02T10:11:28.000Z</time>
      </trkpt>
      <trkpt lat="47.25435" lon="-2.33458">
        <ele>-12.60000038147</ele>
        <time>2022-10-02T10:11:30.000Z</time>
      </trkpt>
      <trkpt lat="47.25433" lon="-2.33434">
        <ele>-12.60000038147</ele>
        <time>2022-10-02T10:11:33.000Z</time>
      </trkpt>
      <trkpt lat="47.2543" lon="-2.3336">
        <ele>-12.60000038147</ele>
        <time>2022-10-02T10:11:43.000Z</time>
      </trkpt>
      <trkpt lat="47.2543" lon="-2.33353">
        <ele>-12.60000038147</ele>
        <time>2022-10-02T10:11:44.000Z</time>
      </trkpt>
      <trkpt lat="47.25435" lon="-2.33334">
        <ele>-12.60000038147</ele>
        <time>2022-10-02T10:11:47.000Z</time>
      </trkpt>
      <trkpt lat="47.25439" lon="-2.33322">
        <ele>-12.60000038147</ele>
        <time>2022-10-02T10:11:49.000Z</time>
      </trkpt>
      <trkpt lat="47.25447" lon="-2.33298">
        <ele>-12.60000038147</ele>
        <time>2022-10-02T10:11:53.000Z</time>
      </trkpt>
      <trkpt lat="47.25448" lon="-2.33291">
        <ele>-12.60000038147</ele>
        <time>2022-10-02T10:11:54.000Z</time>
      </trkpt>
      <trkpt lat="47.25442" lon="-2.33266">
        <ele>-12.60000038147</ele>
        <time>2022-10-02T10:11:58.000Z</time>
      </trkpt>
      <trkpt lat="47.25426" lon="-2.3323">
        <ele>-12.60000038147</ele>
        <time>2022-10-02T10:12:04.000Z</time>
      </trkpt>
      <trkpt lat="47.25419" lon="-2.33212">
        <ele>-12.60000038147</ele>
        <time>2022-10-02T10:12:07.000Z</time>
      </trkpt>
      <trkpt lat="47.2541" lon="-2.33189">
        <ele>-12.60000038147</ele>
        <time>2022-10-02T10:12:11.000Z</time>
      </trkpt>
      <trkpt lat="47.25396" lon="-2.33161">
        <ele>-12.60000038147</ele>
        <time>2022-10-02T10:12:17.000Z</time>
      </trkpt>
      <trkpt lat="47.25385" lon="-2.3314">
        <ele>-12.60000038147</ele>
        <time>2022-10-02T10:12:22.000Z</time>
      </trkpt>
      <trkpt lat="47.25375" lon="-2.3312">
        <ele>-12.60000038147</ele>
        <time>2022-10-02T10:12:28.000Z</time>
      </trkpt>
      <trkpt lat="47.25373" lon="-2.33118">
        <ele>-12.60000038147</ele>
        <time>2022-10-02T10:12:31.000Z</time>
      </trkpt>
      <trkpt lat="47.25372" lon="-2.33111">
        <ele>-12.60000038147</ele>
        <time>2022-10-02T10:19:44.000Z</time>
      </trkpt>
      <trkpt lat="47.25365" lon="-2.33094">
        <ele>-12.60000038147</ele>
        <time>2022-10-02T10:19:49.000Z</time>
      </trkpt>
      <trkpt lat="47.25353" lon="-2.3306">
        <ele>-12.60000038147</ele>
        <time>2022-10-02T10:19:56.000Z</time>
      </trkpt>
      <trkpt lat="47.25341" lon="-2.33025">
        <ele>-12.60000038147</ele>
        <time>2022-10-02T10:20:03.000Z</time>
      </trkpt>
      <trkpt lat="47.25325" lon="-2.32983">
        <ele>-12.60000038147</ele>
        <time>2022-10-02T10:20:10.000Z</time>
      </trkpt>
      <trkpt lat="47.25315" lon="-2.32961">
        <ele>-12.60000038147</ele>
        <time>2022-10-02T10:20:14.000Z</time>
      </trkpt>
      <trkpt lat="47.25308" lon="-2.32942">
        <ele>-12.60000038147</ele>
        <time>2022-10-02T10:20:17.000Z</time>
      </trkpt>
      <trkpt lat="47.25306" lon="-2.32935">
        <ele>-12.60000038147</ele>
        <time>2022-10-02T10:20:18.000Z</time>
      </trkpt>
      <trkpt lat="47.25309" lon="-2.32923">
        <ele>-12.60000038147</ele>
        <time>2022-10-02T10:20:20.000Z</time>
      </trkpt>
      <trkpt lat="47.25327" lon="-2.32901">
        <ele>-12.60000038147</ele>
        <time>2022-10-02T10:20:25.000Z</time>
      </trkpt>
      <trkpt lat="47.25331" lon="-2.32897">
        <ele>-12.60000038147</ele>
        <time>2022-10-02T10:20:26.000Z</time>
      </trkpt>
      <trkpt lat="47.25355" lon="-2.32873">
        <ele>-12.60000038147</ele>
        <time>2022-10-02T10:20:32.000Z</time>
      </trkpt>
      <trkpt lat="47.2536" lon="-2.3287">
        <ele>-12.60000038147</ele>
        <time>2022-10-02T10:20:33.000Z</time>
      </trkpt>
      <trkpt lat="47.25376" lon="-2.32855">
        <ele>-12.60000038147</ele>
        <time>2022-10-02T10:20:37.000Z</time>
      </trkpt>
      <trkpt lat="47.2541" lon="-2.32814">
        <ele>-12.60000038147</ele>
        <time>2022-10-02T10:20:46.000Z</time>
      </trkpt>
      <trkpt lat="47.25413" lon="-2.32809">
        <ele>-12.199999809265</ele>
        <time>2022-10-02T10:20:47.000Z</time>
      </trkpt>
      <trkpt lat="47.25416" lon="-2.32804">
        <ele>-11.60000038147</ele>
        <time>2022-10-02T10:20:48.000Z</time>
      </trkpt>
      <trkpt lat="47.25419" lon="-2.32799">
        <ele>-11.199999809265</ele>
        <time>2022-10-02T10:20:49.000Z</time>
      </trkpt>
      <trkpt lat="47.25422" lon="-2.32794">
        <ele>-10.800000190735</ele>
        <time>2022-10-02T10:20:50.000Z</time>
      </trkpt>
      <trkpt lat="47.25425" lon="-2.32789">
        <ele>-10.39999961853</ele>
        <time>2022-10-02T10:20:51.000Z</time>
      </trkpt>
      <trkpt lat="47.25427" lon="-2.32779">
        <ele>-10.39999961853</ele>
        <time>2022-10-02T10:20:53.000Z</time>
      </trkpt>
      <trkpt lat="47.25438" lon="-2.32762">
        <ele>-10.39999961853</ele>
        <time>2022-10-02T10:20:57.000Z</time>
      </trkpt>
      <trkpt lat="47.25448" lon="-2.32748">
        <ele>-10.39999961853</ele>
        <time>2022-10-02T10:21:00.000Z</time>
      </trkpt>
      <trkpt lat="47.25458" lon="-2.32735">
        <ele>-10.39999961853</ele>
        <time>2022-10-02T10:21:03.000Z</time>
      </trkpt>
      <trkpt lat="47.25484" lon="-2.32699">
        <ele>-10.39999961853</ele>
        <time>2022-10-02T10:21:11.000Z</time>
      </trkpt>
      <trkpt lat="47.25486" lon="-2.32693">
        <ele>-10.39999961853</ele>
        <time>2022-10-02T10:21:12.000Z</time>
      </trkpt>
      <trkpt lat="47.25489" lon="-2.32667">
        <ele>-10.39999961853</ele>
        <time>2022-10-02T10:21:16.000Z</time>
      </trkpt>
      <trkpt lat="47.25487" lon="-2.32655">
        <ele>-10.39999961853</ele>
        <time>2022-10-02T10:21:18.000Z</time>
      </trkpt>
      <trkpt lat="47.25486" lon="-2.32648">
        <ele>-10</ele>
        <time>2022-10-02T10:21:19.000Z</time>
      </trkpt>
      <trkpt lat="47.25485" lon="-2.32642">
        <ele>-9.6000003814697</ele>
        <time>2022-10-02T10:21:20.000Z</time>
      </trkpt>
      <trkpt lat="47.25484" lon="-2.32635">
        <ele>-9.1999998092651</ele>
        <time>2022-10-02T10:21:21.000Z</time>
      </trkpt>
      <trkpt lat="47.25483" lon="-2.32628">
        <ele>-8.8000001907349</ele>
        <time>2022-10-02T10:21:22.000Z</time>
      </trkpt>
      <trkpt lat="47.25481" lon="-2.32622">
        <ele>-8.3999996185303</ele>
        <time>2022-10-02T10:21:23.000Z</time>
      </trkpt>
      <trkpt lat="47.25475" lon="-2.32584">
        <ele>-8.3999996185303</ele>
        <time>2022-10-02T10:21:29.000Z</time>
      </trkpt>
      <trkpt lat="47.25474" lon="-2.32578">
        <ele>-8.3999996185303</ele>
        <time>2022-10-02T10:21:30.000Z</time>
      </trkpt>
      <trkpt lat="47.25478" lon="-2.32561">
        <ele>-8.3999996185303</ele>
        <time>2022-10-02T10:21:33.000Z</time>
      </trkpt>
      <trkpt lat="47.25489" lon="-2.3255">
        <ele>-8.3999996185303</ele>
        <time>2022-10-02T10:21:36.000Z</time>
      </trkpt>
      <trkpt lat="47.25493" lon="-2.32545">
        <ele>-8.3999996185303</ele>
        <time>2022-10-02T10:21:37.000Z</time>
      </trkpt>
      <trkpt lat="47.25525" lon="-2.32516">
        <ele>-8.3999996185303</ele>
        <time>2022-10-02T10:21:44.000Z</time>
      </trkpt>
      <trkpt lat="47.25553" lon="-2.32491">
        <ele>-8.8000001907349</ele>
        <time>2022-10-02T10:21:49.000Z</time>
      </trkpt>
      <trkpt lat="47.25559" lon="-2.32486">
        <ele>-9.1999998092651</ele>
        <time>2022-10-02T10:21:50.000Z</time>
      </trkpt>
      <trkpt lat="47.25565" lon="-2.32481">
        <ele>-9.6000003814697</ele>
        <time>2022-10-02T10:21:51.000Z</time>
      </trkpt>
      <trkpt lat="47.25572" lon="-2.32474">
        <ele>-10</ele>
        <time>2022-10-02T10:21:52.000Z</time>
      </trkpt>
      <trkpt lat="47.25578" lon="-2.32468">
        <ele>-10.39999961853</ele>
        <time>2022-10-02T10:21:53.000Z</time>
      </trkpt>
      <trkpt lat="47.25596" lon="-2.32449">
        <ele>-10.800000190735</ele>
        <time>2022-10-02T10:21:56.000Z</time>
      </trkpt>
      <trkpt lat="47.25602" lon="-2.32442">
        <ele>-11.199999809265</ele>
        <time>2022-10-02T10:21:57.000Z</time>
      </trkpt>
      <trkpt lat="47.25609" lon="-2.32435">
        <ele>-11.60000038147</ele>
        <time>2022-10-02T10:21:58.000Z</time>
      </trkpt>
      <trkpt lat="47.25615" lon="-2.32428">
        <ele>-12</ele>
        <time>2022-10-02T10:21:59.000Z</time>
      </trkpt>
      <trkpt lat="47.25621" lon="-2.32422">
        <ele>-12.39999961853</ele>
        <time>2022-10-02T10:22:00.000Z</time>
      </trkpt>
      <trkpt lat="47.25633" lon="-2.32409">
        <ele>-13</ele>
        <time>2022-10-02T10:22:02.000Z</time>
      </trkpt>
      <trkpt lat="47.25639" lon="-2.32405">
        <ele>-13.39999961853</ele>
        <time>2022-10-02T10:22:03.000Z</time>
      </trkpt>
      <trkpt lat="47.25645" lon="-2.32403">
        <ele>-13.800000190735</ele>
        <time>2022-10-02T10:22:04.000Z</time>
      </trkpt>
      <trkpt lat="47.25651" lon="-2.32403">
        <ele>-14.199999809265</ele>
        <time>2022-10-02T10:22:05.000Z</time>
      </trkpt>
      <trkpt lat="47.25655" lon="-2.32402">
        <ele>-14.60000038147</ele>
        <time>2022-10-02T10:22:06.000Z</time>
      </trkpt>
      <trkpt lat="47.25664" lon="-2.32401">
        <ele>-14.60000038147</ele>
        <time>2022-10-02T10:22:08.000Z</time>
      </trkpt>
      <trkpt lat="47.25668" lon="-2.32404">
        <ele>-14.60000038147</ele>
        <time>2022-10-02T10:22:09.000Z</time>
      </trkpt>
      <trkpt lat="47.25675" lon="-2.32414">
        <ele>-14.60000038147</ele>
        <time>2022-10-02T10:22:11.000Z</time>
      </trkpt>
      <trkpt lat="47.2568" lon="-2.32418">
        <ele>-14.60000038147</ele>
        <time>2022-10-02T10:22:12.000Z</time>
      </trkpt>
      <trkpt lat="47.25691" lon="-2.32419">
        <ele>-14.60000038147</ele>
        <time>2022-10-02T10:22:14.000Z</time>
      </trkpt>
      <trkpt lat="47.25733" lon="-2.32421">
        <ele>-14.60000038147</ele>
        <time>2022-10-02T10:22:21.000Z</time>
      </trkpt>
      <trkpt lat="47.2576" lon="-2.32422">
        <ele>-14.60000038147</ele>
        <time>2022-10-02T10:22:26.000Z</time>
      </trkpt>
      <trkpt lat="47.25763" lon="-2.32421">
        <ele>-14.60000038147</ele>
        <time>2022-10-02T10:22:27.000Z</time>
      </trkpt>
      <trkpt lat="47.25775" lon="-2.32412">
        <ele>-14.60000038147</ele>
        <time>2022-10-02T10:22:31.000Z</time>
      </trkpt>
      <trkpt lat="47.25786" lon="-2.32418">
        <ele>-14.60000038147</ele>
        <time>2022-10-02T10:22:34.000Z</time>
      </trkpt>
      <trkpt lat="47.25795" lon="-2.32436">
        <ele>-14.60000038147</ele>
        <time>2022-10-02T10:22:37.000Z</time>
      </trkpt>
      <trkpt lat="47.25798" lon="-2.32442">
        <ele>-14.60000038147</ele>
        <time>2022-10-02T10:22:38.000Z</time>
      </trkpt>
      <trkpt lat="47.25802" lon="-2.32448">
        <ele>-14.60000038147</ele>
        <time>2022-10-02T10:22:39.000Z</time>
      </trkpt>
      <trkpt lat="47.25817" lon="-2.32459">
        <ele>-14.60000038147</ele>
        <time>2022-10-02T10:22:42.000Z</time>
      </trkpt>
      <trkpt lat="47.25854" lon="-2.32475">
        <ele>-14.60000038147</ele>
        <time>2022-10-02T10:22:49.000Z</time>
      </trkpt>
      <trkpt lat="47.25884" lon="-2.32472">
        <ele>-14.60000038147</ele>
        <time>2022-10-02T10:22:55.000Z</time>
      </trkpt>
      <trkpt lat="47.2589" lon="-2.3247">
        <ele>-14.60000038147</ele>
        <time>2022-10-02T10:22:56.000Z</time>
      </trkpt>
      <trkpt lat="47.25903" lon="-2.32457">
        <ele>-14.60000038147</ele>
        <time>2022-10-02T10:22:59.000Z</time>
      </trkpt>
      <trkpt lat="47.25907" lon="-2.32452">
        <ele>-14.60000038147</ele>
        <time>2022-10-02T10:23:00.000Z</time>
      </trkpt>
      <trkpt lat="47.25933" lon="-2.3242">
        <ele>-14.60000038147</ele>
        <time>2022-10-02T10:23:06.000Z</time>
      </trkpt>
      <trkpt lat="47.25964" lon="-2.32378">
        <ele>-14.60000038147</ele>
        <time>2022-10-02T10:23:14.000Z</time>
      </trkpt>
      <trkpt lat="47.25971" lon="-2.32367">
        <ele>-15</ele>
        <time>2022-10-02T10:23:16.000Z</time>
      </trkpt>
      <trkpt lat="47.25975" lon="-2.32362">
        <ele>-15.39999961853</ele>
        <time>2022-10-02T10:23:17.000Z</time>
      </trkpt>
      <trkpt lat="47.25979" lon="-2.32357">
        <ele>-15.800000190735</ele>
        <time>2022-10-02T10:23:18.000Z</time>
      </trkpt>
      <trkpt lat="47.25983" lon="-2.32353">
        <ele>-16.200000762939</ele>
        <time>2022-10-02T10:23:19.000Z</time>
      </trkpt>
      <trkpt lat="47.25987" lon="-2.32347">
        <ele>-16.60000038147</ele>
        <time>2022-10-02T10:23:20.000Z</time>
      </trkpt>
      <trkpt lat="47.25999" lon="-2.32332">
        <ele>-16.60000038147</ele>
        <time>2022-10-02T10:23:23.000Z</time>
      </trkpt>
      <trkpt lat="47.26016" lon="-2.32309">
        <ele>-16.60000038147</ele>
        <time>2022-10-02T10:23:28.000Z</time>
      </trkpt>
      <trkpt lat="47.26029" lon="-2.32294">
        <ele>-16.60000038147</ele>
        <time>2022-10-02T10:23:31.000Z</time>
      </trkpt>
      <trkpt lat="47.26036" lon="-2.32286">
        <ele>-16.60000038147</ele>
        <time>2022-10-02T10:23:33.000Z</time>
      </trkpt>
      <trkpt lat="47.26058" lon="-2.3226">
        <ele>-16.60000038147</ele>
        <time>2022-10-02T10:23:39.000Z</time>
      </trkpt>
      <trkpt lat="47.26065" lon="-2.32252">
        <ele>-16.60000038147</ele>
        <time>2022-10-02T10:23:41.000Z</time>
      </trkpt>
      <trkpt lat="47.26074" lon="-2.32239">
        <ele>-16.60000038147</ele>
        <time>2022-10-02T10:23:44.000Z</time>
      </trkpt>
      <trkpt lat="47.2608" lon="-2.3223">
        <ele>-16.60000038147</ele>
        <time>2022-10-02T10:23:46.000Z</time>
      </trkpt>
      <trkpt lat="47.26087" lon="-2.3222">
        <ele>-16.60000038147</ele>
        <time>2022-10-02T10:23:48.000Z</time>
      </trkpt>
      <trkpt lat="47.26096" lon="-2.32203">
        <ele>-16.60000038147</ele>
        <time>2022-10-02T10:23:51.000Z</time>
      </trkpt>
      <trkpt lat="47.26113" lon="-2.32168">
        <ele>-16.60000038147</ele>
        <time>2022-10-02T10:23:57.000Z</time>
      </trkpt>
      <trkpt lat="47.26115" lon="-2.32161">
        <ele>-16.60000038147</ele>
        <time>2022-10-02T10:23:58.000Z</time>
      </trkpt>
      <trkpt lat="47.26129" lon="-2.32121">
        <ele>-16.60000038147</ele>
        <time>2022-10-02T10:24:04.000Z</time>
      </trkpt>
      <trkpt lat="47.2614" lon="-2.32083">
        <ele>-16.60000038147</ele>
        <time>2022-10-02T10:24:10.000Z</time>
      </trkpt>
      <trkpt lat="47.26156" lon="-2.32035">
        <ele>-16.60000038147</ele>
        <time>2022-10-02T10:24:18.000Z</time>
      </trkpt>
      <trkpt lat="47.26167" lon="-2.32021">
        <ele>-16.60000038147</ele>
        <time>2022-10-02T10:24:22.000Z</time>
      </trkpt>
      <trkpt lat="47.26181" lon="-2.32021">
        <ele>-16.60000038147</ele>
        <time>2022-10-02T10:24:26.000Z</time>
      </trkpt>
      <trkpt lat="47.26189" lon="-2.32023">
        <ele>-16.60000038147</ele>
        <time>2022-10-02T10:24:30.000Z</time>
      </trkpt>
      <trkpt lat="47.26196" lon="-2.3202">
        <ele>-16.60000038147</ele>
        <time>2022-10-02T10:24:35.000Z</time>
      </trkpt>
      <trkpt lat="47.26196" lon="-2.32017">
        <ele>-16.60000038147</ele>
        <time>2022-10-02T10:24:36.000Z</time>
      </trkpt>
      <trkpt lat="47.26204" lon="-2.32001">
        <ele>-16.60000038147</ele>
        <time>2022-10-02T10:24:42.000Z</time>
      </trkpt>
      <trkpt lat="47.26213" lon="-2.3199">
        <ele>-16.60000038147</ele>
        <time>2022-10-02T10:24:46.000Z</time>
      </trkpt>
      <trkpt lat="47.26216" lon="-2.31987">
        <ele>-16.60000038147</ele>
        <time>2022-10-02T10:24:47.000Z</time>
      </trkpt>
      <trkpt lat="47.26229" lon="-2.31973">
        <ele>-16.60000038147</ele>
        <time>2022-10-02T10:24:52.000Z</time>
      </trkpt>
      <trkpt lat="47.26246" lon="-2.31955">
        <ele>-16.60000038147</ele>
        <time>2022-10-02T10:24:58.000Z</time>
      </trkpt>
      <trkpt lat="47.26255" lon="-2.31934">
        <ele>-16.60000038147</ele>
        <time>2022-10-02T10:25:04.000Z</time>
      </trkpt>
      <trkpt lat="47.2627" lon="-2.31915">
        <ele>-16.60000038147</ele>
        <time>2022-10-02T10:25:09.000Z</time>
      </trkpt>
      <trkpt lat="47.2629" lon="-2.31894">
        <ele>-16.60000038147</ele>
        <time>2022-10-02T10:25:15.000Z</time>
      </trkpt>
      <trkpt lat="47.26296" lon="-2.31879">
        <ele>-16.60000038147</ele>
        <time>2022-10-02T10:25:19.000Z</time>
      </trkpt>
      <trkpt lat="47.263" lon="-2.31847">
        <ele>-16.60000038147</ele>
        <time>2022-10-02T10:25:24.000Z</time>
      </trkpt>
      <trkpt lat="47.26302" lon="-2.31827">
        <ele>-16.60000038147</ele>
        <time>2022-10-02T10:25:28.000Z</time>
      </trkpt>
      <trkpt lat="47.26304" lon="-2.31794">
        <ele>-16.60000038147</ele>
        <time>2022-10-02T10:25:34.000Z</time>
      </trkpt>
      <trkpt lat="47.26302" lon="-2.31767">
        <ele>-16.60000038147</ele>
        <time>2022-10-02T10:25:39.000Z</time>
      </trkpt>
      <trkpt lat="47.263" lon="-2.3173">
        <ele>-16.60000038147</ele>
        <time>2022-10-02T10:25:45.000Z</time>
      </trkpt>
      <trkpt lat="47.26303" lon="-2.31719">
        <ele>-16.60000038147</ele>
        <time>2022-10-02T10:25:47.000Z</time>
      </trkpt>
      <trkpt lat="47.26306" lon="-2.31716">
        <ele>-16.60000038147</ele>
        <time>2022-10-02T10:25:48.000Z</time>
      </trkpt>
      <trkpt lat="47.26319" lon="-2.31708">
        <ele>-16.60000038147</ele>
        <time>2022-10-02T10:25:52.000Z</time>
      </trkpt>
      <trkpt lat="47.26325" lon="-2.31705">
        <ele>-16.200000762939</ele>
        <time>2022-10-02T10:25:54.000Z</time>
      </trkpt>
      <trkpt lat="47.26328" lon="-2.31703">
        <ele>-15.800000190735</ele>
        <time>2022-10-02T10:25:55.000Z</time>
      </trkpt>
      <trkpt lat="47.2633" lon="-2.317">
        <ele>-15.39999961853</ele>
        <time>2022-10-02T10:25:56.000Z</time>
      </trkpt>
      <trkpt lat="47.26332" lon="-2.31697">
        <ele>-15</ele>
        <time>2022-10-02T10:25:57.000Z</time>
      </trkpt>
      <trkpt lat="47.26333" lon="-2.31693">
        <ele>-14.60000038147</ele>
        <time>2022-10-02T10:25:58.000Z</time>
      </trkpt>
      <trkpt lat="47.26335" lon="-2.3169">
        <ele>-14.60000038147</ele>
        <time>2022-10-02T10:25:59.000Z</time>
      </trkpt>
      <trkpt lat="47.2634" lon="-2.31687">
        <ele>-14.60000038147</ele>
        <time>2022-10-02T10:26:01.000Z</time>
      </trkpt>
      <trkpt lat="47.26351" lon="-2.31682">
        <ele>-14.199999809265</ele>
        <time>2022-10-02T10:26:05.000Z</time>
      </trkpt>
      <trkpt lat="47.26353" lon="-2.3168">
        <ele>-13.800000190735</ele>
        <time>2022-10-02T10:26:06.000Z</time>
      </trkpt>
      <trkpt lat="47.26356" lon="-2.31679">
        <ele>-13</ele>
        <time>2022-10-02T10:26:07.000Z</time>
      </trkpt>
      <trkpt lat="47.26358" lon="-2.31678">
        <ele>-12.60000038147</ele>
        <time>2022-10-02T10:26:08.000Z</time>
      </trkpt>
      <trkpt lat="47.26369" lon="-2.31672">
        <ele>-12.60000038147</ele>
        <time>2022-10-02T10:26:12.000Z</time>
      </trkpt>
      <trkpt lat="47.26382" lon="-2.31666">
        <ele>-12.60000038147</ele>
        <time>2022-10-02T10:26:17.000Z</time>
      </trkpt>
      <trkpt lat="47.26398" lon="-2.31658">
        <ele>-12.60000038147</ele>
        <time>2022-10-02T10:26:23.000Z</time>
      </trkpt>
      <trkpt lat="47.2641" lon="-2.31646">
        <ele>-12.60000038147</ele>
        <time>2022-10-02T10:26:28.000Z</time>
      </trkpt>
      <trkpt lat="47.2641" lon="-2.31631">
        <ele>-12.60000038147</ele>
        <time>2022-10-02T10:26:32.000Z</time>
      </trkpt>
      <trkpt lat="47.2641" lon="-2.316">
        <ele>-12.60000038147</ele>
        <time>2022-10-02T10:26:39.000Z</time>
      </trkpt>
      <trkpt lat="47.2641" lon="-2.31596">
        <ele>-12.199999809265</ele>
        <time>2022-10-02T10:26:40.000Z</time>
      </trkpt>
      <trkpt lat="47.2641" lon="-2.31591">
        <ele>-11.800000190735</ele>
        <time>2022-10-02T10:26:41.000Z</time>
      </trkpt>
      <trkpt lat="47.2641" lon="-2.31587">
        <ele>-11.39999961853</ele>
        <time>2022-10-02T10:26:42.000Z</time>
      </trkpt>
      <trkpt lat="47.2641" lon="-2.31583">
        <ele>-11</ele>
        <time>2022-10-02T10:26:43.000Z</time>
      </trkpt>
      <trkpt lat="47.26411" lon="-2.31578">
        <ele>-10.60000038147</ele>
        <time>2022-10-02T10:26:44.000Z</time>
      </trkpt>
      <trkpt lat="47.2641" lon="-2.31574">
        <ele>-10.60000038147</ele>
        <time>2022-10-02T10:26:45.000Z</time>
      </trkpt>
      <trkpt lat="47.26411" lon="-2.31555">
        <ele>-10.60000038147</ele>
        <time>2022-10-02T10:26:50.000Z</time>
      </trkpt>
      <trkpt lat="47.26413" lon="-2.31553">
        <ele>-10.60000038147</ele>
        <time>2022-10-02T10:26:51.000Z</time>
      </trkpt>
      <trkpt lat="47.26418" lon="-2.31553">
        <ele>-10.60000038147</ele>
        <time>2022-10-02T10:26:54.000Z</time>
      </trkpt>
      <trkpt lat="47.26418" lon="-2.31553">
        <ele>-10.60000038147</ele>
        <time>2022-10-02T10:26:55.000Z</time>
      </trkpt>
    </trkseg>
  </trk>
</gpx>